# Wetter Temperatur Luftdruck Luftfeuchtigkeit Sichtweite Windgeschwindigkeit Windrichtung Zeit
1 Clouds 20 1022 42 10000 2.6 290 21:38 02.04.2020
2 Clear 20 1022 42 10000 2.6 290 21:19 02.04.2020
3 Clear 19 1021 27 0 1.3 233 20:55 02.04.2020
4 Clear 19 1021 27 0 1.3 233 20:37 02.04.2020
5 Clear 16 1025 55 10000 2.6 320 20:18 02.04.2020
6 Clear 16 1025 55 10000 2.6 320 19:42 02.04.2020
7 Clear 16 1025 55 10000 2.6 320 19:20 02.04.2020
8 Clear 14 1026 58 10000 1 0 18:56 02.04.2020
9 Clear 14 1026 58 10000 1 0 18:38 02.04.2020
10 Clear 14 1026 58 10000 1 0 18:19 02.04.2020
11 Clear 11 1027 66 10000 0.49 251 17:43 02.04.2020
12 Clear 11 1027 66 10000 0.49 251 17:24 02.04.2020
13 Clear 8 1028 81 10000 1.5 0 16:58 02.04.2020
14 Clear 8 1028 81 10000 1.5 0 16:40 02.04.2020
15 Clear 8 1028 81 10000 1.5 0 16:22 02.04.2020
16 Fog 5 1029 100 10000 0.49 251 15:57 02.04.2020
17 Fog 5 1029 100 10000 0.49 251 15:39 02.04.2020
18 Fog 5 1029 100 10000 1.15 279 15:19 02.04.2020
19 Fog 3 1029 100 500 1.5 80 14:57 02.04.2020
20 Fog 3 1029 100 500 1.5 80 14:38 02.04.2020
21 Fog 3 1029 100 500 1.5 80 14:18 02.04.2020
22 Clear 3 1029 100 10000 1.5 130 13:54 02.04.2020
23 Clear 3 1029 100 10000 1.5 130 13:54 02.04.2020
24 Clear 3 1029 100 10000 1.5 130 13:36 02.04.2020
25 Clear 3 1029 100 10000 1.5 130 13:18 02.04.2020
26 Fog 3 1029 100 400 1.1 281 12:44 02.04.2020
27 Fog 3 1029 100 400 1.36 281 12:19 02.04.2020
28 Clear 4 1029 93 10000 2.1 300 11:57 02.04.2020
29 Clear 4 1029 93 10000 2.1 300 11:39 02.04.2020
30 Clear 4 1029 93 10000 2.1 300 11:20 02.04.2020
31 Clear 4 1029 100 10000 2.1 280 10:56 02.04.2020
32 Clear 4 1029 100 10000 2.1 280 10:38 02.04.2020
33 Clear 4 1029 100 10000 2.1 280 10:19 02.04.2020
34 Clear 4 1029 100 10000 1.5 310 09:58 02.04.2020
35 Clear 4 1029 100 10000 1.5 310 09:58 02.04.2020
36 Clear 4 1029 100 10000 1.5 310 09:39 02.04.2020
37 Clear 4 1029 100 10000 1.5 310 09:19 02.04.2020
38 Clear 4 1029 100 10000 1.5 290 08:47 02.04.2020
39 Clear 4 1029 100 10000 1.5 290 08:27 02.04.2020
40 Clear 6 1029 87 10000 1 0 07:45 02.04.2020
41 Clear 6 1029 87 10000 1 0 07:21 02.04.2020
42 Clear 6 1029 87 10000 1.5 290 06:59 02.04.2020
43 Clear 6 1029 87 10000 1.5 290 06:22 02.04.2020
44 Clear 7 1029 87 10000 2.1 290 05:45 02.04.2020
45 Clear 9 1030 81 10000 2.6 290 04:46 02.04.2020
46 Clear 11 1028 71 10000 2.1 320 01:54 02.04.2020
47 Clear 14 1027 58 10000 3.1 320 00:51 02.04.2020
48 Clear 14 1027 58 10000 3.1 320 00:29 02.04.2020
49 Clear 17 1027 42 10000 4.1 320 23:57 01.04.2020
50 Clear 17 1027 42 10000 4.1 320 23:37 01.04.2020
51 Clear 17 1027 42 10000 4.1 320 23:18 01.04.2020
52 Clear 18 1026 39 10000 4.1 0 22:41 01.04.2020
53 Clear 18 1026 39 10000 4.1 0 22:22 01.04.2020
54 Clear 17 1026 42 10000 2.6 0 21:57 01.04.2020
55 Clear 17 1026 42 10000 2.6 0 21:39 01.04.2020
56 Clear 17 1026 42 10000 2.6 0 21:18 01.04.2020
57 Clear 17 1026 48 10000 3.6 300 20:55 01.04.2020
58 Clear 17 1026 48 10000 3.6 300 20:55 01.04.2020
59 Clear 17 1026 48 10000 3.6 300 20:37 01.04.2020
60 Clear 17 1026 48 10000 3.6 300 20:18 01.04.2020
61 Clouds 17 1027 45 10000 3.1 310 19:43 01.04.2020
62 Clouds 17 1027 45 10000 3.1 310 19:22 01.04.2020
63 Clouds 14 1027 54 10000 2.1 330 18:59 01.04.2020
64 Clouds 14 1027 54 10000 2.1 330 18:40 01.04.2020
65 Clouds 14 1027 54 10000 2.1 330 18:21 01.04.2020
66 Clear 13 1027 58 10000 2.6 300 17:55 01.04.2020
67 Clear 13 1027 58 10000 2.6 300 17:36 01.04.2020
68 Clear 13 1027 58 10000 2.6 300 17:18 01.04.2020
69 Clouds 10 1027 71 10000 2.6 290 16:42 01.04.2020
70 Clouds 10 1027 71 10000 2.6 290 16:42 01.04.2020
71 Clouds 10 1027 71 10000 2.6 290 16:24 01.04.2020
72 Clouds 9 1027 70 10000 2.1 280 15:58 01.04.2020
73 Clouds 9 1027 70 10000 2.1 280 15:40 01.04.2020
74 Clouds 9 1027 70 10000 2.1 280 15:21 01.04.2020
75 Clouds 8 1026 75 10000 3.1 290 14:57 01.04.2020
76 Clouds 8 1026 75 10000 3.1 290 14:57 01.04.2020
77 Clouds 8 1026 75 10000 3.1 290 14:38 01.04.2020
78 Clouds 8 1026 75 10000 3.1 290 14:19 01.04.2020
79 Clouds 8 1026 75 10000 3.1 290 14:19 01.04.2020
80 Clouds 7 1025 81 10000 1.5 310 13:57 01.04.2020
81 Clouds 7 1025 81 10000 1.5 310 13:37 01.04.2020
82 Clouds 7 1025 81 10000 1.5 310 13:18 01.04.2020
83 Clouds 8 1024 75 10000 2.1 280 12:54 01.04.2020
84 Clouds 8 1024 75 10000 2.1 280 12:36 01.04.2020
85 Clouds 8 1024 75 10000 2.1 280 12:18 01.04.2020
86 Clouds 8 1024 75 10000 2.6 300 11:40 01.04.2020
87 Clouds 8 1024 75 10000 2.6 300 11:21 01.04.2020
88 Clouds 7 1024 75 10000 1.94 265 10:57 01.04.2020
89 Clouds 7 1024 75 10000 1.94 265 10:37 01.04.2020
90 Clouds 7 1024 75 10000 1.94 265 10:18 01.04.2020
91 Clouds 7 1024 75 10000 3.1 310 09:54 01.04.2020
92 Clouds 7 1024 75 10000 3.1 310 09:36 01.04.2020
93 Clouds 7 1024 75 10000 3.1 310 09:18 01.04.2020
94 Clouds 8 1023 70 10000 2.6 300 08:40 01.04.2020
95 Clouds 8 1023 70 10000 2.6 300 08:40 01.04.2020
96 Clouds 8 1023 70 10000 2.6 300 08:18 01.04.2020
97 Clouds 8 1023 65 10000 1 0 07:42 01.04.2020
98 Clouds 8 1023 65 10000 1 0 07:20 01.04.2020
99 Clouds 10 1023 53 10000 2.1 250 06:47 01.04.2020
100 Clouds 10 1023 53 10000 2.1 250 06:22 01.04.2020
101 Clouds 11 1022 50 10000 3.1 240 05:53 01.04.2020
102 Clouds 11 1022 53 10000 3.6 270 04:30 01.04.2020
103 Clouds 11 1021 57 10000 5.1 280 03:27 01.04.2020
104 Clear 12 1020 54 10000 5.1 270 02:46 01.04.2020
105 Clear 13 1019 50 10000 6.7 280 01:54 01.04.2020
106 Clear 13 1019 50 10000 6.7 280 01:29 01.04.2020
107 Clear 15 1018 44 10000 7.2 280 00:48 01.04.2020
108 Clear 15 1018 44 10000 7.2 280 00:25 01.04.2020
109 Clear 18 1017 42 10000 5.7 280 23:59 31.03.2020
110 Clear 18 1017 42 10000 5.7 280 23:41 31.03.2020
111 Clear 18 1017 42 10000 5.7 280 23:22 31.03.2020
112 Clear 18 1017 42 10000 5.7 280 23:22 31.03.2020
113 Clear 19 1016 39 10000 4.6 270 22:42 31.03.2020
114 Clear 19 1016 39 10000 4.6 270 22:22 31.03.2020
115 Clear 19 1016 39 10000 2.6 0 21:59 31.03.2020
116 Clear 19 1016 39 10000 2.6 0 21:40 31.03.2020
117 Clear 19 1016 39 10000 2.6 0 21:40 31.03.2020
118 Clear 19 1016 39 10000 2.6 0 21:21 31.03.2020
119 Clear 17 1017 51 10000 4.1 320 20:58 31.03.2020
120 Clear 17 1017 51 10000 4.1 320 20:38 31.03.2020
121 Clear 17 1017 51 10000 4.1 320 20:19 31.03.2020
122 Clear 15 1017 51 10000 3.6 330 19:57 31.03.2020
123 Clear 15 1017 51 10000 3.6 330 19:38 31.03.2020
124 Clear 15 1017 51 10000 3.6 330 19:19 31.03.2020
125 Clear 13 1018 58 10000 2.6 310 18:44 31.03.2020
126 Clear 13 1018 58 10000 2.6 310 18:21 31.03.2020
127 Clear 14 1017 30 0 0.87 240 17:57 31.03.2020
128 Clear 14 1017 30 0 0.87 240 17:57 31.03.2020
129 Clear 14 1017 30 0 0.87 240 17:39 31.03.2020
130 Clear 14 1017 30 0 0.87 240 17:39 31.03.2020
131 Clear 6 1020 87 10000 1 0 17:21 31.03.2020
132 Clear 6 1020 87 10000 1 0 16:56 31.03.2020
133 Clear 6 1020 87 10000 1 0 16:36 31.03.2020
134 Clear 6 1020 87 10000 1 0 16:18 31.03.2020
135 Clouds 3 1020 100 10000 0.5 0 15:55 31.03.2020
136 Clouds 3 1020 100 10000 0.5 0 15:36 31.03.2020
137 Clouds 3 1020 100 10000 0.5 0 15:18 31.03.2020
138 Fog 1 1020 100 800 1 0 14:42 31.03.2020
139 Fog 1 1020 100 800 1 0 14:22 31.03.2020
140 Fog 1 1020 100 450 1 0 13:58 31.03.2020
141 Fog 1 1020 100 450 1 0 13:40 31.03.2020
142 Fog 1 1020 100 450 1 0 13:19 31.03.2020
143 Fog 1 1020 100 450 1 0 13:19 31.03.2020
144 Mist 1 1020 100 2000 1.26 284 12:45 31.03.2020
145 Mist 1 1020 100 2000 1.26 284 12:20 31.03.2020
146 Fog 1 1020 100 400 1.1 273 11:56 31.03.2020
147 Fog 1 1020 100 400 1.1 273 11:37 31.03.2020
148 Fog 1 1020 100 400 1.1 273 11:19 31.03.2020
149 Fog 2 1020 93 600 1.1 273 10:55 31.03.2020
150 Fog 2 1020 93 600 1.1 273 10:37 31.03.2020
151 Fog 2 1020 93 600 1.1 273 10:18 31.03.2020
152 Fog 2 1020 93 600 1.1 273 10:18 31.03.2020
153 Mist 2 1021 100 3000 1.1 273 09:43 31.03.2020
154 Mist 2 1021 100 3000 0.99 271 09:25 31.03.2020
155 Clear 2 1021 100 10000 0.5 0 08:58 31.03.2020
156 Clear 2 1021 100 10000 0.5 0 08:39 31.03.2020
157 Clear 2 1021 100 10000 0.5 0 08:20 31.03.2020
158 Clear 3 1022 100 10000 1.07 278 07:56 31.03.2020
159 Clear 3 1022 100 10000 1.07 278 07:38 31.03.2020
160 Clear 3 1022 100 10000 1.07 278 07:19 31.03.2020
161 Clear 4 1022 93 10000 1 0 06:47 31.03.2020
162 Clear 4 1022 93 10000 1 0 06:23 31.03.2020
163 Clear 5 1022 86 10000 1.15 264 05:39 31.03.2020
164 Clear 7 1022 81 10000 2.1 290 03:43 31.03.2020
165 Clear 7 1022 81 10000 0.73 274 02:19 31.03.2020
166 Clear 10 1022 71 10000 1 0 01:45 31.03.2020
167 Clear 15 1021 47 10000 2.1 300 00:49 31.03.2020
168 Clear 15 1021 47 10000 2.1 300 00:25 31.03.2020
169 Clear 17 1021 45 10000 2.1 340 23:57 30.03.2020
170 Clear 17 1021 45 10000 2.1 340 23:37 30.03.2020
171 Clear 17 1021 45 10000 2.1 340 23:18 30.03.2020
172 Clear 18 1022 34 10000 1 0 22:55 30.03.2020
173 Clear 18 1022 34 10000 1 0 22:36 30.03.2020
174 Clear 18 1022 34 10000 1 0 22:18 30.03.2020
175 Clear 17 1023 36 10000 1.5 300 21:54 30.03.2020
176 Clear 17 1023 36 10000 1.5 300 21:36 30.03.2020
177 Clear 17 1023 36 10000 1.5 300 21:36 30.03.2020
178 Clear 17 1023 36 10000 1.5 300 21:18 30.03.2020
179 Clear 16 1024 41 10000 2.1 310 20:40 30.03.2020
180 Clear 16 1024 41 10000 2.1 310 20:22 30.03.2020
181 Clear 14 1024 50 10000 2.6 150 19:58 30.03.2020
182 Clear 14 1024 50 10000 2.6 150 19:39 30.03.2020
183 Clear 14 1024 50 10000 2.6 150 19:21 30.03.2020
184 Clear 12 1025 62 10000 1 0 18:56 30.03.2020
185 Clear 12 1025 62 10000 1 0 18:36 30.03.2020
186 Clear 12 1025 62 10000 1 0 18:18 30.03.2020
187 Clear 9 1026 66 10000 1.5 0 17:55 30.03.2020
188 Clear 9 1026 66 10000 1.5 0 17:36 30.03.2020
189 Clear 9 1026 66 10000 1.5 0 17:18 30.03.2020
190 Clear 5 1027 93 10000 2.6 120 16:41 30.03.2020
191 Clear 5 1027 93 10000 2.6 120 16:21 30.03.2020
192 Clear 5 1027 93 10000 2.6 120 16:21 30.03.2020
193 Fog 2 1027 100 300 1.5 110 15:56 30.03.2020
194 Fog 2 1027 100 300 1.5 110 15:38 30.03.2020
195 Fog 2 1027 100 300 1.5 110 15:20 30.03.2020
196 Fog 1 1027 100 50 1 0 14:58 30.03.2020
197 Fog 1 1027 100 50 1 0 14:37 30.03.2020
198 Fog 1 1027 100 50 1 0 14:18 30.03.2020
199 Mist 1 1026 100 700 0.82 261 13:57 30.03.2020
200 Mist 1 1026 100 700 0.82 261 13:38 30.03.2020
201 Mist 1 1026 100 700 0.82 261 13:19 30.03.2020
202 Mist 1 1026 100 1300 0.5 0 12:44 30.03.2020
203 Mist 1 1026 100 1300 0.5 0 12:21 30.03.2020
204 Mist 1 1026 100 1300 0.5 0 12:21 30.03.2020
205 Clear 1 1026 100 10000 1 280 11:57 30.03.2020
206 Clear 1 1026 100 10000 1 280 11:39 30.03.2020
207 Clear 1 1026 100 10000 1 280 11:21 30.03.2020
208 Clear 2 1026 100 10000 1.5 280 10:41 30.03.2020
209 Clear 2 1026 100 10000 1.5 280 10:23 30.03.2020
210 Clear 2 1026 100 10000 1 310 09:59 30.03.2020
211 Clear 2 1026 100 10000 1 310 09:40 30.03.2020
212 Clear 2 1026 100 10000 1 310 09:19 30.03.2020
213 Clear 3 1026 93 10000 1.5 300 08:44 30.03.2020
214 Clear 3 1026 93 10000 1.5 300 08:23 30.03.2020
215 Clear 4 1026 93 10000 2.6 290 07:55 30.03.2020
216 Clear 4 1026 93 10000 2.6 290 07:37 30.03.2020
217 Clear 4 1026 93 10000 1.55 264 06:59 30.03.2020
218 Clear 4 1026 93 10000 1.55 264 06:33 30.03.2020
219 Clear 5 1026 93 10000 2.6 290 05:59 30.03.2020
220 Clear 5 1026 93 10000 2.6 290 05:34 30.03.2020
221 Clear 6 1025 87 10000 0.5 0 04:26 30.03.2020
222 Clear 8 1025 81 10000 2.1 300 03:44 30.03.2020
223 Clear 9 1024 76 10000 2.6 300 02:42 30.03.2020
224 Clear 11 1023 62 10000 2.6 290 01:48 30.03.2020
225 Clear 12 1023 58 10000 4.1 310 00:55 30.03.2020
226 Clear 12 1023 58 10000 4.1 310 00:24 30.03.2020
227 Clear 15 1022 44 10000 4.6 300 23:43 29.03.2020
228 Clear 15 1022 44 10000 4.6 300 23:24 29.03.2020
229 Clear 15 1021 44 10000 4.1 0 22:59 29.03.2020
230 Clear 15 1021 44 10000 4.1 0 22:39 29.03.2020
231 Clear 15 1021 44 10000 4.1 0 22:19 29.03.2020
232 Clear 14 1021 44 10000 2.1 330 21:57 29.03.2020
233 Clear 14 1021 44 10000 2.1 330 21:36 29.03.2020
234 Clear 14 1021 44 10000 2.1 330 21:36 29.03.2020
235 Clear 14 1021 44 10000 2.1 330 21:18 29.03.2020
236 Clear 15 1021 47 10000 3.1 0 20:55 29.03.2020
237 Clear 15 1021 47 10000 3.1 0 20:36 29.03.2020
238 Clear 15 1021 47 10000 3.1 0 20:18 29.03.2020
239 Clear 15 1021 47 10000 3.1 0 20:18 29.03.2020
240 Clear 14 1022 47 10000 3.1 0 19:42 29.03.2020
241 Clear 14 1022 47 10000 3.1 0 19:42 29.03.2020
242 Clear 14 1022 47 10000 3.1 0 19:24 29.03.2020
243 Clear 13 1022 58 10000 2.6 340 18:58 29.03.2020
244 Clear 13 1022 58 10000 2.6 340 18:40 29.03.2020
245 Clear 13 1022 58 10000 2.6 340 18:20 29.03.2020
246 Clear 13 1022 58 10000 2.6 340 18:20 29.03.2020
247 Clear 10 1023 76 10000 2.1 300 17:58 29.03.2020
248 Clear 10 1023 76 10000 2.1 300 17:40 29.03.2020
249 Clear 10 1023 76 10000 2.1 300 17:20 29.03.2020
250 Clear 8 1023 81 10000 1 0 16:58 29.03.2020
251 Clear 8 1023 81 10000 1 0 16:39 29.03.2020
252 Clear 8 1023 81 10000 1 0 16:39 29.03.2020
253 Clear 8 1023 81 10000 1 0 16:20 29.03.2020
254 Clear 5 1023 93 10000 1.5 90 15:43 29.03.2020
255 Clear 5 1023 93 10000 1.5 90 15:25 29.03.2020
256 Clear 5 1023 93 10000 1 0 14:59 29.03.2020
257 Clear 5 1023 93 10000 1 0 14:40 29.03.2020
258 Clear 5 1023 93 10000 1 0 14:21 29.03.2020
259 Clear 5 1022 93 10000 1 0 13:59 29.03.2020
260 Clear 5 1022 93 10000 1 0 13:41 29.03.2020
261 Clear 5 1022 93 10000 1 0 13:21 29.03.2020
262 Clear 5 1021 100 10000 1 0 12:57 29.03.2020
263 Clear 5 1021 100 10000 1 0 12:38 29.03.2020
264 Clear 5 1021 100 10000 1 0 12:19 29.03.2020
265 Rain 5 1021 100 10000 0.5 0 11:55 29.03.2020
266 Rain 5 1021 100 10000 0.5 0 11:37 29.03.2020
267 Rain 5 1021 100 10000 0.5 0 11:19 29.03.2020
268 Clear 5 1021 100 10000 1 0 10:38 29.03.2020
269 Clear 5 1021 100 10000 1 0 10:19 29.03.2020
270 Clear 5 1021 100 10000 1.5 0 09:41 29.03.2020
271 Clear 5 1021 100 10000 1.5 0 09:23 29.03.2020
272 Clear 5 1021 93 10000 0.5 0 08:57 29.03.2020
273 Clear 5 1021 93 10000 0.5 0 08:39 29.03.2020
274 Clear 5 1021 93 10000 0.5 0 08:20 29.03.2020
275 Clear 6 1021 87 10000 0.5 0 07:44 29.03.2020
276 Clear 6 1021 87 10000 0.5 0 07:21 29.03.2020
277 Clear 9 1020 76 10000 1.5 280 05:58 29.03.2020
278 Clear 9 1020 76 10000 1.5 300 04:55 29.03.2020
279 Clear 10 1019 71 10000 1 0 03:33 29.03.2020
280 Clear 11 1019 66 10000 1 0 01:52 29.03.2020
281 Clear 11 1019 66 10000 1 0 01:24 29.03.2020
282 Clear 12 1018 62 10000 4.1 270 00:58 29.03.2020
283 Clear 12 1018 62 10000 4.1 270 00:33 29.03.2020
284 Clear 12 1017 62 10000 4.6 260 23:57 28.03.2020
285 Clear 12 1017 62 10000 4.6 260 23:39 28.03.2020
286 Clear 12 1017 62 10000 4.6 260 23:20 28.03.2020
287 Rain 12 1017 62 10000 8.2 300 22:41 28.03.2020
288 Rain 12 1017 62 10000 8.2 300 22:22 28.03.2020
289 Clouds 15 1015 44 10000 5.7 280 21:56 28.03.2020
290 Clouds 15 1015 44 10000 5.7 280 21:38 28.03.2020
291 Clouds 15 1015 44 10000 5.7 280 21:19 28.03.2020
292 Clouds 16 1015 41 10000 6.2 290 20:42 28.03.2020
293 Clouds 16 1015 41 10000 6.2 290 20:24 28.03.2020
294 Rain 15 1016 51 10000 3.1 0 19:58 28.03.2020
295 Rain 15 1016 51 10000 3.1 0 19:39 28.03.2020
296 Rain 15 1016 51 10000 3.1 0 19:21 28.03.2020
297 Rain 12 1016 66 10000 2.1 0 18:59 28.03.2020
298 Rain 12 1016 66 10000 2.1 0 18:39 28.03.2020
299 Rain 12 1016 66 10000 2.1 0 18:20 28.03.2020
300 Rain 12 1016 66 10000 3.6 300 17:39 28.03.2020
301 Rain 12 1016 66 10000 3.6 300 17:39 28.03.2020
302 Rain 12 1016 66 10000 3.6 300 17:21 28.03.2020
303 Clouds 11 1016 76 10000 3.1 280 16:55 28.03.2020
304 Clouds 11 1016 76 10000 3.1 280 16:37 28.03.2020
305 Clouds 11 1016 76 10000 3.1 280 16:37 28.03.2020
306 Clouds 11 1016 76 10000 3.1 280 16:18 28.03.2020
307 Clouds 10 1015 81 10000 3.1 290 15:39 28.03.2020
308 Clouds 10 1015 81 10000 3.1 290 15:19 28.03.2020
309 Clouds 8 1015 93 10000 2.6 280 14:56 28.03.2020
310 Clouds 8 1015 93 10000 2.6 280 14:38 28.03.2020
311 Clouds 8 1015 93 10000 2.6 280 14:20 28.03.2020
312 Clouds 8 1014 87 10000 1.5 260 13:40 28.03.2020
313 Clouds 8 1014 87 10000 1.5 260 13:21 28.03.2020
314 Clouds 7 1014 93 10000 2.1 270 12:40 28.03.2020
315 Clouds 7 1014 93 10000 2.1 270 12:22 28.03.2020
316 Clouds 7 1013 93 10000 2.1 310 11:43 28.03.2020
317 Clouds 7 1013 93 10000 2.1 310 11:23 28.03.2020
318 Clouds 7 1013 93 10000 1 0 10:57 28.03.2020
319 Clouds 7 1013 93 10000 1 0 10:38 28.03.2020
320 Clouds 7 1013 93 10000 1 0 10:18 28.03.2020
321 Clouds 7 1013 93 10000 2.1 280 09:42 28.03.2020
322 Clouds 7 1013 93 10000 2.1 280 09:23 28.03.2020
323 Clouds 7 1013 93 10000 2.1 300 08:47 28.03.2020
324 Clouds 7 1013 93 10000 2.1 300 08:28 28.03.2020
325 Rain 6 1013 93 10000 1 0 07:59 28.03.2020
326 Rain 6 1013 93 10000 1 0 07:41 28.03.2020
327 Rain 7 1013 93 10000 1 0 06:56 28.03.2020
328 Rain 7 1013 93 10000 1 0 06:33 28.03.2020
329 Rain 7 1013 93 10000 1 0 05:41 28.03.2020
330 Rain 7 1013 93 10000 1 0 05:19 28.03.2020
331 Rain 8 1013 93 10000 2.6 270 04:40 28.03.2020
332 Rain 13 1012 62 10000 3.1 0 02:55 28.03.2020
333 Rain 13 1011 71 10000 5.1 270 01:48 28.03.2020
334 Rain 13 1011 71 10000 5.1 270 01:24 28.03.2020
335 Rain 14 1010 71 10000 3.1 0 00:54 28.03.2020
336 Rain 14 1010 71 10000 3.1 0 00:33 28.03.2020
337 Rain 14 1008 82 10000 2.6 290 23:45 27.03.2020
338 Rain 14 1008 82 10000 2.6 290 23:26 27.03.2020
339 Rain 14 1008 82 10000 2.6 290 23:26 27.03.2020
340 Rain 15 1007 77 10000 3.6 290 22:58 27.03.2020
341 Rain 15 1007 77 10000 3.6 290 22:39 27.03.2020
342 Rain 15 1007 77 10000 3.6 290 22:21 27.03.2020
343 Rain 16 1008 63 10000 4.6 260 21:59 27.03.2020
344 Rain 16 1008 63 10000 4.6 260 21:40 27.03.2020
345 Rain 16 1008 63 10000 4.6 260 21:22 27.03.2020
346 Rain 17 1008 55 10000 4.6 260 20:57 27.03.2020
347 Rain 17 1008 55 10000 4.6 260 20:39 27.03.2020
348 Rain 17 1008 55 10000 4.6 260 20:19 27.03.2020
349 Rain 17 1008 55 10000 3.6 0 19:55 27.03.2020
350 Rain 17 1008 55 10000 3.6 0 19:36 27.03.2020
351 Rain 17 1008 55 10000 3.6 0 19:18 27.03.2020
352 Rain 17 1009 55 10000 5.1 260 18:42 27.03.2020
353 Rain 17 1009 55 10000 5.1 260 18:23 27.03.2020
354 Clouds 17 1009 55 10000 5.1 270 17:54 27.03.2020
355 Clouds 17 1009 55 10000 5.1 270 17:36 27.03.2020
356 Clouds 17 1009 55 10000 5.1 270 17:18 27.03.2020
357 Rain 17 1009 51 10000 5.1 260 16:42 27.03.2020
358 Rain 17 1009 51 10000 5.1 260 16:23 27.03.2020
359 Clouds 17 1009 48 10000 5.1 280 15:43 27.03.2020
360 Clouds 16 1009 42 0 3.32 290 15:25 27.03.2020
361 Clouds 16 1009 42 0 3.32 290 14:48 27.03.2020
362 Clouds 16 1009 42 0 3.32 290 14:27 27.03.2020
363 Clouds 11 1010 65 0 2.02 295 13:58 27.03.2020
364 Clouds 11 1010 65 0 2.02 295 13:40 27.03.2020
365 Clouds 10 1010 66 0 1.95 286 13:21 27.03.2020
366 Clouds 10 1010 66 0 1.95 286 12:57 27.03.2020
367 Clouds 10 1010 66 0 1.95 286 12:39 27.03.2020
368 Clouds 10 1010 66 0 1.95 286 12:19 27.03.2020
369 Clouds 10 1010 66 0 1.95 286 11:41 27.03.2020
370 Clouds 10 1010 66 0 1.95 286 11:23 27.03.2020
371 Clouds 9 1009 71 0 1.67 279 10:55 27.03.2020
372 Clouds 9 1009 71 0 1.67 279 10:37 27.03.2020
373 Clouds 9 1009 71 0 1.67 279 10:19 27.03.2020
374 Clouds 9 1009 71 0 1.67 279 09:57 27.03.2020
375 Clouds 9 1009 71 0 1.67 279 09:37 27.03.2020
376 Clouds 9 1009 71 0 1.67 279 09:18 27.03.2020
377 Clouds 9 1009 71 0 1.67 279 08:56 27.03.2020
378 Clouds 9 1009 71 0 1.67 279 08:38 27.03.2020
379 Clear 10 1009 67 0 1.87 276 08:20 27.03.2020
380 Clear 10 1009 67 0 1.87 276 07:50 27.03.2020
381 Clear 10 1009 67 0 1.87 276 07:24 27.03.2020
382 Clear 10 1009 67 0 1.87 276 06:53 27.03.2020
383 Clear 10 1009 67 0 1.87 276 06:35 27.03.2020
384 Clear 12 1009 62 0 2.46 277 04:24 27.03.2020
385 Clear 12 1009 62 0 2.46 277 02:32 27.03.2020
386 Clear 15 1009 53 0 2.8 271 01:23 27.03.2020
387 Clear 15 1009 52 0 2.53 270 00:48 27.03.2020
388 Clear 15 1009 52 0 2.53 270 00:23 27.03.2020
389 Clear 15 1009 52 0 2.53 270 23:43 26.03.2020
390 Clear 15 1009 52 0 2.53 270 23:21 26.03.2020
391 Clear 22 1007 25 0 4.07 274 22:58 26.03.2020
392 Clear 22 1007 25 0 4.07 274 22:37 26.03.2020
393 Clear 22 1007 25 0 4.07 274 22:19 26.03.2020
394 Clear 22 1007 25 0 4.07 274 21:55 26.03.2020
395 Clear 22 1007 25 0 4.07 274 21:37 26.03.2020
396 Clear 22 1007 25 0 4.07 274 21:18 26.03.2020
397 Clear 22 1007 25 0 4.07 274 20:41 26.03.2020
398 Clear 22 1007 25 0 4.07 274 20:23 26.03.2020
399 Clear 23 1009 23 0 2.49 260 19:58 26.03.2020
400 Clear 23 1009 23 0 2.49 260 19:40 26.03.2020
401 Clear 23 1009 23 0 2.49 260 19:22 26.03.2020
402 Clear 23 1009 23 0 2.49 260 18:59 26.03.2020
403 Clear 23 1009 23 0 2.49 260 18:41 26.03.2020
404 Clear 23 1009 23 0 2.49 260 18:23 26.03.2020
405 Clear 23 1009 23 0 2.49 260 17:45 26.03.2020
406 Clear 23 1009 23 0 2.49 260 17:21 26.03.2020
407 Clear 19 1012 32 0 0.81 251 16:59 26.03.2020
408 Clear 19 1012 32 0 0.81 251 16:39 26.03.2020
409 Clear 19 1012 32 0 0.81 251 16:21 26.03.2020
410 Clear 19 1012 32 0 0.81 251 15:56 26.03.2020
411 Clear 19 1012 32 0 0.81 251 15:38 26.03.2020
412 Clear 19 1012 32 0 0.81 251 15:19 26.03.2020
413 Clear 19 1012 32 0 0.81 251 14:43 26.03.2020
414 Clear 19 1012 32 0 0.81 251 14:25 26.03.2020
415 Clear 19 1012 32 0 0.81 251 14:25 26.03.2020
416 Clear 11 1014 53 0 1.34 274 13:58 26.03.2020
417 Clear 11 1014 53 0 1.34 274 13:40 26.03.2020
418 Clear 11 1014 53 0 1.27 278 13:21 26.03.2020
419 Clear 11 1014 53 0 1.27 278 12:39 26.03.2020
420 Clear 11 1014 53 0 1.27 278 12:21 26.03.2020
421 Clear 11 1014 53 0 1.27 278 11:55 26.03.2020
422 Clear 11 1014 53 0 1.27 278 11:37 26.03.2020
423 Clear 9 1014 61 0 1.32 286 11:18 26.03.2020
424 Clear 9 1014 61 0 1.32 286 10:42 26.03.2020
425 Clear 9 1014 61 0 1.32 286 10:20 26.03.2020
426 Clear 9 1014 61 0 1.32 286 10:20 26.03.2020
427 Clear 9 1014 61 0 1.32 286 09:46 26.03.2020
428 Clear 9 1014 61 0 1.32 286 09:24 26.03.2020
429 Clear 9 1014 61 0 1.32 286 08:58 26.03.2020
430 Clear 9 1014 61 0 1.32 286 08:39 26.03.2020
431 Clear 9 1014 61 0 1.32 286 08:20 26.03.2020
432 Clear 11 1016 63 0 1.43 285 07:46 26.03.2020
433 Clear 11 1016 63 0 1.43 285 07:24 26.03.2020
434 Clear 11 1016 63 0 1.43 285 06:59 26.03.2020
435 Clear 11 1016 63 0 1.43 285 06:32 26.03.2020
436 Clear 11 1016 63 0 1.43 285 05:29 26.03.2020
437 Clear 13 1018 62 0 1.82 287 03:45 26.03.2020
438 Clear 13 1018 62 0 1.82 287 02:57 26.03.2020
439 Clear 15 1018 53 0 1.92 274 01:51 26.03.2020
440 Clear 15 1018 53 0 1.92 274 01:18 26.03.2020
441 Clear 15 1018 53 0 1.98 276 00:23 26.03.2020
442 Clear 15 1018 53 0 1.98 276 23:42 25.03.2020
443 Clear 15 1018 53 0 1.98 276 23:22 25.03.2020
444 Clear 22 1017 31 0 2.55 245 22:42 25.03.2020
445 Clear 22 1017 31 0 2.55 245 22:22 25.03.2020
446 Clear 22 1017 31 0 2.55 245 21:57 25.03.2020
447 Clear 22 1017 31 0 2.55 245 21:38 25.03.2020
448 Clear 22 1017 31 0 2.55 245 21:20 25.03.2020
449 Clear 22 1017 31 0 2.55 245 20:56 25.03.2020
450 Clear 22 1017 31 0 2.55 245 20:37 25.03.2020
451 Clear 22 1019 29 0 0.83 258 20:18 25.03.2020
452 Clear 22 1019 29 0 0.83 258 20:18 25.03.2020
453 Clear 22 1018 28 0 0.86 249 19:43 25.03.2020
454 Clear 22 1018 28 0 0.86 249 19:23 25.03.2020
455 Clear 22 1018 28 0 0.86 249 18:59 25.03.2020
456 Clear 22 1018 28 0 0.66 244 18:40 25.03.2020
457 Clear 22 1018 28 0 0.86 249 18:22 25.03.2020
458 Clear 22 1018 28 0 0.86 249 17:56 25.03.2020
459 Clear 22 1018 28 0 0.86 249 17:38 25.03.2020
460 Clear 22 1018 28 0 0.86 249 17:38 25.03.2020
461 Clear 16 1021 39 0 0.36 77 17:20 25.03.2020
462 Clear 16 1021 39 0 0.51 73 16:44 25.03.2020
463 Clear 16 1021 39 0 0.36 77 16:26 25.03.2020
464 Clear 16 1021 39 0 0.36 77 15:59 25.03.2020
465 Clear 16 1021 39 0 0.36 77 15:41 25.03.2020
466 Clear 16 1021 39 0 0.36 77 15:41 25.03.2020
467 Clear 16 1021 39 0 0.36 77 15:20 25.03.2020
468 Clear 16 1021 39 0 0.36 77 14:45 25.03.2020
469 Clear 16 1021 39 0 0.36 77 14:22 25.03.2020
470 Clear 10 1023 60 0 0.84 296 13:59 25.03.2020
471 Clear 10 1023 60 0 0.84 296 13:41 25.03.2020
472 Clear 9 1023 60 0 0.72 296 13:22 25.03.2020
473 Clear 9 1023 60 0 0.72 296 12:38 25.03.2020
474 Clear 10 1023 60 0 0.84 296 12:19 25.03.2020
475 Clear 9 1023 60 0 0.72 296 11:55 25.03.2020
476 Clear 9 1023 60 0 0.72 296 11:36 25.03.2020
477 Clear 7 1022 69 0 1.37 269 11:18 25.03.2020
478 Clear 7 1022 69 0 1.37 269 10:56 25.03.2020
479 Clear 7 1022 69 0 1.37 269 10:37 25.03.2020
480 Clear 7 1022 69 0 1.37 269 10:18 25.03.2020
481 Clear 7 1022 69 0 1.37 269 09:42 25.03.2020
482 Clear 7 1022 69 0 1.37 269 09:23 25.03.2020
483 Clear 7 1022 69 0 1.37 269 08:56 25.03.2020
484 Clear 7 1022 69 0 1.37 269 08:38 25.03.2020
485 Clear 9 1022 70 0 1.62 275 08:19 25.03.2020
486 Clear 9 1022 68 0 1.52 273 07:41 25.03.2020
487 Clear 9 1022 68 0 1.52 273 07:20 25.03.2020
488 Clear 9 1022 68 0 1.52 273 06:47 25.03.2020
489 Clear 9 1022 68 0 1.52 273 06:26 25.03.2020
490 Clear 9 1022 68 0 1.52 273 05:53 25.03.2020
491 Clear 11 1021 65 0 1.94 277 04:59 25.03.2020
492 Clear 11 1021 65 0 1.94 277 04:39 25.03.2020
493 Clear 11 1021 65 0 1.94 277 03:36 25.03.2020
494 Clear 13 1019 56 0 2.52 269 01:58 25.03.2020
495 Clear 13 1019 55 0 2.61 268 01:20 25.03.2020
496 Clear 13 1019 55 0 2.61 268 00:47 25.03.2020
497 Clear 13 1019 55 0 2.61 268 00:19 25.03.2020
498 Clear 13 1019 55 0 2.61 268 23:44 24.03.2020
499 Clear 13 1019 55 0 2.61 268 23:25 24.03.2020
500 Clear 19 1016 33 0 3.99 266 22:55 24.03.2020
501 Clear 19 1016 33 0 3.99 266 22:37 24.03.2020
502 Clear 19 1016 33 0 3.99 266 22:19 24.03.2020
503 Clear 19 1016 33 0 3.99 266 21:55 24.03.2020
504 Clear 19 1016 33 0 3.99 266 21:36 24.03.2020
505 Clear 19 1016 33 0 3.99 266 21:36 24.03.2020
506 Clear 19 1016 33 0 3.99 266 21:18 24.03.2020
507 Clear 19 1016 33 0 3.99 266 20:41 24.03.2020
508 Clear 19 1016 35 0 3.83 268 20:23 24.03.2020
509 Rain 18 1015 37 0 2.57 275 19:54 24.03.2020
510 Rain 18 1015 37 0 2.57 275 19:36 24.03.2020
511 Rain 18 1015 37 0 2.57 275 19:18 24.03.2020
512 Rain 18 1015 37 0 2.57 275 18:54 24.03.2020
513 Rain 18 1015 37 0 2.57 275 18:36 24.03.2020
514 Rain 18 1015 37 0 2.57 275 18:18 24.03.2020
515 Rain 18 1015 37 0 2.57 275 17:41 24.03.2020
516 Rain 18 1015 37 0 2.57 275 17:22 24.03.2020
517 Clouds 17 1015 63 10000 4.1 260 16:57 24.03.2020
518 Clouds 17 1015 63 10000 4.1 260 16:39 24.03.2020
519 Clouds 17 1015 63 10000 4.1 260 16:20 24.03.2020
520 Clouds 16 1015 72 10000 3.6 0 15:44 24.03.2020
521 Clouds 16 1015 72 10000 3.6 0 15:25 24.03.2020
522 Clouds 15 1014 82 10000 2.6 300 14:59 24.03.2020
523 Clouds 15 1014 82 10000 2.6 300 14:40 24.03.2020
524 Clouds 11 1013 70 0 1.23 282 14:18 24.03.2020
525 Clouds 11 1013 70 0 1.23 282 13:42 24.03.2020
526 Clouds 11 1014 70 0 1.31 287 13:22 24.03.2020
527 Clouds 11 1014 70 0 1.31 287 12:47 24.03.2020
528 Clouds 11 1014 70 0 1.31 287 12:28 24.03.2020
529 Clouds 11 1014 70 0 1.31 287 11:58 24.03.2020
530 Clouds 11 1014 70 0 1.31 287 11:39 24.03.2020
531 Clouds 13 1011 87 10000 2.6 300 11:19 24.03.2020
532 Rain 13 1010 87 10000 2.1 0 10:42 24.03.2020
533 Rain 13 1010 87 10000 2.1 0 10:19 24.03.2020
534 Clouds 14 1010 87 10000 3.1 280 09:55 24.03.2020
535 Clouds 14 1010 87 10000 3.1 280 09:37 24.03.2020
536 Clouds 14 1010 87 10000 3.1 280 09:19 24.03.2020
537 Rain 13 1009 93 10000 2.6 310 08:38 24.03.2020
538 Rain 13 1009 93 10000 2.6 310 08:20 24.03.2020
539 Clouds 13 1010 93 10000 2.6 280 07:47 24.03.2020
540 Clouds 13 1010 93 10000 2.6 280 07:23 24.03.2020
541 Clouds 13 1009 93 10000 3.1 310 06:50 24.03.2020
542 Clouds 13 1009 93 10000 3.1 310 06:24 24.03.2020
543 Clouds 13 1009 93 10000 2.6 280 04:57 24.03.2020
544 Rain 13 1009 100 10000 2.1 280 03:46 24.03.2020
545 Rain 13 1008 93 10000 2.1 280 02:45 24.03.2020
546 Rain 13 1008 100 10000 2.1 0 01:38 24.03.2020
547 Rain 14 1007 93 10000 2.6 290 00:42 24.03.2020
548 Rain 14 1007 93 10000 2.6 290 00:22 24.03.2020
549 Rain 15 1006 87 10000 1 0 23:39 23.03.2020
550 Rain 15 1006 87 10000 1 0 23:20 23.03.2020
551 Rain 15 1006 87 10000 1 0 22:45 23.03.2020
552 Rain 15 1006 87 10000 1 0 22:24 23.03.2020
553 Rain 15 1005 87 8000 1.5 350 21:57 23.03.2020
554 Rain 15 1005 87 8000 1.5 350 21:38 23.03.2020
555 Rain 15 1005 87 8000 1.5 350 21:20 23.03.2020
556 Rain 16 1005 82 9000 1.5 0 20:56 23.03.2020
557 Rain 16 1005 82 9000 1.5 0 20:38 23.03.2020
558 Rain 16 1005 82 9000 1.5 0 20:19 23.03.2020
559 Clouds 16 1005 82 10000 1 0 19:42 23.03.2020
560 Clouds 16 1005 82 10000 1 0 19:23 23.03.2020
561 Rain 15 1005 87 5000 1.5 310 18:56 23.03.2020
562 Rain 15 1005 87 5000 1.5 310 18:38 23.03.2020
563 Rain 15 1005 87 5000 1.5 310 18:19 23.03.2020
564 Rain 14 1006 93 4000 2.1 290 17:42 23.03.2020
565 Rain 14 1006 93 4000 2.1 290 17:20 23.03.2020
566 Rain 13 1005 93 4000 1 0 16:56 23.03.2020
567 Rain 13 1005 93 4000 1 0 16:37 23.03.2020
568 Rain 13 1005 93 4000 1 0 16:18 23.03.2020
569 Rain 11 1005 100 4000 1.5 130 15:41 23.03.2020
570 Rain 11 1005 100 4000 1.5 130 15:19 23.03.2020
571 Rain 11 1005 93 4000 1 0 14:38 23.03.2020
572 Rain 11 1005 93 4000 1 0 14:19 23.03.2020
573 Rain 10 1005 93 5000 2.52 324 13:57 23.03.2020
574 Rain 10 1005 93 5000 2.52 324 13:39 23.03.2020
575 Rain 10 1005 93 5000 2.52 324 13:20 23.03.2020
576 Rain 10 1004 93 10000 2.1 130 12:44 23.03.2020
577 Rain 10 1004 93 10000 2.1 130 12:25 23.03.2020
578 Clouds 11 1004 81 10000 1.5 0 11:57 23.03.2020
579 Clouds 11 1004 81 10000 1.5 0 11:38 23.03.2020
580 Clouds 11 1004 81 10000 1.5 0 11:19 23.03.2020
581 Clouds 10 1004 87 10000 1.5 100 10:56 23.03.2020
582 Clouds 10 1004 87 10000 1.5 100 10:37 23.03.2020
583 Clouds 10 1004 87 10000 1.5 100 10:19 23.03.2020
584 Clouds 9 1005 93 10000 0.5 0 09:43 23.03.2020
585 Clouds 9 1005 93 10000 0.5 0 09:21 23.03.2020
586 Clouds 9 1006 87 10000 2.6 120 08:40 23.03.2020
587 Clouds 9 1006 87 10000 2.6 120 08:20 23.03.2020
588 Clouds 9 1006 87 10000 2.6 120 08:20 23.03.2020
589 Clouds 9 1007 93 10000 1.5 100 07:58 23.03.2020
590 Clouds 9 1007 93 10000 1.5 100 07:37 23.03.2020
591 Clouds 9 1007 93 10000 1.5 100 07:18 23.03.2020
592 Clouds 9 1008 93 10000 2.95 326 06:48 23.03.2020
593 Clouds 10 1008 87 10000 2.6 300 05:45 23.03.2020
594 Clouds 11 1009 87 10000 2.6 310 04:41 23.03.2020
595 Clouds 11 1010 87 10000 2.1 270 03:23 23.03.2020
596 Clouds 12 1010 81 10000 1.5 300 01:50 23.03.2020
597 Clouds 14 1010 76 10000 2.1 280 00:50 23.03.2020
598 Clouds 14 1010 76 10000 2.1 280 00:29 23.03.2020
599 Clouds 16 1010 63 10000 2.6 330 23:44 22.03.2020
600 Clouds 16 1010 63 10000 2.6 330 23:24 22.03.2020
601 Clouds 16 1010 63 10000 5.1 300 22:42 22.03.2020
602 Clouds 16 1010 63 10000 5.1 300 22:22 22.03.2020
603 Clouds 17 1010 63 10000 3.1 320 21:54 22.03.2020
604 Clouds 17 1010 63 10000 3.1 320 21:36 22.03.2020
605 Clouds 17 1010 63 10000 3.1 320 21:18 22.03.2020
606 Clouds 17 1010 59 10000 4.1 300 20:42 22.03.2020
607 Clouds 17 1010 59 10000 4.1 300 20:24 22.03.2020
608 Clouds 17 1011 59 10000 3.6 320 19:56 22.03.2020
609 Clouds 17 1011 59 10000 3.6 320 19:38 22.03.2020
610 Clouds 17 1011 59 10000 3.6 320 19:19 22.03.2020
611 Clouds 17 1011 59 10000 2.1 330 18:57 22.03.2020
612 Clouds 17 1011 59 10000 2.1 330 18:39 22.03.2020
613 Clouds 17 1011 59 10000 2.1 330 18:20 22.03.2020
614 Clouds 15 1012 67 10000 3.1 310 17:56 22.03.2020
615 Clouds 15 1012 67 10000 3.1 310 17:37 22.03.2020
616 Clouds 15 1012 67 10000 3.1 310 17:19 22.03.2020
617 Clouds 15 1012 67 10000 2.1 340 16:55 22.03.2020
618 Clouds 15 1012 67 10000 2.1 340 16:37 22.03.2020
619 Clouds 15 1012 67 10000 2.1 340 16:19 22.03.2020
620 Clouds 15 1012 67 10000 2.1 340 16:19 22.03.2020
621 Clouds 15 1012 62 10000 1.5 290 15:39 22.03.2020
622 Clouds 15 1012 62 10000 1.5 290 15:19 22.03.2020
623 Clouds 15 1011 67 10000 2.1 290 14:46 22.03.2020
624 Clouds 15 1011 67 10000 2.1 290 14:18 22.03.2020
625 Clouds 14 1011 71 10000 0.5 0 13:41 22.03.2020
626 Clouds 14 1011 71 10000 0.5 0 13:20 22.03.2020
627 Clouds 15 1011 58 10000 3.1 300 12:47 22.03.2020
628 Clouds 15 1011 58 10000 3.1 300 12:23 22.03.2020
629 Clouds 15 1010 58 10000 2.6 260 11:59 22.03.2020
630 Clouds 15 1010 58 10000 2.6 260 11:41 22.03.2020
631 Clouds 15 1010 58 10000 2.6 260 11:23 22.03.2020
632 Clouds 15 1010 58 10000 3.1 0 10:54 22.03.2020
633 Clouds 15 1010 58 10000 3.1 0 10:36 22.03.2020
634 Clouds 15 1010 58 10000 3.1 0 10:18 22.03.2020
635 Clouds 13 1010 71 10000 1 0 09:41 22.03.2020
636 Clouds 13 1010 71 10000 1 0 09:19 22.03.2020
637 Clouds 15 1010 58 10000 3.1 0 08:43 22.03.2020
638 Clouds 15 1010 58 10000 3.1 0 08:24 22.03.2020
639 Rain 15 1010 58 10000 4.1 260 07:51 22.03.2020
640 Rain 15 1010 58 10000 4.1 260 07:23 22.03.2020
641 Rain 15 1010 58 10000 4.1 250 06:35 22.03.2020
642 Rain 16 1009 55 10000 4.6 250 05:31 22.03.2020
643 Clouds 16 1009 51 10000 4.1 260 03:25 22.03.2020
644 Clouds 16 1008 55 10000 4.1 250 01:26 22.03.2020
645 Clouds 16 1008 59 10000 5.1 250 00:47 22.03.2020
646 Clouds 16 1008 59 10000 5.1 250 00:25 22.03.2020
647 Clouds 16 1007 59 10000 3.6 240 23:42 21.03.2020
648 Clouds 16 1007 59 10000 3.6 240 23:19 21.03.2020
649 Clouds 17 1007 55 10000 4.1 270 22:39 21.03.2020
650 Clouds 17 1007 55 10000 4.1 270 22:39 21.03.2020
651 Clouds 17 1007 55 10000 4.1 270 22:21 21.03.2020
652 Clouds 18 1007 52 10000 4.6 270 21:59 21.03.2020
653 Clouds 18 1007 52 10000 4.6 270 21:41 21.03.2020
654 Clouds 18 1007 52 10000 4.6 270 21:22 21.03.2020
655 Clouds 18 1007 52 10000 4.6 270 21:22 21.03.2020
656 Clouds 18 1006 48 10000 6.7 270 20:56 21.03.2020
657 Clouds 18 1006 48 10000 6.7 270 20:38 21.03.2020
658 Rain 18 1006 48 10000 6.7 270 20:18 21.03.2020
659 Clouds 18 1006 48 10000 5.7 260 19:43 21.03.2020
660 Clouds 18 1006 48 10000 5.7 260 19:23 21.03.2020
661 Clouds 17 1006 51 10000 4.1 270 18:55 21.03.2020
662 Clouds 17 1006 51 10000 4.1 270 18:55 21.03.2020
663 Clouds 17 1006 51 10000 4.1 270 18:37 21.03.2020
664 Clouds 17 1006 51 10000 4.1 270 18:19 21.03.2020
665 Clouds 17 1006 51 10000 4.6 260 17:43 21.03.2020
666 Clouds 17 1006 51 10000 4.6 260 17:24 21.03.2020
667 Rain 18 1006 48 10000 3.6 250 16:57 21.03.2020
668 Rain 18 1006 48 10000 3.6 250 16:39 21.03.2020
669 Rain 18 1006 48 10000 3.6 250 16:19 21.03.2020
670 Rain 18 1006 48 10000 3.6 0 15:43 21.03.2020
671 Rain 18 1006 48 10000 3.6 0 15:23 21.03.2020
672 Rain 17 1006 48 10000 5.7 260 14:59 21.03.2020
673 Rain 17 1006 48 10000 5.7 260 14:40 21.03.2020
674 Rain 17 1006 48 10000 5.7 260 14:20 21.03.2020
675 -273 0 0 0 0 0 14:20 21.03.2020
676 Clouds 17 1006 51 10000 2.6 0 13:59 21.03.2020
677 Clouds 17 1006 51 10000 2.6 0 13:40 21.03.2020
678 Clouds 17 1006 51 10000 2.6 0 13:22 21.03.2020
679 Clouds 17 1005 51 10000 1.5 0 12:59 21.03.2020
680 Clouds 17 1005 51 10000 1.5 0 12:38 21.03.2020
681 Clouds 17 1005 51 10000 1.5 0 12:19 21.03.2020
682 Clouds 17 1005 51 10000 1.5 0 12:19 21.03.2020
683 Clouds 14 1005 71 10000 1.5 0 11:56 21.03.2020
684 Clouds 14 1005 71 10000 1.5 0 11:38 21.03.2020
685 Clouds 14 1005 71 10000 1.5 0 11:19 21.03.2020
686 Clouds 15 1005 72 10000 2.6 280 10:56 21.03.2020
687 Clouds 15 1005 72 10000 2.6 280 10:38 21.03.2020
688 Clouds 15 1005 72 10000 2.6 280 10:19 21.03.2020
689 Clouds 14 1005 76 10000 2.1 0 09:55 21.03.2020
690 Clouds 14 1005 76 10000 2.1 0 09:36 21.03.2020
691 Clouds 14 1005 76 10000 2.1 0 09:18 21.03.2020
692 Clouds 15 1005 72 10000 2.1 290 08:42 21.03.2020
693 Clouds 15 1005 72 10000 2.1 290 08:23 21.03.2020
694 Clouds 15 1006 77 10000 2.1 0 07:42 21.03.2020
695 Clouds 15 1006 77 10000 2.1 0 07:23 21.03.2020
696 Clouds 14 1006 82 10000 2.6 290 06:46 21.03.2020
697 Clouds 14 1006 82 10000 2.6 290 06:27 21.03.2020
698 Clouds 14 1007 87 10000 2.6 290 05:46 21.03.2020
699 Clouds 13 1007 87 10000 2.27 298 04:42 21.03.2020
700 Clouds 15 1007 77 10000 2.1 290 02:40 21.03.2020
701 Clouds 15 1007 77 10000 2.1 290 02:18 21.03.2020
702 Clouds 16 1007 72 10000 2.6 280 01:31 21.03.2020
703 Clouds 18 1007 63 10000 1.5 270 00:47 21.03.2020
704 Clouds 18 1007 63 10000 1.5 270 00:25 21.03.2020
705 Clouds 21 1007 49 10000 3.6 300 23:48 20.03.2020
706 Clouds 21 1007 49 10000 3.6 300 23:24 20.03.2020
707 Clouds 22 1008 49 10000 3.6 310 22:55 20.03.2020
708 Clouds 22 1008 49 10000 3.6 310 22:36 20.03.2020
709 Clouds 22 1008 49 10000 3.6 310 22:18 20.03.2020
710 Clouds 22 1008 49 10000 4.1 300 21:54 20.03.2020
711 Clouds 22 1008 49 10000 4.1 300 21:36 20.03.2020
712 Clouds 22 1008 49 10000 4.1 300 21:18 20.03.2020
713 Clouds 22 1009 49 10000 5.1 290 20:41 20.03.2020
714 Clouds 22 1009 49 10000 5.1 290 20:41 20.03.2020
715 Clear 22 1009 49 10000 5.1 290 20:21 20.03.2020
716 Clouds 21 1010 52 10000 4.1 300 19:58 20.03.2020
717 Clouds 21 1010 52 10000 4.1 300 19:40 20.03.2020
718 Clouds 21 1010 52 10000 4.1 300 19:18 20.03.2020
719 Clouds 21 1011 56 10000 4.1 290 18:39 20.03.2020
720 Clouds 21 1011 56 10000 4.1 290 18:39 20.03.2020
721 Clouds 21 1011 56 10000 4.1 290 18:20 20.03.2020
722 Clouds 19 1013 63 10000 3.1 350 17:57 20.03.2020
723 Clouds 19 1013 63 10000 3.1 350 17:39 20.03.2020
724 Clouds 19 1013 63 10000 3.1 350 17:19 20.03.2020
725 Clouds 19 1013 63 10000 3.1 350 17:19 20.03.2020
726 Clouds 18 1013 68 10000 3.6 290 16:43 20.03.2020
727 Clouds 18 1013 68 10000 3.6 290 16:21 20.03.2020
728 Clouds 16 1014 77 10000 2.1 280 15:58 20.03.2020
729 Clouds 16 1014 77 10000 2.1 280 15:39 20.03.2020
730 Clouds 16 1014 77 10000 2.1 280 15:20 20.03.2020
731 Clouds 15 1014 82 10000 2.6 260 14:42 20.03.2020
732 Clouds 15 1014 82 10000 2.6 260 14:21 20.03.2020
733 Clouds 15 1015 82 10000 2.6 270 13:51 20.03.2020
734 Clouds 15 1015 82 10000 2.6 270 13:26 20.03.2020
735 Clouds 14 1015 87 10000 2.1 280 12:59 20.03.2020
736 Clouds 14 1015 87 10000 2.1 280 12:38 20.03.2020
737 Clouds 14 1015 87 10000 2.1 280 12:20 20.03.2020
738 Clouds 15 1015 77 10000 2.6 270 11:41 20.03.2020
739 Clouds 15 1015 77 10000 2.6 270 11:21 20.03.2020
740 Clouds 15 1015 82 10000 3.1 300 10:58 20.03.2020
741 Clouds 15 1015 82 10000 3.1 300 10:40 20.03.2020
742 Clouds 15 1015 82 10000 3.1 300 10:18 20.03.2020
743 Clouds 15 1016 77 10000 2.6 300 09:46 20.03.2020
744 Clouds 15 1016 77 10000 2.6 300 09:21 20.03.2020
745 Clouds 16 1016 72 10000 2.6 300 08:58 20.03.2020
746 Clouds 16 1016 72 10000 2.6 300 08:39 20.03.2020
747 Clouds 16 1016 72 10000 2.6 300 08:19 20.03.2020
748 Clouds 16 1017 72 10000 3.1 0 07:43 20.03.2020
749 Clouds 16 1017 72 10000 3.1 0 07:25 20.03.2020
750 Clouds 16 1017 72 10000 3.1 260 06:43 20.03.2020
751 Clouds 16 1017 72 10000 3.1 260 06:22 20.03.2020
752 Clouds 16 1018 72 10000 4.1 290 04:48 20.03.2020
753 Clouds 17 1018 63 10000 3.1 0 02:54 20.03.2020
754 Clouds 17 1018 67 10000 5.1 310 01:50 20.03.2020
755 Clouds 17 1018 67 10000 4.6 0 00:45 20.03.2020
756 Clouds 17 1018 67 10000 4.6 0 00:24 20.03.2020
757 Clouds 17 1018 67 10000 6.2 270 23:42 19.03.2020
758 Clouds 17 1018 67 10000 6.2 270 23:23 19.03.2020
759 Clouds 18 1018 63 10000 3.1 0 22:54 19.03.2020
760 Clouds 18 1018 63 10000 3.1 0 22:36 19.03.2020
761 Clouds 18 1018 63 10000 3.1 0 22:18 19.03.2020
762 Rain 18 1018 59 9000 5.1 290 21:39 19.03.2020
763 Rain 18 1018 59 9000 5.1 290 21:20 19.03.2020
764 Rain 18 1018 59 10000 2.6 0 20:54 19.03.2020
765 Rain 18 1018 59 10000 2.6 0 20:36 19.03.2020
766 Rain 18 1018 59 10000 2.6 0 20:18 19.03.2020
767 Clouds 17 1019 55 0 3.11 268 19:39 19.03.2020
768 Clouds 17 1020 63 10000 2.6 0 19:21 19.03.2020
769 Clouds 17 1020 63 10000 2.6 0 18:58 19.03.2020
770 Clouds 17 1020 63 10000 2.6 0 18:40 19.03.2020
771 Clouds 17 1020 63 10000 2.6 0 18:22 19.03.2020
772 Clouds 15 1021 62 10000 4.6 310 17:54 19.03.2020
773 Clouds 15 1021 62 10000 4.6 310 17:36 19.03.2020
774 Clouds 15 1021 62 10000 4.6 310 17:18 19.03.2020
775 Clouds 13 1022 71 10000 3.1 280 16:41 19.03.2020
776 Clouds 13 1022 71 10000 3.1 280 16:21 19.03.2020
777 Clouds 12 1022 71 10000 2.6 270 15:42 19.03.2020
778 Clouds 12 1022 71 10000 2.6 270 15:23 19.03.2020
779 Clouds 11 1022 71 10000 2.6 270 14:43 19.03.2020
780 Clouds 11 1022 71 10000 2.6 270 14:23 19.03.2020
781 Clouds 9 1022 81 10000 2.6 290 13:57 19.03.2020
782 Clouds 9 1022 81 10000 2.6 290 13:37 19.03.2020
783 Clouds 9 1022 81 10000 2.6 290 13:18 19.03.2020
784 Clear 9 1022 81 10000 2.6 280 12:41 19.03.2020
785 Clear 9 1022 81 10000 2.6 280 12:22 19.03.2020
786 Clear 9 1022 81 10000 2.6 290 11:57 19.03.2020
787 Clear 9 1022 81 10000 2.6 290 11:57 19.03.2020
788 Clear 9 1022 81 10000 2.6 290 11:38 19.03.2020
789 Clear 9 1022 81 10000 2.6 290 11:20 19.03.2020
790 Clear 8 1022 81 10000 2.1 300 10:41 19.03.2020
791 Clear 8 1022 81 10000 2.1 300 10:20 19.03.2020
792 Clear 8 1022 81 10000 3.6 290 09:57 19.03.2020
793 Clear 8 1022 81 10000 3.6 290 09:37 19.03.2020
794 Clear 8 1022 81 10000 3.6 290 09:18 19.03.2020
795 Clear 8 1022 75 10000 3.1 290 08:42 19.03.2020
796 Clear 8 1022 75 10000 3.1 290 08:21 19.03.2020
797 Clear 9 1022 76 10000 3.1 290 07:46 19.03.2020
798 Clear 9 1022 76 10000 3.1 290 07:28 19.03.2020
799 Clear 9 1021 70 10000 3.6 300 06:48 19.03.2020
800 Clear 11 1021 62 10000 3.6 310 05:49 19.03.2020
801 Clear 10 1021 66 10000 3.6 300 04:58 19.03.2020
802 Clear 10 1021 66 10000 3.6 300 04:40 19.03.2020
803 Clear 13 1019 54 10000 2.1 270 02:50 19.03.2020
804 Clear 15 1018 44 10000 3.6 310 01:21 19.03.2020
805 Clear 17 1017 42 10000 2.1 0 00:28 19.03.2020
806 Clear 20 1016 32 10000 3.1 0 23:51 18.03.2020
807 Clear 20 1016 32 10000 3.1 0 23:30 18.03.2020
808 Clear 22 1016 28 10000 4.6 300 22:56 18.03.2020
809 Clear 22 1016 28 10000 4.6 300 22:38 18.03.2020
810 Clear 22 1016 28 10000 4.6 300 22:20 18.03.2020
811 Clear 22 1016 26 10000 3.1 0 21:42 18.03.2020
812 Clear 22 1016 26 10000 3.1 0 21:21 18.03.2020
813 Clear 22 1016 26 10000 4.6 310 20:57 18.03.2020
814 Clear 22 1016 26 10000 4.6 310 20:39 18.03.2020
815 Clear 22 1016 26 10000 4.6 310 20:20 18.03.2020
816 Clear 22 1016 26 10000 4.6 310 20:20 18.03.2020
817 Clear 21 1016 35 10000 4.1 310 19:56 18.03.2020
818 Clear 21 1016 35 10000 4.1 310 19:37 18.03.2020
819 Clear 21 1016 35 10000 4.1 310 19:19 18.03.2020
820 Clear 21 1016 35 10000 4.1 310 19:19 18.03.2020
821 Clear 18 1017 55 10000 4.1 320 18:41 18.03.2020
822 Clear 18 1017 55 10000 4.1 320 18:20 18.03.2020
823 Clear 16 1018 63 10000 3.1 300 17:58 18.03.2020
824 Clear 16 1018 63 10000 3.1 300 17:39 18.03.2020
825 Clear 16 1018 63 10000 3.1 300 17:21 18.03.2020
826 Clouds 12 1019 81 10000 2.6 290 16:55 18.03.2020
827 Clouds 12 1019 81 10000 2.6 290 16:37 18.03.2020
828 Clouds 12 1019 81 10000 2.6 290 16:19 18.03.2020
829 Clouds 10 1020 87 10000 1.5 0 15:45 18.03.2020
830 Clouds 10 1020 87 10000 1.5 0 15:20 18.03.2020
831 Clouds 9 1020 93 10000 1.5 0 14:45 18.03.2020
832 Clouds 9 1020 93 10000 1.5 0 14:22 18.03.2020
833 Clouds 9 1020 93 10000 2.1 260 13:58 18.03.2020
834 Clouds 9 1020 93 10000 2.1 260 13:36 18.03.2020
835 Clouds 9 1020 93 10000 2.1 260 13:18 18.03.2020
836 Clear 9 1020 93 10000 2.1 270 12:41 18.03.2020
837 Clear 9 1020 93 10000 2.1 270 12:19 18.03.2020
838 Clear 9 1020 100 10000 2.1 280 11:40 18.03.2020
839 Clear 9 1020 100 10000 2.1 280 11:21 18.03.2020
840 Clear 9 1020 100 10000 2.6 260 10:58 18.03.2020
841 Clear 9 1020 100 10000 2.6 260 10:39 18.03.2020
842 Clear 9 1020 100 10000 2.6 260 10:20 18.03.2020
843 Clear 8 1020 100 10000 2.6 300 09:43 18.03.2020
844 Clear 8 1020 100 10000 2.6 300 09:25 18.03.2020
845 Clear 8 1020 100 10000 2.6 300 08:57 18.03.2020
846 Clear 8 1020 100 10000 2.6 300 08:39 18.03.2020
847 Clear 8 1020 100 10000 2.6 300 08:39 18.03.2020
848 Clear 8 1020 100 10000 2.6 300 08:20 18.03.2020
849 Clear 9 1020 93 10000 3.1 300 07:46 18.03.2020
850 Clear 9 1020 93 10000 3.1 300 07:28 18.03.2020
851 Clear 9 1020 93 10000 2.6 300 06:44 18.03.2020
852 Clear 9 1020 93 10000 2.6 300 06:22 18.03.2020
853 Clear 10 1021 93 10000 3.1 290 05:35 18.03.2020
854 Clear 11 1021 87 10000 2.6 280 04:25 18.03.2020
855 Clear 13 1020 76 10000 3.1 290 02:44 18.03.2020
856 Clear 14 1020 76 10000 3.1 300 01:48 18.03.2020
857 Clear 14 1020 76 10000 3.1 300 01:26 18.03.2020
858 Clear 16 1020 67 10000 3.6 290 00:24 18.03.2020
859 Clear 20 1019 49 10000 2.6 290 23:48 17.03.2020
860 Clear 20 1019 49 10000 2.6 290 23:27 17.03.2020
861 Clear 21 1019 43 10000 4.1 290 22:55 17.03.2020
862 Clear 21 1019 43 10000 4.1 290 22:37 17.03.2020
863 Clear 21 1019 43 10000 4.1 290 22:18 17.03.2020
864 Clear 21 1019 43 10000 2.1 300 21:39 17.03.2020
865 Clear 21 1019 43 10000 2.1 300 21:21 17.03.2020
866 Clear 21 1019 43 10000 3.6 300 20:40 17.03.2020
867 Clear 21 1019 43 10000 3.6 300 20:21 17.03.2020
868 Clouds 20 1020 45 10000 4.1 290 19:58 17.03.2020
869 Clouds 20 1020 45 10000 4.1 290 19:39 17.03.2020
870 Clouds 20 1020 45 10000 4.1 290 19:18 17.03.2020
871 Clouds 19 1021 55 10000 3.1 310 18:55 17.03.2020
872 Clouds 19 1021 55 10000 3.1 310 18:37 17.03.2020
873 Clouds 19 1021 55 10000 3.1 310 18:19 17.03.2020
874 Clouds 17 1021 63 10000 3.1 320 17:40 17.03.2020
875 Clouds 17 1021 63 10000 3.1 320 17:20 17.03.2020
876 Clouds 10 1021 80 0 0.96 263 16:45 17.03.2020
877 Clouds 10 1021 80 0 0.96 263 16:20 17.03.2020
878 Clouds 10 1021 80 0 0.96 263 15:56 17.03.2020
879 Clouds 10 1021 80 0 0.96 263 15:56 17.03.2020
880 Clouds 10 1021 80 0 0.96 263 15:38 17.03.2020
881 Clouds 13 1021 87 10000 2.1 320 15:18 17.03.2020
882 Clouds 13 1021 87 10000 2.1 320 14:41 17.03.2020
883 -273 0 0 0 0 0 14:41 17.03.2020
884 Clouds 13 1021 87 10000 2.1 320 14:18 17.03.2020
885 Clouds 12 1021 93 10000 2.1 270 13:43 17.03.2020
886 Clouds 12 1021 93 10000 2.1 270 13:24 17.03.2020
887 Clouds 11 1020 93 10000 2.1 300 12:48 17.03.2020
888 Clouds 11 1020 93 10000 2.1 300 12:26 17.03.2020
889 Clouds 11 1020 100 10000 2.1 300 11:59 17.03.2020
890 Clouds 11 1020 100 10000 2.1 300 11:40 17.03.2020
891 Clouds 11 1020 100 10000 2.1 300 11:22 17.03.2020
892 Clouds 11 1019 100 10000 1 0 10:55 17.03.2020
893 Clouds 11 1019 100 10000 1 0 10:36 17.03.2020
894 Clouds 11 1019 100 10000 1 0 10:36 17.03.2020
895 Clouds 11 1019 100 10000 1 0 10:18 17.03.2020
896 Clouds 12 1018 93 10000 1.5 250 09:45 17.03.2020
897 Clouds 12 1018 93 10000 1.5 250 09:45 17.03.2020
898 Clouds 12 1018 93 10000 1.5 250 09:20 17.03.2020
899 Clouds 12 1018 93 10000 1.5 310 08:57 17.03.2020
900 Clouds 12 1018 93 10000 1.5 310 08:39 17.03.2020
901 Clouds 12 1018 93 10000 1.5 310 08:18 17.03.2020
902 Clouds 12 1018 100 10000 2.6 280 07:47 17.03.2020
903 Clouds 12 1018 100 10000 2.6 280 07:20 17.03.2020
904 Clouds 12 1017 100 10000 2.6 290 06:45 17.03.2020
905 Clouds 12 1017 100 10000 2.6 290 06:24 17.03.2020
906 Rain 13 1017 93 10000 2.1 290 04:51 17.03.2020
907 Rain 13 1017 93 10000 2.6 260 03:26 17.03.2020
908 Clouds 15 1015 77 10000 3.1 310 01:49 17.03.2020
909 Clouds 15 1015 77 10000 3.1 310 01:29 17.03.2020
910 Clouds 16 1014 67 10000 3.1 0 00:50 17.03.2020
911 Clouds 16 1014 67 10000 6.2 270 23:51 16.03.2020
912 Clouds 16 1014 67 10000 6.2 270 23:33 16.03.2020
913 Clouds 18 1013 59 10000 5.1 270 22:47 16.03.2020
914 Clouds 18 1013 59 10000 5.1 270 22:27 16.03.2020
915 Clouds 19 1013 52 10000 7.2 280 21:59 16.03.2020
916 Clouds 19 1013 52 10000 7.2 280 21:41 16.03.2020
917 Clouds 19 1013 52 10000 7.2 280 21:23 16.03.2020
918 Clouds 19 1013 48 10000 8.2 290 20:57 16.03.2020
919 Clouds 19 1013 48 10000 8.2 290 20:38 16.03.2020
920 Clouds 19 1013 48 10000 8.2 290 20:19 16.03.2020
921 Clouds 19 1013 48 10000 6.2 280 19:42 16.03.2020
922 Clouds 19 1013 48 10000 6.2 280 19:22 16.03.2020
923 Clouds 18 1013 52 10000 4.6 280 18:56 16.03.2020
924 Clouds 18 1013 52 10000 4.6 280 18:37 16.03.2020
925 Clouds 18 1013 52 10000 4.6 280 18:18 16.03.2020
926 Clouds 17 1014 55 10000 2.1 0 17:42 16.03.2020
927 Clouds 17 1014 55 10000 2.1 0 17:22 16.03.2020
928 Clouds 15 1014 67 10000 2.1 300 16:46 16.03.2020
929 Clouds 15 1014 67 10000 2.1 300 16:28 16.03.2020
930 Clouds 14 1014 71 10000 1.5 300 15:56 16.03.2020
931 Clouds 14 1014 71 10000 1.5 300 15:37 16.03.2020
932 Clouds 14 1014 71 10000 1.5 300 15:18 16.03.2020
933 Clouds 12 1014 81 10000 2.6 300 14:42 16.03.2020
934 Clouds 12 1014 81 10000 2.6 300 14:19 16.03.2020
935 Clouds 11 1014 81 10000 2.6 0 13:42 16.03.2020
936 Clouds 11 1014 81 10000 2.6 0 13:23 16.03.2020
937 Clouds 10 1014 87 10000 3.6 280 12:46 16.03.2020
938 Clouds 10 1014 87 10000 3.6 280 12:26 16.03.2020
939 Clouds 10 1014 87 10000 3.6 280 11:58 16.03.2020
940 Clouds 10 1014 87 10000 3.6 280 11:39 16.03.2020
941 Clouds 10 1014 87 10000 3.6 280 11:18 16.03.2020
942 Clouds 10 1014 87 9000 3.6 280 10:41 16.03.2020
943 Clouds 10 1014 87 9000 3.6 280 10:19 16.03.2020
944 Clouds 10 1015 87 10000 2.6 290 09:44 16.03.2020
945 Clouds 10 1015 87 10000 2.6 290 09:24 16.03.2020
946 Clouds 10 1015 87 10000 3.1 280 08:54 16.03.2020
947 Clouds 10 1015 87 10000 3.1 280 08:25 16.03.2020
948 Clear 10 1016 87 10000 3.1 290 07:50 16.03.2020
949 Clear 10 1016 87 10000 3.1 290 07:27 16.03.2020
950 Clear 10 1016 93 10000 3.6 290 06:54 16.03.2020
951 Clear 10 1016 93 10000 3.6 290 06:25 16.03.2020
952 Clouds 11 1016 87 10000 3.1 290 04:55 16.03.2020
953 Clouds 12 1017 87 10000 3.1 290 02:42 16.03.2020
954 Clear 16 1016 67 10000 2.1 310 00:52 16.03.2020
955 Clear 16 1016 67 10000 2.1 310 00:33 16.03.2020
956 Clear 20 1016 45 10000 4.1 290 23:46 15.03.2020
957 Clear 20 1016 45 10000 4.1 290 23:20 15.03.2020
958 Clear 21 1016 43 10000 4.1 300 22:43 15.03.2020
959 Clear 21 1016 43 10000 4.1 300 22:23 15.03.2020
960 Clear 21 1016 40 10000 3.6 0 21:58 15.03.2020
961 Clear 21 1016 40 10000 3.6 0 21:38 15.03.2020
962 Clear 21 1016 40 10000 3.6 0 21:18 15.03.2020
963 Clear 20 1017 52 10000 2.6 320 20:42 15.03.2020
964 Clear 20 1017 52 10000 2.6 320 20:20 15.03.2020
965 Clear 19 1018 48 10000 3.1 330 19:58 15.03.2020
966 Clear 19 1018 48 10000 3.1 330 19:38 15.03.2020
967 Clear 19 1018 48 10000 3.1 330 19:19 15.03.2020
968 Clear 17 1019 55 10000 2.6 330 18:55 15.03.2020
969 Clear 17 1019 55 10000 2.6 330 18:37 15.03.2020
970 Clear 17 1019 55 10000 2.6 330 18:19 15.03.2020
971 Clear 15 1021 62 10000 2.6 330 17:41 15.03.2020
972 Clear 15 1021 62 10000 2.6 330 17:21 15.03.2020
973 Clear 12 1022 71 10000 1 0 16:58 15.03.2020
974 Clear 12 1022 71 10000 1 0 16:58 15.03.2020
975 Clear 12 1022 71 10000 1 0 16:38 15.03.2020
976 Clear 12 1022 71 10000 1 0 16:19 15.03.2020
977 Clear 9 1023 87 10000 1 0 15:45 15.03.2020
978 Clear 9 1023 87 10000 1 0 15:27 15.03.2020
979 Clear 7 1023 93 10000 1 0 14:57 15.03.2020
980 Clear 7 1023 93 10000 1 0 14:38 15.03.2020
981 Clear 7 1023 93 10000 1 0 14:18 15.03.2020
982 Clear 7 1023 93 10000 1 0 14:18 15.03.2020
983 Clear 6 1023 100 10000 0.5 0 13:42 15.03.2020
984 Clear 6 1023 100 10000 0.5 0 13:23 15.03.2020
985 Clear 6 1023 93 10000 1 0 12:59 15.03.2020
986 Clear 6 1023 93 10000 1 0 12:39 15.03.2020
987 Clear 6 1023 93 10000 1 0 12:21 15.03.2020
988 Clear 5 1023 93 10000 1 0 11:43 15.03.2020
989 Clear 5 1023 93 10000 1 0 11:24 15.03.2020
990 Clear 5 1024 93 10000 1.31 286 10:57 15.03.2020
991 Clear 5 1024 93 10000 1.31 286 10:39 15.03.2020
992 Clear 5 1024 93 10000 1.31 286 10:20 15.03.2020
993 Clear 6 1024 93 10000 2.6 300 09:42 15.03.2020
994 Clear 6 1024 93 10000 2.6 300 09:23 15.03.2020
995 Clear 6 1024 93 10000 1 0 08:58 15.03.2020
996 Clear 6 1024 93 10000 1 0 08:39 15.03.2020
997 Clear 6 1024 93 10000 1 0 08:18 15.03.2020
998 Clear 7 1024 93 10000 3.6 280 07:44 15.03.2020
999 Clear 7 1024 93 10000 2.6 290 06:55 15.03.2020
1000 Clear 7 1024 93 10000 2.6 290 06:34 15.03.2020
1001 Clear 8 1024 87 10000 2.6 290 05:43 15.03.2020
1002 Clear 8 1024 87 10000 1 0 04:47 15.03.2020
1003 Clear 8 1024 87 10000 1 0 04:28 15.03.2020
1004 Clear 9 1024 87 10000 3.1 300 03:54 15.03.2020
1005 Clear 9 1024 87 10000 2.1 300 02:47 15.03.2020
1006 Clear 11 1024 76 10000 1.5 320 01:40 15.03.2020
1007 Clear 14 1023 58 10000 2.1 310 00:47 15.03.2020
1008 Clear 14 1023 58 10000 2.1 310 00:27 15.03.2020
1009 Clear 15 1023 51 10000 3.6 310 23:56 14.03.2020
1010 Clear 15 1023 51 10000 3.6 310 23:37 14.03.2020
1011 Clear 15 1023 51 10000 3.6 310 23:18 14.03.2020
1012 Clear 16 1022 51 10000 4.1 300 22:44 14.03.2020
1013 Clear 16 1022 51 10000 4.1 300 22:26 14.03.2020
1014 Clear 16 1022 51 10000 4.1 300 21:57 14.03.2020
1015 Clear 16 1022 51 10000 4.1 300 21:36 14.03.2020
1016 Clear 16 1022 51 10000 4.1 300 21:18 14.03.2020
1017 Clear 16 1022 48 10000 2.6 0 20:59 14.03.2020
1018 Clear 16 1022 48 10000 2.6 0 20:40 14.03.2020
1019 Clouds 16 1022 48 10000 2.6 0 20:19 14.03.2020
1020 Clouds 16 1022 48 10000 2.6 0 20:19 14.03.2020
1021 Clouds 16 1023 48 10000 2.6 0 19:44 14.03.2020
1022 Clouds 16 1023 48 10000 2.6 0 19:25 14.03.2020
1023 Clouds 15 1023 51 10000 3.1 300 18:56 14.03.2020
1024 Clouds 15 1023 51 10000 3.1 300 18:37 14.03.2020
1025 Clouds 15 1023 51 10000 3.1 300 18:19 14.03.2020
1026 Clouds 15 1024 51 10000 4.1 300 17:39 14.03.2020
1027 Clouds 15 1024 51 10000 4.1 300 17:20 14.03.2020
1028 Clouds 14 1024 62 10000 2.6 0 16:41 14.03.2020
1029 Clouds 14 1024 62 10000 2.6 0 16:23 14.03.2020
1030 Clouds 12 1024 71 10000 2.6 280 15:58 14.03.2020
1031 Clouds 12 1024 71 10000 2.6 280 15:27 14.03.2020
1032 Clouds 10 1024 76 10000 2.6 280 14:58 14.03.2020
1033 Clouds 10 1024 76 10000 2.6 280 14:36 14.03.2020
1034 Clouds 10 1024 76 10000 2.6 280 14:18 14.03.2020
1035 Clouds 8 1024 87 10000 3.6 290 13:42 14.03.2020
1036 Clouds 8 1024 87 10000 3.6 290 13:23 14.03.2020
1037 Clouds 8 1023 87 10000 3.6 270 12:47 14.03.2020
1038 Clouds 8 1023 87 10000 3.6 270 12:27 14.03.2020
1039 Clouds 8 1023 87 10000 3.1 290 11:59 14.03.2020
1040 Clouds 8 1023 87 10000 3.1 290 11:39 14.03.2020
1041 Clouds 8 1023 87 10000 3.1 290 11:20 14.03.2020
1042 Clouds 8 1023 87 10000 2.6 300 10:46 14.03.2020
1043 Clouds 8 1023 87 10000 2.6 300 10:27 14.03.2020
1044 Clouds 8 1022 87 10000 2.1 290 09:58 14.03.2020
1045 Clouds 8 1022 87 10000 2.1 290 09:39 14.03.2020
1046 Clouds 8 1022 87 10000 2.1 290 09:19 14.03.2020
1047 Clouds 8 1022 87 10000 2.1 300 08:45 14.03.2020
1048 Clouds 8 1022 87 10000 2.1 300 08:22 14.03.2020
1049 Clouds 9 1022 76 10000 2.6 0 07:39 14.03.2020
1050 Clouds 9 1022 76 10000 2.6 0 07:39 14.03.2020
1051 Clouds 9 1022 76 10000 2.6 0 07:20 14.03.2020
1052 Clouds 9 1022 76 10000 2.6 260 06:41 14.03.2020
1053 Clouds 9 1021 76 10000 2.1 270 05:49 14.03.2020
1054 Clear 9 1021 76 10000 3.1 290 04:43 14.03.2020
1055 Clear 9 1021 76 10000 2.6 260 03:24 14.03.2020
1056 Clear 9 1020 76 10000 4.6 260 02:28 14.03.2020
1057 Clouds 9 1019 76 10000 3.6 250 01:20 14.03.2020
1058 Clouds 10 1017 71 10000 5.7 270 23:56 13.03.2020
1059 Clouds 10 1017 71 10000 5.7 270 23:31 13.03.2020
1060 Rain 11 1016 71 10000 4.1 0 22:52 13.03.2020
1061 Rain 11 1016 71 10000 4.1 0 22:27 13.03.2020
1062 Rain 10 1015 76 10000 5.7 260 21:54 13.03.2020
1063 Rain 10 1015 76 10000 5.7 260 21:36 13.03.2020
1064 Rain 10 1015 76 10000 5.7 260 21:18 13.03.2020
1065 Rain 10 1014 54 0 5.67 286 20:41 13.03.2020
1066 Rain 11 1012 76 10000 4.1 0 20:21 13.03.2020
1067 Rain 11 1012 76 10000 4.1 0 19:49 13.03.2020
1068 Rain 11 1012 76 10000 4.1 0 19:30 13.03.2020
1069 Rain 8 1013 81 4000 5.1 260 18:51 13.03.2020
1070 Rain 8 1013 81 4000 5.1 260 18:32 13.03.2020
1071 Rain 9 1011 87 4000 4.6 270 17:59 13.03.2020
1072 Rain 9 1011 87 4000 4.6 270 17:41 13.03.2020
1073 Rain 9 1011 87 4000 4.6 270 17:20 13.03.2020
1074 Rain 11 1010 81 4000 4.1 260 16:42 13.03.2020
1075 Rain 13 1008 87 6000 3.1 270 16:24 13.03.2020
1076 Rain 13 1008 87 6000 3.1 270 15:59 13.03.2020
1077 Rain 13 1008 87 6000 3.1 270 15:39 13.03.2020
1078 Rain 13 1008 87 6000 3.1 270 15:20 13.03.2020
1079 Rain 13 1008 87 4000 4.6 250 14:44 13.03.2020
1080 Clouds 13 1008 87 10000 1 0 14:23 13.03.2020
1081 Clouds 12 1009 93 10000 3.1 290 13:58 13.03.2020
1082 Clouds 12 1009 93 10000 3.1 290 13:39 13.03.2020
1083 Clouds 12 1009 93 10000 3.1 290 13:20 13.03.2020
1084 Rain 12 1009 93 10000 2.1 300 12:55 13.03.2020
1085 Rain 12 1009 93 10000 2.1 300 12:36 13.03.2020
1086 Rain 12 1009 93 10000 2.1 300 12:18 13.03.2020
1087 Rain 12 1009 93 10000 2.1 310 11:42 13.03.2020
1088 Rain 12 1009 93 10000 2.1 310 11:24 13.03.2020
1089 Rain 12 1009 93 10000 2.1 300 10:57 13.03.2020
1090 Rain 12 1009 93 10000 2.1 300 10:38 13.03.2020
1091 Rain 12 1009 93 10000 2.1 300 10:20 13.03.2020
1092 Clouds 12 1009 100 10000 1.5 300 09:43 13.03.2020
1093 Clouds 12 1009 100 10000 1.5 300 09:24 13.03.2020
1094 Clouds 13 1009 93 10000 2.1 290 08:47 13.03.2020
1095 Clouds 13 1009 93 10000 2.1 290 08:23 13.03.2020
1096 Clouds 13 1009 93 10000 2.1 290 08:23 13.03.2020
1097 Clouds 13 1010 93 10000 2.1 290 07:52 13.03.2020
1098 Clouds 13 1010 93 10000 2.1 290 07:28 13.03.2020
1099 Clouds 8 1010 96 0 1.74 294 06:57 13.03.2020
1100 Clouds 8 1010 96 0 1.74 294 06:32 13.03.2020
1101 Clouds 8 1010 96 0 1.74 294 05:55 13.03.2020
1102 Rain 13 1010 93 10000 0.5 0 05:24 13.03.2020
1103 Rain 13 1010 93 10000 0.5 0 04:38 13.03.2020
1104 Rain 12 1010 100 10000 1.5 280 03:42 13.03.2020
1105 Rain 14 1008 93 10000 2.1 310 01:47 13.03.2020
1106 Rain 14 1008 93 10000 2.1 310 01:19 13.03.2020
1107 Rain 15 1008 93 10000 0.82 327 00:53 13.03.2020
1108 Rain 15 1008 93 10000 0.82 327 00:24 13.03.2020
1109 Rain 16 1008 87 10000 1 0 23:50 12.03.2020
1110 Rain 16 1008 87 10000 1 0 23:27 12.03.2020
1111 Rain 16 1007 87 10000 1.5 340 22:56 12.03.2020
1112 Rain 16 1007 87 10000 1.5 340 22:38 12.03.2020
1113 Rain 16 1007 87 10000 1.5 340 22:20 12.03.2020
1114 Rain 16 1007 82 9000 0.5 0 21:44 12.03.2020
1115 Rain 16 1007 82 9000 0.5 0 21:26 12.03.2020
1116 Rain 15 1007 93 6000 0.5 0 20:57 12.03.2020
1117 Rain 15 1007 93 6000 0.5 0 20:37 12.03.2020
1118 Rain 15 1007 93 6000 0.5 0 20:19 12.03.2020
1119 Clouds 15 1007 87 10000 2.6 280 19:40 12.03.2020
1120 Clouds 15 1007 87 10000 2.6 280 19:20 12.03.2020
1121 Rain 14 1008 93 9000 2.6 270 18:44 12.03.2020
1122 Rain 14 1008 93 9000 2.6 270 18:24 12.03.2020
1123 Rain 12 1008 93 7000 2.1 290 17:57 12.03.2020
1124 Rain 12 1008 93 7000 2.1 290 17:38 12.03.2020
1125 Rain 12 1008 93 7000 2.1 290 17:19 12.03.2020
1126 Rain 12 1008 87 10000 1 0 16:54 12.03.2020
1127 Rain 12 1008 87 10000 1 0 16:36 12.03.2020
1128 Rain 12 1008 87 10000 1 0 16:18 12.03.2020
1129 Rain 11 1008 87 6000 1 0 15:43 12.03.2020
1130 Rain 11 1008 87 6000 1 0 15:24 12.03.2020
1131 Rain 11 1008 87 10000 0.5 0 14:39 12.03.2020
1132 Rain 11 1008 87 10000 0.5 0 14:19 12.03.2020
1133 Rain 10 1008 87 8000 1 0 13:41 12.03.2020
1134 Rain 10 1008 87 8000 1 0 13:22 12.03.2020
1135 Clouds 10 1008 87 10000 1 0 12:56 12.03.2020
1136 Clouds 10 1008 87 10000 1 0 12:38 12.03.2020
1137 Clouds 10 1008 87 10000 1 0 12:19 12.03.2020
1138 Rain 10 1008 93 10000 1.01 348 11:56 12.03.2020
1139 Rain 10 1008 93 10000 1.01 348 11:56 12.03.2020
1140 Rain 10 1008 93 10000 1.01 348 11:37 12.03.2020
1141 Clouds 10 1008 87 10000 0.5 0 11:19 12.03.2020
1142 Clouds 8 1009 85 0 0.48 356 10:56 12.03.2020
1143 Clouds 8 1009 85 0 0.48 356 10:38 12.03.2020
1144 Clouds 8 1009 85 0 0.48 356 10:19 12.03.2020
1145 Clouds 8 1009 85 0 0.48 356 09:43 12.03.2020
1146 Clouds 8 1009 85 0 0.48 356 09:25 12.03.2020
1147 Clouds 8 1009 85 0 0.48 356 08:41 12.03.2020
1148 Clouds 7 1009 95 0 1.66 326 08:19 12.03.2020
1149 Clouds 7 1010 91 0 1.77 322 07:53 12.03.2020
1150 Clouds 7 1010 91 0 1.77 322 07:23 12.03.2020
1151 Clouds 7 1010 91 0 1.77 322 06:44 12.03.2020
1152 Clouds 7 1010 91 0 1.77 322 05:40 12.03.2020
1153 Clouds 11 1011 76 10000 0.5 0 04:27 12.03.2020
1154 Clouds 13 1011 66 10000 1.5 300 02:34 12.03.2020
1155 Clouds 14 1011 62 10000 2.67 290 01:30 12.03.2020
1156 Clouds 18 1011 45 10000 4.1 280 00:42 12.03.2020
1157 Clouds 19 1011 42 10000 4.6 0 23:59 11.03.2020
1158 Clouds 19 1011 42 10000 4.6 0 23:37 11.03.2020
1159 Clear 19 1011 42 10000 4.6 0 23:18 11.03.2020
1160 Clear 19 1010 42 10000 5.7 290 22:42 11.03.2020
1161 Clear 19 1010 42 10000 5.7 290 22:23 11.03.2020
1162 Clouds 19 1010 42 10000 6.7 270 21:58 11.03.2020
1163 Clouds 19 1010 42 10000 6.7 270 21:40 11.03.2020
1164 Clouds 19 1010 42 10000 6.7 270 21:22 11.03.2020
1165 Clouds 20 1011 42 10000 7.7 290 20:57 11.03.2020
1166 Clouds 20 1011 42 10000 7.7 290 20:37 11.03.2020
1167 Clouds 20 1011 42 10000 7.7 290 20:19 11.03.2020
1168 Clear 20 1010 42 10000 8.2 290 19:42 11.03.2020
1169 Clear 20 1010 42 10000 8.2 290 19:24 11.03.2020
1170 Clear 20 1011 42 10000 5.7 270 18:57 11.03.2020
1171 Clear 20 1011 42 10000 5.7 270 18:38 11.03.2020
1172 Clear 20 1011 42 10000 5.7 270 18:19 11.03.2020
1173 Clouds 19 1011 48 10000 4.1 300 17:55 11.03.2020
1174 Clouds 19 1011 48 10000 4.1 300 17:37 11.03.2020
1175 Clouds 19 1011 48 10000 4.1 300 17:18 11.03.2020
1176 Clouds 19 1011 52 10000 3.6 0 16:43 11.03.2020
1177 Clouds 19 1011 52 10000 3.6 0 16:19 11.03.2020
1178 Clouds 18 1011 55 10000 2.6 330 15:43 11.03.2020
1179 Clouds 18 1011 55 10000 2.6 330 15:23 11.03.2020
1180 Clouds 16 1011 59 10000 3.1 0 14:46 11.03.2020
1181 Clouds 16 1011 59 10000 3.1 0 14:25 11.03.2020
1182 Clouds 15 1011 67 10000 2.1 330 13:59 11.03.2020
1183 Clouds 15 1011 67 10000 2.1 330 13:40 11.03.2020
1184 Clouds 15 1011 67 10000 2.1 330 13:22 11.03.2020
1185 Clouds 9 1011 89 0 2.65 296 12:56 11.03.2020
1186 Clouds 9 1011 89 0 2.65 296 12:38 11.03.2020
1187 Clouds 9 1011 89 0 2.65 296 12:18 11.03.2020
1188 Clouds 9 1011 89 0 2.65 296 11:40 11.03.2020
1189 Clouds 8 1011 94 0 1.99 298 11:20 11.03.2020
1190 Clouds 8 1011 94 0 1.99 298 10:47 11.03.2020
1191 Clouds 8 1011 94 0 1.99 298 10:20 11.03.2020
1192 Clouds 8 1011 94 0 1.99 298 09:58 11.03.2020
1193 Clouds 8 1011 94 0 1.99 298 09:38 11.03.2020
1194 Clouds 8 1011 94 0 1.99 298 09:19 11.03.2020
1195 Clouds 8 1011 94 0 1.99 298 08:42 11.03.2020
1196 Clouds 8 1011 94 0 1.99 298 08:23 11.03.2020
1197 Clouds 9 1010 92 0 2.28 323 07:47 11.03.2020
1198 Clouds 9 1010 92 0 2.28 323 07:20 11.03.2020
1199 Clouds 9 1010 92 0 2.28 323 06:49 11.03.2020
1200 Clouds 9 1010 92 0 2.28 323 06:20 11.03.2020
1201 Clouds 9 1010 92 0 2.28 323 05:23 11.03.2020
1202 Rain 11 1011 84 0 2.69 298 02:36 11.03.2020
1203 Clouds 12 1010 79 0 2.64 295 01:44 11.03.2020
1204 Clouds 12 1010 80 0 2.37 290 00:53 11.03.2020
1205 Clouds 12 1010 80 0 2.37 290 00:21 11.03.2020
1206 Clouds 12 1010 80 0 2.37 290 23:45 10.03.2020
1207 Clouds 12 1010 80 0 2.37 290 23:22 10.03.2020
1208 Clouds 21 1010 39 0 3.72 289 22:41 10.03.2020
1209 Clouds 23 1010 38 10000 2.1 0 22:20 10.03.2020
1210 Clouds 23 1010 38 10000 2.1 0 21:57 10.03.2020
1211 Clouds 23 1010 38 10000 2.1 0 21:39 10.03.2020
1212 Clouds 23 1010 38 10000 2.1 0 21:39 10.03.2020
1213 Clouds 23 1010 38 10000 2.1 0 21:20 10.03.2020
1214 Clouds 21 1012 43 10000 3.1 320 20:59 10.03.2020
1215 Clouds 21 1012 43 10000 3.1 320 20:41 10.03.2020
1216 Clouds 21 1012 43 10000 3.1 320 20:19 10.03.2020
1217 Clouds 20 1012 42 10000 2.1 310 19:57 10.03.2020
1218 Clouds 20 1012 42 10000 2.1 310 19:57 10.03.2020
1219 Clouds 20 1012 42 10000 2.1 310 19:38 10.03.2020
1220 Clouds 20 1012 42 10000 2.1 310 19:38 10.03.2020
1221 Clouds 20 1012 42 10000 2.1 310 19:38 10.03.2020
1222 Clouds 20 1012 42 10000 2.1 310 19:20 10.03.2020
1223 Clouds 19 1013 45 10000 1 0 18:45 10.03.2020
1224 Clouds 19 1013 45 10000 1 0 18:26 10.03.2020
1225 Clouds 17 1014 51 10000 1 0 17:57 10.03.2020
1226 Clouds 17 1014 51 10000 1 0 17:39 10.03.2020
1227 Clouds 17 1014 51 10000 1 0 17:21 10.03.2020
1228 Clouds 14 1015 67 10000 2.1 120 16:39 10.03.2020
1229 Clouds 14 1015 67 10000 2.1 120 16:19 10.03.2020
1230 Clouds 13 1015 66 10000 1 0 15:56 10.03.2020
1231 Clouds 13 1015 66 10000 1 0 15:56 10.03.2020
1232 Clouds 13 1015 66 10000 1 0 15:37 10.03.2020
1233 Clouds 13 1015 66 10000 1 0 15:19 10.03.2020
1234 Clouds 10 1016 81 10000 1 0 14:41 10.03.2020
1235 Clouds 10 1016 81 10000 1 0 14:20 10.03.2020
1236 Clouds 7 1016 100 10000 1 0 13:58 10.03.2020
1237 Clouds 7 1016 100 10000 1 0 13:38 10.03.2020
1238 Clouds 7 1016 100 10000 1 0 13:20 10.03.2020
1239 Clouds 6 1016 93 0 0.95 293 12:42 10.03.2020
1240 Clouds 6 1016 93 0 0.95 293 12:19 10.03.2020
1241 Clouds 6 1016 100 0 0.95 293 11:57 10.03.2020
1242 Clouds 6 1016 100 0 0.95 293 11:39 10.03.2020
1243 Clouds 6 1016 100 0 1.41 299 11:20 10.03.2020
1244 Clouds 7 1016 93 0 1.5 280 10:42 10.03.2020
1245 Clouds 7 1016 93 0 1.5 280 10:23 10.03.2020
1246 Clouds 8 1016 87 0 2.6 290 09:57 10.03.2020
1247 Clouds 8 1016 87 0 2.6 290 09:39 10.03.2020
1248 Clouds 8 1016 87 0 2.6 290 09:19 10.03.2020
1249 Clouds 9 1017 87 0 2.1 280 08:46 10.03.2020
1250 Clouds 9 1017 87 0 2.1 280 08:28 10.03.2020
1251 Clouds 9 1017 87 0 2.1 290 07:50 10.03.2020
1252 Clouds 9 1017 87 0 2.1 290 07:31 10.03.2020
1253 Clouds 10 1017 81 0 1.84 298 06:44 10.03.2020
1254 Clouds 10 1017 81 0 1.84 298 06:25 10.03.2020
1255 Clouds 11 1017 81 0 1.5 290 05:41 10.03.2020
1256 Clouds 11 1017 76 0 2.6 310 04:40 10.03.2020
1257 Clouds 12 1017 71 0 2.6 300 03:37 10.03.2020
1258 Clouds 14 1017 62 0 3.1 290 02:26 10.03.2020
1259 Clouds 15 1016 58 0 3.1 300 01:20 10.03.2020
1260 Clouds 19 1015 48 0 3.6 280 00:41 10.03.2020
1261 Clouds 19 1015 48 0 3.6 280 00:22 10.03.2020
1262 Clouds 23 1015 33 0 1.5 310 23:40 09.03.2020
1263 Clouds 23 1015 33 0 1.5 310 23:21 09.03.2020
1264 Clouds 25 1015 20 0 3.6 290 22:41 09.03.2020
1265 Clouds 25 1015 20 0 3.6 290 22:22 09.03.2020
1266 Clouds 24 1015 31 10000 3.1 330 21:57 09.03.2020
1267 Clouds 24 1015 31 10000 3.1 330 21:39 09.03.2020
1268 Clouds 24 1015 31 10000 3.1 330 21:20 09.03.2020
1269 Clouds 23 1016 28 10000 2.6 330 20:56 09.03.2020
1270 Clouds 23 1016 28 10000 2.6 330 20:37 09.03.2020
1271 Clouds 23 1016 28 10000 2.6 330 20:18 09.03.2020
1272 Clouds 21 1017 35 10000 1 0 19:44 09.03.2020
1273 Clouds 21 1017 35 10000 1 0 19:21 09.03.2020
1274 Clouds 19 1018 45 10000 2.1 310 18:57 09.03.2020
1275 Clouds 19 1018 45 10000 2.1 310 18:38 09.03.2020
1276 Clouds 19 1018 45 10000 2.1 310 18:19 09.03.2020
1277 Clouds 16 1019 59 10000 1.5 0 17:57 09.03.2020
1278 Clouds 16 1019 59 10000 1.5 0 17:38 09.03.2020
1279 Clear 16 1019 59 10000 1.5 0 17:19 09.03.2020
1280 Clear 14 1020 62 10000 1 0 16:57 09.03.2020
1281 Clear 14 1020 62 10000 1 0 16:39 09.03.2020
1282 Clear 14 1020 62 10000 1 0 16:20 09.03.2020
1283 Clear 10 1020 76 10000 1.5 0 15:57 09.03.2020
1284 Clear 10 1020 76 10000 1.5 0 15:38 09.03.2020
1285 Clear 10 1020 76 10000 1.5 0 15:19 09.03.2020
1286 Clouds 7 1021 93 10000 1 0 14:41 09.03.2020
1287 Clouds 7 1021 93 10000 1 0 14:23 09.03.2020
1288 Mist 5 1022 100 1500 0.4 197 13:59 09.03.2020
1289 Mist 5 1022 100 1500 0.4 197 13:59 09.03.2020
1290 Mist 5 1022 100 1500 0.4 197 13:40 09.03.2020
1291 Mist 5 1022 100 1500 0.4 197 13:21 09.03.2020
1292 Clouds 3 1020 100 0 1 0 12:59 09.03.2020
1293 Clouds 3 1020 100 0 1 0 12:40 09.03.2020
1294 Clouds 3 1020 100 0 1 0 12:19 09.03.2020
1295 Clouds 4 1020 100 0 1 140 11:40 09.03.2020
1296 Clouds 4 1020 100 0 1 140 11:20 09.03.2020
1297 Clear 5 1020 93 0 0.82 296 10:57 09.03.2020
1298 Clear 5 1020 93 0 0.82 296 10:39 09.03.2020
1299 Clear 5 1020 93 0 0.82 296 10:19 09.03.2020
1300 Clear 5 1020 93 0 1 0 09:42 09.03.2020
1301 Clear 5 1020 93 0 1 0 09:24 09.03.2020
1302 Clear 6 1020 100 0 1 0 08:47 09.03.2020
1303 Clear 6 1020 100 0 1 0 08:29 09.03.2020
1304 Clear 7 1021 93 0 1 0 07:57 09.03.2020
1305 Clear 7 1021 93 0 1 0 07:37 09.03.2020
1306 Clear 7 1021 93 0 1 0 07:18 09.03.2020
1307 Clear 9 1020 81 0 3.1 300 06:39 09.03.2020
1308 Clear 9 1020 81 0 3.1 300 06:21 09.03.2020
1309 Clear 9 1020 81 0 2.6 290 05:41 09.03.2020
1310 Clear 10 1020 76 0 3.1 280 04:56 09.03.2020
1311 Clear 10 1020 76 0 3.1 280 04:37 09.03.2020
1312 Clear 10 1020 76 0 3.1 280 04:37 09.03.2020
1313 Clear 10 1020 76 0 3.1 280 04:18 09.03.2020
1314 Clear 11 1020 76 0 2.1 300 02:51 09.03.2020
1315 Clouds 16 1018 51 0 3.1 270 00:42 09.03.2020
1316 Clouds 16 1018 51 0 3.1 270 00:24 09.03.2020
1317 Clouds 17 1017 48 0 5.7 290 23:58 08.03.2020
1318 Clouds 17 1017 48 0 5.7 290 23:58 08.03.2020
1319 Clouds 17 1017 48 0 5.7 290 23:29 08.03.2020
1320 Clouds 19 1017 45 0 5.1 300 22:59 08.03.2020
1321 Clouds 19 1017 45 0 5.1 300 22:40 08.03.2020
1322 Clouds 19 1017 45 0 5.1 300 22:22 08.03.2020
1323 Clouds 18 1017 42 0 4.6 290 21:57 08.03.2020
1324 Clouds 18 1017 42 0 4.6 290 21:57 08.03.2020
1325 Clouds 18 1017 42 0 4.6 290 21:39 08.03.2020
1326 Clouds 18 1017 42 0 4.6 290 21:19 08.03.2020
1327 Clouds 17 1017 48 0 3.6 290 20:56 08.03.2020
1328 Clouds 17 1017 48 0 3.6 290 20:37 08.03.2020
1329 Clouds 17 1017 48 0 3.6 290 20:18 08.03.2020
1330 Clouds 17 1018 48 0 2.6 300 19:38 08.03.2020
1331 Clouds 17 1018 48 0 2.6 300 19:19 08.03.2020
1332 Clouds 16 1018 51 0 3.1 0 18:43 08.03.2020
1333 Clouds 16 1018 51 0 3.1 0 18:24 08.03.2020
1334 Clouds 15 1018 54 0 3.1 280 17:57 08.03.2020
1335 Clouds 15 1018 54 0 3.1 280 17:38 08.03.2020
1336 Clouds 15 1018 54 0 3.1 280 17:19 08.03.2020
1337 Clouds 14 1018 58 0 1.5 0 16:47 08.03.2020
1338 Clouds 14 1018 58 0 1.5 0 16:28 08.03.2020
1339 Clouds 13 1018 62 0 3.1 300 15:58 08.03.2020
1340 Clouds 13 1018 62 0 3.1 300 15:40 08.03.2020
1341 Clouds 13 1018 62 0 3.1 300 15:21 08.03.2020
1342 Clouds 12 1017 66 0 3.1 310 14:42 08.03.2020
1343 Clouds 12 1017 66 0 3.1 310 14:22 08.03.2020
1344 Clouds 12 1017 62 0 2.1 0 13:59 08.03.2020
1345 Clouds 12 1017 62 0 2.1 0 13:39 08.03.2020
1346 Clouds 12 1017 62 0 2.1 0 13:19 08.03.2020
1347 Clouds 11 1017 66 0 2.1 270 12:41 08.03.2020
1348 Clouds 11 1017 66 0 2.1 270 12:23 08.03.2020
1349 Clouds 11 1017 71 0 2.6 280 11:55 08.03.2020
1350 Clouds 11 1017 71 0 2.6 280 11:37 08.03.2020
1351 Clouds 11 1017 71 0 2.6 280 11:37 08.03.2020
1352 Clouds 11 1017 71 0 2.6 280 11:37 08.03.2020
1353 Clouds 11 1017 71 0 2.6 280 11:19 08.03.2020
1354 Clouds 13 1016 58 0 3.6 200 10:41 08.03.2020
1355 Clouds 13 1016 58 0 3.6 200 10:23 08.03.2020
1356 Clouds 13 1016 58 0 4.1 250 09:43 08.03.2020
1357 Clouds 13 1016 58 0 4.1 250 09:24 08.03.2020
1358 Clouds 13 1016 58 0 3.6 250 08:51 08.03.2020
1359 Clouds 13 1016 58 0 3.6 250 08:28 08.03.2020
1360 Clear 13 1016 58 0 4.6 260 07:56 08.03.2020
1361 Clear 13 1016 58 0 4.6 260 07:37 08.03.2020
1362 Clear 13 1016 58 0 4.6 260 07:18 08.03.2020
1363 Clear 13 1016 58 0 4.1 260 06:40 08.03.2020
1364 Clear 13 1016 58 0 4.1 260 06:22 08.03.2020
1365 Clear 13 1015 54 0 5.1 260 05:19 08.03.2020
1366 Clear 13 1014 54 0 8.7 280 03:51 08.03.2020
1367 Clear 14 1014 50 0 8.2 280 02:28 08.03.2020
1368 Clear 14 1014 50 0 9.8 290 01:23 08.03.2020
1369 Clear 14 1014 50 0 9.8 290 01:23 08.03.2020
1370 Clear 14 1014 50 0 9.8 290 01:23 08.03.2020
1371 Clear 14 1014 50 0 9.8 280 00:44 08.03.2020
1372 Clear 14 1014 50 0 9.8 280 00:25 08.03.2020
1373 Clear 15 1014 44 0 9.8 290 23:44 07.03.2020
1374 Clear 15 1014 44 0 9.8 290 23:23 07.03.2020
1375 Clear 16 1013 44 0 11.8 290 22:40 07.03.2020
1376 Clear 16 1013 44 0 11.8 290 22:21 07.03.2020
1377 Clear 16 1013 44 0 13.4 290 21:49 07.03.2020
1378 Clear 16 1013 44 0 13.4 290 21:25 07.03.2020
1379 Clear 17 1013 39 0 12.3 290 20:42 07.03.2020
1380 Clear 17 1013 39 0 12.3 290 20:24 07.03.2020
1381 Clear 17 1013 39 0 12.3 290 20:24 07.03.2020
1382 Clouds 17 1013 39 0 11.8 290 19:59 07.03.2020
1383 Clouds 17 1013 39 0 11.8 290 19:40 07.03.2020
1384 Clouds 17 1013 39 0 11.8 290 19:20 07.03.2020
1385 Clouds 17 1012 39 0 12.9 290 18:42 07.03.2020
1386 Clouds 17 1012 39 0 12.9 290 18:24 07.03.2020
1387 Clouds 16 1013 41 0 10.3 300 17:56 07.03.2020
1388 Clouds 16 1013 41 0 10.3 300 17:38 07.03.2020
1389 Clear 16 1013 41 0 10.3 300 17:18 07.03.2020
1390 Clear 15 1013 44 0 11.3 290 16:42 07.03.2020
1391 Clear 15 1013 44 0 11.3 290 16:23 07.03.2020
1392 Clear 13 1013 54 0 8.2 280 15:58 07.03.2020
1393 Clear 13 1013 54 0 8.2 280 15:39 07.03.2020
1394 Clear 13 1013 54 0 8.2 280 15:39 07.03.2020
1395 Clear 13 1013 54 0 8.2 280 15:21 07.03.2020
1396 Clear 13 1012 54 0 9.8 290 14:57 07.03.2020
1397 Clear 13 1012 54 0 9.8 290 14:38 07.03.2020
1398 Clear 13 1012 54 0 9.8 290 14:19 07.03.2020
1399 Clear 13 1012 50 0 7.7 270 13:40 07.03.2020
1400 Clear 13 1012 50 0 7.7 270 13:20 07.03.2020
1401 Clear 12 1012 54 0 5.7 300 12:43 07.03.2020
1402 Clear 12 1012 54 0 5.7 300 12:21 07.03.2020
1403 Clear 11 1012 66 0 3.6 0 11:58 07.03.2020
1404 Clear 11 1012 66 0 3.6 0 11:58 07.03.2020
1405 Clear 11 1012 66 0 3.6 0 11:39 07.03.2020
1406 Clear 11 1012 66 0 3.6 0 11:21 07.03.2020
1407 Clear 12 1012 54 0 5.7 200 10:41 07.03.2020
1408 Clear 12 1012 54 0 5.7 200 10:21 07.03.2020
1409 Clear 12 1011 54 0 5.1 240 09:57 07.03.2020
1410 Clear 12 1011 54 0 5.1 240 09:38 07.03.2020
1411 Clear 12 1011 54 0 5.1 240 09:18 07.03.2020
1412 Clear 13 1011 47 0 5.7 250 08:44 07.03.2020
1413 Clear 13 1011 47 0 5.7 250 08:21 07.03.2020
1414 Clear 13 1011 47 0 5.7 250 08:21 07.03.2020
1415 Clouds 14 1010 44 0 7.2 250 07:49 07.03.2020
1416 Clouds 14 1010 44 0 7.2 250 07:22 07.03.2020
1417 Clouds 14 1010 44 0 5.1 260 06:54 07.03.2020
1418 Clouds 5 1010 90 0 3.48 294 06:29 07.03.2020
1419 Clouds 5 1010 90 0 3.48 294 05:50 07.03.2020
1420 Rain 14 1010 47 0 3.6 0 04:40 07.03.2020
1421 Rain 13 1009 62 0 8.2 280 02:46 07.03.2020
1422 Rain 13 1009 62 0 8.2 280 02:24 07.03.2020
1423 Rain 16 1006 59 0 12.9 280 01:23 07.03.2020
1424 Rain 19 1003 63 0 7.2 260 00:38 07.03.2020
1425 Rain 19 1003 63 0 7.2 260 00:19 07.03.2020
1426 Rain 20 1003 52 0 7.7 260 23:43 06.03.2020
1427 Rain 20 1003 52 0 7.7 260 23:24 06.03.2020
1428 Clouds 22 1004 40 0 7.7 280 22:47 06.03.2020
1429 Clouds 22 1004 40 0 7.7 280 22:47 06.03.2020
1430 Clouds 22 1004 40 0 7.7 280 22:21 06.03.2020
1431 Clouds 24 1004 33 0 6.2 270 21:50 06.03.2020
1432 Clouds 24 1004 33 0 6.2 270 21:21 06.03.2020
1433 Clouds 25 1006 31 10000 4.6 250 20:56 06.03.2020
1434 Clouds 25 1006 31 10000 4.6 250 20:36 06.03.2020
1435 Clouds 25 1006 31 10000 4.6 250 20:36 06.03.2020
1436 Clouds 25 1006 31 10000 4.6 250 20:18 06.03.2020
1437 Clouds 26 1006 29 10000 4.6 260 19:42 06.03.2020
1438 Clouds 26 1006 29 10000 4.6 260 19:23 06.03.2020
1439 Clouds 24 1007 36 10000 1 0 18:42 06.03.2020
1440 Clouds 24 1007 36 10000 1 0 18:21 06.03.2020
1441 Clouds 24 1007 36 10000 1 0 18:21 06.03.2020
1442 Clouds 19 1009 52 10000 1.5 310 17:57 06.03.2020
1443 Clouds 19 1009 52 10000 1.5 310 17:39 06.03.2020
1444 Clouds 19 1009 52 10000 1.5 310 17:20 06.03.2020
1445 Clouds 16 1011 63 10000 1 0 16:55 06.03.2020
1446 Clouds 16 1011 63 10000 1 0 16:36 06.03.2020
1447 Clouds 16 1011 63 10000 1 0 16:18 06.03.2020
1448 Clouds 14 1012 71 10000 0.5 0 15:42 06.03.2020
1449 Clouds 14 1012 71 10000 0.5 0 15:22 06.03.2020
1450 Clouds 12 1012 76 10000 1 0 14:41 06.03.2020
1451 Clouds 12 1012 76 10000 1 0 14:22 06.03.2020
1452 Clouds 10 1013 87 10000 0.5 0 13:55 06.03.2020
1453 Clouds 10 1013 87 10000 0.5 0 13:37 06.03.2020
1454 Clouds 10 1013 87 10000 0.5 0 13:18 06.03.2020
1455 Clouds 13 1011 66 0 1.23 314 12:40 06.03.2020
1456 Clouds 13 1011 66 0 1.23 314 12:21 06.03.2020
1457 Clouds 13 1011 66 0 1.23 314 11:59 06.03.2020
1458 Clouds 13 1011 66 0 1.23 314 11:41 06.03.2020
1459 Clouds 9 1012 87 0 1.52 296 11:20 06.03.2020
1460 Clouds 9 1012 87 0 1.52 296 10:42 06.03.2020
1461 Clouds 9 1012 87 0 1.52 296 10:21 06.03.2020
1462 Clouds 9 1012 87 0 1.52 296 09:58 06.03.2020
1463 Clouds 9 1012 87 0 1.52 296 09:39 06.03.2020
1464 Clouds 9 1012 87 0 1.52 296 09:21 06.03.2020
1465 Clouds 9 1012 87 0 1.52 296 08:46 06.03.2020
1466 Clouds 9 1012 87 0 1.52 296 08:27 06.03.2020
1467 Clouds 11 1014 89 0 1.8 296 07:58 06.03.2020
1468 Clouds 11 1014 89 0 1.8 296 07:39 06.03.2020
1469 Clouds 11 1014 89 0 1.8 296 06:59 06.03.2020
1470 Clouds 11 1014 89 0 1.8 296 06:59 06.03.2020
1471 Clouds 11 1014 89 0 1.8 296 06:41 06.03.2020
1472 Clouds 11 1014 89 0 1.8 296 05:47 06.03.2020
1473 Clouds 11 1014 89 0 1.8 296 05:28 06.03.2020
1474 Clouds 12 1016 87 0 1.9 290 04:58 06.03.2020
1475 Clouds 12 1016 87 0 1.9 290 02:55 06.03.2020
1476 Clear 14 1015 83 0 2.16 280 01:40 06.03.2020
1477 Clouds 23 1016 38 10000 1 0 01:22 06.03.2020
1478 Clouds 23 1016 38 10000 1 0 00:33 06.03.2020
1479 Clouds 26 1016 31 10000 2.6 270 23:57 05.03.2020
1480 Clouds 26 1016 31 10000 2.6 270 23:39 05.03.2020
1481 Clouds 26 1016 31 10000 2.6 270 23:19 05.03.2020
1482 Clouds 28 1016 30 10000 1.5 0 22:40 05.03.2020
1483 Clouds 28 1016 30 10000 1.5 0 22:22 05.03.2020
1484 Clouds 28 1016 32 10000 1 0 21:57 05.03.2020
1485 Clouds 28 1016 32 10000 1 0 21:38 05.03.2020
1486 Clouds 28 1016 32 10000 1 0 21:20 05.03.2020
1487 Clouds 26 1016 34 10000 1.5 310 20:57 05.03.2020
1488 Clouds 26 1016 34 10000 1.5 310 20:39 05.03.2020
1489 Clouds 26 1016 34 10000 1.5 310 20:19 05.03.2020
1490 Clouds 25 1017 38 10000 1 0 19:56 05.03.2020
1491 Clouds 25 1017 38 10000 1 0 19:38 05.03.2020
1492 Clouds 25 1017 38 10000 1 0 19:18 05.03.2020
1493 Clouds 23 1018 46 10000 1 0 18:39 05.03.2020
1494 Clouds 23 1018 46 10000 1 0 18:20 05.03.2020
1495 Clouds 21 1018 52 10000 1 0 17:59 05.03.2020
1496 Clouds 21 1018 52 10000 1 0 17:40 05.03.2020
1497 Clouds 21 1018 52 10000 1 0 17:22 05.03.2020
1498 Clouds 19 1020 59 10000 1 0 16:54 05.03.2020
1499 Clouds 19 1020 59 10000 1 0 16:36 05.03.2020
1500 Clouds 19 1020 59 10000 1 0 16:18 05.03.2020
1501 Clouds 16 1020 67 10000 0.5 0 15:44 05.03.2020
1502 Clouds 16 1020 67 10000 0.5 0 15:22 05.03.2020
1503 Clouds 13 1021 87 10000 1.22 141 14:56 05.03.2020
1504 Clouds 13 1021 87 10000 1.22 141 14:37 05.03.2020
1505 Clouds 13 1021 87 10000 0.53 247 14:18 05.03.2020
1506 Clouds 10 1021 93 10000 1 0 13:43 05.03.2020
1507 Clouds 10 1021 93 10000 1 0 13:21 05.03.2020
1508 Clear 10 1021 93 9000 0.64 274 12:58 05.03.2020
1509 Clear 10 1021 93 9000 0.64 274 12:40 05.03.2020
1510 Clear 10 1021 93 9000 0.64 274 12:19 05.03.2020
1511 Clear 11 1020 87 9000 0.5 0 11:56 05.03.2020
1512 Clear 11 1020 87 9000 0.5 0 11:37 05.03.2020
1513 Clear 11 1020 87 9000 0.5 0 11:18 05.03.2020
1514 Clouds 10 1020 93 10000 0.89 275 10:56 05.03.2020
1515 Clouds 10 1020 93 10000 0.89 275 10:38 05.03.2020
1516 Clouds 10 1020 93 10000 0.89 275 10:20 05.03.2020
1517 Clouds 11 1020 87 10000 0.89 275 09:44 05.03.2020
1518 Clouds 11 1020 87 10000 0.89 275 09:26 05.03.2020
1519 Clouds 12 1020 87 10000 0.5 280 08:44 05.03.2020
1520 Clouds 12 1020 87 10000 0.5 280 08:25 05.03.2020
1521 Clouds 13 1020 82 10000 1.5 280 07:47 05.03.2020
1522 Clouds 13 1020 82 10000 1.5 280 07:22 05.03.2020
1523 Clouds 14 1021 76 10000 1 250 06:49 05.03.2020
1524 Clouds 14 1021 76 10000 1 250 06:22 05.03.2020
1525 Clouds 10 1019 87 0 1.19 288 05:39 05.03.2020
1526 Clear 16 1020 67 10000 2.1 300 04:55 05.03.2020
1527 Clear 16 1020 67 10000 2.1 300 04:22 05.03.2020
1528 Clear 16 1020 72 10000 1.5 270 03:34 05.03.2020
1529 Clouds 18 1018 59 10000 2.21 263 01:55 05.03.2020
1530 Clouds 18 1018 59 10000 2.05 266 01:20 05.03.2020
1531 Clouds 23 1018 40 10000 1.5 300 00:26 05.03.2020
1532 Clouds 26 1017 29 10000 2.1 0 23:42 04.03.2020
1533 Clouds 26 1017 29 10000 2.1 0 23:23 04.03.2020
1534 Clouds 26 1016 29 10000 2.1 0 22:58 04.03.2020
1535 Clouds 26 1016 29 10000 2.1 0 22:39 04.03.2020
1536 Clouds 26 1016 29 10000 2.1 0 22:19 04.03.2020
1537 Clouds 26 1016 27 10000 1.5 0 21:57 04.03.2020
1538 Clouds 26 1016 27 10000 1.5 0 21:39 04.03.2020
1539 Clouds 26 1016 27 10000 1.5 0 21:20 04.03.2020
1540 Clouds 26 1017 26 10000 1.5 0 20:54 04.03.2020
1541 Clouds 26 1017 26 10000 1.5 0 20:36 04.03.2020
1542 Clouds 26 1017 26 10000 1.5 0 20:18 04.03.2020
1543 Clouds 25 1017 25 10000 1.5 0 19:42 04.03.2020
1544 Clouds 25 1017 25 10000 1.5 0 19:22 04.03.2020
1545 Clouds 24 1018 29 10000 2.1 0 18:54 04.03.2020
1546 Clouds 24 1018 29 10000 2.1 0 18:36 04.03.2020
1547 Clouds 24 1018 29 10000 2.1 0 18:18 04.03.2020
1548 Clouds 22 1018 33 10000 1.5 300 17:40 04.03.2020
1549 Clouds 22 1018 33 10000 1.5 300 17:40 04.03.2020
1550 Clouds 22 1018 33 10000 1.5 300 17:21 04.03.2020
1551 Clouds 20 1019 49 10000 2.1 210 16:59 04.03.2020
1552 Clouds 20 1019 49 10000 2.1 210 16:40 04.03.2020
1553 Clouds 20 1019 49 10000 2.1 210 16:22 04.03.2020
1554 Clouds 17 1019 59 10000 1.5 220 15:55 04.03.2020
1555 Clouds 17 1019 59 10000 1.5 220 15:36 04.03.2020
1556 Clouds 17 1019 59 10000 1.5 220 15:18 04.03.2020
1557 Clouds 15 1019 62 10000 0.5 0 14:41 04.03.2020
1558 Clouds 15 1019 62 10000 0.5 0 14:21 04.03.2020
1559 Clouds 11 1019 87 10000 1 0 13:59 04.03.2020
1560 Clouds 11 1019 87 10000 1 0 13:39 04.03.2020
1561 Clouds 11 1019 87 10000 1 0 13:21 04.03.2020
1562 Clouds 12 1019 76 10000 1 0 12:56 04.03.2020
1563 Clouds 12 1019 76 10000 1 0 12:38 04.03.2020
1564 Clouds 12 1019 76 10000 1 0 12:20 04.03.2020
1565 Clouds 12 1018 81 10000 1.5 250 11:54 04.03.2020
1566 Clouds 12 1018 81 10000 1.5 250 11:36 04.03.2020
1567 Clouds 12 1018 81 10000 1.5 250 11:18 04.03.2020
1568 Clouds 11 1017 81 10000 0.5 0 10:41 04.03.2020
1569 Clouds 11 1017 81 10000 0.5 0 10:22 04.03.2020
1570 Clouds 11 1017 81 10000 1 0 09:44 04.03.2020
1571 Clouds 11 1017 81 10000 1 0 09:22 04.03.2020
1572 Clouds 12 1017 76 10000 1.5 280 08:58 04.03.2020
1573 Clouds 12 1017 76 10000 1.5 280 08:40 04.03.2020
1574 Clouds 12 1017 76 10000 1.5 280 08:21 04.03.2020
1575 Clouds 13 1017 76 10000 1.5 300 07:41 04.03.2020
1576 Clouds 13 1017 76 10000 1.5 300 07:23 04.03.2020
1577 Clouds 14 1017 67 10000 1.5 310 06:47 04.03.2020
1578 Clouds 14 1017 67 10000 1.5 310 06:25 04.03.2020
1579 Clouds 11 1015 73 0 2.02 296 05:54 04.03.2020
1580 Clouds 14 1016 67 10000 1.5 270 04:40 04.03.2020
1581 Clouds 16 1016 59 10000 1.5 280 03:46 04.03.2020
1582 Clouds 16 1016 59 10000 1.5 280 03:28 04.03.2020
1583 Clouds 17 1015 55 10000 2.1 290 02:58 04.03.2020
1584 Clouds 17 1015 55 10000 2.1 290 02:22 04.03.2020
1585 Clear 19 1014 48 9000 1 0 01:56 04.03.2020
1586 Clear 22 1014 37 9000 1.5 230 00:53 04.03.2020
1587 Clear 22 1014 37 9000 1.5 230 00:53 04.03.2020
1588 Clear 22 1014 37 9000 1.5 230 00:27 04.03.2020
1589 Clouds 26 1014 22 10000 1.5 260 23:48 03.03.2020
1590 Clouds 26 1014 22 10000 1.5 260 23:28 03.03.2020
1591 Clouds 27 1014 24 10000 1.5 260 22:59 03.03.2020
1592 Clouds 27 1014 24 10000 1.5 260 22:40 03.03.2020
1593 Clouds 27 1014 24 10000 1.5 260 22:20 03.03.2020
1594 Clouds 27 1014 30 10000 1.5 260 21:58 03.03.2020
1595 Clouds 27 1014 30 10000 1.5 260 21:38 03.03.2020
1596 Clouds 27 1014 30 10000 1.5 260 21:19 03.03.2020
1597 Clouds 25 1014 29 10000 2.1 280 20:55 03.03.2020
1598 Clouds 25 1014 29 10000 2.1 280 20:36 03.03.2020
1599 Clouds 25 1014 29 10000 2.1 280 20:18 03.03.2020
1600 Clouds 23 1015 31 10000 1.5 310 19:54 03.03.2020
1601 Clouds 23 1015 31 10000 1.5 310 19:36 03.03.2020
1602 Clouds 23 1015 31 10000 1.5 310 19:18 03.03.2020
1603 Clouds 23 1015 31 10000 1.5 310 19:18 03.03.2020
1604 Clouds 21 1016 30 10000 1 0 18:42 03.03.2020
1605 Clouds 21 1016 30 10000 1 0 18:22 03.03.2020
1606 Clouds 20 1016 32 10000 0.5 0 17:59 03.03.2020
1607 Clouds 20 1016 32 10000 0.5 0 17:40 03.03.2020
1608 Clouds 20 1016 32 10000 0.5 0 17:21 03.03.2020
1609 Clouds 16 1017 51 10000 1 0 16:57 03.03.2020
1610 Clouds 16 1017 51 10000 1 0 16:38 03.03.2020
1611 Clouds 16 1017 51 10000 1 0 16:19 03.03.2020
1612 Clouds 16 1017 51 10000 1 0 16:19 03.03.2020
1613 Clouds 13 1018 62 10000 0.5 0 15:45 03.03.2020
1614 Clouds 13 1018 62 10000 0.5 0 15:22 03.03.2020
1615 Clouds 13 1018 62 10000 1 0 14:57 03.03.2020
1616 Clouds 13 1018 62 10000 1 0 14:38 03.03.2020
1617 Clouds 13 1018 62 10000 1 0 14:19 03.03.2020
1618 Clouds 9 1018 81 10000 0.83 287 13:56 03.03.2020
1619 Clouds 9 1018 81 10000 0.82 281 13:38 03.03.2020
1620 Clouds 9 1018 81 10000 0.82 281 13:19 03.03.2020
1621 Clouds 6 1018 93 10000 1 0 12:43 03.03.2020
1622 Clouds 6 1018 93 10000 1 0 12:24 03.03.2020
1623 Clouds 7 1018 87 10000 0.5 0 11:55 03.03.2020
1624 Clouds 7 1018 87 10000 0.5 0 11:37 03.03.2020
1625 Clear 7 1018 87 10000 0.5 0 11:18 03.03.2020
1626 Clear 8 1017 81 10000 1 0 10:55 03.03.2020
1627 Clear 8 1017 81 10000 1 0 10:36 03.03.2020
1628 Clear 8 1017 81 10000 1 0 10:18 03.03.2020
1629 Clear 8 1017 81 10000 1 0 10:18 03.03.2020
1630 Clear 8 1017 81 10000 1 0 10:18 03.03.2020
1631 Clear 9 1017 76 10000 1 290 09:41 03.03.2020
1632 Clear 9 1017 76 10000 1 290 09:21 03.03.2020
1633 Clear 10 1017 71 10000 1 270 08:42 03.03.2020
1634 Clear 10 1017 71 10000 1 270 08:22 03.03.2020
1635 Clouds 11 1017 71 10000 1.5 300 07:56 03.03.2020
1636 Clouds 11 1017 71 10000 1.5 300 07:56 03.03.2020
1637 Clouds 11 1017 71 10000 1.5 300 07:56 03.03.2020
1638 Clouds 11 1017 71 10000 1.5 300 07:56 03.03.2020
1639 Clouds 11 1017 71 10000 1.5 300 07:38 03.03.2020
1640 Clouds 11 1017 71 10000 1.5 300 07:18 03.03.2020
1641 Clouds 11 1017 66 10000 1 270 06:40 03.03.2020
1642 Clouds 11 1017 66 10000 1 270 06:21 03.03.2020
1643 Clouds 9 1015 71 0 1.68 295 05:43 03.03.2020
1644 Clouds 14 1017 58 10000 1.5 300 04:54 03.03.2020
1645 Clouds 17 1016 51 10000 1.5 290 02:38 03.03.2020
1646 Clouds 22 1015 37 10000 1 0 01:29 03.03.2020
1647 Clouds 22 1015 37 10000 1 0 00:42 03.03.2020
1648 Clouds 22 1015 37 10000 1 0 00:23 03.03.2020
1649 Clouds 26 1014 22 10000 1.5 310 23:48 02.03.2020
1650 Clouds 26 1014 22 10000 1.5 310 23:23 02.03.2020
1651 Clear 28 1014 15 10000 2.6 0 22:57 02.03.2020
1652 Clear 28 1014 15 10000 2.6 0 22:57 02.03.2020
1653 Clear 28 1014 15 10000 2.6 0 22:38 02.03.2020
1654 Clear 28 1014 15 10000 2.6 0 22:19 02.03.2020
1655 Clear 29 1014 16 10000 2.1 0 21:56 02.03.2020
1656 Clear 29 1014 16 10000 2.1 0 21:37 02.03.2020
1657 Clear 29 1014 16 10000 2.1 0 21:19 02.03.2020
1658 Clear 28 1014 20 10000 1.5 280 20:43 02.03.2020
1659 Clear 28 1014 20 10000 1.5 280 20:24 02.03.2020
1660 Clear 26 1015 31 10000 2.6 310 19:59 02.03.2020
1661 Clear 26 1015 31 10000 2.6 310 19:39 02.03.2020
1662 Clear 26 1015 31 10000 2.6 310 19:21 02.03.2020
1663 Clear 24 1015 33 10000 2.1 290 18:56 02.03.2020
1664 Clear 24 1015 33 10000 2.1 290 18:38 02.03.2020
1665 Clear 24 1015 33 10000 2.1 290 18:18 02.03.2020
1666 Clear 22 1016 43 10000 1.5 0 17:56 02.03.2020
1667 Clear 22 1016 43 10000 1.5 0 17:38 02.03.2020
1668 Clear 22 1016 43 10000 1.5 0 17:20 02.03.2020
1669 Clear 19 1017 55 10000 1 0 16:42 02.03.2020
1670 Clear 19 1017 55 10000 1 0 16:23 02.03.2020
1671 Clear 16 1018 63 10000 1.5 240 15:56 02.03.2020
1672 Clear 16 1018 63 10000 1.5 240 15:56 02.03.2020
1673 Clear 16 1018 63 10000 1.5 240 15:38 02.03.2020
1674 Clear 16 1018 63 10000 1.5 240 15:18 02.03.2020
1675 Clear 14 1018 71 10000 1 0 14:37 02.03.2020
1676 Clear 14 1018 71 10000 1 0 14:19 02.03.2020
1677 Clear 14 1018 71 10000 1 0 14:19 02.03.2020
1678 Clear 11 1018 81 10000 1 0 13:45 02.03.2020
1679 Clear 11 1018 81 10000 1 0 13:20 02.03.2020
1680 Clear 9 1018 87 9000 1 280 12:59 02.03.2020
1681 Clear 9 1018 87 9000 1 280 12:41 02.03.2020
1682 Clear 9 1018 87 9000 1 280 12:19 02.03.2020
1683 Clear 9 1018 87 10000 1 0 11:39 02.03.2020
1684 Clear 9 1018 87 10000 1 0 11:20 02.03.2020
1685 Clear 10 1017 81 10000 1.45 292 10:56 02.03.2020
1686 Clear 10 1017 81 10000 1.45 292 10:37 02.03.2020
1687 Clear 10 1017 81 10000 1.45 292 10:18 02.03.2020
1688 Clear 11 1017 81 10000 0.5 0 09:49 02.03.2020
1689 Clear 11 1017 81 10000 0.5 0 09:49 02.03.2020
1690 Clear 11 1017 81 10000 0.5 0 09:30 02.03.2020
1691 Clear 11 1017 81 10000 0.5 0 08:49 02.03.2020
1692 Clear 11 1017 81 10000 0.5 0 08:23 02.03.2020
1693 Clear 13 1017 71 10000 1 0 07:51 02.03.2020
1694 Clear 13 1017 71 10000 1 0 07:31 02.03.2020
1695 Clear 14 1017 67 10000 1 0 06:50 02.03.2020
1696 Clear 14 1017 67 10000 1 0 06:25 02.03.2020
1697 Clear 17 1017 59 9000 1.5 240 05:24 02.03.2020
1698 Clear 19 1016 48 9000 1 0 03:27 02.03.2020
1699 Clear 20 1015 49 9000 1.5 280 02:55 02.03.2020
1700 Clear 20 1015 49 9000 1.5 280 02:29 02.03.2020
1701 Clear 23 1014 35 9000 1 0 01:33 02.03.2020
1702 Clear 27 1013 24 10000 2.1 250 00:48 02.03.2020
1703 Clear 27 1013 24 10000 2.1 250 00:22 02.03.2020
1704 Clear 30 1013 19 10000 3.1 270 23:41 01.03.2020
1705 Clear 30 1013 19 10000 3.1 270 23:21 01.03.2020
1706 Clear 32 1012 18 10000 2.1 250 22:44 01.03.2020
1707 Clear 32 1012 18 10000 2.1 250 22:21 01.03.2020
1708 Clear 31 1012 20 10000 1.5 0 21:57 01.03.2020
1709 Clear 31 1012 20 10000 1.5 0 21:39 01.03.2020
1710 Clear 31 1012 20 10000 1.5 0 21:20 01.03.2020
1711 Clear 30 1013 28 10000 1.5 0 20:44 01.03.2020
1712 Clear 30 1013 28 10000 1.5 0 20:26 01.03.2020
1713 Rain 26 1002 41 3000 7.7 340 19:59 01.03.2020
1714 Rain 26 1002 41 3000 7.7 340 19:59 01.03.2020
1715 Rain 26 1002 41 3000 7.7 340 19:40 01.03.2020
1716 Rain 26 1002 41 3000 7.7 340 19:21 01.03.2020
1717 Rain 25 1002 41 3000 7.7 340 18:41 01.03.2020
1718 Rain 25 1002 41 3000 7.7 340 18:21 01.03.2020
1719 Rain 25 1002 41 3000 7.7 340 18:21 01.03.2020
1720 Rain 24 1002 41 3000 7.7 340 17:58 01.03.2020
1721 Clear 24 1015 44 10000 1.5 250 17:40 01.03.2020
1722 Clear 24 1015 44 10000 1.5 250 17:22 01.03.2020
1723 Clear 21 1015 52 9000 1.5 0 16:59 01.03.2020
1724 Clear 21 1015 52 9000 1.5 0 16:39 01.03.2020
1725 Clear 21 1015 52 9000 1.5 0 16:39 01.03.2020
1726 Clear 21 1015 52 9000 1.5 0 16:19 01.03.2020
1727 Clear 18 1016 63 10000 1.5 320 15:58 01.03.2020
1728 Clear 18 1016 63 10000 1.5 320 15:40 01.03.2020
1729 Clear 18 1016 63 10000 1.5 320 15:20 01.03.2020
1730 Clear 15 1016 77 9000 1.35 179 14:57 01.03.2020
1731 Clear 15 1016 77 9000 1.35 179 14:39 01.03.2020
1732 Clear 15 1016 77 9000 0.92 263 14:20 01.03.2020
1733 Clear 13 1016 82 9000 1 0 13:56 01.03.2020
1734 Clear 13 1016 82 9000 1 0 13:37 01.03.2020
1735 Clear 13 1016 82 9000 1 0 13:19 01.03.2020
1736 Clear 9 1016 93 9000 1.12 273 12:43 01.03.2020
1737 Clear 9 1016 93 9000 0.94 263 12:43 01.03.2020
1738 Clear 9 1016 93 9000 0.94 263 12:21 01.03.2020
1739 Clear 10 1016 93 9000 0.94 263 11:58 01.03.2020
1740 Clear 10 1016 93 9000 0.94 263 11:39 01.03.2020
1741 Clear 10 1016 93 9000 1.14 284 11:18 01.03.2020
1742 Clear 11 1015 93 10000 1.22 289 10:55 01.03.2020
1743 Clear 11 1015 93 10000 1.22 289 10:36 01.03.2020
1744 Clear 11 1015 93 10000 1.14 284 10:18 01.03.2020
1745 Clear 12 1015 93 10000 1 0 09:41 01.03.2020
1746 Clear 12 1015 93 10000 1 0 09:22 01.03.2020
1747 Clear 13 1015 82 10000 1 0 08:45 01.03.2020
1748 Clear 13 1015 82 10000 1 0 08:26 01.03.2020
1749 Clear 11 1014 89 0 1.21 287 07:45 01.03.2020
1750 Clear 15 1016 77 9000 1 260 07:24 01.03.2020
1751 Clear 15 1016 77 9000 1 260 06:58 01.03.2020
1752 Clear 15 1016 77 9000 1 260 06:40 01.03.2020
1753 Clear 16 1016 72 8000 1 0 04:39 01.03.2020
1754 Clear 19 1016 59 8000 1 0 02:58 01.03.2020
1755 Clear 19 1016 59 8000 1 0 02:18 01.03.2020
1756 Clear 21 1015 60 9000 1 0 01:34 01.03.2020
1757 Clear 25 1015 41 9000 1 0 00:48 01.03.2020
1758 Clear 25 1015 41 9000 1 0 00:23 01.03.2020
1759 Clear 30 1015 25 10000 1.5 0 23:54 29.02.2020
1760 Clear 30 1015 25 10000 1.5 0 23:35 29.02.2020
1761 Clear 31 1015 23 10000 1.5 0 22:45 29.02.2020
1762 Clear 31 1015 23 10000 1.5 0 22:26 29.02.2020
1763 Clear 30 1015 28 10000 2.6 300 21:47 29.02.2020
1764 Clear 30 1015 28 10000 2.6 300 21:26 29.02.2020
1765 Clear 28 1017 32 10000 2.6 320 20:58 29.02.2020
1766 Clear 28 1017 32 10000 2.6 320 20:40 29.02.2020
1767 Clear 28 1017 32 10000 2.6 320 20:19 29.02.2020
1768 Clear 27 1018 30 10000 1.5 300 19:41 29.02.2020
1769 Clear 27 1018 30 10000 1.5 300 19:22 29.02.2020
1770 Clear 24 1019 38 10000 1.5 320 18:56 29.02.2020
1771 Clear 24 1019 38 10000 1.5 320 18:38 29.02.2020
1772 Clear 24 1019 38 10000 1.5 320 18:19 29.02.2020
1773 Clear 22 1020 46 10000 1 0 17:54 29.02.2020
1774 Clear 22 1020 46 10000 1 0 17:36 29.02.2020
1775 Clear 22 1020 46 10000 1 0 17:18 29.02.2020
1776 Clear 19 1021 59 10000 2.1 120 16:42 29.02.2020
1777 Clear 19 1021 59 10000 2.1 120 16:18 29.02.2020
1778 Clear 17 1022 63 10000 1 0 15:42 29.02.2020
1779 Clear 17 1022 63 10000 1 0 15:23 29.02.2020
1780 Clear 14 1023 76 9000 0.5 0 14:55 29.02.2020
1781 Clear 14 1023 76 9000 0.5 0 14:37 29.02.2020
1782 Clear 14 1023 76 9000 0.5 0 14:19 29.02.2020
1783 Clear 11 1023 87 9000 1 0 13:42 29.02.2020
1784 Clear 11 1023 87 9000 1 0 13:23 29.02.2020
1785 Clear 9 1023 93 9000 1 270 12:43 29.02.2020
1786 Clear 9 1023 93 9000 1 270 12:23 29.02.2020
1787 Clear 9 1023 93 9000 1 0 11:58 29.02.2020
1788 Clear 9 1023 93 9000 1 0 11:39 29.02.2020
1789 Clear 9 1023 93 9000 1 0 11:21 29.02.2020
1790 Clear 10 1023 87 9000 1 0 10:47 29.02.2020
1791 Clear 10 1023 87 9000 1 0 10:28 29.02.2020
1792 Clear 11 1023 81 9000 1.5 270 09:50 29.02.2020
1793 Clear 11 1023 81 9000 1.5 270 09:27 29.02.2020
1794 Clear 11 1023 87 9000 1 0 08:43 29.02.2020
1795 Clear 11 1023 87 9000 1 0 08:24 29.02.2020
1796 Clear 12 1024 81 9000 1.13 273 07:59 29.02.2020
1797 Clear 12 1024 81 9000 1.13 273 07:41 29.02.2020
1798 Clear 12 1024 81 9000 1.13 273 07:18 29.02.2020
1799 Clear 13 1024 76 9000 1 0 06:45 29.02.2020
1800 Clear 13 1024 76 9000 1 0 06:25 29.02.2020
1801 Clear 13 1023 76 9000 1 0 05:47 29.02.2020
1802 Clear 15 1023 67 9000 1.5 290 04:46 29.02.2020
1803 Clear 16 1023 63 8000 1 0 03:40 29.02.2020
1804 Clear 16 1023 63 8000 1 0 03:22 29.02.2020
1805 Clear 17 1022 59 7000 1 0 02:37 29.02.2020
1806 Clear 22 1020 35 9000 2.1 290 00:59 29.02.2020
1807 Clear 22 1020 35 9000 2.1 290 00:37 29.02.2020
1808 Clear 25 1020 29 10000 1.5 0 23:46 28.02.2020
1809 Clear 25 1020 29 10000 1.5 0 23:25 28.02.2020
1810 Clear 25 1020 23 9000 2.1 0 22:55 28.02.2020
1811 Clear 25 1020 23 9000 2.1 0 22:36 28.02.2020
1812 Clear 25 1020 23 9000 2.1 0 22:18 28.02.2020
1813 Clear 26 1020 22 10000 2.1 0 21:41 28.02.2020
1814 Clear 26 1020 22 10000 2.1 0 21:21 28.02.2020
1815 Clear 25 1020 27 10000 2.1 320 20:41 28.02.2020
1816 Clear 25 1020 27 10000 2.1 320 20:22 28.02.2020
1817 Clouds 24 1021 31 10000 1.5 0 19:59 28.02.2020
1818 Clouds 24 1021 31 10000 1.5 0 19:39 28.02.2020
1819 Clouds 24 1021 31 10000 1.5 0 19:39 28.02.2020
1820 Clouds 24 1021 31 10000 1.5 0 19:21 28.02.2020
1821 Clouds 22 1021 35 10000 2.1 0 18:57 28.02.2020
1822 Clouds 22 1021 35 10000 2.1 0 18:39 28.02.2020
1823 Clouds 22 1021 35 10000 2.1 0 18:20 28.02.2020
1824 Clouds 21 1022 43 10000 1.5 0 17:41 28.02.2020
1825 Clouds 21 1022 43 10000 1.5 0 17:22 28.02.2020
1826 Clouds 19 1022 52 10000 1.5 260 16:46 28.02.2020
1827 Clouds 19 1022 52 10000 1.5 260 16:20 28.02.2020
1828 Clouds 16 1022 63 10000 1.5 290 15:58 28.02.2020
1829 Clouds 16 1022 63 10000 1.5 290 15:40 28.02.2020
1830 Clouds 16 1022 63 10000 1.5 290 15:20 28.02.2020
1831 Clouds 16 1022 63 10000 1.5 290 15:20 28.02.2020
1832 Clouds 14 1022 71 10000 0.5 0 14:57 28.02.2020
1833 Clouds 14 1022 71 10000 0.5 0 14:38 28.02.2020
1834 Clouds 14 1022 71 10000 0.5 0 14:38 28.02.2020
1835 Clouds 14 1022 71 10000 0.5 0 14:18 28.02.2020
1836 Clouds 11 1022 87 10000 1.5 310 13:41 28.02.2020
1837 Clouds 11 1022 87 10000 1.5 310 13:20 28.02.2020
1838 Clouds 11 1022 87 10000 1.5 310 13:20 28.02.2020
1839 Clear 9 1021 87 9000 1 0 12:58 28.02.2020
1840 Clear 9 1021 87 9000 1 0 12:40 28.02.2020
1841 Clear 9 1021 87 9000 1 0 12:22 28.02.2020
1842 Clouds 10 1021 87 9000 1 270 11:41 28.02.2020
1843 Clouds 10 1021 87 9000 1 270 11:41 28.02.2020
1844 Clouds 10 1021 87 9000 1 270 11:23 28.02.2020
1845 Clouds 10 1021 87 10000 1.5 280 10:57 28.02.2020
1846 Clouds 10 1021 87 10000 1.5 280 10:37 28.02.2020
1847 Clouds 10 1021 87 10000 1.5 280 10:37 28.02.2020
1848 Clouds 10 1021 87 10000 1.5 280 10:18 28.02.2020
1849 Clouds 10 1021 87 10000 1.5 270 09:43 28.02.2020
1850 Clouds 10 1021 87 10000 1.5 270 09:20 28.02.2020
1851 Clouds 11 1020 81 10000 1.5 270 08:54 28.02.2020
1852 Clouds 11 1020 81 10000 1.5 270 08:36 28.02.2020
1853 Clouds 11 1020 81 10000 1.5 270 08:18 28.02.2020
1854 Clouds 11 1021 87 10000 1.5 290 07:38 28.02.2020
1855 Clouds 11 1021 87 10000 1.5 290 07:19 28.02.2020
1856 Clouds 12 1020 76 10000 1 0 06:41 28.02.2020
1857 Clouds 8 1018 95 0 2.06 304 05:37 28.02.2020
1858 Clear 13 1020 76 9000 2.29 285 04:32 28.02.2020
1859 Clear 15 1020 62 10000 1 0 03:34 28.02.2020
1860 Clear 17 1019 55 10000 3.1 240 02:41 28.02.2020
1861 Clouds 18 1018 52 10000 2.6 250 01:48 28.02.2020
1862 Clouds 19 1018 48 10000 3.1 260 00:33 28.02.2020
1863 Clouds 20 1018 49 10000 4.1 270 23:47 27.02.2020
1864 Clouds 20 1018 49 10000 4.1 270 23:23 27.02.2020
1865 Clouds 21 1018 46 10000 4.1 260 22:59 27.02.2020
1866 Clouds 21 1018 46 10000 4.1 260 22:40 27.02.2020
1867 Clouds 21 1018 46 10000 4.1 260 22:22 27.02.2020
1868 Clouds 23 1017 38 10000 2.6 0 21:42 27.02.2020
1869 Clouds 23 1017 38 10000 2.6 0 21:24 27.02.2020
1870 Clouds 23 1017 38 10000 2.6 0 21:24 27.02.2020
1871 Clouds 22 1017 37 10000 4.1 0 20:59 27.02.2020
1872 Clouds 22 1017 37 10000 4.1 0 20:41 27.02.2020
1873 Clouds 22 1017 37 10000 4.1 0 20:23 27.02.2020
1874 Clouds 22 1017 37 10000 2.6 0 19:57 27.02.2020
1875 Clouds 22 1017 37 10000 2.6 0 19:39 27.02.2020
1876 Clouds 22 1017 37 10000 2.6 0 19:21 27.02.2020
1877 Clouds 22 1018 43 10000 2.1 0 18:55 27.02.2020
1878 Clouds 22 1018 43 10000 2.1 0 18:37 27.02.2020
1879 Clouds 22 1018 43 10000 2.1 0 18:18 27.02.2020
1880 Clouds 21 1018 52 10000 2.6 0 17:40 27.02.2020
1881 Clouds 21 1018 52 10000 2.6 0 17:20 27.02.2020
1882 Clouds 20 1018 52 10000 1.5 0 16:59 27.02.2020
1883 Clouds 20 1018 52 10000 1.5 0 16:40 27.02.2020
1884 Clouds 20 1018 52 10000 1.5 0 16:20 27.02.2020
1885 -273 0 0 0 0 0 15:59 27.02.2020
1886 Clouds 17 1019 63 10000 2.1 300 15:38 27.02.2020
1887 Clouds 17 1019 63 10000 2.1 300 15:19 27.02.2020
1888 Clouds 15 1019 72 10000 1.5 260 14:56 27.02.2020
1889 Clouds 15 1019 72 10000 1.5 260 14:37 27.02.2020
1890 Clouds 15 1019 72 10000 1.5 260 14:19 27.02.2020
1891 Clouds 15 1018 67 10000 2.1 250 13:42 27.02.2020
1892 Clouds 15 1018 67 10000 2.1 250 13:21 27.02.2020
1893 Clouds 15 1018 67 10000 1 0 12:55 27.02.2020
1894 Clouds 15 1018 67 10000 1 0 12:37 27.02.2020
1895 Clouds 15 1018 67 10000 1 0 12:18 27.02.2020
1896 Clouds 15 1018 67 10000 2.1 300 11:41 27.02.2020
1897 Clouds 15 1018 67 10000 2.1 300 11:21 27.02.2020
1898 Clouds 15 1018 67 10000 2.1 300 11:21 27.02.2020
1899 Clouds 14 1018 71 10000 1 0 10:44 27.02.2020
1900 Clouds 14 1018 71 10000 1 0 10:44 27.02.2020
1901 Clouds 14 1018 71 10000 1 0 10:23 27.02.2020
1902 Clouds 14 1019 71 10000 1.5 290 09:49 27.02.2020
1903 Clouds 14 1019 71 10000 1.5 290 09:29 27.02.2020
1904 Clouds 14 1019 71 10000 1.5 300 08:58 27.02.2020
1905 Clouds 14 1019 71 10000 1.5 300 08:58 27.02.2020
1906 Clouds 14 1019 71 10000 1.5 300 08:40 27.02.2020
1907 Clouds 14 1019 71 10000 1.5 300 08:22 27.02.2020
1908 Clouds 13 1020 76 10000 1 0 07:44 27.02.2020
1909 Clouds 13 1020 76 10000 1 0 07:25 27.02.2020
1910 Clouds 12 1020 76 10000 1.93 291 06:46 27.02.2020
1911 Clouds 9 1017 92 0 1.93 291 05:35 27.02.2020
1912 Clouds 16 1020 63 10000 2.6 300 03:38 27.02.2020
1913 Clouds 18 1019 55 10000 2.6 280 02:20 27.02.2020
1914 Clouds 21 1018 43 10000 4.6 310 00:44 27.02.2020
1915 Clouds 21 1018 43 10000 4.6 310 00:25 27.02.2020
1916 Clouds 23 1018 38 10000 3.6 0 23:39 26.02.2020
1917 Clouds 23 1018 38 10000 3.6 0 23:19 26.02.2020
1918 Clouds 24 1018 33 10000 2.6 0 22:56 26.02.2020
1919 Clouds 24 1018 33 10000 2.6 0 22:38 26.02.2020
1920 Clouds 24 1018 33 10000 2.6 0 22:19 26.02.2020
1921 Clouds 25 1017 33 10000 2.6 0 21:40 26.02.2020
1922 Clouds 25 1017 33 10000 2.6 0 21:21 26.02.2020
1923 Clouds 24 1018 38 10000 2.1 310 20:57 26.02.2020
1924 Clouds 24 1018 38 10000 2.1 310 20:39 26.02.2020
1925 Clouds 24 1018 38 10000 2.1 310 20:19 26.02.2020
1926 Clouds 23 1019 43 10000 2.1 0 19:57 26.02.2020
1927 Clouds 23 1019 43 10000 2.1 0 19:38 26.02.2020
1928 Clouds 23 1019 43 10000 2.1 0 19:19 26.02.2020
1929 Clouds 21 1019 46 10000 2.1 0 18:57 26.02.2020
1930 Clouds 21 1019 46 10000 2.1 0 18:38 26.02.2020
1931 Clouds 21 1019 46 10000 2.1 0 18:19 26.02.2020
1932 Clouds 19 1020 52 10000 2.1 270 17:41 26.02.2020
1933 Clouds 19 1020 52 10000 2.1 270 17:20 26.02.2020
1934 Clouds 17 1021 55 10000 2.1 260 16:57 26.02.2020
1935 Clouds 17 1021 55 10000 2.1 260 16:38 26.02.2020
1936 Clouds 17 1021 55 10000 2.1 260 16:20 26.02.2020
1937 Clouds 14 1021 67 10000 2.1 220 15:45 26.02.2020
1938 Clouds 14 1021 67 10000 2.1 220 15:27 26.02.2020
1939 Clouds 11 1022 76 10000 2.1 260 14:55 26.02.2020
1940 Clouds 11 1022 76 10000 2.1 260 14:37 26.02.2020
1941 Clouds 11 1022 76 10000 2.1 260 14:37 26.02.2020
1942 Clouds 11 1022 76 10000 2.1 260 14:18 26.02.2020
1943 Clouds 10 1023 76 10000 1.5 250 13:41 26.02.2020
1944 Clouds 10 1023 76 10000 1.5 250 13:20 26.02.2020
1945 Clouds 8 1022 87 10000 1 290 12:39 26.02.2020
1946 Clouds 8 1022 87 10000 1 290 12:19 26.02.2020
1947 Clouds 8 1022 87 10000 1.5 280 11:56 26.02.2020
1948 Clouds 8 1022 87 10000 1.5 280 11:37 26.02.2020
1949 Clouds 8 1022 87 10000 1.5 280 11:19 26.02.2020
1950 Clouds 8 1023 87 10000 2.1 270 10:41 26.02.2020
1951 Clouds 8 1023 87 10000 2.1 270 10:22 26.02.2020
1952 Clouds 9 1023 81 10000 1.5 270 09:55 26.02.2020
1953 Clouds 9 1023 81 10000 1.5 270 09:37 26.02.2020
1954 Clouds 9 1023 81 10000 1.5 270 09:18 26.02.2020
1955 Clouds 9 1022 81 10000 1.5 270 08:38 26.02.2020
1956 Clouds 9 1022 81 10000 1.5 270 08:19 26.02.2020
1957 Clouds 10 1023 76 10000 1 0 07:45 26.02.2020
1958 Clouds 10 1023 76 10000 1 0 07:26 26.02.2020
1959 Clouds 10 1023 76 10000 2.6 290 06:53 26.02.2020
1960 Clouds 10 1023 76 10000 2.6 290 06:34 26.02.2020
1961 Clouds 11 1023 71 10000 2.6 280 05:53 26.02.2020
1962 Clouds 11 1023 71 10000 2.6 280 05:25 26.02.2020
1963 Clouds 12 1023 66 10000 1.5 260 04:34 26.02.2020
1964 Clouds 15 1022 58 9000 2.6 290 02:28 26.02.2020
1965 Clouds 16 1021 55 10000 3.1 280 01:45 26.02.2020
1966 Clouds 17 1021 51 10000 3.6 290 00:48 26.02.2020
1967 Clouds 17 1021 51 10000 3.6 290 00:24 26.02.2020
1968 Clouds 18 1020 48 10000 3.1 0 23:45 25.02.2020
1969 Clouds 18 1020 48 10000 3.1 0 23:27 25.02.2020
1970 Clouds 19 1020 45 10000 2.6 0 22:59 25.02.2020
1971 Clouds 19 1020 45 10000 2.6 0 22:41 25.02.2020
1972 Clouds 19 1020 45 10000 2.6 0 22:19 25.02.2020
1973 Clouds 20 1019 40 10000 2.6 0 21:40 25.02.2020
1974 Clouds 20 1019 40 10000 2.6 0 21:21 25.02.2020
1975 Clouds 20 1019 40 10000 3.1 280 20:59 25.02.2020
1976 Clouds 20 1019 40 10000 3.1 280 20:40 25.02.2020
1977 Clear 20 1019 40 10000 3.1 280 20:21 25.02.2020
1978 Clear 19 1020 39 10000 2.1 0 19:59 25.02.2020
1979 Clear 19 1020 39 10000 2.1 0 19:40 25.02.2020
1980 Clear 19 1020 39 10000 2.1 0 19:19 25.02.2020
1981 Clear 18 1020 42 10000 3.1 0 18:42 25.02.2020
1982 Clear 18 1020 42 10000 3.1 0 18:21 25.02.2020
1983 Clear 18 1020 42 10000 3.1 0 18:21 25.02.2020
1984 Clear 15 1018 51 0 3.66 272 17:58 25.02.2020
1985 Clear 15 1018 51 0 3.66 272 17:38 25.02.2020
1986 Clouds 16 1021 48 10000 1.5 0 17:19 25.02.2020
1987 Clouds 16 1021 48 10000 1.5 0 16:58 25.02.2020
1988 Clouds 16 1021 48 10000 1.5 0 16:39 25.02.2020
1989 Clouds 16 1021 48 10000 1.5 0 16:21 25.02.2020
1990 Clouds 13 1022 58 10000 2.1 310 15:56 25.02.2020
1991 Clouds 13 1022 58 10000 2.1 310 15:56 25.02.2020
1992 Clouds 13 1022 58 10000 2.1 310 15:37 25.02.2020
1993 Clouds 13 1022 58 10000 2.1 310 15:18 25.02.2020
1994 Clouds 11 1022 66 10000 1 0 14:54 25.02.2020
1995 Clouds 11 1022 66 10000 1 0 14:36 25.02.2020
1996 Clouds 11 1022 66 10000 1 0 14:18 25.02.2020
1997 Clouds 10 1021 66 10000 1.5 290 13:54 25.02.2020
1998 Clouds 10 1021 66 10000 1.5 290 13:36 25.02.2020
1999 Clouds 10 1021 66 10000 1.5 290 13:18 25.02.2020
2000 Clouds 10 1021 66 10000 2.1 0 12:39 25.02.2020
2001 Clouds 10 1021 66 10000 2.1 0 12:20 25.02.2020
2002 Clouds 11 1020 57 10000 3.6 240 11:56 25.02.2020
2003 Clouds 11 1020 57 10000 3.6 240 11:38 25.02.2020
2004 Clouds 11 1020 57 10000 3.6 240 11:18 25.02.2020
2005 Clouds 11 1020 62 10000 3.1 240 10:56 25.02.2020
2006 Clouds 11 1020 62 10000 3.1 240 10:38 25.02.2020
2007 Clouds 11 1020 62 10000 3.1 240 10:19 25.02.2020
2008 Clouds 11 1020 62 10000 2.1 260 09:40 25.02.2020
2009 Clouds 11 1020 62 10000 2.1 260 09:19 25.02.2020
2010 Clouds 12 1019 58 10000 3.6 290 08:43 25.02.2020
2011 Clouds 12 1019 58 10000 3.6 290 08:24 25.02.2020
2012 Clouds 6 1017 88 0 2.31 279 07:50 25.02.2020
2013 Clouds 12 1019 58 10000 3.1 240 07:25 25.02.2020
2014 Clouds 12 1019 58 10000 3.1 240 06:57 25.02.2020
2015 Clouds 12 1019 58 10000 3.1 240 06:25 25.02.2020
2016 Clouds 13 1018 54 10000 3.1 250 05:22 25.02.2020
2017 Clear 14 1017 50 10000 3.1 250 02:37 25.02.2020
2018 Clear 15 1015 47 10000 5.1 270 00:58 25.02.2020
2019 Clear 15 1015 47 10000 5.1 270 00:32 25.02.2020
2020 Clear 16 1015 44 10000 4.6 260 23:48 24.02.2020
2021 Clear 16 1015 44 10000 4.6 260 23:29 24.02.2020
2022 Clear 17 1014 45 10000 5.7 270 22:59 24.02.2020
2023 Clear 17 1014 45 10000 5.7 270 22:37 24.02.2020
2024 Clear 17 1014 45 10000 5.7 270 22:18 24.02.2020
2025 Clouds 16 1014 48 10000 6.7 270 21:54 24.02.2020
2026 Clouds 16 1014 48 10000 6.7 270 21:36 24.02.2020
2027 Clouds 16 1014 48 10000 6.7 270 21:18 24.02.2020
2028 Clouds 18 1014 42 10000 6.7 270 20:41 24.02.2020
2029 Clouds 18 1014 42 10000 6.7 270 20:21 24.02.2020
2030 Clouds 18 1014 45 10000 6.7 280 19:59 24.02.2020
2031 Clouds 18 1014 45 10000 6.7 280 19:41 24.02.2020
2032 Clouds 18 1014 45 10000 6.7 280 19:22 24.02.2020
2033 Clouds 17 1014 45 10000 6.7 280 18:58 24.02.2020
2034 Clouds 17 1014 45 10000 6.7 280 18:39 24.02.2020
2035 -273 0 0 0 0 0 18:21 24.02.2020
2036 Clouds 15 1014 51 10000 5.1 270 17:42 24.02.2020
2037 Clouds 15 1014 51 10000 5.1 270 17:21 24.02.2020
2038 Clouds 14 1014 54 10000 3.6 260 16:59 24.02.2020
2039 Clouds 14 1014 54 10000 3.6 260 16:40 24.02.2020
2040 Clouds 14 1014 54 10000 3.6 260 16:21 24.02.2020
2041 Clouds 13 1014 58 10000 3.1 260 15:59 24.02.2020
2042 Clouds 13 1014 58 10000 3.1 260 15:40 24.02.2020
2043 Clouds 13 1014 58 10000 3.1 260 15:21 24.02.2020
2044 Clouds 13 1014 58 10000 3.1 260 15:21 24.02.2020
2045 Clouds 12 1014 58 10000 3.6 250 14:58 24.02.2020
2046 Clouds 12 1014 58 10000 3.6 250 14:40 24.02.2020
2047 Clouds 12 1014 58 10000 3.6 250 14:19 24.02.2020
2048 Clouds 12 1014 58 10000 3.6 280 13:56 24.02.2020
2049 Clouds 12 1014 58 10000 3.6 280 13:37 24.02.2020
2050 Clouds 12 1014 58 10000 3.6 280 13:19 24.02.2020
2051 Clouds 11 1014 62 10000 4.1 250 12:54 24.02.2020
2052 Clouds 11 1014 62 10000 4.1 250 12:36 24.02.2020
2053 Clouds 11 1014 62 10000 4.1 250 12:18 24.02.2020
2054 Clouds 11 1014 53 10000 4.1 290 11:41 24.02.2020
2055 Clouds 11 1014 53 10000 4.1 290 11:41 24.02.2020
2056 Clouds 11 1014 53 10000 4.1 290 11:23 24.02.2020
2057 Clouds 11 1013 50 10000 4.1 250 10:44 24.02.2020
2058 -273 0 0 0 0 0 10:24 24.02.2020
2059 Clouds 11 1013 90 10000 5.1 270 09:41 24.02.2020
2060 Clouds 11 1013 90 10000 5.1 270 09:19 24.02.2020
2061 Clouds 11 1012 50 10000 5.1 270 08:55 24.02.2020
2062 Clouds 11 1012 50 10000 5.1 270 08:30 24.02.2020
2063 Clouds 12 1012 50 10000 4.1 260 07:59 24.02.2020
2064 Clouds 12 1012 50 10000 4.1 260 07:40 24.02.2020
2065 Clouds 12 1012 50 10000 4.1 260 07:22 24.02.2020
2066 Clouds 6 1011 85 0 3.35 274 06:33 24.02.2020
2067 Clouds 12 1012 54 10000 4.1 260 05:52 24.02.2020
2068 Clouds 12 1012 54 10000 4.1 260 05:27 24.02.2020
2069 Clouds 13 1013 47 10000 5.1 270 03:27 24.02.2020
2070 Clouds 13 1013 50 10000 3.6 270 02:51 24.02.2020
2071 Clouds 14 1012 47 10000 5.7 270 01:41 24.02.2020
2072 Clouds 15 1011 47 10000 6.7 280 00:52 24.02.2020
2073 Clouds 15 1011 47 10000 6.7 280 00:21 24.02.2020
2074 Clear 17 1011 48 7000 7.7 280 23:58 23.02.2020
2075 Clear 17 1011 48 7000 7.7 280 23:58 23.02.2020
2076 Clear 17 1011 48 7000 7.7 280 23:38 23.02.2020
2077 Clear 17 1011 48 7000 7.7 280 23:18 23.02.2020
2078 Clear 19 1009 42 7000 7.2 280 22:43 23.02.2020
2079 Clear 19 1009 42 7000 7.2 280 22:22 23.02.2020
2080 Haze 21 1009 32 4100 6.7 280 21:57 23.02.2020
2081 Haze 21 1009 32 4100 6.7 280 21:39 23.02.2020
2082 Haze 21 1009 32 4100 6.7 280 21:18 23.02.2020
2083 Haze 22 1009 40 4100 6.2 290 20:55 23.02.2020
2084 Haze 22 1009 40 4100 6.2 290 20:37 23.02.2020
2085 Haze 22 1009 40 4100 6.2 290 20:37 23.02.2020
2086 Haze 22 1009 33 4100 6.2 290 20:18 23.02.2020
2087 Clouds 23 1010 23 10000 6.7 270 19:42 23.02.2020
2088 Clouds 23 1010 23 10000 6.7 270 19:20 23.02.2020
2089 Clouds 24 1010 22 10000 5.1 280 19:00 23.02.2020
2090 Clouds 24 1010 22 10000 5.1 280 18:41 23.02.2020
2091 Clouds 23 1011 28 10000 1.5 0 18:21 23.02.2020
2092 Clouds 23 1011 28 10000 1.5 0 17:58 23.02.2020
2093 Clouds 23 1011 28 10000 1.5 0 17:40 23.02.2020
2094 Clouds 23 1011 28 10000 1.5 0 17:21 23.02.2020
2095 Clear 19 1012 48 10000 1.5 300 16:56 23.02.2020
2096 Clear 19 1012 48 10000 1.5 300 16:37 23.02.2020
2097 Clear 19 1012 48 10000 1.5 300 16:18 23.02.2020
2098 Clear 16 1012 59 10000 2.1 0 15:54 23.02.2020
2099 Clear 16 1012 59 10000 2.1 0 15:36 23.02.2020
2100 Clear 16 1012 59 10000 2.1 0 15:18 23.02.2020
2101 Clear 14 1013 62 10000 1.5 240 14:41 23.02.2020
2102 Clear 14 1013 62 10000 1.5 240 14:23 23.02.2020
2103 Clear 11 1013 76 10000 1.5 290 13:59 23.02.2020
2104 Clear 11 1013 76 10000 1.5 290 13:41 23.02.2020
2105 Clear 11 1013 76 10000 1.5 290 13:22 23.02.2020
2106 Clear 8 1013 87 9000 1.5 300 12:44 23.02.2020
2107 Clear 8 1013 87 9000 1.5 300 12:24 23.02.2020
2108 Clear 8 1013 87 9000 1.5 300 12:24 23.02.2020
2109 Clear 9 1013 81 9000 2.1 280 11:59 23.02.2020
2110 Clear 9 1013 81 9000 2.1 280 11:38 23.02.2020
2111 Clear 9 1013 81 9000 2.1 280 11:20 23.02.2020
2112 Clear 9 1013 81 10000 1.5 260 10:56 23.02.2020
2113 Clear 9 1013 81 10000 1.5 260 10:38 23.02.2020
2114 Clear 9 1013 81 10000 1.5 260 10:20 23.02.2020
2115 Clear 10 1014 76 10000 1.5 270 09:41 23.02.2020
2116 Clear 7 1012 79 0 1.77 294 09:22 23.02.2020
2117 Clear 7 1012 79 0 1.77 294 08:59 23.02.2020
2118 Clear 7 1012 79 0 1.77 294 08:41 23.02.2020
2119 Clear 7 1012 77 0 1.72 293 08:21 23.02.2020
2120 Clear 9 1012 68 0 2.16 298 07:40 23.02.2020
2121 Clear 9 1012 68 0 2.16 298 07:18 23.02.2020
2122 Clear 12 1015 66 9000 2.16 298 05:54 23.02.2020
2123 Clear 14 1015 54 9000 0.5 0 04:48 23.02.2020
2124 Clear 17 1015 45 9000 1 280 03:35 23.02.2020
2125 Clear 22 1014 24 9000 2.6 250 02:38 23.02.2020
2126 Clear 22 1014 24 9000 2.6 250 02:38 23.02.2020
2127 Clear 23 1014 25 10000 3.6 260 01:26 23.02.2020
2128 Clear 25 1014 22 10000 3.1 260 00:49 23.02.2020
2129 Clear 25 1014 22 10000 3.1 260 00:28 23.02.2020
2130 Clear 27 1014 21 10000 3.6 270 23:59 22.02.2020
2131 Clear 27 1014 21 10000 3.6 270 23:40 22.02.2020
2132 Clear 27 1014 21 10000 3.6 270 23:19 22.02.2020
2133 Clear 27 1014 21 10000 3.6 280 22:41 22.02.2020
2134 Clear 27 1014 21 10000 3.6 280 22:19 22.02.2020
2135 Clear 28 1014 20 10000 2.1 240 21:43 22.02.2020
2136 Clear 28 1014 20 10000 2.1 240 21:24 22.02.2020
2137 Clear 27 1015 24 10000 1 0 20:47 22.02.2020
2138 Clear 27 1015 24 10000 1 0 20:25 22.02.2020
2139 Clear 26 1016 26 10000 2.1 300 19:59 22.02.2020
2140 Clear 26 1016 26 10000 2.1 300 19:41 22.02.2020
2141 Clear 26 1016 26 10000 2.1 300 19:21 22.02.2020
2142 Clear 23 1017 31 9000 1.5 310 18:40 22.02.2020
2143 Clear 23 1017 31 9000 1.5 310 18:22 22.02.2020
2144 Clear 21 1018 32 10000 1.5 290 17:58 22.02.2020
2145 Clear 21 1018 32 10000 1.5 290 17:39 22.02.2020
2146 Clear 21 1018 32 10000 1.5 290 17:21 22.02.2020
2147 Clear 20 1019 34 10000 1 0 16:57 22.02.2020
2148 Clear 20 1019 34 10000 1 0 16:39 22.02.2020
2149 Clear 20 1019 34 10000 1 0 16:20 22.02.2020
2150 Clear 18 1019 45 10000 0.5 0 15:43 22.02.2020
2151 Clear 18 1019 45 10000 0.5 0 15:25 22.02.2020
2152 Clear 13 1020 62 9000 1 0 14:44 22.02.2020
2153 Clear 13 1020 62 9000 1 0 14:23 22.02.2020
2154 Clear 11 1021 71 9000 0.73 298 13:58 22.02.2020
2155 Clear 11 1021 71 9000 0.73 298 13:40 22.02.2020
2156 Clear 11 1021 71 9000 0.93 300 13:18 22.02.2020
2157 Clear 7 1021 81 10000 0.5 0 12:42 22.02.2020
2158 Clear 7 1021 81 10000 0.5 0 12:23 22.02.2020
2159 Clear 6 1020 87 10000 0.93 300 11:47 22.02.2020
2160 Clear 6 1020 87 10000 0.93 300 11:28 22.02.2020
2161 Clear 7 1019 47 0 1.44 309 10:57 22.02.2020
2162 Clear 7 1019 47 0 1.44 309 10:39 22.02.2020
2163 Clear 8 1020 81 10000 1.44 309 10:19 22.02.2020
2164 Clear 8 1020 81 10000 1.44 309 10:19 22.02.2020
2165 Clear 8 1020 81 10000 1.44 309 09:57 22.02.2020
2166 Clear 8 1020 81 10000 1.44 309 09:38 22.02.2020
2167 Clear 8 1020 81 10000 1.44 309 09:20 22.02.2020
2168 Clear 7 1019 47 0 1.44 309 08:46 22.02.2020
2169 Clear 9 1021 70 10000 1 0 08:27 22.02.2020
2170 Clear 9 1021 70 10000 1 0 07:45 22.02.2020
2171 Clear 9 1021 70 10000 1 0 07:19 22.02.2020
2172 Clear 9 1019 39 0 1.76 325 06:47 22.02.2020
2173 Clear 12 1020 58 10000 1 0 06:26 22.02.2020
2174 Clear 14 1020 47 10000 1.5 280 04:30 22.02.2020
2175 Clear 20 1020 22 10000 2.6 100 02:46 22.02.2020
2176 Clear 20 1020 22 10000 2.6 100 02:21 22.02.2020
2177 Clear 24 1019 13 10000 3.1 60 01:41 22.02.2020
2178 Clear 24 1019 13 10000 3.1 60 01:22 22.02.2020
2179 Clear 26 1019 11 10000 1.5 30 00:40 22.02.2020
2180 Clear 26 1019 11 10000 1.5 30 00:19 22.02.2020
2181 Clear 27 1020 11 10000 4.6 100 23:41 21.02.2020
2182 Clear 27 1020 11 10000 4.6 100 23:20 21.02.2020
2183 Clear 26 1021 13 10000 4.6 90 22:42 21.02.2020
2184 Clear 26 1021 13 10000 4.6 90 22:24 21.02.2020
2185 Clear 26 1021 14 10000 5.7 80 21:56 21.02.2020
2186 Clear 26 1021 14 10000 5.7 80 21:37 21.02.2020
2187 Clear 26 1021 14 10000 5.7 80 21:19 21.02.2020
2188 Clear 25 1022 14 10000 6.7 90 20:46 21.02.2020
2189 Clear 25 1022 14 10000 6.7 90 20:27 21.02.2020
2190 Clear 25 1022 14 10000 6.7 90 20:27 21.02.2020
2191 Clear 24 1023 15 10000 6.2 90 19:40 21.02.2020
2192 Clear 24 1023 15 10000 6.2 90 19:22 21.02.2020
2193 Clear 22 1024 17 10000 4.6 90 18:44 21.02.2020
2194 Clear 22 1024 17 10000 4.6 90 18:24 21.02.2020
2195 Clear 21 1025 18 10000 6.2 100 17:58 21.02.2020
2196 Clear 21 1025 18 10000 6.2 100 17:38 21.02.2020
2197 Clear 21 1025 18 10000 6.2 100 17:38 21.02.2020
2198 Clear 21 1025 18 10000 6.2 100 17:20 21.02.2020
2199 Clear 19 1026 19 10000 8.2 100 16:56 21.02.2020
2200 Clear 19 1026 19 10000 8.2 100 16:37 21.02.2020
2201 Clear 19 1026 19 10000 8.2 100 16:37 21.02.2020
2202 Clear 19 1026 19 10000 8.2 100 16:19 21.02.2020
2203 Clear 18 1026 18 10000 6.7 70 15:40 21.02.2020
2204 Clear 18 1026 18 10000 6.7 70 15:19 21.02.2020
2205 Clear 15 1027 26 10000 6.7 90 14:44 21.02.2020
2206 Clear 15 1027 26 10000 6.7 90 14:22 21.02.2020
2207 Clear 13 1027 30 10000 4.1 80 13:59 21.02.2020
2208 Clear 13 1027 30 10000 4.1 80 13:40 21.02.2020
2209 Clear 13 1027 30 10000 4.1 80 13:20 21.02.2020
2210 Clear 10 1027 34 10000 3.6 90 12:45 21.02.2020
2211 Clear 10 1027 34 10000 3.6 90 12:27 21.02.2020
2212 Clear 11 1027 32 10000 3.1 70 11:57 21.02.2020
2213 Clear 11 1027 32 10000 3.1 70 11:38 21.02.2020
2214 Clear 11 1027 32 10000 3.1 70 11:19 21.02.2020
2215 Clear 11 1027 32 10000 4.1 90 10:42 21.02.2020
2216 Clear 11 1027 32 10000 4.1 90 10:42 21.02.2020
2217 Clear 11 1027 32 10000 4.1 90 10:42 21.02.2020
2218 Clear 11 1027 32 10000 4.1 90 10:22 21.02.2020
2219 Clear 12 1027 27 10000 4.1 100 09:58 21.02.2020
2220 Clear 12 1027 27 10000 4.1 100 09:39 21.02.2020
2221 Clear 12 1027 27 10000 4.1 100 09:20 21.02.2020
2222 Clear 15 1027 19 10000 5.1 80 08:54 21.02.2020
2223 Clear 15 1027 19 10000 5.1 80 08:36 21.02.2020
2224 Clear 15 1027 19 10000 5.1 80 08:18 21.02.2020
2225 Clear 14 1027 24 10000 4.1 80 07:41 21.02.2020
2226 Clear 14 1027 24 10000 4.1 80 07:20 21.02.2020
2227 Clear 14 1027 26 10000 2.6 90 06:55 21.02.2020
2228 Clear 14 1027 26 10000 2.6 90 06:31 21.02.2020
2229 Clear 17 1026 20 10000 3.1 90 05:55 21.02.2020
2230 Clear 15 1026 28 10000 2.6 0 04:39 21.02.2020
2231 Clear 15 1026 28 10000 2.6 0 04:20 21.02.2020
2232 Clear 10 1026 61 10000 0.5 0 03:44 21.02.2020
2233 Clear 11 1025 62 9000 0.97 90 02:58 21.02.2020
2234 Clear 17 1024 31 10000 0.5 0 01:28 21.02.2020
2235 Clear 22 1023 15 10000 3.1 50 00:46 21.02.2020
2236 Clear 22 1023 15 10000 3.1 50 00:24 21.02.2020
2237 Clear 22 1023 15 10000 3.1 50 00:24 21.02.2020
2238 Clear 23 1023 13 10000 3.1 40 23:46 20.02.2020
2239 Clear 23 1023 13 10000 3.1 40 23:26 20.02.2020
2240 Clear 23 1023 15 10000 3.1 40 22:59 20.02.2020
2241 Clear 23 1023 15 10000 3.1 40 22:39 20.02.2020
2242 Clear 23 1023 15 10000 3.1 40 22:20 20.02.2020
2243 Clear 22 1024 18 10000 5.1 70 21:56 20.02.2020
2244 Clear 22 1024 18 10000 5.1 70 21:37 20.02.2020
2245 Clear 22 1024 18 10000 5.1 70 21:19 20.02.2020
2246 Clear 22 1024 18 10000 5.1 70 21:19 20.02.2020
2247 Clear 21 1024 21 10000 4.1 110 20:55 20.02.2020
2248 Clear 21 1024 21 10000 4.1 110 20:37 20.02.2020
2249 Clear 21 1024 21 10000 4.1 110 20:18 20.02.2020
2250 Clear 20 1025 20 10000 6.2 100 19:57 20.02.2020
2251 Clear 20 1025 20 10000 6.2 100 19:39 20.02.2020
2252 Clear 20 1025 20 10000 6.2 100 19:39 20.02.2020
2253 Clear 20 1025 20 10000 6.2 100 19:20 20.02.2020
2254 Clear 19 1026 24 10000 6.2 80 18:39 20.02.2020
2255 Clear 19 1026 24 10000 6.2 80 18:39 20.02.2020
2256 Clear 19 1026 24 10000 6.2 80 18:20 20.02.2020
2257 Clear 17 1026 21 10000 6.2 110 17:54 20.02.2020
2258 Clear 17 1026 21 10000 6.2 110 17:54 20.02.2020
2259 Clear 17 1026 21 10000 6.2 110 17:36 20.02.2020
2260 Clear 17 1026 41 10000 6.2 110 17:18 20.02.2020
2261 Clear 15 1027 44 10000 1.5 0 16:54 20.02.2020
2262 Clear 15 1027 44 10000 1.5 0 16:36 20.02.2020
2263 Clear 15 1027 44 10000 1.5 0 16:18 20.02.2020
2264 Clear 11 1028 57 10000 1.5 0 15:41 20.02.2020
2265 Clear 11 1028 57 10000 1.5 0 15:20 20.02.2020
2266 Clear 8 1028 70 10000 1.5 70 14:55 20.02.2020
2267 Clear 8 1028 70 10000 1.5 70 14:37 20.02.2020
2268 Clear 8 1028 70 10000 1.5 70 14:19 20.02.2020
2269 Clear 5 1028 93 10000 1 0 13:44 20.02.2020
2270 Clear 5 1028 93 10000 1 0 13:20 20.02.2020
2271 Clear 1 1028 100 10000 0.63 147 12:57 20.02.2020
2272 Clear 1 1028 100 10000 0.63 147 12:37 20.02.2020
2273 Clear 1 1028 100 10000 0.63 147 12:19 20.02.2020
2274 Clear 2 1027 100 10000 0.63 147 11:43 20.02.2020
2275 Clear 2 1027 100 10000 0.63 147 11:23 20.02.2020
2276 Clear 3 1027 93 8000 0.42 230 10:57 20.02.2020
2277 Clear 3 1027 93 8000 0.42 230 10:39 20.02.2020
2278 Clear 3 1027 93 8000 0.42 230 10:21 20.02.2020
2279 Clear 3 1027 93 8000 0.42 230 10:21 20.02.2020
2280 Clear 3 1026 93 10000 0.42 230 09:46 20.02.2020
2281 Clear 3 1026 93 10000 0.42 230 09:25 20.02.2020
2282 Clear 5 1026 86 10000 0.42 230 08:59 20.02.2020
2283 Clear 5 1026 86 10000 0.42 230 08:38 20.02.2020
2284 Clear 5 1026 86 10000 0.99 313 08:20 20.02.2020
2285 Clear 5 1026 86 10000 0.99 313 07:45 20.02.2020
2286 Clear 5 1026 86 10000 0.99 313 07:21 20.02.2020
2287 Clear 3 1024 92 0 0.99 313 06:52 20.02.2020
2288 Clear 7 1025 81 10000 1 0 06:26 20.02.2020
2289 Clear 7 1025 81 10000 1 0 05:45 20.02.2020
2290 Clouds 10 1025 66 10000 1.5 250 04:51 20.02.2020
2291 Clear 9 1024 70 9000 1 0 03:58 20.02.2020
2292 Clear 9 1024 70 9000 1 0 03:28 20.02.2020
2293 Clouds 10 1023 61 10000 0.5 0 02:23 20.02.2020
2294 Clouds 16 1021 36 10000 4.1 280 00:58 20.02.2020
2295 Clouds 16 1021 36 10000 4.1 280 00:31 20.02.2020
2296 Clouds 18 1021 31 10000 2.6 260 23:49 19.02.2020
2297 Clouds 18 1021 31 10000 2.6 260 23:22 19.02.2020
2298 Clouds 18 1020 31 10000 3.6 270 22:46 19.02.2020
2299 Clouds 18 1020 31 10000 3.6 270 22:28 19.02.2020
2300 Clouds 18 1020 34 10000 3.1 290 21:59 19.02.2020
2301 Clouds 18 1020 34 10000 3.1 290 21:41 19.02.2020
2302 Clouds 18 1020 34 10000 3.1 290 21:19 19.02.2020
2303 Clouds 17 1020 48 10000 2.1 0 20:58 19.02.2020
2304 Clouds 17 1020 48 10000 2.1 0 20:58 19.02.2020
2305 Clouds 17 1020 48 10000 2.1 0 20:39 19.02.2020
2306 Clouds 17 1020 44 10000 2.1 0 20:20 19.02.2020
2307 Clouds 17 1020 33 10000 3.6 0 19:58 19.02.2020
2308 Clouds 17 1020 33 10000 3.6 0 19:39 19.02.2020
2309 Clouds 17 1020 33 10000 3.6 0 19:20 19.02.2020
2310 Clouds 16 1020 36 10000 4.1 270 18:58 19.02.2020
2311 Clouds 16 1020 36 10000 4.1 270 18:40 19.02.2020
2312 Clouds 16 1020 36 10000 4.1 270 18:21 19.02.2020
2313 Clouds 14 1020 44 10000 2.1 0 17:56 19.02.2020
2314 Clouds 14 1020 44 10000 2.1 0 17:38 19.02.2020
2315 Clouds 14 1020 51 10000 2.1 0 17:18 19.02.2020
2316 Clouds 14 1020 51 10000 1.5 0 16:42 19.02.2020
2317 Clouds 14 1020 51 10000 1.5 0 16:18 19.02.2020
2318 Clouds 14 1020 51 10000 1.5 0 16:18 19.02.2020
2319 Clouds 12 1020 50 10000 1.5 0 15:54 19.02.2020
2320 Clouds 12 1020 50 10000 1.5 0 15:36 19.02.2020
2321 Clouds 12 1020 50 10000 1.5 0 15:36 19.02.2020
2322 Clouds 12 1020 50 10000 1.5 0 15:18 19.02.2020
2323 Clouds 11 1020 53 10000 2.1 290 14:40 19.02.2020
2324 Clouds 11 1020 53 10000 2.1 290 14:22 19.02.2020
2325 Clouds 9 1019 61 10000 1.5 280 13:42 19.02.2020
2326 Clouds 9 1019 61 10000 1.5 280 13:23 19.02.2020
2327 Clouds 9 1019 57 10000 2.1 240 12:58 19.02.2020
2328 Clouds 9 1019 57 10000 2.1 240 12:37 19.02.2020
2329 Clouds 9 1019 57 10000 2.1 240 12:18 19.02.2020
2330 Clouds 10 1018 81 10000 3.1 240 11:39 19.02.2020
2331 Clouds 10 1018 92 10000 3.1 240 11:20 19.02.2020
2332 Clear 9 1017 92 8000 3.1 230 10:58 19.02.2020
2333 Clear 9 1017 92 8000 3.1 230 10:38 19.02.2020
2334 Clear 9 1017 92 8000 3.1 230 10:20 19.02.2020
2335 Clouds 9 1017 92 10000 2.6 230 09:59 19.02.2020
2336 Clouds 9 1017 92 10000 2.6 230 09:38 19.02.2020
2337 Clouds 9 1017 92 10000 2.6 230 09:19 19.02.2020
2338 Clouds 9 1016 92 10000 2.6 250 08:47 19.02.2020
2339 Clear 9 1016 93 10000 2.6 250 08:24 19.02.2020
2340 Clouds 9 1016 57 10000 3.1 260 07:47 19.02.2020
2341 Clouds 9 1016 57 10000 3.1 260 07:29 19.02.2020
2342 Clouds 10 1016 53 10000 4.1 240 06:57 19.02.2020
2343 Clouds 10 1016 53 10000 4.1 240 06:34 19.02.2020
2344 Rain 10 1017 57 10000 2.1 270 04:49 19.02.2020
2345 Rain 12 1016 46 10000 2.6 270 03:22 19.02.2020
2346 Rain 12 1015 62 10000 4.1 260 02:33 19.02.2020
2347 Rain 12 1014 81 10000 3.6 290 01:33 19.02.2020
2348 Rain 14 1013 67 10000 3.1 280 00:53 19.02.2020
2349 Rain 14 1013 67 10000 3.1 280 00:34 19.02.2020
2350 Rain 14 1013 67 10000 3.1 260 23:57 18.02.2020
2351 Rain 14 1013 67 10000 3.1 260 23:39 18.02.2020
2352 Rain 14 1013 67 10000 3.1 260 23:19 18.02.2020
2353 Rain 14 1013 67 10000 3.1 260 23:19 18.02.2020
2354 Rain 15 1012 67 10000 3.1 270 22:45 18.02.2020
2355 Rain 15 1012 67 10000 3.1 270 22:20 18.02.2020
2356 Rain 16 1012 59 9000 5.1 260 21:59 18.02.2020
2357 Rain 16 1012 59 9000 5.1 260 21:38 18.02.2020
2358 Rain 16 1012 59 9000 5.1 260 21:19 18.02.2020
2359 Rain 16 1013 59 10000 5.1 260 20:58 18.02.2020
2360 Rain 16 1013 59 10000 5.1 260 20:39 18.02.2020
2361 Rain 16 1013 59 10000 5.1 260 20:20 18.02.2020
2362 Rain 16 1013 63 9000 3.6 260 19:56 18.02.2020
2363 Rain 16 1013 63 9000 3.6 260 19:37 18.02.2020
2364 Rain 16 1013 63 9000 3.6 260 19:18 18.02.2020
2365 Rain 15 1014 62 7000 3.6 270 18:41 18.02.2020
2366 Rain 15 1014 62 7000 3.6 270 18:21 18.02.2020
2367 Rain 15 1013 54 9000 4.6 260 17:57 18.02.2020
2368 Rain 15 1013 54 9000 4.6 260 17:38 18.02.2020
2369 Rain 15 1013 54 9000 4.6 260 17:19 18.02.2020
2370 Rain 15 1013 54 10000 4.6 260 16:40 18.02.2020
2371 Rain 15 1013 54 10000 4.6 260 16:40 18.02.2020
2372 Rain 15 1013 54 10000 4.6 260 16:20 18.02.2020
2373 Rain 14 1014 58 9000 4.1 260 15:42 18.02.2020
2374 Rain 14 1014 58 9000 4.1 260 15:21 18.02.2020
2375 Rain 13 1014 58 10000 4.6 250 14:58 18.02.2020
2376 Rain 13 1014 58 10000 4.6 250 14:39 18.02.2020
2377 Rain 13 1014 58 10000 4.6 250 14:21 18.02.2020
2378 Rain 13 1014 58 0 4.1 250 13:56 18.02.2020
2379 Rain 13 1014 58 0 4.1 250 13:38 18.02.2020
2380 Rain 13 1014 58 0 4.1 250 13:38 18.02.2020
2381 Clouds 13 1014 58 0 4.1 250 13:19 18.02.2020
2382 Clouds 13 1015 54 10000 3.6 270 12:42 18.02.2020
2383 Clouds 13 1015 54 10000 3.6 270 12:23 18.02.2020
2384 Clouds 13 1014 50 10000 5.1 260 11:56 18.02.2020
2385 Clouds 13 1014 50 10000 5.1 260 11:37 18.02.2020
2386 Clouds 13 1014 50 10000 5.1 260 11:37 18.02.2020
2387 Clouds 13 1014 50 10000 5.1 260 11:18 18.02.2020
2388 Clouds 13 1015 50 10000 5.1 260 10:41 18.02.2020
2389 Clouds 13 1015 50 10000 5.1 260 10:18 18.02.2020
2390 Clouds 13 1016 50 10000 5.7 260 09:56 18.02.2020
2391 Clouds 13 1016 50 10000 5.7 260 09:38 18.02.2020
2392 Clouds 13 1016 50 10000 5.7 260 09:19 18.02.2020
2393 Clouds 13 1016 50 10000 6.2 260 08:44 18.02.2020
2394 Clouds 13 1016 50 10000 6.2 260 08:21 18.02.2020
2395 Clear 13 1017 50 10000 3.6 250 07:59 18.02.2020
2396 Clear 13 1017 50 10000 3.6 250 07:41 18.02.2020
2397 Clear 13 1017 50 10000 3.6 250 07:22 18.02.2020
2398 Clear 13 1017 50 10000 4.6 260 06:43 18.02.2020
2399 Clear 13 1017 50 10000 4.6 260 06:25 18.02.2020
2400 Clear 13 1017 47 10000 4.6 240 05:47 18.02.2020
2401 Clear 13 1017 47 10000 4.6 250 04:43 18.02.2020
2402 Clear 13 1018 47 10000 4.6 250 03:38 18.02.2020
2403 Clear 13 1018 47 10000 4.6 260 02:54 18.02.2020
2404 Clear 13 1017 47 10000 4.1 250 01:23 18.02.2020
2405 Clear 14 1017 44 10000 4.1 270 00:22 18.02.2020
2406 Clear 14 1017 44 10000 4.1 270 00:22 18.02.2020
2407 Clear 15 1016 38 10000 6.2 280 23:57 17.02.2020
2408 Clear 15 1016 38 10000 6.2 280 23:38 17.02.2020
2409 Clear 15 1016 38 10000 6.2 280 23:19 17.02.2020
2410 Clear 16 1016 44 10000 6.2 290 22:41 17.02.2020
2411 Clear 16 1016 44 10000 6.2 290 22:21 17.02.2020
2412 Clouds 16 1016 38 10000 6.2 280 21:59 17.02.2020
2413 Clouds 16 1016 38 10000 6.2 280 21:38 17.02.2020
2414 Clouds 16 1016 38 10000 6.2 280 21:18 17.02.2020
2415 Clouds 16 1016 38 10000 6.2 280 21:18 17.02.2020
2416 Clouds 17 1015 36 10000 5.7 290 20:42 17.02.2020
2417 Clouds 17 1015 36 10000 5.7 290 20:21 17.02.2020
2418 Clouds 16 1015 38 10000 6.2 280 19:59 17.02.2020
2419 Clouds 16 1015 38 10000 6.2 280 19:40 17.02.2020
2420 Clouds 16 1015 38 10000 6.2 280 19:20 17.02.2020
2421 Clouds 16 1015 41 10000 5.7 280 18:38 17.02.2020
2422 Clouds 16 1015 41 10000 5.7 280 18:20 17.02.2020
2423 Clouds 15 1015 41 10000 4.6 280 17:58 17.02.2020
2424 Clouds 15 1015 41 10000 4.6 280 17:38 17.02.2020
2425 Clouds 15 1015 41 10000 4.6 280 17:38 17.02.2020
2426 Clouds 15 1015 41 10000 4.6 280 17:19 17.02.2020
2427 Clouds 14 1015 50 10000 1.5 0 16:55 17.02.2020
2428 Clouds 14 1015 50 10000 1.5 0 16:55 17.02.2020
2429 Clouds 14 1015 50 10000 1.5 0 16:37 17.02.2020
2430 Clouds 14 1015 50 10000 1.5 0 16:18 17.02.2020
2431 Clouds 13 1015 62 10000 1.5 0 15:44 17.02.2020
2432 Clouds 13 1015 62 10000 1.5 0 15:44 17.02.2020
2433 Clouds 13 1015 62 10000 1.5 0 15:26 17.02.2020
2434 Clouds 11 1014 76 10000 1 0 14:55 17.02.2020
2435 Clouds 11 1014 76 10000 1 0 14:37 17.02.2020
2436 Clouds 11 1014 76 10000 1 0 14:18 17.02.2020
2437 Clouds 9 1014 87 10000 0.5 0 13:40 17.02.2020
2438 Clouds 9 1014 87 10000 0.5 0 13:20 17.02.2020
2439 Clouds 8 1013 93 10000 1 0 12:56 17.02.2020
2440 Clouds 8 1013 93 10000 1 0 12:38 17.02.2020
2441 Clouds 8 1013 93 10000 1 0 12:19 17.02.2020
2442 Clouds 8 1012 93 10000 0.5 0 11:45 17.02.2020
2443 Clouds 8 1012 93 10000 0.5 0 11:25 17.02.2020
2444 Rain 9 1012 87 10000 0.3 271 10:57 17.02.2020
2445 Rain 9 1012 87 10000 0.3 271 10:38 17.02.2020
2446 Rain 9 1012 87 10000 0.3 271 10:20 17.02.2020
2447 Clouds 9 1011 87 10000 1 0 09:56 17.02.2020
2448 Clouds 9 1011 87 10000 1 0 09:37 17.02.2020
2449 Clouds 9 1011 87 10000 1 0 09:18 17.02.2020
2450 Clouds 9 1011 87 10000 0.3 271 08:41 17.02.2020
2451 Clouds 9 1011 87 10000 0.19 260 08:23 17.02.2020
2452 Clouds 9 1011 87 10000 0.5 0 07:57 17.02.2020
2453 Clouds 9 1011 87 10000 0.5 0 07:27 17.02.2020
2454 Clouds 10 1011 76 10000 1 0 06:56 17.02.2020
2455 Clouds 10 1011 76 10000 1 0 06:36 17.02.2020
2456 Clouds 10 1011 71 10000 1 0 05:59 17.02.2020
2457 Clouds 10 1011 71 10000 1 0 05:38 17.02.2020
2458 Clouds 11 1010 66 10000 2.1 260 03:53 17.02.2020
2459 Clouds 11 1010 71 10000 1.5 260 02:37 17.02.2020
2460 Clouds 13 1009 58 10000 4.1 270 00:59 17.02.2020
2461 Clouds 13 1009 58 10000 4.1 270 00:25 17.02.2020
2462 Clouds 13 1009 58 10000 4.1 290 23:56 16.02.2020
2463 Clouds 13 1009 58 10000 4.1 290 23:34 16.02.2020
2464 Clouds 14 1009 54 10000 4.6 270 22:59 16.02.2020
2465 Clouds 14 1009 54 10000 4.6 270 22:39 16.02.2020
2466 Clouds 14 1009 54 10000 4.6 270 22:21 16.02.2020
2467 Clouds 15 1008 47 10000 4.6 280 21:59 16.02.2020
2468 Clouds 15 1008 47 10000 4.6 280 21:40 16.02.2020
2469 Clouds 15 1008 47 10000 4.6 280 21:22 16.02.2020
2470 Clouds 15 1009 47 10000 4.6 270 20:58 16.02.2020
2471 Clouds 15 1009 47 10000 4.6 270 20:58 16.02.2020
2472 Clouds 15 1009 47 10000 4.6 270 20:40 16.02.2020
2473 Clouds 15 1009 47 10000 4.6 270 20:21 16.02.2020
2474 Clouds 14 1009 50 10000 5.7 280 19:58 16.02.2020
2475 Clouds 14 1009 50 10000 5.7 280 19:38 16.02.2020
2476 Clouds 14 1009 50 10000 5.7 280 19:19 16.02.2020
2477 Clouds 14 1009 47 10000 4.6 270 18:45 16.02.2020
2478 Clouds 14 1009 47 10000 4.6 270 18:26 16.02.2020
2479 Clouds 14 1009 47 10000 5.1 280 17:57 16.02.2020
2480 Clouds 14 1009 47 10000 5.1 280 17:39 16.02.2020
2481 Clouds 14 1009 47 10000 5.1 280 17:19 16.02.2020
2482 Clouds 14 1008 47 10000 5.1 270 16:55 16.02.2020
2483 Clouds 14 1008 47 10000 5.1 270 16:36 16.02.2020
2484 Clouds 14 1008 47 10000 5.1 270 16:18 16.02.2020
2485 Clouds 14 1008 50 10000 4.6 270 15:41 16.02.2020
2486 Clouds 14 1008 50 10000 4.6 270 15:22 16.02.2020
2487 Clouds 13 1009 54 10000 4.6 270 14:45 16.02.2020
2488 Clouds 13 1009 54 10000 4.6 270 14:24 16.02.2020
2489 Clouds 12 1008 50 10000 5.1 270 13:59 16.02.2020
2490 Clouds 12 1008 50 10000 5.1 270 13:41 16.02.2020
2491 Clouds 12 1008 50 10000 5.1 270 13:22 16.02.2020
2492 Clouds 12 1008 50 10000 4.1 270 12:39 16.02.2020
2493 Clouds 12 1008 50 10000 4.1 270 12:19 16.02.2020
2494 Clouds 12 1008 54 10000 1.5 0 11:41 16.02.2020
2495 Clouds 12 1008 54 10000 1.5 0 11:20 16.02.2020
2496 Clouds 11 1007 62 10000 2.1 0 10:58 16.02.2020
2497 Clouds 11 1007 62 10000 2.1 0 10:58 16.02.2020
2498 Clouds 11 1007 62 10000 2.1 0 10:40 16.02.2020
2499 Clouds 11 1007 62 10000 2.1 0 10:21 16.02.2020
2500 Clouds 11 1007 62 10000 1 0 09:59 16.02.2020
2501 Clouds 11 1007 62 10000 1 0 09:38 16.02.2020
2502 Clouds 11 1007 62 10000 1 0 09:20 16.02.2020
2503 Clouds 12 1007 54 10000 3.1 250 08:50 16.02.2020
2504 Clouds 12 1007 54 10000 3.1 250 08:50 16.02.2020
2505 Clear 12 1007 54 10000 3.1 250 08:22 16.02.2020
2506 Clear 12 1007 54 10000 3.1 250 08:22 16.02.2020
2507 Clear 12 1007 54 10000 3.6 240 07:59 16.02.2020
2508 Clear 12 1007 54 10000 3.6 240 07:40 16.02.2020
2509 Clear 5 1006 94 0 2.89 285 06:47 16.02.2020
2510 Clear 13 1008 43 10000 3.1 240 05:53 16.02.2020
2511 Clear 13 1007 50 10000 6.2 260 04:37 16.02.2020
2512 Clear 14 1007 58 10000 3.1 250 03:19 16.02.2020
2513 Clear 14 1006 62 10000 4.1 250 01:57 16.02.2020
2514 Clear 14 1006 62 10000 4.1 250 01:37 16.02.2020
2515 Clear 14 1006 62 10000 4.1 250 01:19 16.02.2020
2516 Clear 15 1006 54 10000 4.6 260 00:41 16.02.2020
2517 Clear 15 1006 54 10000 4.6 260 00:21 16.02.2020
2518 Clear 16 1006 55 10000 4.6 240 23:43 15.02.2020
2519 Clear 16 1006 55 10000 4.6 240 23:24 15.02.2020
2520 Clouds 16 1006 59 10000 5.1 260 22:57 15.02.2020
2521 Clouds 16 1006 59 10000 5.1 260 22:39 15.02.2020
2522 Clouds 16 1006 59 10000 5.1 260 22:19 15.02.2020
2523 Clouds 18 1005 55 10000 5.1 260 21:44 15.02.2020
2524 Clouds 18 1005 55 10000 5.1 260 21:24 15.02.2020
2525 Clouds 19 1005 52 10000 6.2 270 20:56 15.02.2020
2526 Clouds 19 1005 52 10000 6.2 270 20:37 15.02.2020
2527 Rain 19 1005 52 10000 6.2 270 20:19 15.02.2020
2528 Rain 18 1005 55 10000 5.7 270 19:41 15.02.2020
2529 Rain 18 1005 55 10000 5.7 270 19:22 15.02.2020
2530 Rain 19 1005 55 10000 6.2 270 18:41 15.02.2020
2531 Rain 19 1005 55 10000 6.2 270 18:21 15.02.2020
2532 Rain 17 1005 63 10000 6.2 260 17:56 15.02.2020
2533 Rain 17 1005 63 10000 6.2 260 17:37 15.02.2020
2534 Rain 17 1005 63 10000 6.2 260 17:37 15.02.2020
2535 Rain 17 1005 63 10000 6.2 260 17:18 15.02.2020
2536 Rain 17 1004 59 10000 6.2 250 16:41 15.02.2020
2537 Rain 17 1004 59 10000 6.2 250 16:21 15.02.2020
2538 Rain 15 1005 67 10000 5.7 260 15:50 15.02.2020
2539 Rain 15 1005 67 10000 5.7 260 15:31 15.02.2020
2540 Rain 13 1005 76 10000 4.6 260 14:57 15.02.2020
2541 Rain 13 1005 76 10000 4.6 260 14:39 15.02.2020
2542 Rain 13 1005 76 10000 4.6 260 14:18 15.02.2020
2543 Rain 13 1005 76 10000 4.6 260 14:18 15.02.2020
2544 Rain 12 1006 76 10000 3.6 250 13:42 15.02.2020
2545 Rain 12 1006 76 10000 3.6 250 13:22 15.02.2020
2546 Rain 12 1005 76 10000 4.6 250 12:57 15.02.2020
2547 Rain 12 1005 76 10000 4.6 250 12:38 15.02.2020
2548 Rain 12 1005 76 10000 4.6 250 12:19 15.02.2020
2549 Clouds 15 1004 51 10000 6.7 260 11:45 15.02.2020
2550 Clouds 15 1004 51 10000 6.7 260 11:26 15.02.2020
2551 Clouds 15 1005 47 10000 6.7 250 10:47 15.02.2020
2552 Clouds 15 1005 47 10000 6.7 250 10:29 15.02.2020
2553 Clouds 14 1006 47 10000 4.6 250 09:55 15.02.2020
2554 Clouds 14 1006 47 10000 4.6 250 09:36 15.02.2020
2555 Clouds 14 1006 47 10000 4.6 250 09:18 15.02.2020
2556 Clouds 14 1006 44 10000 5.1 250 08:41 15.02.2020
2557 Clouds 14 1006 44 10000 5.1 250 08:22 15.02.2020
2558 Clear 6 1007 93 0 3.24 309 07:44 15.02.2020
2559 Clear 15 1008 47 10000 6.2 260 07:25 15.02.2020
2560 Clear 15 1008 47 10000 6.2 260 07:25 15.02.2020
2561 Clear 15 1008 47 10000 6.2 260 06:40 15.02.2020
2562 Clear 15 1008 47 10000 6.2 260 06:21 15.02.2020
2563 Clear 15 1009 47 10000 5.7 240 04:57 15.02.2020
2564 Clear 15 1009 47 10000 5.7 240 04:31 15.02.2020
2565 Clear 15 1009 47 10000 3.6 240 02:59 15.02.2020
2566 Clear 15 1009 47 10000 3.6 240 02:29 15.02.2020
2567 Clouds 15 1009 47 10000 3.6 240 01:59 15.02.2020
2568 Clouds 15 1009 47 10000 3.6 240 01:37 15.02.2020
2569 Clouds 16 1009 48 10000 4.1 250 00:31 15.02.2020
2570 Clouds 18 1009 42 10000 4.1 250 23:59 14.02.2020
2571 Clouds 18 1009 42 10000 4.1 250 23:38 14.02.2020
2572 Clouds 18 1009 42 10000 4.1 250 23:18 14.02.2020
2573 Clouds 18 1009 42 10000 7.2 280 22:43 14.02.2020
2574 Clouds 18 1009 42 10000 7.2 280 22:22 14.02.2020
2575 Clouds 19 1008 42 10000 7.7 280 21:49 14.02.2020
2576 Clouds 19 1008 42 10000 7.7 280 21:49 14.02.2020
2577 Clouds 19 1008 42 10000 7.7 280 21:31 14.02.2020
2578 Clouds 15 1008 52 0 5.39 296 20:56 14.02.2020
2579 Clouds 15 1008 52 0 5.39 296 20:38 14.02.2020
2580 Clouds 14 1007 62 0 5.83 296 20:19 14.02.2020
2581 Clouds 14 1007 62 0 5.83 296 19:41 14.02.2020
2582 Clouds 14 1007 62 0 5.83 296 19:23 14.02.2020
2583 Clouds 14 1007 62 0 5.83 296 18:57 14.02.2020
2584 Clouds 14 1007 62 0 5.83 296 18:39 14.02.2020
2585 Clouds 14 1007 62 0 5.83 296 18:20 14.02.2020
2586 Clouds 14 1007 62 0 5.83 296 17:44 14.02.2020
2587 Clouds 14 1007 62 0 5.83 296 17:22 14.02.2020
2588 Rain 12 1007 77 0 4.46 300 16:59 14.02.2020
2589 Rain 12 1007 77 0 4.46 300 16:40 14.02.2020
2590 Rain 12 1007 77 0 4.46 300 16:22 14.02.2020
2591 Rain 12 1007 77 0 4.46 300 15:56 14.02.2020
2592 Rain 12 1007 77 0 4.46 300 15:37 14.02.2020
2593 Rain 12 1007 77 0 4.46 300 15:19 14.02.2020
2594 Rain 12 1007 77 0 4.46 300 14:58 14.02.2020
2595 Rain 12 1007 77 0 4.46 300 14:40 14.02.2020
2596 Rain 8 1008 85 0 3.75 312 14:21 14.02.2020
2597 Rain 8 1008 85 0 3.75 312 13:54 14.02.2020
2598 Rain 8 1008 85 0 3.75 312 13:36 14.02.2020
2599 Rain 8 1008 85 0 3.75 312 13:18 14.02.2020
2600 Rain 8 1008 87 0 3.3 301 12:54 14.02.2020
2601 Rain 8 1008 87 0 3.3 301 12:36 14.02.2020
2602 Rain 8 1008 87 0 3.3 301 12:36 14.02.2020
2603 Rain 8 1008 87 0 3.3 301 12:18 14.02.2020
2604 Rain 8 1008 87 0 3.3 301 11:41 14.02.2020
2605 Rain 6 1009 87 0 3.12 306 11:21 14.02.2020
2606 Rain 6 1009 87 0 3.12 306 10:56 14.02.2020
2607 Rain 6 1009 87 0 3.12 306 10:38 14.02.2020
2608 Rain 6 1009 87 0 3.12 306 10:20 14.02.2020
2609 Rain 6 1009 87 0 3.12 306 09:43 14.02.2020
2610 Rain 6 1009 87 0 3.12 306 09:22 14.02.2020
2611 Rain 6 1009 87 0 3.12 306 08:55 14.02.2020
2612 Rain 6 1009 87 0 3.12 306 08:37 14.02.2020
2613 Clouds 5 1010 90 0 2.91 310 08:18 14.02.2020
2614 Clouds 6 1011 85 0 2.81 306 07:43 14.02.2020
2615 Clouds 6 1011 85 0 2.81 306 07:24 14.02.2020
2616 Clouds 6 1011 85 0 2.81 306 06:32 14.02.2020
2617 Clouds 13 1014 54 10000 5.1 250 05:48 14.02.2020
2618 Clouds 13 1014 58 10000 5.7 260 04:47 14.02.2020
2619 Clouds 13 1015 54 10000 5.1 260 03:30 14.02.2020
2620 Clouds 13 1016 50 10000 4.1 250 02:32 14.02.2020
2621 Clear 13 1016 50 10000 4.1 240 01:28 14.02.2020
2622 Clear 14 1016 44 10000 4.1 270 00:43 14.02.2020
2623 Clear 14 1016 44 10000 4.1 270 00:43 14.02.2020
2624 Clear 14 1016 44 10000 4.1 270 00:23 14.02.2020
2625 Clear 15 1016 41 10000 4.1 270 23:46 13.02.2020
2626 Clear 15 1016 41 10000 4.1 270 23:22 13.02.2020
2627 Clear 15 1016 44 10000 5.7 270 22:44 13.02.2020
2628 Clear 15 1016 44 10000 5.7 270 22:20 13.02.2020
2629 Clear 15 1016 44 10000 5.7 270 22:20 13.02.2020
2630 Clouds 16 1016 41 10000 6.7 280 21:59 13.02.2020
2631 Clouds 16 1016 41 10000 6.7 280 21:40 13.02.2020
2632 Clouds 16 1016 41 10000 6.7 280 21:22 13.02.2020
2633 Clouds 15 1016 44 10000 4.6 270 20:56 13.02.2020
2634 Clouds 15 1016 44 10000 4.6 270 20:38 13.02.2020
2635 Clouds 15 1016 44 10000 4.6 270 20:20 13.02.2020
2636 Clouds 16 1017 41 10000 5.7 280 19:55 13.02.2020
2637 Clouds 16 1017 41 10000 5.7 280 19:36 13.02.2020
2638 Clouds 16 1017 41 10000 5.7 280 19:18 13.02.2020
2639 Clouds 16 1017 41 10000 5.7 280 19:18 13.02.2020
2640 Clouds 16 1017 41 10000 4.1 270 18:42 13.02.2020
2641 Clouds 16 1017 41 10000 4.1 270 18:42 13.02.2020
2642 Clouds 16 1017 41 10000 4.1 270 18:23 13.02.2020
2643 Clouds 15 1018 38 10000 4.6 280 17:58 13.02.2020
2644 Clouds 15 1018 38 10000 4.6 280 17:39 13.02.2020
2645 Clouds 15 1018 38 10000 4.6 280 17:20 13.02.2020
2646 Clouds 15 1018 38 10000 4.6 280 17:20 13.02.2020
2647 Clouds 14 1018 44 10000 2.6 270 16:57 13.02.2020
2648 Clouds 14 1018 44 10000 2.6 270 16:36 13.02.2020
2649 Clouds 14 1018 44 10000 2.6 270 16:18 13.02.2020
2650 Clouds 13 1018 54 10000 2.1 250 15:56 13.02.2020
2651 Clouds 13 1018 54 10000 2.1 250 15:37 13.02.2020
2652 Clouds 13 1018 54 10000 2.1 250 15:37 13.02.2020
2653 Clouds 13 1018 54 10000 2.1 250 15:18 13.02.2020
2654 Clouds 11 1018 62 10000 1.5 210 14:55 13.02.2020
2655 Clouds 11 1018 62 10000 1.5 210 14:55 13.02.2020
2656 Clouds 11 1018 62 10000 1.5 210 14:37 13.02.2020
2657 Clouds 11 1018 62 10000 1.5 210 14:37 13.02.2020
2658 Clouds 11 1018 62 10000 1.5 210 14:37 13.02.2020
2659 Clouds 11 1018 62 10000 1.5 210 14:19 13.02.2020
2660 Clouds 10 1019 66 10000 1.5 240 13:42 13.02.2020
2661 Clouds 10 1019 66 10000 1.5 240 13:18 13.02.2020
2662 Clouds 9 1019 70 10000 2.1 280 12:54 13.02.2020
2663 Clouds 9 1019 70 10000 2.1 280 12:36 13.02.2020
2664 Clouds 9 1019 70 10000 2.1 280 12:18 13.02.2020
2665 Clouds 7 1018 81 10000 1 0 11:43 13.02.2020
2666 Clouds 7 1018 81 10000 1 0 11:19 13.02.2020
2667 Clouds 9 1018 70 10000 1 0 10:46 13.02.2020
2668 Clouds 9 1018 70 10000 1 0 10:27 13.02.2020
2669 Clouds 7 1018 81 10000 0.5 0 09:51 13.02.2020
2670 Clouds 7 1018 81 10000 0.5 0 09:26 13.02.2020
2671 Clouds 7 1018 81 10000 0.5 0 09:26 13.02.2020
2672 Clouds 8 1018 70 10000 1 0 08:52 13.02.2020
2673 Clear 8 1018 70 10000 1 0 08:21 13.02.2020
2674 Clear 8 1018 70 10000 1.5 260 07:57 13.02.2020
2675 Clear 8 1018 70 10000 1.5 260 07:38 13.02.2020
2676 Clear 8 1018 70 10000 1.5 260 07:38 13.02.2020
2677 Clear 8 1018 70 10000 1.5 260 07:20 13.02.2020
2678 Clear 10 1018 57 10000 2.6 240 06:44 13.02.2020
2679 Clear 10 1018 57 10000 2.6 240 06:18 13.02.2020
2680 Clear 11 1019 57 10000 2.6 260 05:25 13.02.2020
2681 Clear 11 1018 62 10000 2.1 240 04:25 13.02.2020
2682 Clear 12 1018 58 10000 3.1 240 03:47 13.02.2020
2683 Clear 12 1018 58 10000 3.1 240 03:18 13.02.2020
2684 Clear 12 1017 58 10000 3.6 250 02:45 13.02.2020
2685 Clouds 12 1017 58 10000 3.6 250 02:19 13.02.2020
2686 Clouds 13 1016 58 10000 3.6 250 01:27 13.02.2020
2687 Clouds 13 1015 58 10000 3.6 260 00:32 13.02.2020
2688 Clouds 15 1015 51 10000 5.1 280 23:58 12.02.2020
2689 Clouds 15 1015 51 10000 5.1 280 23:37 12.02.2020
2690 Clouds 15 1015 51 10000 5.1 280 23:18 12.02.2020
2691 Clouds 14 1014 54 10000 5.7 280 22:44 12.02.2020
2692 Clouds 14 1014 54 10000 5.7 280 22:24 12.02.2020
2693 Clouds 15 1014 51 10000 5.1 270 21:57 12.02.2020
2694 Clouds 15 1014 51 10000 5.1 270 21:39 12.02.2020
2695 Clouds 15 1014 51 10000 5.1 270 21:19 12.02.2020
2696 Clouds 14 1013 54 10000 5.7 270 20:55 12.02.2020
2697 Clouds 14 1013 54 10000 5.7 270 20:36 12.02.2020
2698 Clouds 14 1013 54 10000 5.7 270 20:18 12.02.2020
2699 Clouds 13 1014 62 10000 4.6 260 19:43 12.02.2020
2700 Clouds 13 1014 62 10000 4.6 260 19:22 12.02.2020
2701 Rain 12 1013 71 8000 3.1 270 18:54 12.02.2020
2702 Rain 12 1013 71 8000 3.1 270 18:36 12.02.2020
2703 Rain 12 1013 71 8000 3.1 270 18:18 12.02.2020
2704 Rain 15 1012 47 10000 3.1 260 17:40 12.02.2020
2705 Rain 15 1012 47 10000 3.1 260 17:19 12.02.2020
2706 Clouds 14 1012 50 10000 5.7 270 16:57 12.02.2020
2707 Clouds 14 1012 50 10000 5.7 270 16:37 12.02.2020
2708 Clouds 14 1012 50 10000 5.7 270 16:18 12.02.2020
2709 Clouds 13 1012 54 10000 4.1 260 15:38 12.02.2020
2710 Clouds 13 1012 54 10000 4.1 260 15:19 12.02.2020
2711 Rain 13 1012 50 10000 2.6 250 14:43 12.02.2020
2712 Rain 13 1012 50 10000 2.6 250 14:43 12.02.2020
2713 Rain 13 1012 50 10000 2.6 250 14:21 12.02.2020
2714 Clouds 13 1011 54 10000 2.1 230 13:59 12.02.2020
2715 Clouds 13 1011 54 10000 2.1 230 13:40 12.02.2020
2716 Clouds 13 1011 54 10000 2.1 230 13:22 12.02.2020
2717 Rain 11 1011 57 10000 2.1 240 12:58 12.02.2020
2718 Rain 11 1011 57 10000 2.1 240 12:39 12.02.2020
2719 Rain 11 1011 57 10000 2.1 240 12:19 12.02.2020
2720 Rain 12 1010 54 10000 3.1 270 11:59 12.02.2020
2721 Rain 12 1010 54 10000 3.1 270 11:40 12.02.2020
2722 Rain 12 1010 54 10000 3.1 270 11:21 12.02.2020
2723 Rain 12 1010 54 10000 3.1 270 11:21 12.02.2020
2724 Rain 13 1009 58 10000 3.6 270 10:58 12.02.2020
2725 Rain 13 1009 58 10000 3.6 270 10:39 12.02.2020
2726 Rain 13 1009 58 10000 3.6 270 10:20 12.02.2020
2727 Rain 13 1009 76 10000 2.6 260 09:42 12.02.2020
2728 Rain 13 1009 76 10000 2.6 260 09:42 12.02.2020
2729 Rain 13 1009 76 10000 2.6 260 09:24 12.02.2020
2730 Rain 15 1007 67 10000 4.1 270 08:58 12.02.2020
2731 Rain 15 1007 67 10000 4.1 270 08:38 12.02.2020
2732 Rain 15 1007 67 10000 4.1 270 08:20 12.02.2020
2733 Rain 15 1007 67 10000 4.1 270 08:20 12.02.2020
2734 Rain 18 1005 59 10000 3.1 250 07:47 12.02.2020
2735 Rain 18 1005 59 10000 3.1 250 07:47 12.02.2020
2736 Rain 18 1005 59 10000 3.1 250 07:47 12.02.2020
2737 Rain 18 1005 59 10000 3.1 250 07:24 12.02.2020
2738 Rain 13 1007 88 0 2.83 273 06:59 12.02.2020
2739 Rain 18 1005 63 10000 1 0 06:25 12.02.2020
2740 Rain 18 1005 63 10000 1 0 05:47 12.02.2020
2741 Rain 18 1005 63 10000 1 0 05:21 12.02.2020
2742 Clouds 19 1007 59 10000 1 0 04:41 12.02.2020
2743 Clouds 21 1008 49 10000 4.1 250 03:57 12.02.2020
2744 Clouds 21 1008 49 10000 4.1 250 03:28 12.02.2020
2745 Clouds 22 1008 43 10000 2.1 250 02:41 12.02.2020
2746 Clear 22 1008 43 10000 2.1 250 02:21 12.02.2020
2747 Clear 22 1008 43 10000 4.1 260 01:27 12.02.2020
2748 Clear 24 1008 38 10000 2.6 270 00:39 12.02.2020
2749 Clear 24 1008 38 10000 2.6 270 00:21 12.02.2020
2750 Clear 26 1008 29 10000 5.7 270 23:45 11.02.2020
2751 Clear 26 1008 29 10000 5.7 270 23:27 11.02.2020
2752 Clear 27 1008 30 10000 4.1 270 22:56 11.02.2020
2753 Clear 27 1008 30 10000 4.1 270 22:38 11.02.2020
2754 Clear 27 1008 30 10000 4.1 270 22:19 11.02.2020
2755 Clear 27 1008 30 10000 5.1 270 21:56 11.02.2020
2756 Clear 27 1008 30 10000 5.1 270 21:37 11.02.2020
2757 Clear 27 1008 30 10000 5.1 270 21:18 11.02.2020
2758 Clear 27 1008 30 10000 5.1 270 21:18 11.02.2020
2759 Clear 28 1008 24 10000 5.1 270 20:56 11.02.2020
2760 Clear 28 1008 24 10000 5.1 270 20:38 11.02.2020
2761 Clear 28 1008 24 10000 5.1 270 20:38 11.02.2020
2762 Clear 28 1008 24 10000 5.1 270 20:18 11.02.2020
2763 Clear 28 1008 24 10000 5.1 270 20:18 11.02.2020
2764 Clear 28 1009 26 10000 2.1 0 19:43 11.02.2020
2765 Clear 28 1009 26 10000 2.1 0 19:43 11.02.2020
2766 Clear 28 1009 26 10000 2.1 0 19:25 11.02.2020
2767 Clear 26 1010 39 10000 1.5 290 18:57 11.02.2020
2768 Clear 26 1010 39 10000 1.5 290 18:57 11.02.2020
2769 Clear 26 1010 39 10000 1.5 290 18:39 11.02.2020
2770 Clear 26 1010 39 10000 1.5 290 18:39 11.02.2020
2771 Clear 26 1010 39 10000 1.5 290 18:39 11.02.2020
2772 Clear 26 1010 39 10000 1.5 290 18:39 11.02.2020
2773 Clear 26 1010 39 10000 1.5 290 18:20 11.02.2020
2774 Clear 23 1011 49 10000 1.5 300 17:55 11.02.2020
2775 Clear 23 1011 49 10000 1.5 300 17:36 11.02.2020
2776 Clear 23 1011 49 10000 1.5 300 17:18 11.02.2020
2777 Clear 21 1013 56 10000 1.5 270 16:57 11.02.2020
2778 Clear 21 1013 56 10000 1.5 270 16:37 11.02.2020
2779 Clear 21 1013 56 10000 1.5 270 16:19 11.02.2020
2780 Clear 18 1014 63 10000 1 0 15:45 11.02.2020
2781 Clear 18 1014 63 10000 1 0 15:26 11.02.2020
2782 Clear 16 1014 72 10000 1 0 14:57 11.02.2020
2783 Clear 16 1014 72 10000 1 0 14:38 11.02.2020
2784 Clear 16 1014 72 10000 1 0 14:18 11.02.2020
2785 Clear 14 1015 82 10000 1 0 13:42 11.02.2020
2786 Clear 14 1015 82 10000 1 0 13:21 11.02.2020
2787 Clear 14 1015 82 10000 1 0 13:21 11.02.2020
2788 Clear 11 1015 93 10000 1 0 12:58 11.02.2020
2789 Clear 11 1015 93 10000 1 0 12:40 11.02.2020
2790 Clear 11 1015 93 10000 1 0 12:20 11.02.2020
2791 Clear 11 1015 93 10000 1 260 11:55 11.02.2020
2792 Clear 11 1015 93 10000 1 260 11:36 11.02.2020
2793 Clear 11 1015 93 10000 1 260 11:18 11.02.2020
2794 Clear 12 1015 87 10000 1 260 10:39 11.02.2020
2795 Clear 12 1015 87 10000 1 260 10:20 11.02.2020
2796 Clear 13 1015 87 10000 1 0 09:56 11.02.2020
2797 Clear 13 1015 87 10000 1 0 09:38 11.02.2020
2798 Clear 13 1015 87 10000 1 0 09:20 11.02.2020
2799 Clear 13 1015 82 10000 1 0 08:46 11.02.2020
2800 Clear 13 1015 82 10000 1 0 08:24 11.02.2020
2801 Clear 13 1015 82 10000 1 250 07:48 11.02.2020
2802 Clear 13 1015 82 10000 1 250 07:26 11.02.2020
2803 Clear 14 1015 76 10000 1 0 06:44 11.02.2020
2804 Clear 14 1015 76 10000 1 0 06:22 11.02.2020
2805 Clear 15 1015 77 9000 1 0 05:58 11.02.2020
2806 Clear 15 1015 77 9000 1 0 05:25 11.02.2020
2807 Clear 16 1016 67 10000 1 0 04:42 11.02.2020
2808 Clear 18 1015 59 9000 1.5 300 03:21 11.02.2020
2809 Clear 18 1015 68 9000 1 270 02:32 11.02.2020
2810 Clear 21 1014 56 10000 1.97 265 01:38 11.02.2020
2811 Clear 27 1014 28 10000 2.1 320 00:41 11.02.2020
2812 Clear 29 1014 23 10000 1.5 280 23:59 10.02.2020
2813 Clear 29 1014 23 10000 1.5 280 23:38 10.02.2020
2814 Clear 29 1014 23 10000 1.5 280 23:20 10.02.2020
2815 Clear 30 1014 20 10000 1.5 0 22:41 10.02.2020
2816 Clear 30 1014 20 10000 1.5 0 22:20 10.02.2020
2817 Clear 30 1014 20 10000 1.5 0 22:20 10.02.2020
2818 Clear 29 1014 21 10000 2.1 0 21:47 10.02.2020
2819 Clear 29 1014 21 10000 2.1 0 21:27 10.02.2020
2820 Clear 28 1015 28 10000 2.1 310 20:58 10.02.2020
2821 -273 0 0 0 0 0 20:58 10.02.2020
2822 Clear 28 1015 28 10000 2.1 310 20:58 10.02.2020
2823 Clear 28 1015 28 10000 2.1 310 20:40 10.02.2020
2824 Clear 28 1015 28 10000 2.1 310 20:21 10.02.2020
2825 Clear 28 1015 28 10000 2.1 310 20:21 10.02.2020
2826 Clear 26 1016 31 10000 1.5 310 19:59 10.02.2020
2827 Clear 26 1016 31 10000 1.5 310 19:39 10.02.2020
2828 Clear 26 1016 31 10000 1.5 310 19:19 10.02.2020
2829 Clear 24 1016 33 10000 1 0 18:59 10.02.2020
2830 Clear 24 1016 33 10000 1 0 18:40 10.02.2020
2831 Clear 24 1016 33 10000 1 0 18:21 10.02.2020
2832 Clear 22 1017 46 10000 1 0 17:58 10.02.2020
2833 Clear 22 1017 46 10000 1 0 17:38 10.02.2020
2834 Clear 22 1017 46 10000 1 0 17:19 10.02.2020
2835 Clear 19 1018 55 10000 0.5 0 16:59 10.02.2020
2836 Clear 19 1018 55 10000 0.5 0 16:40 10.02.2020
2837 -273 0 0 0 0 0 16:40 10.02.2020
2838 Clear 19 1018 55 10000 0.5 0 16:20 10.02.2020
2839 Clear 17 1019 55 10000 1 0 15:56 10.02.2020
2840 Clear 17 1019 55 10000 1 0 15:56 10.02.2020
2841 Clear 17 1019 55 10000 1 0 15:38 10.02.2020
2842 Clear 17 1019 55 10000 1 0 15:20 10.02.2020
2843 Clear 14 1019 71 10000 1 0 14:56 10.02.2020
2844 Clear 14 1019 71 10000 1 0 14:36 10.02.2020
2845 Clear 14 1019 71 10000 1 0 14:18 10.02.2020
2846 Clear 14 1019 71 10000 1 0 14:18 10.02.2020
2847 Clear 12 1020 81 10000 0.78 219 13:42 10.02.2020
2848 Clear 12 1020 81 10000 0.55 202 13:23 10.02.2020
2849 Clear 7 1020 93 10000 0.55 202 12:48 10.02.2020
2850 Clear 7 1020 93 10000 0.55 202 12:26 10.02.2020
2851 Clear 8 1020 87 10000 0.55 202 11:56 10.02.2020
2852 Clear 8 1020 87 10000 0.55 202 11:38 10.02.2020
2853 Clear 8 1020 87 10000 0.98 282 11:19 10.02.2020
2854 Clear 9 1019 93 10000 0.5 0 10:46 10.02.2020
2855 Clear 9 1019 93 10000 0.5 0 10:27 10.02.2020
2856 Clear 9 1020 93 10000 1 280 09:47 10.02.2020
2857 Clear 9 1020 93 10000 1 280 09:47 10.02.2020
2858 Clear 9 1020 93 10000 1 280 09:26 10.02.2020
2859 Clear 10 1020 87 10000 1 0 08:56 10.02.2020
2860 Clear 10 1020 87 10000 1 0 08:37 10.02.2020
2861 Clear 10 1020 87 10000 1 0 08:18 10.02.2020
2862 Clear 11 1020 87 10000 0.5 0 07:47 10.02.2020
2863 Clear 11 1020 87 10000 0.5 0 07:26 10.02.2020
2864 Clear 12 1020 81 10000 1 0 06:19 10.02.2020
2865 Clear 13 1020 76 10000 1 0 04:27 10.02.2020
2866 Clear 15 1019 67 10000 0.5 0 03:34 10.02.2020
2867 Clear 16 1019 67 9000 1.95 290 02:54 10.02.2020
2868 Clouds 19 1018 59 10000 1 0 01:36 10.02.2020
2869 Clouds 24 1018 36 10000 1.5 260 00:48 10.02.2020
2870 Clouds 24 1018 36 10000 1.5 260 00:28 10.02.2020
2871 Clouds 25 1018 29 10000 1.5 0 23:45 09.02.2020
2872 Clouds 25 1018 29 10000 1.5 0 23:45 09.02.2020
2873 Clouds 25 1018 29 10000 1.5 0 23:26 09.02.2020
2874 Clouds 24 1018 33 10000 2.6 320 22:58 09.02.2020
2875 Clouds 24 1018 33 10000 2.6 320 22:38 09.02.2020
2876 Clouds 24 1018 33 10000 2.6 320 22:38 09.02.2020
2877 Clouds 24 1018 33 10000 2.6 320 22:19 09.02.2020
2878 Clouds 25 1018 33 10000 2.1 0 21:41 09.02.2020
2879 Clouds 25 1018 33 10000 2.1 0 21:22 09.02.2020
2880 Clouds 25 1018 33 10000 2.1 0 21:22 09.02.2020
2881 Clouds 26 1018 31 10000 1.5 0 20:47 09.02.2020
2882 Clouds 26 1018 31 10000 1.5 0 20:23 09.02.2020
2883 Clouds 25 1018 33 10000 2.1 290 19:57 09.02.2020
2884 Clouds 25 1018 33 10000 2.1 290 19:38 09.02.2020
2885 Clouds 25 1018 33 10000 2.1 290 19:20 09.02.2020
2886 Clouds 24 1018 41 10000 2.6 310 18:42 09.02.2020
2887 Clouds 24 1018 41 10000 2.6 310 18:24 09.02.2020
2888 Clouds 22 1019 37 10000 2.1 300 17:59 09.02.2020
2889 Clouds 22 1019 37 10000 2.1 300 17:39 09.02.2020
2890 Clear 22 1019 37 10000 2.1 300 17:21 09.02.2020
2891 Clear 22 1019 37 10000 2.1 300 17:21 09.02.2020
2892 Clear 20 1020 52 10000 1 0 16:41 09.02.2020
2893 Clear 20 1020 52 10000 1 0 16:22 09.02.2020
2894 Clear 17 1020 59 10000 1 0 15:59 09.02.2020
2895 Clear 17 1020 59 10000 1 0 15:59 09.02.2020
2896 Clear 17 1020 59 10000 1 0 15:41 09.02.2020
2897 Clear 17 1020 59 10000 1 0 15:21 09.02.2020
2898 Clear 14 1021 76 10000 1.32 181 14:57 09.02.2020
2899 Clear 14 1021 76 10000 1.32 181 14:38 09.02.2020
2900 Clear 14 1021 76 10000 0.49 259 14:20 09.02.2020
2901 Clear 11 1021 87 10000 0.49 259 13:43 09.02.2020
2902 Clear 11 1021 87 10000 0.49 259 13:25 09.02.2020
2903 Clear 7 1021 93 10000 0.49 251 12:56 09.02.2020
2904 Clear 7 1021 93 10000 0.49 251 12:37 09.02.2020
2905 Clear 7 1021 93 10000 0.49 251 12:18 09.02.2020
2906 Clear 7 1021 93 10000 0.49 251 12:18 09.02.2020
2907 Clear 7 1020 93 10000 0.49 251 11:41 09.02.2020
2908 Clear 7 1020 93 10000 1.07 304 11:20 09.02.2020
2909 Clear 7 1020 93 10000 1.07 304 10:57 09.02.2020
2910 Clear 7 1020 93 10000 1.07 304 10:38 09.02.2020
2911 Clear 7 1020 93 10000 1.07 304 10:38 09.02.2020
2912 Clear 7 1020 93 10000 1.07 304 10:19 09.02.2020
2913 Clear 7 1020 100 10000 1.07 304 09:40 09.02.2020
2914 Clear 7 1020 100 10000 1.07 304 09:20 09.02.2020
2915 Clear 8 1019 93 10000 0.5 0 08:44 09.02.2020
2916 Clear 8 1019 93 10000 0.5 0 08:25 09.02.2020
2917 Clear 9 1020 93 10000 1.02 301 07:54 09.02.2020
2918 Clear 9 1020 93 10000 1.02 301 07:34 09.02.2020
2919 Clear 9 1020 93 10000 1.02 301 07:34 09.02.2020
2920 Clear 10 1020 93 10000 0.5 0 06:42 09.02.2020
2921 Clear 10 1020 87 9000 1.02 301 05:56 09.02.2020
2922 Clear 10 1020 87 9000 1.02 301 05:34 09.02.2020
2923 Clear 11 1020 87 9000 0.5 338 04:51 09.02.2020
2924 Clear 14 1019 76 10000 0.5 338 02:58 09.02.2020
2925 Clear 14 1019 76 10000 0.5 338 02:38 09.02.2020
2926 Clouds 18 1019 55 10000 1 0 01:44 09.02.2020
2927 Clouds 18 1019 55 10000 1 0 01:19 09.02.2020
2928 Clouds 23 1018 31 10000 0.5 0 00:32 09.02.2020
2929 Clouds 25 1019 27 10000 1.5 0 23:55 08.02.2020
2930 Clouds 25 1019 27 10000 1.5 0 23:37 08.02.2020
2931 Clouds 25 1019 27 10000 1.5 0 23:18 08.02.2020
2932 Clouds 25 1019 27 10000 2.6 100 22:40 08.02.2020
2933 Clouds 25 1019 27 10000 2.6 100 22:21 08.02.2020
2934 Clouds 25 1020 27 10000 1.5 0 21:49 08.02.2020
2935 Clouds 25 1020 27 10000 1.5 0 21:31 08.02.2020
2936 Clouds 23 1020 31 10000 3.1 100 20:59 08.02.2020
2937 Clouds 23 1020 31 10000 3.1 100 20:40 08.02.2020
2938 Clouds 23 1020 31 10000 3.1 100 20:20 08.02.2020
2939 Clouds 23 1020 31 10000 3.1 100 20:20 08.02.2020
2940 Clouds 22 1021 33 10000 3.1 110 19:59 08.02.2020
2941 Clouds 22 1021 33 10000 3.1 110 19:40 08.02.2020
2942 Clouds 22 1021 33 10000 3.1 110 19:20 08.02.2020
2943 Clouds 21 1022 35 10000 3.6 110 18:57 08.02.2020
2944 Clouds 21 1022 35 10000 3.6 110 18:39 08.02.2020
2945 Clouds 21 1022 35 10000 3.6 110 18:19 08.02.2020
2946 Clouds 20 1023 37 10000 2.6 110 17:42 08.02.2020
2947 Clouds 20 1023 37 10000 2.6 110 17:20 08.02.2020
2948 Clouds 16 1024 51 10000 2.1 290 16:42 08.02.2020
2949 Clouds 16 1024 51 10000 2.1 290 16:23 08.02.2020
2950 Clouds 13 1025 62 10000 1.5 320 15:59 08.02.2020
2951 Clouds 13 1025 62 10000 1.5 320 15:39 08.02.2020
2952 Clouds 13 1025 62 10000 1.5 320 15:18 08.02.2020
2953 Clouds 11 1026 71 10000 1.33 135 14:45 08.02.2020
2954 Clouds 11 1026 71 10000 1.33 135 14:24 08.02.2020
2955 Clouds 8 1026 87 10000 1 0 13:59 08.02.2020
2956 Clouds 8 1026 87 10000 1 0 13:40 08.02.2020
2957 Clear 8 1026 87 10000 1 0 13:22 08.02.2020
2958 Fog 5 1026 93 750 0.76 151 12:41 08.02.2020
2959 Fog 5 1026 93 750 0.76 151 12:23 08.02.2020
2960 Fog 4 1026 93 400 0.76 151 11:56 08.02.2020
2961 Fog 4 1026 93 400 0.76 151 11:38 08.02.2020
2962 Fog 4 1026 93 400 0.61 275 11:20 08.02.2020
2963 Fog 4 1025 100 1100 1 0 10:42 08.02.2020
2964 Fog 4 1025 100 1100 1 0 10:22 08.02.2020
2965 Clouds 5 1025 93 10000 0.5 0 09:53 08.02.2020
2966 Clouds 5 1025 93 10000 0.5 0 09:28 08.02.2020
2967 Clouds 5 1025 93 10000 0.61 275 08:55 08.02.2020
2968 Clouds 5 1025 93 10000 0.61 275 08:37 08.02.2020
2969 Clear 5 1025 93 10000 0.95 280 08:19 08.02.2020
2970 Clear 6 1025 93 10000 0.95 280 07:45 08.02.2020
2971 Clear 6 1025 93 10000 0.95 280 07:20 08.02.2020
2972 Clear 7 1025 93 10000 0.5 0 06:28 08.02.2020
2973 Clear 8 1025 87 10000 0.95 280 05:48 08.02.2020
2974 Clear 8 1025 87 10000 0.95 280 05:48 08.02.2020
2975 Clear 8 1025 87 10000 0.95 280 05:29 08.02.2020
2976 Clear 9 1025 81 9000 1 0 04:48 08.02.2020
2977 Clear 10 1025 76 9000 1.53 284 03:48 08.02.2020
2978 Clear 11 1024 71 8000 1.53 284 02:51 08.02.2020
2979 Clear 14 1023 58 10000 0.5 0 01:37 08.02.2020
2980 Clear 14 1023 58 10000 0.5 0 01:19 08.02.2020
2981 Clear 18 1023 34 10000 2.1 310 00:38 08.02.2020
2982 Clear 18 1023 34 10000 2.1 310 00:20 08.02.2020
2983 Clear 19 1022 32 10000 2.1 0 23:42 07.02.2020
2984 Clear 19 1022 32 10000 2.1 0 23:20 07.02.2020
2985 Clear 19 1022 29 10000 1 0 22:56 07.02.2020
2986 Clear 19 1022 29 10000 1 0 22:37 07.02.2020
2987 Clear 19 1022 29 10000 1 0 22:18 07.02.2020
2988 Clear 19 1022 32 10000 1.5 0 21:42 07.02.2020
2989 Clear 19 1022 32 10000 1.5 0 21:22 07.02.2020
2990 Clear 17 1020 34 0 2.86 257 20:41 07.02.2020
2991 Clear 18 1023 36 10000 1.5 280 20:22 07.02.2020
2992 Clear 18 1023 36 10000 1.5 280 19:56 07.02.2020
2993 Clear 18 1023 36 10000 1.5 280 19:37 07.02.2020
2994 Clear 18 1023 36 10000 1.5 280 19:19 07.02.2020
2995 Clear 18 1023 36 10000 1.5 290 18:46 07.02.2020
2996 Clear 18 1023 36 10000 1.5 290 18:26 07.02.2020
2997 Clear 17 1023 39 10000 1.5 0 17:57 07.02.2020
2998 Clear 17 1023 39 10000 1.5 0 17:39 07.02.2020
2999 Clear 17 1023 39 10000 1.5 0 17:19 07.02.2020
3000 Clear 15 1023 47 10000 2.1 0 16:50 07.02.2020
3001 Clear 15 1023 47 10000 2.1 0 16:24 07.02.2020
3002 Clear 14 1023 58 10000 1 0 15:55 07.02.2020
3003 Clear 14 1023 58 10000 1 0 15:29 07.02.2020
3004 Clear 11 1024 66 10000 1 0 14:57 07.02.2020
3005 Clear 11 1024 66 10000 1 0 14:38 07.02.2020
3006 Clouds 11 1024 66 10000 1 0 14:19 07.02.2020
3007 Clouds 9 1024 81 10000 0.5 0 13:57 07.02.2020
3008 Clouds 9 1024 81 10000 0.5 0 13:38 07.02.2020
3009 Clouds 9 1024 81 10000 0.5 0 13:38 07.02.2020
3010 Clouds 9 1024 81 10000 0.5 0 13:19 07.02.2020
3011 Clouds 5 1023 93 10000 1 260 12:41 07.02.2020
3012 Clouds 5 1023 93 10000 1 260 12:23 07.02.2020
3013 Clouds 5 1023 93 10000 0.5 0 11:45 07.02.2020
3014 Clouds 5 1023 93 10000 0.5 0 11:23 07.02.2020
3015 Clouds 5 1022 93 10000 1 0 10:58 07.02.2020
3016 Clouds 5 1022 93 10000 1 0 10:38 07.02.2020
3017 Clouds 5 1022 93 10000 1 0 10:19 07.02.2020
3018 Clouds 6 1022 93 10000 1 0 09:41 07.02.2020
3019 Clouds 6 1022 93 10000 1 0 09:22 07.02.2020
3020 Clouds 6 1022 87 10000 1.45 300 08:47 07.02.2020
3021 Clouds 6 1022 87 10000 1.45 300 08:23 07.02.2020
3022 Clear 8 1022 81 10000 0.5 0 07:54 07.02.2020
3023 Clear 8 1022 81 10000 0.5 0 07:33 07.02.2020
3024 Clear 9 1022 81 10000 1 280 06:59 07.02.2020
3025 Clear 9 1022 81 10000 1 280 06:39 07.02.2020
3026 Clear 9 1022 81 10000 1 280 06:19 07.02.2020
3027 Clear 9 1022 81 10000 0.5 0 05:37 07.02.2020
3028 Clear 13 1021 66 10000 1.5 290 03:43 07.02.2020
3029 Rain 15 1019 67 10000 0.5 0 01:57 07.02.2020
3030 Rain 16 1019 63 10000 1.5 280 00:59 07.02.2020
3031 Rain 16 1019 63 10000 1.5 280 00:27 07.02.2020
3032 Rain 18 1018 52 10000 2.6 100 23:38 06.02.2020
3033 Rain 18 1018 52 10000 2.6 100 23:19 06.02.2020
3034 Rain 17 1018 51 10000 3.1 70 22:47 06.02.2020
3035 Rain 17 1018 51 10000 3.1 70 22:26 06.02.2020
3036 Clouds 17 1018 51 10000 3.1 100 21:57 06.02.2020
3037 Clouds 17 1018 51 10000 3.1 100 21:36 06.02.2020
3038 Clouds 17 1018 51 10000 3.1 100 21:18 06.02.2020
3039 Clouds 16 1018 55 10000 4.1 70 20:55 06.02.2020
3040 Clouds 16 1018 55 10000 4.1 70 20:36 06.02.2020
3041 Clouds 16 1018 55 10000 4.1 70 20:18 06.02.2020
3042 Clouds 16 1019 55 10000 5.1 90 19:55 06.02.2020
3043 Clouds 16 1019 55 10000 5.1 90 19:36 06.02.2020
3044 Clouds 16 1019 55 10000 5.1 90 19:18 06.02.2020
3045 Rain 14 1019 62 10000 4.6 120 18:40 06.02.2020
3046 Rain 14 1019 62 10000 4.6 120 18:22 06.02.2020
3047 Clouds 15 1020 58 10000 3.6 90 17:55 06.02.2020
3048 Clouds 15 1020 58 10000 3.6 90 17:55 06.02.2020
3049 Clouds 15 1020 58 10000 3.6 90 17:37 06.02.2020
3050 Clouds 15 1020 58 10000 3.6 90 17:18 06.02.2020
3051 Clouds 13 1020 71 10000 1 0 16:41 06.02.2020
3052 Clouds 13 1020 71 10000 1 0 16:23 06.02.2020
3053 Clouds 10 1020 87 10000 0.5 0 15:43 06.02.2020
3054 Clouds 10 1020 87 10000 0.5 0 15:22 06.02.2020
3055 Clouds 10 1020 81 10000 0.5 0 14:51 06.02.2020
3056 Clouds 10 1020 81 10000 0.5 0 14:51 06.02.2020
3057 Clouds 10 1020 81 10000 0.5 0 14:29 06.02.2020
3058 Rain 9 1020 93 8000 1 0 13:59 06.02.2020
3059 Rain 9 1020 93 8000 1 0 13:41 06.02.2020
3060 Rain 9 1020 93 8000 1 0 13:22 06.02.2020
3061 Rain 9 1019 87 10000 0.5 0 12:44 06.02.2020
3062 Rain 9 1019 87 10000 0.5 0 12:19 06.02.2020
3063 Rain 9 1019 87 10000 0.5 0 12:19 06.02.2020
3064 Rain 9 1019 81 9000 2.6 130 11:57 06.02.2020
3065 Rain 9 1019 81 9000 2.6 130 11:39 06.02.2020
3066 Rain 9 1019 81 9000 2.6 130 11:19 06.02.2020
3067 Rain 10 1019 76 10000 3.1 90 10:56 06.02.2020
3068 Rain 10 1019 76 10000 3.1 90 10:38 06.02.2020
3069 Rain 10 1019 76 10000 3.1 90 10:19 06.02.2020
3070 Rain 10 1019 76 10000 3.1 90 10:19 06.02.2020
3071 Rain 8 1018 87 10000 0.5 0 09:56 06.02.2020
3072 Rain 8 1018 87 10000 0.5 0 09:36 06.02.2020
3073 Rain 8 1018 87 10000 0.5 0 09:18 06.02.2020
3074 Rain 7 1018 93 10000 1.12 148 08:41 06.02.2020
3075 Rain 7 1018 93 10000 1.35 247 08:21 06.02.2020
3076 Rain 7 1019 93 10000 1.35 247 07:46 06.02.2020
3077 Rain 7 1019 93 10000 1.35 247 07:25 06.02.2020
3078 Clear 7 1019 87 9000 1 0 06:22 06.02.2020
3079 Clear 7 1019 87 9000 1 0 06:22 06.02.2020
3080 Clear 7 1019 87 9000 1 0 06:21 06.02.2020
3081 Clear 7 1019 87 9000 1 0 06:21 06.02.2020
3082 Clear 7 1019 87 9000 1 0 05:54 06.02.2020
3083 Clear 7 1019 93 9000 0.57 284 04:22 06.02.2020
3084 Mist 9 1019 87 6000 0.57 284 03:19 06.02.2020
3085 Haze 10 1019 81 9000 0.5 0 02:28 06.02.2020
3086 Clouds 13 1018 58 10000 1 0 01:26 06.02.2020
3087 Clouds 14 1018 54 10000 1.5 300 00:57 06.02.2020
3088 Clouds 14 1018 54 10000 1.5 300 00:25 06.02.2020
3089 Clouds 15 1018 44 10000 1 0 23:44 05.02.2020
3090 Clouds 15 1018 44 10000 1 0 23:25 05.02.2020
3091 Rain 16 1018 38 10000 1.5 0 22:57 05.02.2020
3092 Rain 16 1018 38 10000 1.5 0 22:39 05.02.2020
3093 Rain 16 1018 38 10000 1.5 0 22:20 05.02.2020
3094 Clouds 13 1018 47 10000 1 0 21:41 05.02.2020
3095 Clouds 13 1018 47 10000 1 0 21:23 05.02.2020
3096 Rain 12 1018 58 10000 2.1 280 20:57 05.02.2020
3097 Rain 12 1018 58 10000 2.1 280 20:38 05.02.2020
3098 Rain 12 1018 58 10000 2.1 280 20:18 05.02.2020
3099 Rain 12 1018 50 10000 0.5 0 19:55 05.02.2020
3100 Rain 12 1018 50 10000 0.5 0 19:37 05.02.2020
3101 Rain 12 1018 50 10000 0.5 0 19:18 05.02.2020
3102 Clouds 12 1018 54 10000 2.6 90 18:43 05.02.2020
3103 Clouds 12 1018 54 10000 2.6 90 18:21 05.02.2020
3104 Clouds 12 1018 54 10000 1.5 350 17:58 05.02.2020
3105 Clouds 12 1018 54 10000 1.5 350 17:37 05.02.2020
3106 Clouds 12 1018 54 10000 1.5 350 17:18 05.02.2020
3107 Clouds 11 1018 62 10000 1 0 16:43 05.02.2020
3108 Clouds 11 1018 62 10000 1 0 16:25 05.02.2020
3109 Clouds 10 1019 71 10000 0.5 0 15:59 05.02.2020
3110 Clouds 10 1019 71 10000 0.5 0 15:40 05.02.2020
3111 Clouds 10 1019 71 10000 0.5 0 15:18 05.02.2020
3112 Clouds 9 1019 76 10000 1 0 14:43 05.02.2020
3113 Clouds 9 1019 76 10000 1 0 14:24 05.02.2020
3114 Mist 6 1019 93 9000 0.5 0 13:58 05.02.2020
3115 Mist 6 1019 93 9000 0.5 0 13:38 05.02.2020
3116 Mist 6 1019 93 9000 0.5 0 13:19 05.02.2020
3117 Mist 5 1019 93 4200 1.23 232 12:42 05.02.2020
3118 Mist 5 1019 93 4200 1.23 232 12:22 05.02.2020
3119 Clouds 5 1019 93 7000 1.23 232 11:54 05.02.2020
3120 Clouds 5 1019 93 7000 1.23 232 11:36 05.02.2020
3121 Rain 5 1019 93 7000 1.14 215 11:18 05.02.2020
3122 Rain 5 1018 93 7000 0.5 0 10:42 05.02.2020
3123 Rain 5 1018 93 7000 0.5 0 10:23 05.02.2020
3124 Rain 5 1018 93 7000 0.5 0 10:23 05.02.2020
3125 Rain 4 1019 93 10000 0.5 0 09:44 05.02.2020
3126 Rain 4 1019 93 10000 0.5 0 09:23 05.02.2020
3127 Clear 5 1018 93 8000 1 0 08:59 05.02.2020
3128 Clear 5 1018 93 8000 1 0 08:59 05.02.2020
3129 Clear 5 1018 93 8000 1 0 08:41 05.02.2020
3130 Clear 5 1018 93 8000 1 0 08:22 05.02.2020
3131 Rain 5 1018 93 10000 1.07 286 07:44 05.02.2020
3132 Rain 5 1018 93 10000 1.07 286 07:26 05.02.2020
3133 Rain 6 1019 93 10000 1 0 06:42 05.02.2020
3134 Rain 6 1019 93 10000 1 0 06:21 05.02.2020
3135 Rain 6 1019 93 8000 1 0 05:48 05.02.2020
3136 Rain 6 1019 93 8000 1 0 05:18 05.02.2020
3137 Clear 5 1018 93 9000 0.5 0 04:27 05.02.2020
3138 Rain 6 1018 93 10000 1.5 290 02:59 05.02.2020
3139 Rain 6 1018 93 10000 1.5 290 02:22 05.02.2020
3140 Rain 7 1018 81 9000 2.6 240 01:35 05.02.2020
3141 Rain 8 1017 75 10000 2.1 260 00:25 05.02.2020
3142 Rain 8 1017 81 10000 2.1 250 23:42 04.02.2020
3143 Rain 8 1017 81 10000 2.1 250 23:42 04.02.2020
3144 Rain 8 1017 81 10000 2.1 250 23:22 04.02.2020
3145 Rain 9 1016 76 10000 3.1 290 22:57 04.02.2020
3146 Rain 9 1016 76 10000 3.1 290 22:39 04.02.2020
3147 Rain 9 1016 76 10000 3.1 290 22:20 04.02.2020
3148 Rain 9 1016 76 9000 2.1 250 21:56 04.02.2020
3149 Rain 9 1016 76 9000 2.1 250 21:37 04.02.2020
3150 Rain 9 1016 76 9000 2.1 250 21:18 04.02.2020
3151 Rain 10 1015 76 10000 3.1 0 20:54 04.02.2020
3152 Rain 10 1015 76 10000 3.1 0 20:36 04.02.2020
3153 Rain 10 1015 76 10000 3.1 0 20:18 04.02.2020
3154 Rain 10 1014 76 10000 4.1 250 19:42 04.02.2020
3155 Rain 10 1014 76 10000 4.1 250 19:24 04.02.2020
3156 Rain 9 1014 81 7000 1.5 300 18:59 04.02.2020
3157 Rain 9 1014 81 7000 1.5 300 18:39 04.02.2020
3158 Rain 9 1014 81 7000 1.5 300 18:20 04.02.2020
3159 Rain 9 1013 81 7000 2.6 310 17:54 04.02.2020
3160 Rain 9 1013 81 7000 2.6 310 17:36 04.02.2020
3161 Rain 9 1013 81 7000 2.6 310 17:18 04.02.2020
3162 Rain 10 1013 81 9000 1.5 0 16:38 04.02.2020
3163 Rain 10 1013 81 9000 1.5 0 16:38 04.02.2020
3164 Rain 10 1013 81 9000 1.5 0 16:20 04.02.2020
3165 Rain 8 1013 81 9000 2.6 270 15:56 04.02.2020
3166 Rain 8 1013 81 9000 2.6 270 15:38 04.02.2020
3167 Rain 8 1013 81 9000 2.6 270 15:19 04.02.2020
3168 Rain 8 1012 87 7000 1.5 250 14:45 04.02.2020
3169 Rain 8 1012 87 7000 1.5 250 14:26 04.02.2020
3170 Rain 8 1011 87 9000 1 0 13:59 04.02.2020
3171 Rain 8 1011 87 9000 1 0 13:59 04.02.2020
3172 Rain 8 1011 87 9000 1 0 13:40 04.02.2020
3173 Rain 8 1011 87 9000 1 0 13:21 04.02.2020
3174 Rain 8 1011 87 10000 1 0 12:45 04.02.2020
3175 Rain 8 1011 87 10000 1 0 12:26 04.02.2020
3176 Rain 8 1010 87 10000 1.5 270 11:58 04.02.2020
3177 Rain 8 1010 87 10000 1.5 270 11:39 04.02.2020
3178 Rain 8 1010 87 10000 1.5 270 11:21 04.02.2020
3179 Rain 8 1010 81 10000 1 0 10:56 04.02.2020
3180 Rain 8 1010 81 10000 1 0 10:36 04.02.2020
3181 Rain 8 1010 81 10000 1 0 10:18 04.02.2020
3182 Rain 8 1010 87 10000 1.5 290 09:41 04.02.2020
3183 Rain 8 1010 87 10000 1.5 290 09:41 04.02.2020
3184 Rain 8 1010 87 10000 1.5 290 09:23 04.02.2020
3185 Rain 8 1010 87 10000 0.5 0 08:50 04.02.2020
3186 Rain 8 1010 87 10000 0.5 0 08:29 04.02.2020
3187 Rain 9 1010 70 10000 1.5 240 07:59 04.02.2020
3188 Rain 9 1010 70 10000 1.5 240 07:39 04.02.2020
3189 Rain 9 1010 70 10000 1.5 240 07:21 04.02.2020
3190 Clear 8 1010 87 10000 2.07 311 06:42 04.02.2020
3191 Clear 8 1009 87 10000 0.5 0 05:40 04.02.2020
3192 Clear 9 1009 81 10000 1 0 04:55 04.02.2020
3193 Clear 9 1009 81 10000 1 0 03:49 04.02.2020
3194 Clear 9 1009 81 10000 1 0 03:31 04.02.2020
3195 Clear 11 1010 71 10000 1 0 02:51 04.02.2020
3196 Clear 11 1010 71 10000 1 0 02:28 04.02.2020
3197 Clear 12 1009 62 10000 1.5 0 01:48 04.02.2020
3198 Clear 12 1009 62 10000 1.5 0 01:21 04.02.2020
3199 Clear 13 1009 62 10000 2.6 270 00:25 04.02.2020
3200 Clear 15 1009 51 10000 3.1 260 23:57 03.02.2020
3201 Clear 15 1009 51 10000 3.1 260 23:57 03.02.2020
3202 Clear 15 1009 51 10000 3.1 260 23:38 03.02.2020
3203 Clear 15 1009 51 10000 3.1 260 23:19 03.02.2020
3204 Clear 13 1009 66 10000 2.1 250 22:39 03.02.2020
3205 Clear 13 1009 66 10000 2.1 250 22:20 03.02.2020
3206 Clouds 15 1009 54 10000 3.6 260 21:42 03.02.2020
3207 Clouds 15 1009 54 10000 3.6 260 21:42 03.02.2020
3208 Clouds 15 1009 54 10000 3.6 260 21:20 03.02.2020
3209 Clouds 13 1009 66 10000 3.6 270 20:57 03.02.2020
3210 Clouds 13 1009 66 10000 3.6 270 20:57 03.02.2020
3211 Clouds 13 1009 66 10000 3.6 270 20:39 03.02.2020
3212 Clouds 13 1009 66 10000 3.6 270 20:18 03.02.2020
3213 Rain 15 1008 51 7000 4.6 270 19:42 03.02.2020
3214 Rain 15 1008 51 7000 4.6 270 19:23 03.02.2020
3215 Clouds 17 1007 39 10000 4.6 250 18:59 03.02.2020
3216 Clouds 17 1007 39 10000 4.6 250 18:40 03.02.2020
3217 Clouds 17 1007 39 10000 4.6 250 18:21 03.02.2020
3218 Clouds 18 1007 31 10000 4.6 260 17:57 03.02.2020
3219 Clouds 18 1007 31 10000 4.6 260 17:57 03.02.2020
3220 Clouds 18 1007 31 10000 4.6 260 17:38 03.02.2020
3221 Clouds 18 1007 31 10000 4.6 260 17:19 03.02.2020
3222 Clouds 17 1008 36 10000 3.6 290 16:40 03.02.2020
3223 Clouds 17 1008 36 10000 3.6 290 16:21 03.02.2020
3224 Clouds 15 1008 54 10000 2.6 0 15:56 03.02.2020
3225 Clouds 15 1008 54 10000 2.6 0 15:38 03.02.2020
3226 Clouds 15 1008 54 10000 2.6 0 15:19 03.02.2020
3227 Clouds 13 1008 76 10000 2.1 320 14:45 03.02.2020
3228 Clouds 13 1008 76 10000 2.1 320 14:45 03.02.2020
3229 Clouds 13 1008 76 10000 2.1 320 14:27 03.02.2020
3230 Clouds 10 1007 93 10000 2.27 316 13:59 03.02.2020
3231 Clouds 10 1007 93 10000 2.27 316 13:41 03.02.2020
3232 Clouds 10 1007 93 10000 1.78 284 13:20 03.02.2020
3233 Rain 9 1007 93 10000 1 0 12:56 03.02.2020
3234 Rain 9 1007 93 10000 1 0 12:37 03.02.2020
3235 Rain 9 1007 93 10000 1 0 12:19 03.02.2020
3236 Rain 9 1007 93 9000 1 0 11:40 03.02.2020
3237 Rain 9 1007 93 9000 1 0 11:20 03.02.2020
3238 Rain 9 1007 93 9000 1 0 11:20 03.02.2020
3239 Rain 9 1007 100 8000 3.44 320 10:58 03.02.2020
3240 Rain 9 1007 100 8000 3.44 320 10:39 03.02.2020
3241 Rain 9 1007 100 8000 3.44 320 10:20 03.02.2020
3242 Rain 10 1006 93 9000 3.44 320 09:39 03.02.2020
3243 Rain 10 1006 93 9000 3.44 320 09:20 03.02.2020
3244 Rain 10 1006 87 9000 0.5 0 08:41 03.02.2020
3245 Rain 10 1006 87 9000 0.5 0 08:41 03.02.2020
3246 Rain 10 1006 87 9000 0.5 0 08:23 03.02.2020
3247 Rain 12 1006 71 10000 3.1 250 07:56 03.02.2020
3248 Rain 12 1006 71 10000 3.1 250 07:38 03.02.2020
3249 Rain 12 1006 71 10000 3.1 250 07:19 03.02.2020
3250 Rain 15 1006 51 10000 3.6 250 06:42 03.02.2020
3251 Rain 15 1006 51 10000 3.6 250 06:24 03.02.2020
3252 Rain 16 1006 41 10000 4.1 250 05:35 03.02.2020
3253 Clear 16 1007 41 10000 3.1 250 04:50 03.02.2020
3254 Clear 12 1008 66 10000 1 0 02:53 03.02.2020
3255 Clear 12 1008 66 10000 1 0 02:32 03.02.2020
3256 Clear 17 1009 33 10000 4.1 260 00:50 03.02.2020
3257 Clear 17 1009 33 10000 4.1 260 00:30 03.02.2020
3258 Clear 18 1009 68 10000 4.1 250 23:59 02.02.2020
3259 Clear 18 1009 68 10000 4.1 250 23:37 02.02.2020
3260 Clear 18 1009 36 10000 4.1 250 23:18 02.02.2020
3261 Clear 19 1009 29 10000 4.1 260 22:40 02.02.2020
3262 Clear 19 1009 29 10000 4.1 260 22:22 02.02.2020
3263 Clear 19 1009 34 10000 3.6 260 21:58 02.02.2020
3264 Clear 19 1009 34 10000 3.6 260 21:39 02.02.2020
3265 Clear 19 1009 34 10000 3.6 260 21:20 02.02.2020
3266 Clear 19 1011 34 10000 5.1 260 20:57 02.02.2020
3267 Clear 19 1011 34 10000 5.1 260 20:39 02.02.2020
3268 Clouds 19 1011 34 10000 5.1 260 20:20 02.02.2020
3269 Clouds 18 1011 39 10000 4.6 270 19:57 02.02.2020
3270 Clouds 18 1011 39 10000 4.6 270 19:38 02.02.2020
3271 Clouds 18 1011 39 10000 4.6 270 19:20 02.02.2020
3272 Clouds 18 1011 39 10000 4.6 280 18:55 02.02.2020
3273 Clouds 18 1011 39 10000 4.6 280 18:36 02.02.2020
3274 Clouds 18 1011 39 10000 4.6 280 18:36 02.02.2020
3275 Clouds 18 1011 39 10000 4.6 280 18:18 02.02.2020
3276 Clouds 17 1012 42 10000 1.5 50 17:56 02.02.2020
3277 Clouds 17 1012 42 10000 1.5 50 17:37 02.02.2020
3278 Clouds 17 1012 42 10000 1.5 50 17:18 02.02.2020
3279 Clouds 15 1013 47 10000 1.5 320 16:56 02.02.2020
3280 Clouds 15 1013 47 10000 1.5 320 16:37 02.02.2020
3281 Clouds 15 1013 47 10000 1.5 320 16:18 02.02.2020
3282 Clouds 15 1013 47 10000 1.5 320 16:18 02.02.2020
3283 Clouds 15 1013 47 10000 1.5 320 16:18 02.02.2020
3284 Clouds 12 1012 57 0 3.15 306 15:40 02.02.2020
3285 Clouds 12 1014 58 10000 0.5 0 15:20 02.02.2020
3286 Clouds 12 1012 57 0 3.15 306 14:59 02.02.2020
3287 Clouds 12 1012 57 0 3.15 306 14:40 02.02.2020
3288 Clouds 8 1015 81 10000 1 0 14:18 02.02.2020
3289 Clouds 8 1015 81 10000 1 0 13:56 02.02.2020
3290 Clouds 8 1015 81 10000 1 0 13:37 02.02.2020
3291 Clouds 8 1015 81 10000 1 0 13:19 02.02.2020
3292 Clouds 5 1015 93 10000 1.83 309 12:45 02.02.2020
3293 Clouds 5 1015 93 10000 1.83 309 12:23 02.02.2020
3294 Clouds 5 1014 93 10000 1 0 11:59 02.02.2020
3295 Clouds 5 1014 93 10000 1 0 11:40 02.02.2020
3296 Clouds 5 1014 93 10000 1 0 11:19 02.02.2020
3297 Clouds 7 1014 81 10000 1.5 300 10:56 02.02.2020
3298 Clouds 7 1014 81 10000 1.5 300 10:36 02.02.2020
3299 Clouds 7 1014 81 10000 1.5 300 10:18 02.02.2020
3300 Clouds 7 1014 81 10000 1.5 300 10:18 02.02.2020
3301 Clouds 8 1014 70 10000 2.1 250 09:41 02.02.2020
3302 Clouds 8 1014 70 10000 2.1 250 09:22 02.02.2020
3303 Clouds 8 1014 75 10000 2.1 290 08:58 02.02.2020
3304 Clouds 8 1014 75 10000 2.1 290 08:40 02.02.2020
3305 Clear 8 1014 75 10000 2.1 290 08:21 02.02.2020
3306 Clear 9 1014 66 10000 2.1 250 07:45 02.02.2020
3307 Clear 9 1014 66 10000 2.1 250 07:27 02.02.2020
3308 Clear 11 1014 57 10000 3.6 250 06:41 02.02.2020
3309 Clear 11 1014 57 10000 3.6 250 06:23 02.02.2020
3310 Clear 11 1014 57 10000 4.1 250 05:47 02.02.2020
3311 Clear 10 1015 71 10000 2.6 290 04:34 02.02.2020
3312 Clear 11 1015 62 10000 2.1 0 03:24 02.02.2020
3313 Rain 11 1014 71 10000 3.6 270 02:24 02.02.2020
3314 Rain 11 1013 71 10000 2.6 260 01:52 02.02.2020
3315 Rain 11 1013 71 10000 2.6 260 01:19 02.02.2020
3316 Rain 11 1012 76 10000 3.1 240 00:39 02.02.2020
3317 Rain 11 1012 76 10000 3.1 240 00:18 02.02.2020
3318 Rain 11 1011 81 10000 2.6 240 23:43 01.02.2020
3319 Rain 11 1011 81 10000 2.6 240 23:21 01.02.2020
3320 Rain 11 1009 81 9000 4.1 270 22:45 01.02.2020
3321 Rain 11 1009 81 9000 4.1 270 22:19 01.02.2020
3322 Rain 12 1008 66 10000 5.1 250 21:42 01.02.2020
3323 Rain 12 1008 66 10000 5.1 250 21:19 01.02.2020
3324 Rain 11 1008 87 10000 4.1 260 20:56 01.02.2020
3325 Rain 11 1008 87 10000 4.1 260 20:38 01.02.2020
3326 Rain 11 1008 87 10000 4.1 260 20:19 01.02.2020
3327 Rain 18 1002 41 3000 7.7 340 19:56 01.02.2020
3328 Rain 18 1002 41 3000 7.7 340 19:37 01.02.2020
3329 Rain 18 1002 41 3000 7.7 340 19:18 01.02.2020
3330 Rain 21 1002 41 3000 7.7 340 18:55 01.02.2020
3331 Rain 16 999 82 8000 2.1 230 18:37 01.02.2020
3332 Rain 16 999 82 8000 2.1 230 18:18 01.02.2020
3333 Rain 20 1000 60 10000 4.1 260 17:54 01.02.2020
3334 Rain 20 1000 60 10000 4.1 260 17:36 01.02.2020
3335 Rain 20 1000 60 10000 4.1 260 17:18 01.02.2020
3336 Clouds 22 1001 49 10000 3.1 250 16:39 01.02.2020
3337 Clouds 22 1001 49 10000 3.1 250 16:21 01.02.2020
3338 Clouds 20 1002 56 10000 0.5 0 15:47 01.02.2020
3339 Clouds 20 1002 56 10000 0.5 0 15:29 01.02.2020
3340 Clouds 18 1004 68 10000 6.56 322 14:58 01.02.2020
3341 Clouds 18 1004 68 10000 6.56 322 14:39 01.02.2020
3342 Clouds 18 1004 68 10000 2.96 326 14:20 01.02.2020
3343 Clouds 13 1005 80 0 2.96 326 13:45 01.02.2020
3344 Clouds 14 1005 79 0 3.43 328 13:21 01.02.2020
3345 Clouds 14 1005 79 0 3.43 328 12:44 01.02.2020
3346 Clouds 14 1005 79 0 3.43 328 12:26 01.02.2020
3347 Clouds 14 1005 79 0 3.43 328 11:57 01.02.2020
3348 Clouds 14 1005 79 0 3.43 328 11:38 01.02.2020
3349 Clouds 10 1009 95 0 2.38 312 11:19 01.02.2020
3350 Clouds 10 1009 95 0 2.38 312 10:55 01.02.2020
3351 Clouds 10 1009 95 0 2.38 312 10:37 01.02.2020
3352 Clouds 10 1009 95 0 2.38 312 10:37 01.02.2020
3353 Clouds 16 1008 72 10000 1.5 280 10:19 01.02.2020
3354 Clouds 16 1008 72 10000 1.5 280 09:41 01.02.2020
3355 Clouds 16 1008 72 10000 1.5 280 09:23 01.02.2020
3356 Clouds 17 1009 63 10000 2.1 270 08:59 01.02.2020
3357 Clouds 17 1009 63 10000 2.1 270 08:37 01.02.2020
3358 Clouds 17 1010 59 10000 1 0 07:46 01.02.2020
3359 Clouds 17 1010 59 10000 1 0 07:25 01.02.2020
3360 Clouds 18 1011 52 10000 2.1 260 06:50 01.02.2020
3361 Clouds 18 1012 52 10000 1.5 260 05:55 01.02.2020
3362 Clouds 18 1012 52 10000 1.5 260 05:37 01.02.2020
3363 Clouds 18 1013 52 10000 2.1 260 03:39 01.02.2020
3364 Clouds 18 1013 52 10000 2.1 260 03:18 01.02.2020
3365 Clouds 18 1013 52 10000 2.1 260 02:41 01.02.2020
3366 Clouds 18 1013 52 10000 2.1 260 02:41 01.02.2020
3367 Clear 18 1013 52 10000 2.1 260 02:21 01.02.2020
3368 Clear 20 1012 42 10000 4.6 250 01:47 01.02.2020
3369 Clear 20 1012 42 10000 4.6 250 01:28 01.02.2020
3370 Clouds 22 1013 33 10000 4.1 270 00:24 01.02.2020
3371 Clouds 22 1013 33 10000 4.1 270 23:42 31.01.2020
3372 Clouds 22 1013 33 10000 4.1 270 23:19 31.01.2020
3373 Clouds 22 1013 33 10000 4.1 270 23:19 31.01.2020
3374 Clouds 20 1011 43 0 4.76 288 22:57 31.01.2020
3375 Clouds 20 1011 43 0 4.76 288 22:39 31.01.2020
3376 Clouds 20 1011 43 0 4.76 288 22:21 31.01.2020
3377 Clouds 20 1011 43 0 4.76 288 21:55 31.01.2020
3378 Clouds 20 1011 43 0 4.76 288 21:37 31.01.2020
3379 Clouds 20 1011 43 0 4.76 288 21:18 31.01.2020
3380 Clouds 20 1011 43 0 4.76 288 20:55 31.01.2020
3381 Clouds 20 1011 43 0 4.76 288 20:37 31.01.2020
3382 Clouds 20 1011 45 0 4.6 284 20:18 31.01.2020
3383 Clouds 20 1011 45 0 4.56 286 19:42 31.01.2020
3384 Clouds 20 1011 45 0 4.56 286 19:24 31.01.2020
3385 Clouds 20 1011 45 0 4.56 286 19:24 31.01.2020
3386 Clouds 20 1011 45 0 4.56 286 18:58 31.01.2020
3387 Clouds 20 1011 45 0 4.56 286 18:38 31.01.2020
3388 Clouds 20 1011 45 0 4.56 286 18:19 31.01.2020
3389 Clouds 20 1011 45 0 4.56 286 17:44 31.01.2020
3390 Clouds 20 1011 45 0 4.56 286 17:26 31.01.2020
3391 Clouds 17 1013 57 0 3.38 285 16:57 31.01.2020
3392 Clouds 17 1013 57 0 3.38 285 16:38 31.01.2020
3393 Clouds 17 1013 57 0 3.38 285 16:19 31.01.2020
3394 Clouds 17 1013 57 0 3.38 285 15:57 31.01.2020
3395 Clouds 17 1013 57 0 3.38 285 15:57 31.01.2020
3396 Clouds 17 1013 57 0 3.38 285 15:38 31.01.2020
3397 Clouds 17 1013 57 0 3.38 285 15:19 31.01.2020
3398 Clouds 17 1013 57 0 3.38 285 14:42 31.01.2020
3399 Clouds 17 1013 57 0 3.38 285 14:23 31.01.2020
3400 Clouds 12 1013 89 0 1.57 284 13:54 31.01.2020
3401 Clouds 12 1013 89 0 1.57 284 13:34 31.01.2020
3402 Clouds 12 1013 89 0 1.41 266 12:58 31.01.2020
3403 Clouds 12 1013 89 0 1.41 266 12:39 31.01.2020
3404 Clouds 12 1013 89 0 1.41 266 12:21 31.01.2020
3405 Clouds 12 1013 89 0 1.41 266 11:44 31.01.2020
3406 Clouds 12 1013 89 0 1.41 266 11:26 31.01.2020
3407 Clouds 7 1013 97 0 1.3 296 10:59 31.01.2020
3408 Clouds 8 1013 97 0 1.21 301 10:41 31.01.2020
3409 Clouds 8 1013 97 0 1.21 301 10:21 31.01.2020
3410 Clouds 8 1013 97 0 1.21 301 09:56 31.01.2020
3411 Clouds 8 1013 97 0 1.21 301 09:38 31.01.2020
3412 Clouds 8 1013 97 0 1.21 301 09:38 31.01.2020
3413 Clouds 7 1013 97 0 1.3 296 09:18 31.01.2020
3414 Clouds 7 1013 97 0 1.3 296 08:49 31.01.2020
3415 Clouds 7 1013 97 0 1.3 296 08:24 31.01.2020
3416 Rain 8 1013 95 0 2.65 299 07:52 31.01.2020
3417 Rain 8 1013 95 0 2.65 299 07:24 31.01.2020
3418 Rain 8 1013 95 0 2.65 299 06:42 31.01.2020
3419 Rain 8 1013 95 0 2.65 299 05:58 31.01.2020
3420 Rain 8 1013 95 0 2.65 299 05:37 31.01.2020
3421 Rain 9 1015 94 0 1.76 298 04:47 31.01.2020
3422 Rain 9 1015 94 0 1.76 298 02:55 31.01.2020
3423 Rain 9 1014 93 0 1.99 313 01:32 31.01.2020
3424 Rain 10 1013 93 0 2.04 313 00:42 31.01.2020
3425 Rain 10 1013 93 0 2.04 313 00:23 31.01.2020
3426 Rain 10 1013 93 0 2.04 313 23:45 30.01.2020
3427 Rain 10 1013 93 0 2.04 313 23:23 30.01.2020
3428 Rain 10 1014 87 0 3.11 302 22:40 30.01.2020
3429 Rain 10 1014 87 0 3.11 302 22:21 30.01.2020
3430 Rain 10 1014 87 0 3.11 302 21:59 30.01.2020
3431 Rain 10 1014 87 0 3.11 302 21:41 30.01.2020
3432 Rain 10 1014 87 0 3.11 302 21:19 30.01.2020
3433 Rain 10 1014 87 0 3.11 302 20:57 30.01.2020
3434 Rain 10 1014 87 0 3.11 302 20:38 30.01.2020
3435 Clouds 13 1013 71 0 3.57 278 20:20 30.01.2020
3436 Clouds 13 1013 71 0 3.57 278 19:44 30.01.2020
3437 Clouds 13 1013 71 0 3.57 278 19:19 30.01.2020
3438 Clouds 13 1013 71 0 3.57 278 19:19 30.01.2020
3439 Clouds 13 1013 71 0 3.57 278 18:59 30.01.2020
3440 Clouds 13 1013 71 0 3.57 278 18:37 30.01.2020
3441 Clouds 13 1013 71 0 3.57 278 18:18 30.01.2020
3442 Clouds 13 1013 71 0 3.57 278 17:42 30.01.2020
3443 Clouds 15 1015 54 0 2.81 277 17:20 30.01.2020
3444 Clouds 15 1015 54 0 2.81 277 16:59 30.01.2020
3445 Clouds 15 1015 54 0 2.81 277 16:40 30.01.2020
3446 Clouds 15 1015 54 0 2.81 277 16:21 30.01.2020
3447 Clouds 15 1015 54 0 2.81 277 15:45 30.01.2020
3448 Clouds 15 1015 54 0 2.81 277 15:21 30.01.2020
3449 Clouds 15 1015 54 0 2.81 277 14:58 30.01.2020
3450 Clouds 15 1015 54 0 2.81 277 14:40 30.01.2020
3451 Clouds 8 1017 62 0 0.98 276 14:21 30.01.2020
3452 Clouds 8 1017 62 0 0.98 276 13:41 30.01.2020
3453 Clouds 9 1017 60 0 1.05 272 13:23 30.01.2020
3454 Clouds 9 1017 60 0 1.05 272 12:56 30.01.2020
3455 Clouds 9 1017 60 0 1.05 272 12:38 30.01.2020
3456 Clouds 9 1017 60 0 1.05 272 12:19 30.01.2020
3457 Clouds 9 1017 60 0 1.05 272 11:41 30.01.2020
3458 Clouds 9 1017 60 0 1.05 272 11:22 30.01.2020
3459 Clouds 3 1018 81 0 1.81 284 10:58 30.01.2020
3460 Clouds 3 1018 81 0 1.81 284 10:39 30.01.2020
3461 Clouds 10 1018 61 10000 2.1 250 10:20 30.01.2020
3462 Clouds 10 1018 61 10000 2.1 250 09:45 30.01.2020
3463 Clouds 10 1018 61 10000 2.1 250 09:24 30.01.2020
3464 Clouds 10 1018 61 10000 2.6 270 08:42 30.01.2020
3465 Clouds 10 1018 61 10000 2.6 270 08:22 30.01.2020
3466 Clouds 11 1019 57 10000 2.1 240 07:57 30.01.2020
3467 Clouds 11 1019 57 10000 2.1 240 07:39 30.01.2020
3468 Clouds 11 1019 57 10000 2.1 240 07:39 30.01.2020
3469 Clouds 10 1020 61 10000 1.5 280 06:57 30.01.2020
3470 Clouds 10 1020 61 10000 1.5 280 06:36 30.01.2020
3471 Clouds 10 1020 57 10000 1.5 290 05:59 30.01.2020
3472 Clouds 10 1020 57 10000 1.5 290 05:28 30.01.2020
3473 Clouds 12 1020 50 10000 2.6 310 04:49 30.01.2020
3474 Clouds 11 1020 57 10000 1 0 03:47 30.01.2020
3475 Clouds 13 1020 50 10000 3.6 300 02:55 30.01.2020
3476 Clouds 16 1019 36 10000 2.6 240 00:57 30.01.2020
3477 Clouds 16 1019 36 10000 2.6 240 00:28 30.01.2020
3478 Clouds 18 1019 34 10000 3.6 260 23:55 29.01.2020
3479 Clouds 18 1019 34 10000 3.6 260 23:37 29.01.2020
3480 Clouds 18 1019 34 10000 3.6 260 23:19 29.01.2020
3481 Clouds 18 1019 34 10000 4.1 260 22:54 29.01.2020
3482 Clouds 18 1019 34 10000 4.1 260 22:36 29.01.2020
3483 Clouds 18 1019 34 10000 4.1 260 22:18 29.01.2020
3484 Clouds 15 1016 49 0 4.43 269 21:54 29.01.2020
3485 Clouds 15 1016 49 0 4.43 269 21:36 29.01.2020
3486 Clouds 18 1019 34 10000 2.6 0 21:18 29.01.2020
3487 Clouds 18 1019 34 10000 2.6 0 20:40 29.01.2020
3488 Clouds 18 1019 34 10000 2.6 0 20:21 29.01.2020
3489 Clouds 18 1019 34 10000 2.6 0 20:21 29.01.2020
3490 Clouds 18 1019 34 10000 2.6 0 20:21 29.01.2020
3491 Clouds 17 1019 36 10000 2.6 0 19:58 29.01.2020
3492 Clouds 17 1019 36 10000 2.6 0 19:38 29.01.2020
3493 Clouds 17 1019 36 10000 2.6 0 19:20 29.01.2020
3494 Clouds 16 1019 38 10000 2.1 0 18:55 29.01.2020
3495 Clouds 16 1019 38 10000 2.1 0 18:37 29.01.2020
3496 Clouds 16 1019 38 10000 2.1 0 18:37 29.01.2020
3497 Clouds 16 1019 38 10000 2.1 0 18:18 29.01.2020
3498 Clouds 16 1019 38 10000 2.1 0 18:18 29.01.2020
3499 Clouds 15 1017 40 0 3.89 264 17:40 29.01.2020
3500 Clouds 14 1021 41 10000 2.1 240 17:22 29.01.2020
3501 Clouds 14 1021 41 10000 2.1 240 17:22 29.01.2020
3502 Clouds 14 1021 41 10000 2.1 240 16:42 29.01.2020
3503 Clouds 14 1021 41 10000 2.1 240 16:23 29.01.2020
3504 Clouds 13 1021 43 10000 1.5 0 15:56 29.01.2020
3505 Clouds 13 1021 43 10000 1.5 0 15:37 29.01.2020
3506 Clouds 13 1021 43 10000 1.5 0 15:19 29.01.2020
3507 Clouds 11 1021 53 10000 1.5 270 14:43 29.01.2020
3508 Clear 11 1021 53 10000 1.5 270 14:20 29.01.2020
3509 Clouds 9 1021 61 10000 1.5 280 13:55 29.01.2020
3510 Clouds 9 1021 61 10000 1.5 280 13:36 29.01.2020
3511 Clouds 9 1021 61 10000 1.5 280 13:18 29.01.2020
3512 Clouds 6 1021 75 10000 1 0 12:55 29.01.2020
3513 Clouds 6 1021 75 10000 1 0 12:36 29.01.2020
3514 Clouds 6 1021 75 10000 1 0 12:18 29.01.2020
3515 Clouds 5 1020 75 10000 0.5 0 11:44 29.01.2020
3516 Clouds 5 1020 75 10000 0.5 0 11:20 29.01.2020
3517 Clouds 8 1019 61 10000 1.5 240 10:46 29.01.2020
3518 Clouds 8 1019 61 10000 1.5 240 10:25 29.01.2020
3519 Clouds 9 1019 91 10000 3.6 250 09:58 29.01.2020
3520 Clouds 9 1019 91 10000 3.6 250 09:39 29.01.2020
3521 Clouds 9 1019 91 10000 3.6 250 09:19 29.01.2020
3522 Clouds 9 1019 91 10000 3.6 240 08:45 29.01.2020
3523 Clouds 9 1019 91 10000 3.6 240 08:24 29.01.2020
3524 Clouds 8 1019 84 10000 2.6 240 07:45 29.01.2020
3525 Clouds 8 1019 84 10000 2.6 240 07:26 29.01.2020
3526 Clouds 9 1019 84 10000 1.5 250 06:56 29.01.2020
3527 Clouds 9 1019 84 10000 1.5 250 06:38 29.01.2020
3528 Clouds 9 1019 84 10000 1.5 250 06:19 29.01.2020
3529 Clouds 10 1019 46 10000 2.6 240 05:50 29.01.2020
3530 Clouds 10 1019 46 10000 2.6 240 05:31 29.01.2020
3531 Clouds 10 1018 46 10000 2.6 260 04:38 29.01.2020
3532 Clouds 11 1018 74 10000 4.1 270 03:59 29.01.2020
3533 Clouds 11 1017 50 10000 3.1 260 02:34 29.01.2020
3534 Clouds 12 1017 46 10000 4.6 270 01:18 29.01.2020
3535 Clouds 13 1016 47 10000 4.6 270 00:38 29.01.2020
3536 Clouds 13 1016 47 10000 4.6 270 00:20 29.01.2020
3537 Clouds 14 1015 44 10000 4.1 250 23:39 28.01.2020
3538 Clouds 14 1015 44 10000 4.1 250 23:19 28.01.2020
3539 Clouds 14 1015 44 10000 7.2 270 22:49 28.01.2020
3540 Clouds 14 1015 44 10000 7.2 270 22:27 28.01.2020
3541 Clouds 15 1014 41 10000 6.2 280 21:57 28.01.2020
3542 Clouds 15 1014 41 10000 6.2 280 21:38 28.01.2020
3543 Clouds 15 1014 41 10000 6.2 280 21:19 28.01.2020
3544 Clouds 15 1014 47 10000 6.7 280 20:45 28.01.2020
3545 Clouds 15 1014 47 10000 6.7 280 20:26 28.01.2020
3546 Clouds 15 1014 38 10000 5.1 280 19:55 28.01.2020
3547 Clouds 15 1014 38 10000 5.1 280 19:37 28.01.2020
3548 Clouds 15 1014 38 10000 5.1 280 19:19 28.01.2020
3549 Clouds 15 1014 38 10000 5.1 280 19:19 28.01.2020
3550 Clouds 15 1014 38 10000 5.1 280 19:19 28.01.2020
3551 Clouds 15 1014 47 10000 6.2 280 18:41 28.01.2020
3552 Clouds 15 1014 47 10000 6.2 280 18:23 28.01.2020
3553 Clouds 13 1013 50 10000 6.7 290 17:59 28.01.2020
3554 Clouds 13 1013 50 10000 6.7 290 17:59 28.01.2020
3555 Clouds 13 1013 50 10000 6.7 290 17:39 28.01.2020
3556 Clouds 13 1013 50 10000 6.7 290 17:21 28.01.2020
3557 Clouds 14 1012 41 10000 5.7 280 16:57 28.01.2020
3558 Clouds 14 1012 41 10000 5.7 280 16:39 28.01.2020
3559 Clouds 14 1012 41 10000 5.7 280 16:21 28.01.2020
3560 Clouds 14 1012 41 10000 6.2 280 15:45 28.01.2020
3561 Clouds 14 1012 41 10000 6.2 280 15:19 28.01.2020
3562 Clouds 14 1011 41 10000 6.2 280 14:57 28.01.2020
3563 Clouds 14 1011 41 10000 6.2 280 14:39 28.01.2020
3564 Clouds 14 1011 41 10000 6.2 280 14:39 28.01.2020
3565 Clear 14 1011 73 10000 6.2 280 14:18 28.01.2020
3566 Clear 10 1009 73 0 3.41 267 13:40 28.01.2020
3567 Clear 14 1009 47 10000 5.1 260 13:22 28.01.2020
3568 Clouds 14 1009 47 10000 5.1 260 12:43 28.01.2020
3569 Clouds 14 1009 47 10000 5.1 260 12:24 28.01.2020
3570 Clouds 14 1008 47 10000 6.2 280 11:56 28.01.2020
3571 Clouds 14 1008 47 10000 6.2 280 11:37 28.01.2020
3572 Clouds 14 1008 47 10000 6.2 280 11:19 28.01.2020
3573 Clouds 14 1008 58 10000 5.1 260 10:41 28.01.2020
3574 Clouds 14 1008 58 10000 5.1 260 10:22 28.01.2020
3575 Clouds 15 1008 62 10000 4.6 260 09:56 28.01.2020
3576 Clouds 15 1008 62 10000 4.6 260 09:37 28.01.2020
3577 Clouds 15 1008 62 10000 4.6 260 09:19 28.01.2020
3578 Clouds 16 1008 59 10000 4.6 260 08:42 28.01.2020
3579 Rain 16 1008 59 10000 4.6 260 08:20 28.01.2020
3580 Rain 16 1009 63 10000 3.6 260 07:38 28.01.2020
3581 Rain 16 1009 63 10000 4.1 260 06:51 28.01.2020
3582 Rain 16 1009 63 10000 4.1 260 06:29 28.01.2020
3583 Rain 16 1009 63 10000 4.1 260 06:29 28.01.2020
3584 Rain 15 1010 82 10000 3.1 260 05:55 28.01.2020
3585 Rain 15 1010 82 10000 3.1 260 05:33 28.01.2020
3586 Rain 16 1010 82 10000 3.6 280 04:38 28.01.2020
3587 Rain 15 1009 87 10000 3.6 280 03:33 28.01.2020
3588 Rain 16 1009 82 9000 2.6 240 02:25 28.01.2020
3589 Rain 16 1009 82 9000 2.6 240 02:25 28.01.2020
3590 Rain 16 1009 82 9000 2.6 240 02:25 28.01.2020
3591 Rain 16 1010 77 7000 4.1 300 01:57 28.01.2020
3592 Rain 16 1010 77 7000 4.1 300 01:32 28.01.2020
3593 Clouds 18 1010 63 9000 3.1 260 00:51 28.01.2020
3594 Clouds 18 1010 63 9000 3.1 260 00:29 28.01.2020
3595 Clouds 19 1010 55 10000 5.7 260 23:51 27.01.2020
3596 Clouds 19 1010 55 10000 5.7 260 23:51 27.01.2020
3597 Clouds 19 1010 55 10000 5.7 260 23:30 27.01.2020
3598 Clouds 16 1010 56 0 3.8 285 22:59 27.01.2020
3599 Clouds 16 1010 56 0 3.8 285 22:40 27.01.2020
3600 Clouds 23 1011 38 10000 6.2 270 22:19 27.01.2020
3601 Clouds 23 1011 38 10000 6.2 270 21:55 27.01.2020
3602 Clouds 23 1011 38 10000 6.2 270 21:37 27.01.2020
3603 Clouds 23 1011 38 10000 6.2 270 21:18 27.01.2020
3604 Clouds 23 1012 35 10000 5.7 270 20:43 27.01.2020
3605 Clouds 23 1012 35 10000 5.7 270 20:22 27.01.2020
3606 Clouds 22 1013 33 10000 4.6 270 19:59 27.01.2020
3607 Clouds 22 1013 33 10000 4.6 270 19:40 27.01.2020
3608 Clouds 22 1013 33 10000 4.6 270 19:22 27.01.2020
3609 Clouds 22 1014 32 10000 3.1 0 18:56 27.01.2020
3610 Clouds 22 1014 32 10000 3.1 0 18:37 27.01.2020
3611 Clouds 22 1014 32 10000 3.1 0 18:37 27.01.2020
3612 Clouds 22 1014 32 10000 3.1 0 18:19 27.01.2020
3613 Clouds 19 1015 29 10000 2.6 0 17:39 27.01.2020
3614 Clouds 19 1015 29 10000 2.6 0 17:39 27.01.2020
3615 Clouds 19 1015 29 10000 2.6 0 17:20 27.01.2020
3616 Clouds 17 1016 39 10000 1 0 16:58 27.01.2020
3617 Clouds 17 1016 39 10000 1 0 16:58 27.01.2020
3618 Clouds 17 1016 39 10000 1 0 16:40 27.01.2020
3619 Clouds 17 1016 39 10000 1 0 16:22 27.01.2020
3620 Clouds 17 1016 39 10000 1 0 16:22 27.01.2020
3621 Clouds 15 1017 51 10000 1.5 240 15:55 27.01.2020
3622 Clouds 15 1017 51 10000 1.5 240 15:36 27.01.2020
3623 Clouds 15 1017 51 10000 1.5 240 15:18 27.01.2020
3624 Clouds 13 1018 58 10000 1.5 220 14:41 27.01.2020
3625 Clouds 13 1018 58 10000 1.5 220 14:22 27.01.2020
3626 Clear 10 1019 66 10000 1 0 13:54 27.01.2020
3627 Clear 10 1019 66 10000 1 0 13:36 27.01.2020
3628 Clouds 10 1019 66 10000 1 0 13:18 27.01.2020
3629 Clouds 7 1019 81 10000 1 0 12:42 27.01.2020
3630 Clouds 7 1019 81 10000 1 0 12:22 27.01.2020
3631 Clouds 6 1020 81 10000 0.5 0 11:43 27.01.2020
3632 Clouds 6 1020 81 10000 0.5 0 11:23 27.01.2020
3633 Clouds 6 1020 81 10000 0.5 0 11:23 27.01.2020
3634 Clear 7 1020 75 10000 0.5 0 10:57 27.01.2020
3635 Clear 7 1020 75 10000 0.5 0 10:57 27.01.2020
3636 Clear 7 1020 75 10000 0.5 0 10:57 27.01.2020
3637 Clear 7 1020 75 10000 0.5 0 10:39 27.01.2020
3638 Clear 7 1020 75 10000 0.5 0 10:20 27.01.2020
3639 Clear 8 1020 70 10000 1 0 09:40 27.01.2020
3640 Clear 8 1020 70 10000 1 0 09:19 27.01.2020
3641 Clear 9 1020 66 10000 1 0 08:57 27.01.2020
3642 Clear 9 1020 66 10000 1 0 08:39 27.01.2020
3643 Clouds 9 1020 66 10000 1 0 08:19 27.01.2020
3644 Clouds 10 1021 61 10000 1 0 07:47 27.01.2020
3645 Clouds 10 1021 61 10000 1 0 07:47 27.01.2020
3646 Clouds 10 1021 61 10000 1 0 07:29 27.01.2020
3647 Clouds 11 1021 62 10000 1 230 06:38 27.01.2020
3648 Clouds 12 1021 54 10000 1.5 260 05:46 27.01.2020
3649 Clouds 13 1021 54 10000 1 0 04:37 27.01.2020
3650 Clouds 15 1021 47 10000 1 0 03:35 27.01.2020
3651 Clear 18 1020 39 10000 3.1 270 01:55 27.01.2020
3652 Clear 18 1020 39 10000 3.1 270 01:27 27.01.2020
3653 Clear 20 1019 34 10000 3.6 230 00:41 27.01.2020
3654 Clear 20 1019 34 10000 3.6 230 00:21 27.01.2020
3655 Clear 21 1019 30 10000 4.1 280 23:43 26.01.2020
3656 Clear 21 1019 30 10000 4.1 280 23:22 26.01.2020
3657 Clear 22 1019 28 10000 3.6 270 22:58 26.01.2020
3658 Clear 22 1019 28 10000 3.6 270 22:38 26.01.2020
3659 Clear 22 1019 28 10000 3.6 270 22:20 26.01.2020
3660 Clear 22 1019 28 10000 3.1 290 21:58 26.01.2020
3661 Clear 22 1019 28 10000 3.1 290 21:39 26.01.2020
3662 Clear 22 1019 28 10000 3.1 290 21:20 26.01.2020
3663 Clear 22 1019 28 10000 2.1 0 20:58 26.01.2020
3664 Clear 22 1019 28 10000 2.1 0 20:38 26.01.2020
3665 Clear 22 1019 28 10000 2.1 0 20:38 26.01.2020
3666 Clouds 22 1019 28 10000 2.1 0 20:19 26.01.2020
3667 Clouds 22 1019 28 10000 2.1 0 20:19 26.01.2020
3668 Clouds 21 1019 30 10000 3.1 0 19:57 26.01.2020
3669 Clouds 21 1019 30 10000 3.1 0 19:38 26.01.2020
3670 Clouds 21 1019 30 10000 3.1 0 19:18 26.01.2020
3671 -273 0 0 0 0 0 18:54 26.01.2020
3672 Clouds 20 1019 32 10000 3.1 290 18:36 26.01.2020
3673 Clouds 20 1019 32 10000 3.1 290 18:18 26.01.2020
3674 Clouds 20 1019 34 10000 2.6 0 17:40 26.01.2020
3675 Clouds 20 1019 34 10000 2.6 0 17:20 26.01.2020
3676 Clouds 20 1019 34 10000 2.6 0 17:20 26.01.2020
3677 Clouds 19 1019 37 10000 4.1 280 16:59 26.01.2020
3678 Clouds 19 1019 37 10000 4.1 280 16:40 26.01.2020
3679 Clouds 19 1019 37 10000 4.1 280 16:21 26.01.2020
3680 Clouds 18 1019 39 10000 4.6 270 15:58 26.01.2020
3681 Clouds 18 1019 39 10000 4.6 270 15:58 26.01.2020
3682 Clouds 18 1019 39 10000 4.6 270 15:40 26.01.2020
3683 Clouds 17 1019 45 10000 3.1 250 15:19 26.01.2020
3684 Clouds 16 1018 51 0 2.86 281 14:41 26.01.2020
3685 Clouds 16 1019 48 10000 1.5 230 14:23 26.01.2020
3686 Clouds 16 1019 48 10000 1.5 230 13:57 26.01.2020
3687 Clouds 16 1019 48 10000 1.5 230 13:37 26.01.2020
3688 Clouds 16 1019 48 10000 1.5 230 13:18 26.01.2020
3689 Clouds 15 1018 47 10000 3.1 250 12:42 26.01.2020
3690 Clouds 15 1018 47 10000 3.1 250 12:24 26.01.2020
3691 Clouds 15 1018 47 10000 3.1 250 12:24 26.01.2020
3692 Clouds 13 1017 58 10000 1.5 210 11:58 26.01.2020
3693 Clouds 13 1017 58 10000 1.5 210 11:39 26.01.2020
3694 Clouds 13 1017 58 10000 1.5 210 11:19 26.01.2020
3695 Clouds 15 1016 54 10000 3.6 290 10:58 26.01.2020
3696 Clouds 15 1016 54 10000 3.6 290 10:38 26.01.2020
3697 Clouds 15 1016 54 10000 3.6 290 10:20 26.01.2020
3698 Clouds 15 1016 54 10000 2.6 250 09:57 26.01.2020
3699 Clouds 15 1016 54 10000 2.6 250 09:39 26.01.2020
3700 Clouds 15 1016 54 10000 2.6 250 09:20 26.01.2020
3701 Clouds 15 1016 54 10000 2.6 250 09:20 26.01.2020
3702 Clouds 16 1016 51 10000 3.6 250 08:43 26.01.2020
3703 Clouds 16 1016 51 10000 3.6 250 08:22 26.01.2020
3704 Clouds 16 1016 55 10000 4.6 260 07:56 26.01.2020
3705 Clouds 16 1016 55 10000 4.6 260 07:38 26.01.2020
3706 Clouds 16 1016 55 10000 4.6 260 07:19 26.01.2020
3707 Clouds 17 1016 51 10000 4.6 270 06:29 26.01.2020
3708 Clouds 17 1016 51 10000 5.1 270 05:30 26.01.2020
3709 Clouds 17 1016 51 10000 4.6 260 04:45 26.01.2020
3710 Clouds 18 1016 55 10000 4.6 270 02:41 26.01.2020
3711 Clouds 19 1015 52 10000 5.1 270 01:47 26.01.2020
3712 Clouds 19 1015 52 10000 5.1 270 01:24 26.01.2020
3713 Clouds 20 1015 49 10000 5.1 270 00:44 26.01.2020
3714 Clouds 20 1015 49 10000 5.1 270 00:26 26.01.2020
3715 Clouds 22 1015 40 10000 6.7 270 23:40 25.01.2020
3716 Clouds 22 1015 40 10000 6.7 270 23:21 25.01.2020
3717 Clouds 22 1015 40 10000 6.7 280 22:56 25.01.2020
3718 Clouds 22 1015 40 10000 6.7 280 22:56 25.01.2020
3719 Clouds 22 1015 40 10000 6.7 280 22:37 25.01.2020
3720 Clouds 22 1015 40 10000 6.7 280 22:37 25.01.2020
3721 Clouds 22 1015 40 10000 6.7 280 22:18 25.01.2020
3722 Clouds 22 1015 37 10000 7.7 280 21:55 25.01.2020
3723 Clouds 22 1015 37 10000 7.7 280 21:55 25.01.2020
3724 Clouds 22 1015 37 10000 7.7 280 21:55 25.01.2020
3725 Clouds 22 1015 37 10000 7.7 280 21:36 25.01.2020
3726 Clouds 22 1015 37 10000 7.7 280 21:18 25.01.2020
3727 Clouds 19 1013 53 0 5.12 283 20:43 25.01.2020
3728 Clouds 22 1015 37 10000 6.7 270 20:24 25.01.2020
3729 Clouds 22 1015 37 10000 6.7 270 19:48 25.01.2020
3730 Clouds 22 1015 37 10000 6.7 270 19:48 25.01.2020
3731 Clouds 22 1016 37 10000 7.2 280 19:20 25.01.2020
3732 Clouds 22 1016 37 10000 7.2 280 18:59 25.01.2020
3733 Clouds 22 1016 37 10000 7.2 280 18:41 25.01.2020
3734 Clouds 22 1016 37 10000 7.2 280 18:20 25.01.2020
3735 Clouds 21 1016 40 10000 7.7 280 17:42 25.01.2020
3736 Clouds 21 1016 40 10000 7.7 280 17:24 25.01.2020
3737 Clouds 21 1016 43 10000 6.2 270 16:58 25.01.2020
3738 Clouds 21 1016 43 10000 6.2 270 16:40 25.01.2020
3739 Clouds 20 1017 56 10000 3.1 280 16:21 25.01.2020
3740 Clouds 20 1017 56 10000 3.1 280 15:55 25.01.2020
3741 Clouds 20 1017 56 10000 3.1 280 15:37 25.01.2020
3742 Clouds 20 1017 56 10000 3.1 280 15:18 25.01.2020
3743 Clouds 18 1017 63 10000 2.6 270 14:41 25.01.2020
3744 Clouds 18 1017 63 10000 2.6 270 14:18 25.01.2020
3745 Clouds 16 1018 72 10000 1.5 260 13:43 25.01.2020
3746 Clouds 16 1018 72 10000 1.5 260 13:24 25.01.2020
3747 Clouds 14 1018 76 10000 1.5 250 12:46 25.01.2020
3748 Clouds 14 1018 76 10000 1.5 250 12:26 25.01.2020
3749 Clouds 14 1017 76 10000 1.5 240 11:45 25.01.2020
3750 Clouds 14 1017 76 10000 1.5 240 11:22 25.01.2020
3751 Clouds 14 1017 76 10000 1.5 280 10:59 25.01.2020
3752 Clouds 14 1017 76 10000 1.5 280 10:40 25.01.2020
3753 Clouds 14 1017 76 10000 1.5 280 10:20 25.01.2020
3754 Clouds 14 1017 71 10000 1.5 250 09:41 25.01.2020
3755 Clouds 14 1017 71 10000 1.5 250 09:22 25.01.2020
3756 Clouds 14 1017 71 10000 3.1 290 08:47 25.01.2020
3757 Clouds 14 1017 71 10000 3.1 290 08:28 25.01.2020
3758 Clouds 15 1017 67 10000 1.5 270 07:50 25.01.2020
3759 Clouds 15 1017 67 10000 1 0 06:53 25.01.2020
3760 Clouds 15 1017 67 10000 1 0 06:28 25.01.2020
3761 Clouds 16 1017 59 10000 2.1 0 05:47 25.01.2020
3762 Clouds 16 1017 59 10000 2.1 0 05:18 25.01.2020
3763 Clouds 16 1016 59 10000 6.7 280 03:51 25.01.2020
3764 Clouds 16 1016 59 10000 6.7 280 03:19 25.01.2020
3765 Clouds 16 1016 59 10000 5.1 240 02:20 25.01.2020
3766 Clouds 15 1016 62 10000 5.1 250 01:43 25.01.2020
3767 Clouds 16 1016 59 10000 4.6 250 00:44 25.01.2020
3768 Clouds 16 1016 59 10000 4.6 250 00:25 25.01.2020
3769 Clouds 16 1015 55 10000 5.1 260 23:57 24.01.2020
3770 Clouds 16 1015 55 10000 5.1 260 23:38 24.01.2020
3771 Clouds 16 1015 55 10000 5.1 260 23:20 24.01.2020
3772 Clouds 17 1016 51 10000 6.2 260 22:42 24.01.2020
3773 Clouds 17 1016 51 10000 6.2 260 22:24 24.01.2020
3774 Clouds 17 1015 48 10000 6.7 260 21:43 24.01.2020
3775 Clouds 17 1015 48 10000 6.7 260 21:20 24.01.2020
3776 Clouds 17 1015 48 10000 6.7 260 21:20 24.01.2020
3777 Clouds 18 1015 42 10000 7.7 270 20:56 24.01.2020
3778 Clouds 18 1015 42 10000 7.7 270 20:38 24.01.2020
3779 Clouds 18 1015 42 10000 7.7 270 20:19 24.01.2020
3780 Clouds 18 1015 39 10000 6.7 270 19:55 24.01.2020
3781 Clouds 18 1015 39 10000 6.7 270 19:37 24.01.2020
3782 Clouds 18 1015 39 10000 6.7 270 19:19 24.01.2020
3783 Clouds 19 1014 37 10000 6.7 270 18:43 24.01.2020
3784 Clouds 19 1014 37 10000 6.7 270 18:22 24.01.2020
3785 Clouds 19 1014 37 10000 6.7 270 18:22 24.01.2020
3786 Clouds 20 1014 32 10000 6.2 260 17:45 24.01.2020
3787 Clouds 20 1014 32 10000 6.2 260 17:23 24.01.2020
3788 Clouds 19 1015 34 10000 5.7 250 16:58 24.01.2020
3789 Clouds 19 1015 34 10000 5.7 250 16:38 24.01.2020
3790 Clouds 19 1015 34 10000 5.7 250 16:19 24.01.2020
3791 Clouds 17 1016 42 10000 5.7 260 15:42 24.01.2020
3792 Clouds 17 1016 42 10000 5.7 260 15:21 24.01.2020
3793 Clouds 15 1017 47 10000 4.6 270 14:43 24.01.2020
3794 Clouds 15 1017 47 10000 4.6 270 14:24 24.01.2020
3795 Clouds 14 1017 50 10000 5.1 270 13:59 24.01.2020
3796 Clouds 14 1017 50 10000 5.1 270 13:40 24.01.2020
3797 Clouds 14 1017 50 10000 5.1 270 13:21 24.01.2020
3798 Clouds 14 1016 47 10000 4.6 260 12:42 24.01.2020
3799 Clouds 14 1016 47 10000 4.6 260 12:20 24.01.2020
3800 Clouds 14 1016 47 10000 4.1 260 11:44 24.01.2020
3801 Clouds 14 1016 47 10000 4.1 260 11:19 24.01.2020
3802 Clouds 14 1015 44 10000 4.6 250 10:44 24.01.2020
3803 Clouds 14 1015 44 10000 4.6 250 10:23 24.01.2020
3804 Clouds 14 1015 47 10000 4.1 280 10:00 24.01.2020
3805 Clouds 14 1015 47 10000 4.1 280 09:40 24.01.2020
3806 Clouds 14 1015 47 10000 4.1 280 09:22 24.01.2020
3807 Clouds 14 1016 47 10000 3.1 260 08:41 24.01.2020
3808 Clouds 14 1016 47 10000 3.1 260 08:20 24.01.2020
3809 Clouds 13 1016 50 10000 2.6 260 07:53 24.01.2020
3810 Clouds 13 1016 50 10000 2.6 260 07:34 24.01.2020
3811 Clouds 14 1016 47 10000 5.1 270 06:48 24.01.2020
3812 Clouds 14 1016 47 10000 5.1 270 06:29 24.01.2020
3813 Clouds 14 1016 47 10000 4.1 250 05:58 24.01.2020
3814 Clear 15 1016 47 10000 4.6 240 04:57 24.01.2020
3815 Clear 16 1015 41 10000 4.6 260 02:53 24.01.2020
3816 Clear 16 1015 41 10000 4.6 260 02:25 24.01.2020
3817 Clear 17 1015 42 10000 6.2 270 01:45 24.01.2020
3818 Clear 17 1015 42 10000 6.2 270 01:26 24.01.2020
3819 Clear 19 1015 34 10000 6.7 260 00:23 24.01.2020
3820 Clear 20 1014 37 10000 7.2 270 23:49 23.01.2020
3821 Clear 20 1014 37 10000 7.2 270 23:31 23.01.2020
3822 Clear 20 1014 45 10000 7.2 270 22:59 23.01.2020
3823 Clear 20 1014 45 10000 7.2 270 22:38 23.01.2020
3824 Clear 20 1014 45 10000 7.2 270 22:19 23.01.2020
3825 Clear 19 1013 33 0 4.83 275 21:57 23.01.2020
3826 Clear 19 1013 33 0 4.83 275 21:38 23.01.2020
3827 Clear 21 1014 37 10000 7.7 280 21:20 23.01.2020
3828 Clear 21 1014 37 10000 7.7 280 20:57 23.01.2020
3829 Clear 21 1014 37 10000 7.7 280 20:38 23.01.2020
3830 Clear 21 1014 37 10000 7.7 280 20:19 23.01.2020
3831 Clear 21 1014 37 10000 7.7 280 19:44 23.01.2020
3832 Clear 21 1014 37 10000 7.7 280 19:44 23.01.2020
3833 Clear 21 1014 37 10000 7.7 280 19:24 23.01.2020
3834 Clear 21 1014 37 10000 7.7 280 19:24 23.01.2020
3835 Clear 22 1014 35 10000 7.2 280 18:59 23.01.2020
3836 Clear 22 1014 35 10000 7.2 280 18:40 23.01.2020
3837 Clear 22 1014 35 10000 7.2 280 18:20 23.01.2020
3838 Clear 21 1014 40 10000 7.2 280 17:58 23.01.2020
3839 Clear 21 1014 40 10000 7.2 280 17:39 23.01.2020
3840 Clear 21 1014 40 10000 7.2 280 17:19 23.01.2020
3841 Clear 21 1014 43 10000 7.2 290 16:39 23.01.2020
3842 Clear 21 1014 43 10000 7.2 290 16:20 23.01.2020
3843 Clouds 20 1014 49 10000 4.1 250 15:58 23.01.2020
3844 Clouds 20 1014 49 10000 4.1 250 15:40 23.01.2020
3845 Clouds 20 1014 49 10000 4.1 250 15:19 23.01.2020
3846 Clouds 20 1014 49 10000 4.1 250 15:19 23.01.2020
3847 Clear 17 1015 63 10000 2.6 290 14:59 23.01.2020
3848 Clear 17 1015 63 10000 2.6 290 14:41 23.01.2020
3849 Clear 17 1015 63 10000 2.6 290 14:23 23.01.2020
3850 Clear 16 1015 67 10000 1.5 270 13:59 23.01.2020
3851 Clear 16 1015 67 10000 1.5 270 13:38 23.01.2020
3852 Clouds 16 1015 67 10000 1.5 270 13:19 23.01.2020
3853 Clouds 13 1015 76 10000 1.5 290 12:46 23.01.2020
3854 Clouds 13 1015 76 10000 1.5 290 12:25 23.01.2020
3855 Clouds 12 1015 76 10000 2.1 270 11:57 23.01.2020
3856 Clouds 12 1015 76 10000 2.1 270 11:38 23.01.2020
3857 Clear 12 1015 76 10000 2.1 270 11:19 23.01.2020
3858 Clear 12 1014 76 10000 2.1 290 10:44 23.01.2020
3859 Clear 12 1014 76 10000 2.1 290 10:44 23.01.2020
3860 Clear 12 1014 76 10000 2.1 290 10:22 23.01.2020
3861 Clear 12 1014 76 10000 2.1 290 10:22 23.01.2020
3862 Clear 12 1014 71 10000 1.5 290 09:43 23.01.2020
3863 Clear 12 1014 71 10000 1.5 290 09:25 23.01.2020
3864 Clear 13 1013 66 10000 1.5 280 08:59 23.01.2020
3865 Clear 13 1013 66 10000 1.5 280 08:40 23.01.2020
3866 Clear 13 1013 66 10000 1.5 280 08:21 23.01.2020
3867 Clear 14 1013 58 10000 1 270 07:44 23.01.2020
3868 Clear 14 1013 58 10000 1 270 07:24 23.01.2020
3869 Clear 14 1014 62 10000 1.5 300 06:51 23.01.2020
3870 Clear 14 1014 62 10000 1.5 300 06:22 23.01.2020
3871 Clear 15 1014 54 10000 1 0 05:37 23.01.2020
3872 Clear 15 1014 58 10000 0.5 0 04:24 23.01.2020
3873 Clear 21 1013 30 9000 2.6 290 02:33 23.01.2020
3874 Clouds 26 1013 22 10000 1.5 270 00:58 23.01.2020
3875 Clouds 26 1013 22 10000 1.5 270 00:27 23.01.2020
3876 Clouds 28 1012 18 10000 3.6 270 23:47 22.01.2020
3877 Clouds 28 1012 18 10000 3.6 270 23:29 22.01.2020
3878 Clouds 29 1012 18 10000 3.1 280 22:58 22.01.2020
3879 Clouds 29 1012 18 10000 3.1 280 22:39 22.01.2020
3880 Clouds 29 1012 18 10000 3.1 280 22:21 22.01.2020
3881 Clouds 28 1011 17 0 2.81 221 21:39 22.01.2020
3882 Clouds 29 1013 21 10000 2.6 280 21:21 22.01.2020
3883 Clouds 29 1013 21 10000 2.6 280 20:56 22.01.2020
3884 Clouds 29 1013 21 10000 2.6 280 20:37 22.01.2020
3885 Clouds 29 1013 21 10000 2.6 280 20:18 22.01.2020
3886 Clouds 26 1012 22 0 2.13 152 19:55 22.01.2020
3887 Clouds 26 1012 22 0 2.13 152 19:37 22.01.2020
3888 Clouds 25 1014 47 10000 2.1 260 19:18 22.01.2020
3889 Clouds 25 1014 47 10000 2.1 260 18:55 22.01.2020
3890 Clouds 25 1014 47 10000 2.1 260 18:36 22.01.2020
3891 Clouds 25 1014 47 10000 2.1 260 18:18 22.01.2020
3892 Clouds 25 1014 47 10000 2.1 260 18:18 22.01.2020
3893 Clouds 26 1012 22 0 2.13 152 17:40 22.01.2020
3894 Clouds 21 1016 56 10000 1 0 17:21 22.01.2020
3895 Clouds 21 1016 56 10000 1 0 16:57 22.01.2020
3896 Clouds 21 1016 56 10000 1 0 16:39 22.01.2020
3897 Clouds 21 1016 56 10000 1 0 16:20 22.01.2020
3898 Clouds 19 1017 63 10000 0.5 0 15:55 22.01.2020
3899 Clouds 19 1017 63 10000 0.5 0 15:37 22.01.2020
3900 Clouds 19 1017 63 10000 0.5 0 15:18 22.01.2020
3901 Clouds 17 1018 67 10000 1 0 14:39 22.01.2020
3902 Clear 17 1018 67 10000 1 0 14:20 22.01.2020
3903 Clear 15 1018 77 10000 1.1 215 13:57 22.01.2020
3904 Clear 15 1018 77 10000 1.1 215 13:37 22.01.2020
3905 Clear 15 1018 77 10000 0.95 211 13:19 22.01.2020
3906 Clear 12 1018 87 9000 0.95 211 12:57 22.01.2020
3907 Clear 12 1018 87 9000 0.95 211 12:38 22.01.2020
3908 Clear 12 1018 87 9000 0.95 211 12:19 22.01.2020
3909 Clear 11 1018 87 8000 0.5 0 11:56 22.01.2020
3910 Clear 11 1018 87 8000 0.5 0 11:38 22.01.2020
3911 Clear 11 1018 87 8000 0.5 0 11:19 22.01.2020
3912 Clear 12 1018 87 8000 1 0 10:45 22.01.2020
3913 Clear 12 1018 87 8000 1 0 10:21 22.01.2020
3914 Clear 12 1018 87 9000 1 0 09:57 22.01.2020
3915 Clear 12 1018 87 9000 1 0 09:39 22.01.2020
3916 Clear 12 1018 87 9000 1 0 09:20 22.01.2020
3917 Clear 13 1018 82 10000 1.5 280 08:54 22.01.2020
3918 Clear 13 1018 82 10000 1.5 280 08:36 22.01.2020
3919 Clear 13 1018 82 10000 1.5 280 08:18 22.01.2020
3920 Clear 14 1018 82 10000 0.5 0 07:41 22.01.2020
3921 Clear 14 1018 82 10000 0.5 0 07:21 22.01.2020
3922 Clear 14 1018 82 10000 0.5 0 07:21 22.01.2020
3923 Clear 15 1018 77 10000 1 0 06:33 22.01.2020
3924 Clear 16 1018 72 10000 1 0 05:42 22.01.2020
3925 Clear 17 1018 67 8000 0.5 0 04:24 22.01.2020
3926 Clear 17 1018 67 8000 0.5 0 03:26 22.01.2020
3927 Clear 20 1017 60 8000 0.5 0 02:38 22.01.2020
3928 Clear 27 1015 26 10000 3.1 300 00:46 22.01.2020
3929 Clear 27 1015 26 10000 3.1 300 00:27 22.01.2020
3930 Clear 29 1015 23 10000 3.1 300 23:55 21.01.2020
3931 Clear 29 1015 23 10000 3.1 300 23:37 21.01.2020
3932 Clear 29 1015 23 10000 3.1 300 23:18 21.01.2020
3933 Clear 29 1015 23 10000 3.1 300 23:18 21.01.2020
3934 Clear 29 1015 23 10000 3.1 300 23:18 21.01.2020
3935 Clear 30 1016 23 10000 1.5 0 22:40 21.01.2020
3936 Clear 30 1016 23 10000 1.5 0 22:20 21.01.2020
3937 Clear 29 1016 23 10000 2.1 0 21:57 21.01.2020
3938 Clear 29 1016 23 10000 2.1 0 21:38 21.01.2020
3939 Clear 29 1016 23 10000 2.1 0 21:20 21.01.2020
3940 Clear 29 1017 26 10000 1.5 0 20:56 21.01.2020
3941 Clear 29 1017 26 10000 1.5 0 20:37 21.01.2020
3942 Clear 29 1017 26 10000 1.5 0 20:18 21.01.2020
3943 Clear 28 1017 30 10000 1.5 300 19:56 21.01.2020
3944 Clear 28 1017 30 10000 1.5 300 19:37 21.01.2020
3945 Clear 28 1017 30 10000 1.5 300 19:37 21.01.2020
3946 Clear 28 1017 30 10000 1.5 300 19:19 21.01.2020
3947 Clear 27 1018 36 10000 1.5 0 18:55 21.01.2020
3948 Clear 27 1018 36 10000 1.5 0 18:36 21.01.2020
3949 Clear 27 1018 36 10000 1.5 0 18:18 21.01.2020
3950 Clear 24 1019 44 10000 2.6 300 17:43 21.01.2020
3951 Clear 24 1019 44 10000 2.6 300 17:20 21.01.2020
3952 Clear 22 1019 49 10000 2.1 0 16:58 21.01.2020
3953 Clear 22 1019 49 10000 2.1 0 16:36 21.01.2020
3954 Clear 22 1019 49 10000 2.1 0 16:36 21.01.2020
3955 Clear 22 1019 49 10000 2.1 0 16:18 21.01.2020
3956 Clear 20 1020 56 10000 1.5 220 15:40 21.01.2020
3957 Clear 20 1020 56 10000 1.5 220 15:20 21.01.2020
3958 Clear 18 1021 63 10000 1.1 162 14:57 21.01.2020
3959 Clear 18 1021 63 10000 1.1 162 14:37 21.01.2020
3960 Clear 15 1021 77 10000 1.5 270 14:19 21.01.2020
3961 Clear 15 1021 77 10000 1.5 270 13:39 21.01.2020
3962 Clear 15 1021 77 10000 1.5 270 13:18 21.01.2020
3963 Clear 13 1020 82 9000 1.5 230 12:43 21.01.2020
3964 Clear 13 1020 82 9000 1.5 230 12:25 21.01.2020
3965 Clear 12 1020 87 10000 1 300 11:57 21.01.2020
3966 Clear 12 1020 87 10000 1 300 11:38 21.01.2020
3967 Clear 12 1020 87 10000 1 300 11:19 21.01.2020
3968 Clear 12 1020 87 10000 1 0 10:43 21.01.2020
3969 Clear 12 1020 87 10000 1 0 10:23 21.01.2020
3970 Clear 13 1020 82 9000 1 270 09:57 21.01.2020
3971 Clear 13 1020 82 9000 1 270 09:39 21.01.2020
3972 Clear 13 1020 82 9000 1 270 09:21 21.01.2020
3973 Clear 13 1020 82 9000 1 270 08:45 21.01.2020
3974 Clear 13 1020 82 9000 1 270 08:27 21.01.2020
3975 Clear 14 1020 76 10000 1 0 07:45 21.01.2020
3976 Clear 14 1020 76 10000 1 0 07:26 21.01.2020
3977 Clear 14 1020 82 10000 0.5 0 06:58 21.01.2020
3978 Clear 14 1020 82 10000 0.5 0 06:39 21.01.2020
3979 Clear 14 1020 82 10000 0.5 0 06:20 21.01.2020
3980 Clear 15 1019 72 10000 1 0 05:40 21.01.2020
3981 Clear 17 1019 63 9000 1 0 04:38 21.01.2020
3982 Clear 24 1016 36 10000 2.1 290 02:29 21.01.2020
3983 Clear 24 1016 36 10000 2.1 290 01:36 21.01.2020
3984 Clear 27 1015 28 10000 3.1 320 00:51 21.01.2020
3985 Clear 27 1015 28 10000 3.1 320 00:28 21.01.2020
3986 Clear 28 1015 24 10000 3.6 290 23:56 20.01.2020
3987 Clear 28 1015 24 10000 3.6 290 23:36 20.01.2020
3988 Clear 28 1015 24 10000 3.6 290 23:18 20.01.2020
3989 Clear 27 1013 25 0 2.35 191 22:40 20.01.2020
3990 Clear 29 1015 25 10000 2.1 0 22:21 20.01.2020
3991 Clear 29 1015 25 10000 2.1 0 21:58 20.01.2020
3992 Clear 29 1015 25 10000 2.1 0 21:38 20.01.2020
3993 Clear 29 1015 25 10000 2.1 0 21:20 20.01.2020
3994 Clear 28 1015 26 10000 2.6 290 20:59 20.01.2020
3995 Clear 28 1015 26 10000 2.6 290 20:39 20.01.2020
3996 Clear 28 1015 26 10000 2.6 290 20:20 20.01.2020
3997 Clear 27 1015 32 10000 1.5 0 19:58 20.01.2020
3998 Clear 27 1015 32 10000 1.5 0 19:40 20.01.2020
3999 Clear 27 1015 32 10000 1.5 0 19:19 20.01.2020
4000 Clear 25 1016 36 10000 2.1 280 18:45 20.01.2020
4001 Clear 25 1016 36 10000 2.1 280 18:24 20.01.2020
4002 Clear 23 1017 43 10000 1.5 0 17:59 20.01.2020
4003 Clear 23 1017 43 10000 1.5 0 17:38 20.01.2020
4004 Clear 23 1017 43 10000 1.5 0 17:18 20.01.2020
4005 Clear 20 1018 49 10000 1.5 310 16:45 20.01.2020
4006 Clear 20 1018 49 10000 1.5 310 16:25 20.01.2020
4007 Clear 18 1018 59 10000 1 0 15:58 20.01.2020
4008 Clear 18 1018 59 10000 1 0 15:58 20.01.2020
4009 Clear 18 1018 59 10000 1 0 15:40 20.01.2020
4010 Clear 18 1018 59 10000 1 0 15:21 20.01.2020
4011 Clear 15 1019 72 10000 0.5 0 14:55 20.01.2020
4012 Clear 15 1019 72 10000 0.5 0 14:36 20.01.2020
4013 Clear 15 1019 72 10000 0.5 0 14:18 20.01.2020
4014 Clear 13 1019 76 10000 1 0 13:41 20.01.2020
4015 Clear 13 1019 76 10000 1 0 13:23 20.01.2020
4016 Clear 10 1019 87 9000 0.26 152 12:56 20.01.2020
4017 Clear 10 1019 87 9000 0.26 152 12:38 20.01.2020
4018 Clear 10 1019 87 9000 0.26 152 12:19 20.01.2020
4019 Clear 9 1019 93 9000 1 260 11:43 20.01.2020
4020 Clear 9 1019 93 9000 1 260 11:24 20.01.2020
4021 Clear 10 1019 87 9000 1 290 10:57 20.01.2020
4022 Clear 10 1019 87 9000 1 290 10:39 20.01.2020
4023 Clear 10 1019 87 9000 1 290 10:19 20.01.2020
4024 Clear 10 1019 87 9000 1 290 10:19 20.01.2020
4025 Clear 10 1019 87 9000 1 290 10:19 20.01.2020
4026 Clear 11 1018 81 9000 1 0 09:41 20.01.2020
4027 Clear 11 1018 81 9000 1 0 09:21 20.01.2020
4028 Clear 11 1018 81 10000 1.5 290 08:49 20.01.2020
4029 Clear 11 1018 81 10000 1.5 290 08:30 20.01.2020
4030 Clear 12 1018 76 10000 1 260 07:53 20.01.2020
4031 Clear 12 1018 76 10000 1 260 07:30 20.01.2020
4032 Clear 12 1019 81 10000 1.5 290 06:59 20.01.2020
4033 Clear 12 1019 81 10000 1.5 290 06:28 20.01.2020
4034 Clear 13 1019 71 10000 1.5 270 05:43 20.01.2020
4035 Clear 13 1019 71 10000 1.5 270 05:43 20.01.2020
4036 Clear 13 1019 71 10000 1.5 270 05:23 20.01.2020
4037 Clear 15 1018 62 9000 1 0 04:48 20.01.2020
4038 Clear 18 1017 52 9000 1 0 02:58 20.01.2020
4039 Clear 18 1017 52 9000 1 0 02:58 20.01.2020
4040 Clear 21 1016 43 10000 1 0 01:55 20.01.2020
4041 Clear 21 1016 43 10000 1 0 01:37 20.01.2020
4042 Clear 24 1015 29 10000 1.5 0 00:45 20.01.2020
4043 Clear 24 1015 29 10000 1.5 0 00:24 20.01.2020
4044 Clear 25 1014 23 10000 1.5 0 23:39 19.01.2020
4045 Clear 25 1014 23 10000 1.5 0 23:20 19.01.2020
4046 Clear 26 1014 21 10000 1.5 0 22:57 19.01.2020
4047 Clear 26 1014 21 10000 1.5 0 22:39 19.01.2020
4048 Clear 26 1014 21 10000 1.5 0 22:39 19.01.2020
4049 Clear 26 1014 21 10000 1.5 0 22:20 19.01.2020
4050 Clear 26 1014 21 10000 2.1 0 21:57 19.01.2020
4051 Clear 26 1014 21 10000 2.1 0 21:38 19.01.2020
4052 Clear 26 1014 21 10000 2.1 0 21:20 19.01.2020
4053 Clear 26 1014 19 10000 2.1 0 20:57 19.01.2020
4054 Clear 26 1014 19 10000 2.1 0 20:39 19.01.2020
4055 Clear 26 1014 19 10000 2.1 0 20:20 19.01.2020
4056 Clear 25 1014 22 10000 1.5 0 19:57 19.01.2020
4057 Clear 25 1014 22 10000 1.5 0 19:39 19.01.2020
4058 Clear 25 1014 22 10000 1.5 0 19:39 19.01.2020
4059 Clear 25 1014 22 10000 1.5 0 19:20 19.01.2020
4060 Clear 24 1014 25 10000 1.5 0 18:56 19.01.2020
4061 -273 0 0 0 0 0 18:38 19.01.2020
4062 Clear 24 1014 25 10000 1.5 0 18:20 19.01.2020
4063 Clear 21 1015 40 10000 2.6 280 17:58 19.01.2020
4064 Clear 21 1015 40 10000 2.6 280 17:58 19.01.2020
4065 Clear 21 1015 40 10000 2.6 280 17:39 19.01.2020
4066 Clear 21 1015 40 10000 2.6 280 17:20 19.01.2020
4067 Clear 20 1015 49 9000 2.1 0 16:58 19.01.2020
4068 Clear 20 1015 49 9000 2.1 0 16:38 19.01.2020
4069 Clear 20 1015 49 9000 2.1 0 16:19 19.01.2020
4070 Clear 16 1016 63 9000 1.5 230 15:58 19.01.2020
4071 Clear 16 1016 63 9000 1.5 230 15:37 19.01.2020
4072 Clear 16 1016 63 9000 1.5 230 15:19 19.01.2020
4073 Clear 14 1016 67 9000 1.5 250 14:57 19.01.2020
4074 Clear 14 1016 67 9000 1.5 250 14:38 19.01.2020
4075 Clear 14 1016 67 9000 1.5 250 14:18 19.01.2020
4076 Clear 12 1016 76 9000 1.5 240 13:55 19.01.2020
4077 Clear 12 1016 76 9000 1.5 240 13:37 19.01.2020
4078 Clear 12 1016 76 9000 1.5 240 13:18 19.01.2020
4079 Clear 10 1016 81 9000 1.5 230 12:42 19.01.2020
4080 Clear 10 1016 81 9000 1.5 230 12:23 19.01.2020
4081 Clear 9 1015 81 8000 1 0 11:58 19.01.2020
4082 Clear 9 1015 81 8000 1 0 11:39 19.01.2020
4083 Clear 9 1015 81 8000 1 0 11:20 19.01.2020
4084 Clear 9 1015 81 9000 1.5 310 10:55 19.01.2020
4085 Clear 9 1015 81 9000 1.5 310 10:37 19.01.2020
4086 Clear 9 1015 81 9000 1.5 310 10:18 19.01.2020
4087 Clear 10 1015 76 9000 1 300 09:41 19.01.2020
4088 Clear 10 1015 76 9000 1 300 09:23 19.01.2020
4089 Clear 11 1015 71 10000 1.5 280 08:56 19.01.2020
4090 Clear 11 1015 71 10000 1.5 280 08:38 19.01.2020
4091 Clear 11 1015 71 10000 1.5 280 08:19 19.01.2020
4092 Clear 11 1015 62 10000 1.5 300 07:30 19.01.2020
4093 Clear 12 1015 62 10000 2.1 300 06:56 19.01.2020
4094 Clear 12 1015 62 10000 2.1 300 06:25 19.01.2020
4095 Clear 13 1014 58 8000 1 0 04:39 19.01.2020
4096 Clear 19 1013 32 9000 1 0 02:36 19.01.2020
4097 Clear 23 1012 53 10000 2.6 220 01:58 19.01.2020
4098 Clear 23 1012 54 10000 2.6 220 01:22 19.01.2020
4099 Clear 26 1012 54 10000 2.1 250 00:45 19.01.2020
4100 Clear 26 1012 54 10000 2.1 250 00:25 19.01.2020
4101 Clear 27 1012 54 10000 3.6 260 23:55 18.01.2020
4102 Clear 27 1012 54 10000 3.6 260 23:36 18.01.2020
4103 Clear 27 1012 54 10000 3.6 260 23:36 18.01.2020
4104 Clear 27 1012 19 10000 3.6 260 23:18 18.01.2020
4105 Clear 28 1012 18 10000 4.1 300 22:42 18.01.2020
4106 Clear 28 1012 18 10000 4.1 300 22:24 18.01.2020
4107 Clear 28 1012 18 10000 4.1 300 22:24 18.01.2020
4108 Clear 28 1012 17 10000 1.5 0 21:58 18.01.2020
4109 Clear 28 1012 17 10000 1.5 0 21:39 18.01.2020
4110 Clear 28 1012 17 10000 1.5 0 21:20 18.01.2020
4111 Clear 28 1013 21 10000 2.1 280 20:57 18.01.2020
4112 Clear 28 1013 21 10000 2.1 280 20:57 18.01.2020
4113 Clear 28 1013 21 10000 2.1 280 20:39 18.01.2020
4114 Clear 28 1013 21 10000 2.1 280 20:19 18.01.2020
4115 Clear 26 1013 29 10000 2.1 260 19:43 18.01.2020
4116 Clear 26 1013 29 10000 2.1 260 19:24 18.01.2020
4117 Clear 24 1015 36 9000 2.1 270 18:43 18.01.2020
4118 Clear 24 1015 36 9000 2.1 270 18:25 18.01.2020
4119 Clear 21 1015 40 10000 1.5 310 17:59 18.01.2020
4120 Clear 21 1015 40 10000 1.5 310 17:40 18.01.2020
4121 Clear 21 1015 40 10000 1.5 310 17:20 18.01.2020
4122 Clear 19 1016 55 10000 1 0 16:56 18.01.2020
4123 Clear 19 1016 55 10000 1 0 16:37 18.01.2020
4124 Clear 19 1016 55 10000 1 0 16:19 18.01.2020
4125 Clear 17 1017 67 10000 0.5 0 15:43 18.01.2020
4126 Clear 17 1017 67 10000 0.5 0 15:24 18.01.2020
4127 Clear 15 1018 72 9000 1.5 210 14:58 18.01.2020
4128 Clear 15 1018 72 9000 1.5 210 14:39 18.01.2020
4129 Clear 15 1018 72 9000 1.5 210 14:18 18.01.2020
4130 Clear 13 1018 76 10000 1 0 13:45 18.01.2020
4131 Clear 13 1018 76 10000 1 0 13:27 18.01.2020
4132 Clear 11 1019 87 10000 2.1 300 12:59 18.01.2020
4133 Clear 11 1019 87 10000 2.1 300 12:40 18.01.2020
4134 Clear 11 1019 87 10000 2.1 300 12:20 18.01.2020
4135 Clear 10 1018 87 9000 1.5 280 11:44 18.01.2020
4136 Clear 10 1018 87 9000 1.5 280 11:22 18.01.2020
4137 Clear 10 1018 87 9000 1.5 290 10:57 18.01.2020
4138 Clear 10 1018 87 9000 1.5 290 10:38 18.01.2020
4139 Clear 10 1018 87 9000 1.5 290 10:20 18.01.2020
4140 Clear 10 1018 87 9000 1.5 240 09:46 18.01.2020
4141 Clear 10 1018 87 9000 1.5 240 09:28 18.01.2020
4142 Clear 11 1018 87 9000 1.5 280 08:56 18.01.2020
4143 Clear 11 1018 87 9000 1.5 280 08:37 18.01.2020
4144 Clear 11 1018 87 9000 1.5 280 08:19 18.01.2020
4145 Clear 12 1018 81 10000 1 270 07:45 18.01.2020
4146 Clear 12 1018 81 10000 1 270 07:26 18.01.2020
4147 Clear 13 1018 76 10000 1 0 06:47 18.01.2020
4148 Clear 13 1018 82 10000 1 0 05:58 18.01.2020
4149 Clear 15 1018 72 10000 0.5 0 04:35 18.01.2020
4150 Clear 19 1017 55 10000 0.5 0 02:50 18.01.2020
4151 Clear 22 1016 40 10000 2.1 250 01:51 18.01.2020
4152 Clear 24 1015 36 10000 3.6 300 00:41 18.01.2020
4153 Clear 24 1015 36 10000 3.6 300 00:21 18.01.2020
4154 Clear 25 1015 31 10000 4.1 280 23:59 17.01.2020
4155 Clear 25 1015 31 10000 4.1 280 23:40 17.01.2020
4156 Clear 25 1015 31 10000 4.1 280 23:19 17.01.2020
4157 Clear 25 1016 33 10000 3.1 280 22:43 17.01.2020
4158 Clear 25 1016 33 10000 3.1 280 22:21 17.01.2020
4159 Clear 26 1016 31 10000 4.6 0 21:57 17.01.2020
4160 Clear 26 1016 31 10000 4.6 0 21:39 17.01.2020
4161 Clear 26 1016 31 10000 4.6 0 21:20 17.01.2020
4162 Clear 25 1016 36 10000 4.1 0 20:55 17.01.2020
4163 Clear 25 1016 36 10000 4.1 0 20:55 17.01.2020
4164 Clear 25 1016 36 10000 4.1 0 20:36 17.01.2020
4165 Clear 25 1016 36 10000 4.1 0 20:18 17.01.2020
4166 Clear 26 1016 34 10000 3.6 0 19:54 17.01.2020
4167 Clear 26 1016 34 10000 3.6 0 19:36 17.01.2020
4168 Clear 26 1016 34 10000 3.6 0 19:18 17.01.2020
4169 Clear 24 1017 41 10000 2.6 290 18:41 17.01.2020
4170 Clear 24 1017 41 10000 2.6 290 18:23 17.01.2020
4171 Clear 23 1018 46 10000 2.1 300 17:54 17.01.2020
4172 Clear 23 1018 46 10000 2.1 300 17:36 17.01.2020
4173 Clear 23 1018 46 10000 2.1 300 17:18 17.01.2020
4174 Clear 20 1018 52 10000 2.1 300 16:41 17.01.2020
4175 Clear 20 1018 52 10000 2.1 300 16:19 17.01.2020
4176 Clear 18 1019 59 10000 1.5 270 15:48 17.01.2020
4177 Clear 18 1019 59 10000 1.5 270 15:48 17.01.2020
4178 Clear 18 1019 59 10000 1.5 270 15:26 17.01.2020
4179 Clear 15 1020 67 10000 1.5 270 14:54 17.01.2020
4180 Clear 15 1020 67 10000 1.5 270 14:36 17.01.2020
4181 Clear 15 1020 67 10000 1.5 270 14:18 17.01.2020
4182 Clear 15 1020 67 10000 1.5 270 14:18 17.01.2020
4183 Clear 12 1021 81 10000 1 0 13:38 17.01.2020
4184 Clear 12 1021 81 10000 1 0 13:19 17.01.2020
4185 Clear 9 1021 93 10000 1.5 250 12:44 17.01.2020
4186 Clear 9 1021 93 10000 1.5 250 12:22 17.01.2020
4187 Clear 8 1021 93 9000 0.84 182 11:40 17.01.2020
4188 Clear 8 1021 93 9000 0.9 289 11:19 17.01.2020
4189 Clear 8 1021 93 10000 1.5 280 10:44 17.01.2020
4190 Clear 8 1021 93 10000 1.5 280 10:23 17.01.2020
4191 Clear 9 1021 87 10000 0.5 0 09:58 17.01.2020
4192 Clear 9 1021 87 10000 0.5 0 09:58 17.01.2020
4193 Clear 9 1021 87 10000 0.5 0 09:40 17.01.2020
4194 Clear 9 1021 87 10000 0.5 0 09:20 17.01.2020
4195 Clear 10 1021 81 10000 1 0 08:45 17.01.2020
4196 Clear 10 1021 81 10000 1 0 08:25 17.01.2020
4197 Clear 11 1021 76 10000 0.5 0 07:55 17.01.2020
4198 Clear 11 1021 76 10000 0.5 0 07:32 17.01.2020
4199 Clear 11 1021 76 10000 0.5 0 07:32 17.01.2020
4200 Clear 11 1022 81 10000 1.5 280 06:59 17.01.2020
4201 Clear 11 1022 81 10000 1.5 280 06:41 17.01.2020
4202 Clear 12 1022 76 10000 2.1 280 05:56 17.01.2020
4203 Clear 14 1022 67 10000 2.1 290 03:39 17.01.2020
4204 Clear 15 1022 67 9000 1.5 270 02:53 17.01.2020
4205 Clear 18 1021 52 10000 3.1 300 01:47 17.01.2020
4206 Clear 18 1021 52 10000 3.1 300 01:29 17.01.2020
4207 Clear 20 1021 37 10000 1 0 00:51 17.01.2020
4208 Clear 20 1021 37 10000 1 0 00:26 17.01.2020
4209 Clear 15 1018 68 0 1.86 249 23:44 16.01.2020
4210 Clear 22 1021 30 10000 1.5 250 23:26 16.01.2020
4211 Clear 22 1021 30 10000 1.5 250 22:57 16.01.2020
4212 Clear 22 1021 30 10000 1.5 250 22:39 16.01.2020
4213 Clear 22 1021 30 10000 1.5 250 22:20 16.01.2020
4214 Clear 21 1022 30 10000 2.1 0 21:55 16.01.2020
4215 Clear 21 1022 30 10000 2.1 0 21:36 16.01.2020
4216 Clear 21 1022 30 10000 2.1 0 21:18 16.01.2020
4217 Clear 21 1022 32 10000 1.5 0 20:41 16.01.2020
4218 Clear 21 1022 32 10000 1.5 0 20:21 16.01.2020
4219 Clear 20 1023 32 10000 1.5 0 19:59 16.01.2020
4220 Clear 20 1023 32 10000 1.5 0 19:41 16.01.2020
4221 Clear 20 1023 32 10000 1.5 0 19:22 16.01.2020
4222 Clear 18 1024 39 10000 2.1 0 18:57 16.01.2020
4223 Clear 18 1024 39 10000 2.1 0 18:38 16.01.2020
4224 Clear 18 1024 39 10000 2.1 0 18:19 16.01.2020
4225 Clear 16 1025 44 10000 1 0 17:58 16.01.2020
4226 Clear 16 1025 44 10000 1 0 17:39 16.01.2020
4227 Clear 16 1025 44 10000 1 0 17:20 16.01.2020
4228 Clear 14 1025 50 10000 3.1 310 16:41 16.01.2020
4229 Clear 14 1025 50 10000 3.1 310 16:23 16.01.2020
4230 Clear 12 1026 54 10000 2.6 290 15:57 16.01.2020
4231 Clear 12 1026 54 10000 2.6 290 15:38 16.01.2020
4232 Clear 12 1026 54 10000 2.6 290 15:20 16.01.2020
4233 Clear 10 1026 57 10000 2.6 280 14:42 16.01.2020
4234 Clear 10 1026 57 10000 2.6 280 14:24 16.01.2020
4235 Clear 8 1026 70 10000 2.1 260 13:49 16.01.2020
4236 Clear 8 1026 70 10000 2.1 260 13:30 16.01.2020
4237 Clear 5 1026 80 10000 2.1 240 12:59 16.01.2020
4238 Clear 5 1026 80 10000 2.1 240 12:40 16.01.2020
4239 Clear 5 1026 80 10000 2.1 240 12:21 16.01.2020
4240 Clear 4 1027 86 10000 1.5 270 11:42 16.01.2020
4241 Clear 4 1027 86 10000 1.5 270 11:42 16.01.2020
4242 Clear 4 1027 86 10000 1.5 270 11:24 16.01.2020
4243 Clear 5 1027 80 10000 1.5 260 10:56 16.01.2020
4244 Clear 5 1027 80 10000 1.5 260 10:37 16.01.2020
4245 Clear 5 1027 80 10000 1.5 260 10:19 16.01.2020
4246 Clear 5 1027 86 9000 1.5 260 09:43 16.01.2020
4247 Clear 5 1027 86 9000 1.5 260 09:24 16.01.2020
4248 Clear 6 1027 75 10000 1 0 08:58 16.01.2020
4249 Clear 6 1027 75 10000 1 0 08:40 16.01.2020
4250 Clear 6 1027 75 10000 1 0 08:19 16.01.2020
4251 Clear 7 1027 70 10000 1.5 260 07:42 16.01.2020
4252 Clear 7 1027 70 10000 1.5 260 07:24 16.01.2020
4253 Clear 8 1027 61 10000 4.1 270 06:52 16.01.2020
4254 Clear 8 1027 61 10000 4.1 270 06:34 16.01.2020
4255 Clear 9 1026 57 10000 3.1 230 05:49 16.01.2020
4256 Clear 8 1026 61 10000 3.6 250 04:50 16.01.2020
4257 Clear 9 1026 57 10000 3.6 240 03:56 16.01.2020
4258 Clear 9 1025 61 10000 3.1 250 02:46 16.01.2020
4259 Clear 10 1024 53 10000 5.1 280 01:34 16.01.2020
4260 Clear 11 1023 50 10000 5.7 280 00:43 16.01.2020
4261 Clear 11 1023 50 10000 5.7 280 00:43 16.01.2020
4262 Clear 11 1023 50 10000 5.7 280 00:23 16.01.2020
4263 Clear 12 1022 46 10000 6.2 270 23:44 15.01.2020
4264 Clear 12 1022 46 10000 6.2 270 23:44 15.01.2020
4265 Clear 12 1022 46 10000 6.2 270 23:22 15.01.2020
4266 Clear 12 1021 46 10000 7.2 270 22:56 15.01.2020
4267 Clear 12 1021 46 10000 7.2 270 22:38 15.01.2020
4268 Clear 12 1021 46 10000 7.2 270 22:18 15.01.2020
4269 Clear 13 1021 48 10000 6.7 270 21:56 15.01.2020
4270 Clear 13 1021 48 10000 6.7 270 21:56 15.01.2020
4271 Clear 13 1021 48 10000 6.7 270 21:36 15.01.2020
4272 Clear 13 1021 48 10000 6.7 270 21:18 15.01.2020
4273 Clear 12 1020 46 10000 7.2 280 20:54 15.01.2020
4274 Clear 12 1020 46 10000 7.2 280 20:36 15.01.2020
4275 Clear 12 1020 46 10000 7.2 280 20:18 15.01.2020
4276 Clear 13 1020 43 10000 6.7 270 19:54 15.01.2020
4277 Clear 13 1020 43 10000 6.7 270 19:36 15.01.2020
4278 Clear 13 1020 43 10000 6.7 270 19:18 15.01.2020
4279 Clear 13 1020 43 10000 6.7 270 19:18 15.01.2020
4280 Clear 12 1020 46 10000 6.2 280 18:54 15.01.2020
4281 Clear 12 1020 46 10000 6.2 280 18:36 15.01.2020
4282 Clear 12 1020 46 10000 6.2 280 18:18 15.01.2020
4283 Clouds 11 1005 71 10000 7.2 270 17:40 15.01.2020
4284 Clouds 11 1005 71 10000 7.2 270 17:40 15.01.2020
4285 Clouds 11 1005 71 10000 7.2 270 17:21 15.01.2020
4286 Clouds 11 1005 71 10000 7.2 270 16:56 15.01.2020
4287 Clouds 11 1005 71 10000 7.2 270 16:38 15.01.2020
4288 Clouds 11 1005 71 10000 7.2 270 16:20 15.01.2020
4289 Clouds 10 1005 71 10000 7.2 270 15:43 15.01.2020
4290 Clear 9 1019 57 10000 4.1 300 15:21 15.01.2020
4291 Clear 9 1019 45 10000 3.6 250 14:56 15.01.2020
4292 Clear 9 1019 45 10000 3.6 250 14:37 15.01.2020
4293 Clear 9 1019 45 10000 3.6 250 14:37 15.01.2020
4294 Rain 9 1019 67 10000 3.6 250 14:18 15.01.2020
4295 Rain 7 1018 70 10000 3.1 280 13:41 15.01.2020
4296 Rain 7 1018 70 10000 3.1 280 13:23 15.01.2020
4297 Rain 6 1018 75 10000 3.1 310 12:55 15.01.2020
4298 Rain 6 1018 75 10000 3.1 310 12:55 15.01.2020
4299 Rain 6 1018 75 10000 3.1 310 12:37 15.01.2020
4300 Rain 6 1018 75 10000 3.1 310 12:18 15.01.2020
4301 Rain 6 1017 75 10000 2.6 300 11:38 15.01.2020
4302 Rain 6 1017 75 10000 2.6 300 11:20 15.01.2020
4303 Rain 6 1016 70 10000 4.1 260 10:47 15.01.2020
4304 Rain 6 1016 70 10000 4.1 260 10:28 15.01.2020
4305 Rain 6 1015 75 10000 4.1 260 09:58 15.01.2020
4306 Rain 6 1015 75 10000 4.1 260 09:39 15.01.2020
4307 Rain 6 1015 75 10000 4.1 260 09:19 15.01.2020
4308 Rain 5 1015 93 10000 3.6 270 08:44 15.01.2020
4309 Rain 5 1015 93 10000 3.6 270 08:24 15.01.2020
4310 Rain 6 1014 81 9000 2.1 0 07:54 15.01.2020
4311 Rain 6 1014 81 9000 2.1 0 07:33 15.01.2020
4312 Rain 6 1014 87 10000 3.1 300 06:49 15.01.2020
4313 Rain 6 1014 87 10000 3.1 300 06:26 15.01.2020
4314 Rain 6 1015 81 10000 2.6 230 04:46 15.01.2020
4315 Rain 7 1013 81 8000 3.6 250 02:40 15.01.2020
4316 Rain 7 1012 75 9000 4.1 250 01:43 15.01.2020
4317 Rain 7 1012 75 9000 4.1 250 01:20 15.01.2020
4318 Rain 9 1012 70 10000 4.6 270 00:36 15.01.2020
4319 Rain 9 1012 70 10000 4.6 270 00:18 15.01.2020
4320 Rain 9 1011 76 6000 4.6 260 23:45 14.01.2020
4321 Rain 9 1011 76 6000 4.6 260 23:24 14.01.2020
4322 Rain 8 1011 81 6000 4.1 260 22:41 14.01.2020
4323 Rain 8 1011 81 6000 4.1 260 22:20 14.01.2020
4324 Rain 12 1010 54 10000 6.2 270 21:59 14.01.2020
4325 Rain 12 1010 54 10000 6.2 270 21:41 14.01.2020
4326 Rain 12 1010 54 10000 6.2 270 21:23 14.01.2020
4327 Rain 12 1010 62 9000 6.2 270 21:00 14.01.2020
4328 Rain 12 1010 62 9000 6.2 270 20:41 14.01.2020
4329 Rain 12 1010 62 9000 6.2 270 20:21 14.01.2020
4330 Clouds 13 1009 54 10000 6.7 270 19:56 14.01.2020
4331 Clouds 13 1009 54 10000 6.7 270 19:38 14.01.2020
4332 Clouds 13 1009 54 10000 6.7 270 19:19 14.01.2020
4333 Clouds 13 1009 58 5000 7.2 280 18:56 14.01.2020
4334 Clouds 13 1009 58 5000 7.2 280 18:37 14.01.2020
4335 Clouds 13 1009 58 5000 7.2 280 18:19 14.01.2020
4336 Clouds 14 1009 54 10000 6.2 280 17:39 14.01.2020
4337 Clouds 14 1009 54 10000 6.2 280 17:19 14.01.2020
4338 Rain 12 1009 58 9000 5.7 260 16:55 14.01.2020
4339 Rain 12 1009 58 9000 5.7 260 16:37 14.01.2020
4340 Rain 12 1009 58 9000 5.7 260 16:19 14.01.2020
4341 Rain 13 1009 54 10000 7.2 270 15:43 14.01.2020
4342 Rain 13 1009 54 10000 7.2 270 15:19 14.01.2020
4343 Rain 12 1008 76 10000 5.1 270 14:57 14.01.2020
4344 Rain 12 1008 76 10000 5.1 270 14:39 14.01.2020
4345 Rain 12 1008 76 10000 5.1 270 14:18 14.01.2020
4346 Rain 12 1006 87 7000 3.1 270 13:42 14.01.2020
4347 Rain 12 1006 87 7000 3.1 270 13:20 14.01.2020
4348 Rain 13 1004 76 9000 2.6 250 12:43 14.01.2020
4349 Rain 13 1004 76 9000 2.6 250 12:25 14.01.2020
4350 Rain 12 1005 87 10000 1.5 90 11:59 14.01.2020
4351 Rain 12 1005 87 10000 1.5 90 11:40 14.01.2020
4352 Rain 12 1005 87 10000 1.5 90 11:40 14.01.2020
4353 Rain 12 1005 87 10000 1.5 90 11:22 14.01.2020
4354 Rain 12 1006 81 10000 1 0 10:56 14.01.2020
4355 Rain 12 1006 81 10000 1 0 10:37 14.01.2020
4356 Rain 12 1006 81 10000 1 0 10:19 14.01.2020
4357 Rain 15 1007 58 10000 2.6 260 09:43 14.01.2020
4358 Rain 15 1007 58 10000 2.6 260 09:43 14.01.2020
4359 Rain 15 1007 58 10000 2.6 260 09:24 14.01.2020
4360 Rain 15 1007 58 10000 1 0 08:59 14.01.2020
4361 Rain 15 1007 58 10000 1 0 08:40 14.01.2020
4362 Clear 15 1007 58 10000 1 0 08:21 14.01.2020
4363 Clear 15 1009 54 10000 3.1 240 07:51 14.01.2020
4364 Clear 15 1009 54 10000 3.1 240 07:18 14.01.2020
4365 Clear 15 1010 54 10000 1.5 250 06:42 14.01.2020
4366 Clear 15 1011 54 10000 1.5 270 05:57 14.01.2020
4367 Clear 16 1011 48 10000 3.6 250 04:49 14.01.2020
4368 Clear 16 1011 48 10000 4.6 260 03:45 14.01.2020
4369 Clear 17 1011 45 10000 5.1 260 02:32 14.01.2020
4370 Clear 19 1010 37 10000 4.1 270 01:19 14.01.2020
4371 Clear 22 1009 30 10000 6.2 280 00:47 14.01.2020
4372 Clear 22 1009 30 10000 6.2 280 00:21 14.01.2020
4373 Clear 22 1009 30 10000 6.2 280 00:21 14.01.2020
4374 Clear 23 1009 27 10000 6.2 290 23:42 13.01.2020
4375 Clear 23 1009 27 10000 6.2 290 23:18 13.01.2020
4376 Clear 24 1009 25 10000 6.2 280 22:55 13.01.2020
4377 Clear 24 1009 25 10000 6.2 280 22:37 13.01.2020
4378 Clear 24 1009 25 10000 6.2 280 22:19 13.01.2020
4379 Clear 24 1007 33 0 4.64 276 21:54 13.01.2020
4380 Clear 24 1007 33 0 4.64 276 21:36 13.01.2020
4381 Clear 24 1007 33 0 4.64 276 21:18 13.01.2020
4382 Clear 24 1007 33 0 4.64 276 20:42 13.01.2020
4383 Clear 23 1007 33 0 4.87 279 20:23 13.01.2020
4384 Clouds 26 1007 25 0 5.13 279 19:59 13.01.2020
4385 Clouds 26 1007 25 0 5.13 279 19:41 13.01.2020
4386 Clouds 26 1007 25 0 5.13 279 19:20 13.01.2020
4387 Clouds 26 1007 25 0 5.13 279 18:58 13.01.2020
4388 Clouds 26 1007 25 0 5.13 279 18:38 13.01.2020
4389 Clouds 26 1007 25 0 5.13 279 18:19 13.01.2020
4390 Clouds 26 1007 25 0 5.13 279 17:55 13.01.2020
4391 Clouds 26 1007 25 0 5.13 279 17:36 13.01.2020
4392 Clouds 23 1009 44 0 0.97 197 17:18 13.01.2020
4393 Clouds 23 1009 44 0 0.97 197 16:40 13.01.2020
4394 Clouds 23 1009 44 0 0.97 197 16:40 13.01.2020
4395 Clouds 23 1009 44 0 0.97 197 16:21 13.01.2020
4396 Clouds 23 1009 44 0 0.97 197 15:55 13.01.2020
4397 Clouds 23 1009 44 0 0.97 197 15:36 13.01.2020
4398 Clouds 23 1009 44 0 0.97 197 15:18 13.01.2020
4399 Clouds 23 1009 44 0 0.97 197 14:42 13.01.2020
4400 Clouds 23 1009 44 0 0.97 197 14:23 13.01.2020
4401 Clouds 17 1011 58 0 0.64 251 13:56 13.01.2020
4402 Clouds 17 1011 58 0 0.64 251 13:38 13.01.2020
4403 Clouds 17 1011 59 0 0.41 269 13:20 13.01.2020
4404 Clouds 17 1011 59 0 0.41 269 13:20 13.01.2020
4405 Clouds 17 1011 59 0 0.41 269 12:43 13.01.2020
4406 Clouds 17 1011 59 0 0.41 269 12:23 13.01.2020
4407 Clouds 17 1011 59 0 0.41 269 11:59 13.01.2020
4408 Clouds 17 1011 59 0 0.41 269 11:38 13.01.2020
4409 Clouds 11 1011 79 0 1.16 304 11:19 13.01.2020
4410 Clouds 11 1011 79 0 1.16 304 10:56 13.01.2020
4411 Clouds 11 1011 79 0 1.16 304 10:38 13.01.2020
4412 Clouds 11 1011 79 0 1.16 304 10:19 13.01.2020
4413 Clouds 11 1011 79 0 1.16 304 09:44 13.01.2020
4414 Clouds 11 1011 79 0 1.16 304 09:26 13.01.2020
4415 Clouds 11 1011 79 0 1.16 304 08:59 13.01.2020
4416 Clouds 11 1011 79 0 1.16 304 08:37 13.01.2020
4417 Clear 12 1011 81 0 1.62 283 08:18 13.01.2020
4418 Clear 12 1011 81 0 1.62 283 07:44 13.01.2020
4419 Clear 12 1011 81 0 1.62 283 07:26 13.01.2020
4420 Clear 12 1011 81 0 1.62 283 06:37 13.01.2020
4421 Clear 12 1011 81 0 1.62 283 05:42 13.01.2020
4422 Clear 14 1011 79 0 1.72 285 05:18 13.01.2020
4423 Clear 14 1011 79 0 1.72 285 03:41 13.01.2020
4424 Clear 14 1011 79 0 1.72 285 02:50 13.01.2020
4425 Clear 14 1011 79 0 1.72 285 02:30 13.01.2020
4426 Clouds 19 1010 59 0 1.28 226 01:33 13.01.2020
4427 Clouds 19 1010 59 0 1.28 226 00:44 13.01.2020
4428 Clouds 19 1010 59 0 1.28 226 00:26 13.01.2020
4429 Clouds 19 1010 59 0 1.28 226 23:57 12.01.2020
4430 Clouds 19 1010 59 0 1.28 226 23:57 12.01.2020
4431 Clouds 19 1010 59 0 1.28 226 23:39 12.01.2020
4432 Clouds 26 1010 35 0 2.14 181 23:21 12.01.2020
4433 Clouds 26 1010 35 0 2.14 181 22:43 12.01.2020
4434 Clouds 26 1010 35 0 2.14 181 22:43 12.01.2020
4435 Clouds 26 1010 35 0 2.14 181 22:25 12.01.2020
4436 Clouds 26 1010 35 0 2.14 181 21:59 12.01.2020
4437 Clouds 26 1010 35 0 2.14 181 21:59 12.01.2020
4438 Clouds 26 1010 35 0 2.14 181 21:40 12.01.2020
4439 Clouds 26 1010 35 0 2.14 181 21:20 12.01.2020
4440 Clouds 26 1010 35 0 2.14 181 20:57 12.01.2020
4441 Clouds 26 1010 35 0 2.14 181 20:39 12.01.2020
4442 Clouds 24 1012 44 0 1.82 171 20:20 12.01.2020
4443 Clouds 24 1012 44 0 1.82 171 19:56 12.01.2020
4444 Clouds 24 1012 44 0 1.82 171 19:38 12.01.2020
4445 Clouds 24 1012 44 0 1.82 171 19:19 12.01.2020
4446 Clouds 24 1012 44 0 1.82 171 18:58 12.01.2020
4447 Clouds 24 1012 44 0 1.82 171 18:58 12.01.2020
4448 Clouds 24 1012 44 0 1.82 171 18:39 12.01.2020
4449 Clouds 24 1012 44 0 1.82 171 18:21 12.01.2020
4450 Clouds 24 1012 44 0 1.82 171 17:57 12.01.2020
4451 Clouds 24 1012 44 0 1.82 171 17:38 12.01.2020
4452 Clear 19 1014 55 0 1.37 153 17:19 12.01.2020
4453 Clear 19 1014 55 0 1.37 153 16:55 12.01.2020
4454 Clear 19 1014 55 0 1.37 153 16:55 12.01.2020
4455 Clear 19 1014 55 0 1.37 153 16:37 12.01.2020
4456 Clear 17 1018 63 10000 3.1 110 16:18 12.01.2020
4457 Clear 17 1018 63 10000 3.1 110 15:42 12.01.2020
4458 Clear 17 1018 63 10000 3.1 110 15:24 12.01.2020
4459 Clear 17 1018 63 10000 3.1 110 15:24 12.01.2020
4460 Clear 14 1019 71 10000 0.5 0 14:56 12.01.2020
4461 Clear 14 1019 71 10000 0.5 0 14:37 12.01.2020
4462 Clear 14 1019 71 10000 0.5 0 14:18 12.01.2020
4463 Clear 11 1019 87 10000 1 0 13:42 12.01.2020
4464 Clear 11 1019 87 10000 1 0 13:23 12.01.2020
4465 Clear 9 1019 93 10000 1 0 12:58 12.01.2020
4466 Clear 9 1019 93 10000 1 0 12:38 12.01.2020
4467 Clear 9 1019 93 10000 1 0 12:19 12.01.2020
4468 Clear 8 1019 93 10000 1 280 11:55 12.01.2020
4469 Clear 8 1019 93 10000 1 280 11:36 12.01.2020
4470 Clear 8 1019 93 10000 1 280 11:18 12.01.2020
4471 Clear 8 1019 93 10000 0.5 270 10:41 12.01.2020
4472 Clear 8 1019 93 10000 0.5 270 10:21 12.01.2020
4473 Clear 8 1019 93 10000 0.87 285 09:55 12.01.2020
4474 Clear 8 1019 93 10000 0.87 285 09:37 12.01.2020
4475 Clear 8 1019 93 10000 0.87 285 09:18 12.01.2020
4476 Clear 9 1019 93 10000 0.87 285 08:42 12.01.2020
4477 Clouds 9 1019 93 10000 1.28 285 08:19 12.01.2020
4478 Clouds 10 1019 87 10000 0.5 240 07:39 12.01.2020
4479 Clouds 10 1019 87 10000 0.5 240 07:21 12.01.2020
4480 Clouds 11 1019 87 10000 1 300 06:42 12.01.2020
4481 Clouds 11 1019 87 10000 1 300 06:18 12.01.2020
4482 Clear 12 1019 81 10000 1.5 290 05:21 12.01.2020
4483 Clear 14 1019 71 10000 1 260 03:45 12.01.2020
4484 Clear 15 1018 67 10000 1.5 270 02:59 12.01.2020
4485 Clear 15 1018 67 10000 1.5 270 02:30 12.01.2020
4486 Clear 18 1018 52 10000 0.5 0 01:40 12.01.2020
4487 Clear 18 1018 52 10000 0.5 0 01:21 12.01.2020
4488 Clouds 20 1017 45 10000 2.1 0 00:40 12.01.2020
4489 Clouds 20 1017 45 10000 2.1 0 00:18 12.01.2020
4490 Clouds 21 1017 40 10000 1.5 0 23:41 11.01.2020
4491 Clouds 21 1017 40 10000 1.5 0 23:19 11.01.2020
4492 Clouds 21 1016 43 10000 2.1 0 22:57 11.01.2020
4493 Clouds 21 1016 43 10000 2.1 0 22:38 11.01.2020
4494 Clouds 21 1016 43 10000 2.1 0 22:20 11.01.2020
4495 Clouds 21 1017 40 10000 2.1 0 21:54 11.01.2020
4496 Clouds 21 1017 40 10000 2.1 0 21:36 11.01.2020
4497 Clouds 21 1017 40 10000 2.1 0 21:18 11.01.2020
4498 Clouds 21 1017 43 10000 2.1 0 20:39 11.01.2020
4499 Clouds 21 1017 43 10000 2.1 0 20:20 11.01.2020
4500 Clouds 20 1017 49 10000 2.6 300 19:57 11.01.2020
4501 Clouds 20 1017 49 10000 2.6 300 19:38 11.01.2020
4502 Clouds 20 1017 49 10000 2.6 300 19:38 11.01.2020
4503 Clouds 20 1017 49 10000 2.6 300 19:38 11.01.2020
4504 Clouds 20 1017 49 10000 2.6 300 19:38 11.01.2020
4505 Clouds 20 1017 49 10000 2.6 300 19:20 11.01.2020
4506 Clouds 19 1018 48 10000 1.5 0 18:55 11.01.2020
4507 Clouds 19 1018 48 10000 1.5 0 18:37 11.01.2020
4508 Clouds 19 1018 48 10000 1.5 0 18:18 11.01.2020
4509 Clouds 17 1018 55 10000 1.5 340 17:57 11.01.2020
4510 Clouds 17 1018 55 10000 1.5 340 17:57 11.01.2020
4511 Clouds 17 1018 55 10000 1.5 340 17:38 11.01.2020
4512 Clouds 17 1018 55 10000 1.5 340 17:18 11.01.2020
4513 Clouds 16 1018 55 10000 1.5 0 16:43 11.01.2020
4514 Clouds 16 1018 55 10000 1.5 0 16:24 11.01.2020
4515 Clouds 13 1019 71 10000 1.5 0 15:56 11.01.2020
4516 Clouds 13 1019 71 10000 1.5 0 15:37 11.01.2020
4517 Clouds 13 1019 71 10000 1.5 0 15:19 11.01.2020
4518 Clouds 13 1019 66 10000 0.5 0 14:44 11.01.2020
4519 Clouds 13 1019 66 10000 0.5 0 14:24 11.01.2020
4520 Clouds 12 1019 71 10000 1 290 13:56 11.01.2020
4521 Clouds 12 1019 71 10000 1 290 13:37 11.01.2020
4522 Clouds 12 1019 71 10000 1 290 13:19 11.01.2020
4523 Clouds 11 1018 76 10000 1 0 12:44 11.01.2020
4524 Clouds 11 1018 76 10000 1 0 12:26 11.01.2020
4525 Clouds 11 1017 76 10000 1 0 11:55 11.01.2020
4526 Clouds 11 1017 76 10000 1 0 11:37 11.01.2020
4527 Clouds 11 1017 76 10000 1 0 11:18 11.01.2020
4528 Clouds 11 1017 76 10000 1 0 11:18 11.01.2020
4529 Clouds 11 1017 76 10000 1.5 280 10:43 11.01.2020
4530 Clouds 11 1017 76 10000 1.5 280 10:24 11.01.2020
4531 Clouds 11 1017 76 10000 2.1 290 09:40 11.01.2020
4532 Clouds 11 1017 76 10000 2.1 290 09:21 11.01.2020
4533 Clouds 12 1016 66 10000 2.1 0 08:43 11.01.2020
4534 Clouds 12 1016 66 10000 2.1 0 08:43 11.01.2020
4535 Clouds 12 1016 66 10000 2.1 0 08:23 11.01.2020
4536 Clouds 13 1016 62 10000 3.1 250 07:45 11.01.2020
4537 Clouds 13 1016 62 10000 3.1 250 07:26 11.01.2020
4538 Clouds 13 1016 62 10000 3.1 250 07:26 11.01.2020
4539 Clouds 13 1017 58 10000 4.1 250 06:56 11.01.2020
4540 Clouds 13 1017 58 10000 4.1 250 06:22 11.01.2020
4541 Clouds 13 1017 58 10000 3.1 230 04:48 11.01.2020
4542 Clouds 13 1017 58 10000 3.1 230 04:30 11.01.2020
4543 Clouds 13 1017 58 10000 3.1 250 03:49 11.01.2020
4544 Clouds 13 1017 58 10000 3.6 260 02:41 11.01.2020
4545 Clouds 13 1017 58 10000 3.6 250 01:44 11.01.2020
4546 Clouds 13 1017 58 10000 3.6 250 01:20 11.01.2020
4547 Clouds 14 1017 54 10000 4.1 260 00:44 11.01.2020
4548 Clouds 14 1017 54 10000 4.1 260 00:20 11.01.2020
4549 Clouds 14 1017 54 10000 4.6 260 23:41 10.01.2020
4550 Clouds 14 1017 54 10000 4.6 260 23:41 10.01.2020
4551 -273 0 0 0 0 0 23:22 10.01.2020
4552 Clouds 14 1017 54 10000 6.7 260 22:59 10.01.2020
4553 Clouds 14 1017 54 10000 6.7 260 22:40 10.01.2020
4554 Clouds 14 1017 54 10000 6.7 260 22:21 10.01.2020
4555 Clouds 16 1017 48 10000 6.7 270 21:57 10.01.2020
4556 Clouds 16 1017 48 10000 6.7 270 21:37 10.01.2020
4557 Clouds 16 1017 48 10000 6.7 270 21:19 10.01.2020
4558 Clouds 15 1017 51 10000 6.7 280 20:43 10.01.2020
4559 Clouds 15 1017 51 10000 6.7 280 20:24 10.01.2020
4560 Clouds 15 1017 51 10000 6.7 280 20:24 10.01.2020
4561 Clouds 14 1017 50 10000 5.7 270 19:59 10.01.2020
4562 Clouds 14 1017 50 10000 5.7 270 19:38 10.01.2020
4563 Clouds 14 1017 50 10000 5.7 270 19:19 10.01.2020
4564 Clouds 15 1017 47 10000 6.2 270 18:43 10.01.2020
4565 Clouds 15 1017 47 10000 6.2 270 18:19 10.01.2020
4566 Clouds 15 1018 47 10000 5.7 260 17:57 10.01.2020
4567 Clouds 15 1018 47 10000 5.7 260 17:57 10.01.2020
4568 Clouds 15 1018 47 10000 5.7 260 17:39 10.01.2020
4569 Clouds 15 1018 47 10000 5.7 260 17:20 10.01.2020
4570 Clouds 12 1018 54 10000 3.1 250 16:57 10.01.2020
4571 Clouds 12 1018 54 10000 3.1 250 16:38 10.01.2020
4572 Clouds 12 1018 54 10000 3.1 250 16:19 10.01.2020
4573 Clouds 11 1018 57 10000 3.1 250 15:56 10.01.2020
4574 Clouds 11 1018 57 10000 3.1 250 15:36 10.01.2020
4575 Clouds 11 1018 57 10000 3.1 250 15:18 10.01.2020
4576 Clouds 10 1019 61 10000 3.1 260 14:54 10.01.2020
4577 Clouds 10 1019 61 10000 3.1 260 14:36 10.01.2020
4578 Clouds 10 1019 61 10000 3.1 260 14:18 10.01.2020
4579 Clouds 9 1019 61 10000 2.6 290 13:42 10.01.2020
4580 Clouds 9 1019 61 10000 2.6 290 13:23 10.01.2020
4581 Clouds 7 1019 70 10000 1 0 12:58 10.01.2020
4582 Clouds 7 1019 70 10000 1 0 12:39 10.01.2020
4583 Clouds 7 1019 70 10000 1 0 12:39 10.01.2020
4584 Clouds 7 1019 70 10000 1 0 12:19 10.01.2020
4585 Clouds 7 1018 65 10000 2.6 260 11:55 10.01.2020
4586 Clouds 7 1018 65 10000 2.6 260 11:37 10.01.2020
4587 Clouds 7 1018 65 10000 2.6 260 11:18 10.01.2020
4588 Clouds 7 1018 65 10000 2.6 260 11:18 10.01.2020
4589 Clouds 7 1018 65 10000 2.6 250 10:43 10.01.2020
4590 Clouds 7 1018 65 10000 2.6 250 10:24 10.01.2020
4591 Clouds 7 1018 65 10000 1.5 250 09:59 10.01.2020
4592 Clouds 7 1018 65 10000 1.5 250 09:40 10.01.2020
4593 Clouds 7 1018 65 10000 1.5 250 09:22 10.01.2020
4594 Clouds 8 1017 65 10000 4.1 230 08:43 10.01.2020
4595 Clouds 8 1017 65 10000 4.1 230 08:23 10.01.2020
4596 Clouds 8 1017 65 10000 4.1 230 08:23 10.01.2020
4597 Clouds 8 1017 65 10000 2.6 260 07:46 10.01.2020
4598 Clouds 8 1017 65 10000 2.6 260 07:26 10.01.2020
4599 Clouds 8 1017 65 10000 2.6 260 06:46 10.01.2020
4600 Clouds 8 1017 65 10000 2.6 260 06:26 10.01.2020
4601 Clouds 9 1017 61 10000 3.1 240 05:51 10.01.2020
4602 Clouds 9 1015 66 10000 2.1 250 03:45 10.01.2020
4603 Clouds 9 1015 66 10000 2.1 250 03:22 10.01.2020
4604 Clouds 9 1014 70 10000 4.6 280 02:49 10.01.2020
4605 Rain 9 1014 70 10000 3.1 260 01:44 10.01.2020
4606 Rain 9 1014 70 10000 3.1 260 01:26 10.01.2020
4607 Rain 9 1013 70 10000 3.6 270 00:40 10.01.2020
4608 Rain 10 1013 66 10000 4.1 270 23:58 09.01.2020
4609 Rain 10 1013 66 10000 4.1 270 23:38 09.01.2020
4610 Rain 10 1013 66 10000 4.1 270 23:20 09.01.2020
4611 Rain 10 1013 61 10000 5.7 270 22:57 09.01.2020
4612 Rain 10 1013 61 10000 5.7 270 22:39 09.01.2020
4613 Rain 10 1013 61 10000 5.7 270 22:19 09.01.2020
4614 Rain 11 1013 53 9000 6.2 270 21:57 09.01.2020
4615 Rain 11 1013 53 9000 6.2 270 21:37 09.01.2020
4616 Rain 11 1013 53 9000 6.2 270 21:37 09.01.2020
4617 Rain 11 1013 53 9000 6.2 270 21:37 09.01.2020
4618 Rain 11 1013 53 9000 6.2 270 21:37 09.01.2020
4619 Rain 11 1013 53 9000 6.2 270 21:19 09.01.2020
4620 Rain 12 1012 82 10000 6.2 270 20:56 09.01.2020
4621 Rain 12 1012 82 10000 6.2 270 20:38 09.01.2020
4622 Rain 12 1012 80 10000 6.2 270 20:19 09.01.2020
4623 Clouds 12 1012 46 10000 6.7 280 19:56 09.01.2020
4624 Clouds 12 1012 46 10000 6.7 280 19:37 09.01.2020
4625 Clouds 12 1012 46 10000 6.7 280 19:18 09.01.2020
4626 Rain 11 1012 53 9000 6.7 270 18:54 09.01.2020
4627 Rain 11 1012 53 9000 6.7 270 18:54 09.01.2020
4628 Rain 11 1012 53 9000 6.7 270 18:36 09.01.2020
4629 Rain 11 1012 53 9000 6.7 270 18:18 09.01.2020
4630 Rain 9 1011 61 9000 5.7 260 17:41 09.01.2020
4631 Rain 9 1011 61 9000 5.7 260 17:18 09.01.2020
4632 Rain 10 1011 61 10000 6.2 280 16:47 09.01.2020
4633 Rain 10 1011 61 10000 6.2 280 16:22 09.01.2020
4634 Rain 9 1010 66 10000 3.6 250 15:44 09.01.2020
4635 Rain 9 1010 66 10000 3.6 250 15:25 09.01.2020
4636 Rain 7 1010 81 9000 4.1 320 14:59 09.01.2020
4637 Rain 7 1010 81 9000 4.1 320 14:41 09.01.2020
4638 Rain 7 1010 81 9000 4.1 320 14:19 09.01.2020
4639 Rain 6 1009 87 10000 2.1 300 13:57 09.01.2020
4640 Rain 6 1009 87 10000 2.1 300 13:38 09.01.2020
4641 Rain 6 1009 87 10000 2.1 300 13:19 09.01.2020
4642 Rain 5 1008 86 10000 1.5 0 12:57 09.01.2020
4643 Rain 5 1008 86 10000 1.5 0 12:38 09.01.2020
4644 Rain 5 1008 86 10000 1.5 0 12:18 09.01.2020
4645 Rain 5 1006 93 10000 3.1 300 11:43 09.01.2020
4646 Rain 5 1006 93 10000 3.1 300 11:25 09.01.2020
4647 Rain 5 1006 93 10000 3.1 300 11:25 09.01.2020
4648 Rain 5 1005 86 10000 3.1 300 10:59 09.01.2020
4649 Rain 5 1005 86 10000 3.1 300 10:41 09.01.2020
4650 Rain 5 1005 86 10000 3.1 300 10:21 09.01.2020
4651 Rain 5 1004 86 10000 3.6 300 09:47 09.01.2020
4652 Rain 5 1004 86 10000 3.6 300 09:25 09.01.2020
4653 Rain 5 1004 86 7000 4.1 240 08:59 09.01.2020
4654 Rain 5 1004 86 7000 4.1 240 08:39 09.01.2020
4655 Rain 5 1004 86 7000 4.1 240 08:21 09.01.2020
4656 Rain 6 1003 81 8000 4.1 240 07:48 09.01.2020
4657 Rain 6 1003 81 8000 4.1 240 07:30 09.01.2020
4658 Rain 6 1004 81 7000 5.1 250 06:40 09.01.2020
4659 Rain 6 1004 81 7000 5.1 250 06:22 09.01.2020
4660 Rain 5 1004 86 6000 4.6 240 05:51 09.01.2020
4661 Rain 5 1004 86 6000 4.6 240 05:20 09.01.2020
4662 Rain 5 1004 86 8000 4.1 260 04:39 09.01.2020
4663 Rain 5 1004 86 8000 3.1 240 03:27 09.01.2020
4664 Rain 4 1004 86 7000 2.6 260 02:46 09.01.2020
4665 Rain 5 1003 86 5000 3.6 0 01:42 09.01.2020
4666 Rain 6 1002 75 10000 4.6 260 00:59 09.01.2020
4667 Rain 6 1002 75 10000 4.6 260 00:37 09.01.2020
4668 Rain 6 1002 75 10000 4.6 260 00:19 09.01.2020
4669 Rain 6 1002 81 7000 3.6 230 23:39 08.01.2020
4670 Rain 6 1002 81 7000 3.6 230 23:20 08.01.2020
4671 Rain 6 1002 81 9000 4.6 270 22:41 08.01.2020
4672 Rain 6 1002 81 9000 4.6 270 22:23 08.01.2020
4673 Rain 8 1002 65 4000 5.7 260 21:59 08.01.2020
4674 Rain 8 1002 65 4000 5.7 260 21:40 08.01.2020
4675 Rain 8 1002 65 4000 5.7 260 21:40 08.01.2020
4676 Rain 8 1002 65 4000 5.7 260 21:22 08.01.2020
4677 Rain 9 1001 66 10000 5.1 260 20:59 08.01.2020
4678 Rain 9 1001 66 10000 5.1 260 20:41 08.01.2020
4679 Rain 9 1001 66 10000 5.1 260 20:21 08.01.2020
4680 Rain 7 1001 70 0 5.7 270 19:58 08.01.2020
4681 Rain 7 1001 70 0 5.7 270 19:38 08.01.2020
4682 Rain 7 1001 70 0 5.7 270 19:19 08.01.2020
4683 Rain 7 1001 70 4000 5.7 280 18:58 08.01.2020
4684 Rain 7 1001 70 4000 5.7 280 18:39 08.01.2020
4685 Rain 7 1001 70 4000 5.7 280 18:19 08.01.2020
4686 Rain 7 1000 87 6000 3.1 250 17:56 08.01.2020
4687 Rain 7 1000 87 6000 3.1 250 17:38 08.01.2020
4688 Rain 7 1000 87 6000 3.1 250 17:19 08.01.2020
4689 Rain 7 1000 87 4000 1.5 250 16:55 08.01.2020
4690 Rain 7 1000 87 4000 1.5 250 16:37 08.01.2020
4691 Rain 7 1000 87 4000 1.5 250 16:18 08.01.2020
4692 Rain 8 1000 81 8000 6.8 303 15:44 08.01.2020
4693 Rain 8 1000 81 8000 6.8 303 15:21 08.01.2020
4694 Rain 6 1001 87 6000 1.5 0 14:58 08.01.2020
4695 Rain 6 1001 87 6000 1.5 0 14:39 08.01.2020
4696 Rain 6 1001 87 6000 1.5 0 14:20 08.01.2020
4697 Rain 8 1000 81 9000 1.5 0 13:40 08.01.2020
4698 Rain 8 1000 81 9000 1.5 0 13:19 08.01.2020
4699 Rain 7 1000 87 9000 2.1 250 12:43 08.01.2020
4700 Rain 7 1000 87 9000 2.1 250 12:20 08.01.2020
4701 Rain 6 1000 93 9000 2.1 260 11:59 08.01.2020
4702 Rain 6 1000 93 9000 2.1 260 11:40 08.01.2020
4703 Rain 6 1000 93 9000 2.1 260 11:19 08.01.2020
4704 Rain 6 999 93 10000 2.04 320 10:56 08.01.2020
4705 Rain 6 999 93 10000 2.04 320 10:37 08.01.2020
4706 Rain 6 999 93 10000 2.04 320 10:19 08.01.2020
4707 Rain 6 999 93 8000 1 0 09:42 08.01.2020
4708 Rain 6 999 93 8000 1 0 09:19 08.01.2020
4709 Rain 7 1000 87 10000 1.5 280 08:57 08.01.2020
4710 Rain 7 1000 87 10000 1.5 280 08:37 08.01.2020
4711 Rain 7 1000 87 10000 1.5 280 08:19 08.01.2020
4712 Rain 7 1000 87 8000 2.1 240 07:49 08.01.2020
4713 Rain 7 1000 87 8000 2.1 240 07:29 08.01.2020
4714 Rain 8 1001 81 8000 3.1 250 06:45 08.01.2020
4715 Rain 8 1001 81 8000 3.1 250 06:22 08.01.2020
4716 Rain 8 1001 87 10000 2.1 280 05:41 08.01.2020
4717 Rain 8 1001 87 10000 2.6 230 04:56 08.01.2020
4718 Rain 8 1001 87 10000 2.6 230 04:24 08.01.2020
4719 Rain 9 999 81 10000 1.5 250 02:45 08.01.2020
4720 Rain 9 999 81 10000 1.5 250 02:22 08.01.2020
4721 Rain 10 1000 81 8000 4.1 250 01:46 08.01.2020
4722 Rain 10 1000 81 8000 4.1 250 01:19 08.01.2020
4723 Rain 9 999 93 9000 1.5 240 00:27 08.01.2020
4724 Rain 10 999 87 7000 2.6 240 23:55 07.01.2020
4725 Rain 10 999 87 7000 2.6 240 23:37 07.01.2020
4726 Rain 10 999 87 7000 2.6 240 23:19 07.01.2020
4727 Rain 10 999 87 7000 3.1 250 22:40 07.01.2020
4728 Rain 10 999 87 7000 3.1 250 22:20 07.01.2020
4729 Rain 11 998 81 4000 3.6 240 21:55 07.01.2020
4730 Rain 11 998 81 4000 3.6 240 21:37 07.01.2020
4731 Rain 11 998 81 4000 3.6 240 21:19 07.01.2020
4732 Rain 14 998 62 10000 3.1 230 20:55 07.01.2020
4733 Rain 14 998 62 10000 3.1 230 20:36 07.01.2020
4734 Rain 14 998 62 10000 3.1 230 20:18 07.01.2020
4735 Rain 12 999 81 10000 2.6 240 19:38 07.01.2020
4736 Rain 12 999 81 10000 2.6 240 19:19 07.01.2020
4737 Rain 17 999 51 10000 5.1 260 18:58 07.01.2020
4738 Rain 17 999 51 10000 5.1 260 18:39 07.01.2020
4739 Rain 17 999 51 10000 5.1 260 18:18 07.01.2020
4740 Rain 17 999 51 10000 5.1 260 18:18 07.01.2020
4741 Rain 14 1001 67 9000 3.6 240 17:58 07.01.2020
4742 Rain 14 1001 67 9000 3.6 240 17:38 07.01.2020
4743 Rain 14 1001 67 9000 3.6 240 17:20 07.01.2020
4744 Rain 16 1001 51 10000 6.2 250 16:55 07.01.2020
4745 Rain 16 1001 51 10000 6.2 250 16:37 07.01.2020
4746 Rain 16 1001 51 10000 6.2 250 16:18 07.01.2020
4747 Clouds 16 1001 44 10000 7.2 260 15:43 07.01.2020
4748 Clouds 16 1001 44 10000 7.2 260 15:24 07.01.2020
4749 Clouds 16 1001 44 10000 7.2 260 15:24 07.01.2020
4750 Clouds 15 1003 47 10000 5.1 250 14:59 07.01.2020
4751 Clouds 15 1003 47 10000 5.1 250 14:40 07.01.2020
4752 Clouds 15 1003 47 10000 5.1 250 14:22 07.01.2020
4753 Clouds 13 1004 58 10000 4.1 220 13:46 07.01.2020
4754 Clouds 13 1004 58 10000 4.1 220 13:21 07.01.2020
4755 Rain 12 1005 62 10000 2.1 0 12:56 07.01.2020
4756 Rain 12 1005 62 10000 2.1 0 12:38 07.01.2020
4757 Rain 12 1005 62 10000 2.1 0 12:19 07.01.2020
4758 Rain 12 1006 62 10000 3.6 0 11:42 07.01.2020
4759 Rain 12 1006 62 10000 3.6 0 11:23 07.01.2020
4760 Rain 13 1006 54 10000 4.1 250 10:57 07.01.2020
4761 Rain 13 1006 54 10000 4.1 250 10:39 07.01.2020
4762 Rain 13 1006 54 10000 4.1 250 10:39 07.01.2020
4763 Rain 13 1006 54 10000 4.1 250 10:39 07.01.2020
4764 Rain 13 1006 54 10000 4.1 250 10:39 07.01.2020
4765 Rain 13 1006 54 10000 4.1 250 10:39 07.01.2020
4766 Rain 13 1006 54 10000 4.1 250 10:21 07.01.2020
4767 Rain 13 1007 54 10000 4.1 250 09:39 07.01.2020
4768 Rain 13 1007 54 10000 4.1 250 09:21 07.01.2020
4769 Rain 13 1008 62 10000 1.5 260 08:59 07.01.2020
4770 Rain 13 1008 62 10000 1.5 260 08:41 07.01.2020
4771 Rain 13 1008 62 10000 1.5 260 08:18 07.01.2020
4772 Rain 13 1008 62 10000 3.1 240 07:47 07.01.2020
4773 Rain 13 1008 62 10000 3.1 240 07:20 07.01.2020
4774 Rain 13 1009 62 10000 4.1 240 06:49 07.01.2020
4775 Rain 13 1009 62 10000 4.1 240 06:29 07.01.2020
4776 Rain 12 1010 71 10000 2.6 240 05:41 07.01.2020
4777 Rain 12 1011 71 10000 2.6 280 03:47 07.01.2020
4778 Rain 12 1011 71 10000 2.6 280 03:25 07.01.2020
4779 Rain 12 1011 71 10000 3.6 280 02:19 07.01.2020
4780 Clouds 13 1012 62 10000 4.1 260 01:40 07.01.2020
4781 Clouds 13 1011 58 10000 4.6 260 00:58 07.01.2020
4782 Clouds 13 1011 58 10000 4.6 260 00:21 07.01.2020
4783 Clouds 13 1011 58 10000 4.6 260 00:21 07.01.2020
4784 Clouds 13 1011 58 10000 4.6 260 00:21 07.01.2020
4785 Clouds 13 1012 58 10000 4.6 250 23:57 06.01.2020
4786 Clouds 13 1012 58 10000 4.6 250 23:37 06.01.2020
4787 Clouds 13 1012 58 10000 4.6 250 23:19 06.01.2020
4788 Clouds 14 1012 54 10000 4.6 250 22:44 06.01.2020
4789 Clouds 14 1012 54 10000 4.6 250 22:44 06.01.2020
4790 Clouds 14 1012 54 10000 4.6 250 22:25 06.01.2020
4791 Clouds 14 1012 54 10000 5.1 270 21:58 06.01.2020
4792 Clouds 14 1012 54 10000 5.1 270 21:39 06.01.2020
4793 Clouds 14 1012 54 10000 5.1 270 21:20 06.01.2020
4794 Clouds 14 1012 54 10000 5.1 270 21:20 06.01.2020
4795 Clouds 14 1012 54 10000 5.1 270 21:20 06.01.2020
4796 Rain 14 1013 50 10000 4.6 270 20:57 06.01.2020
4797 Rain 14 1013 50 10000 4.6 270 20:39 06.01.2020
4798 Rain 14 1013 50 10000 4.6 270 20:20 06.01.2020
4799 Rain 14 1013 50 10000 4.6 270 20:20 06.01.2020
4800 Clouds 14 1013 54 10000 5.1 270 19:57 06.01.2020
4801 Clouds 14 1013 54 10000 5.1 270 19:38 06.01.2020
4802 Clouds 14 1013 54 10000 5.1 270 19:20 06.01.2020
4803 Clouds 14 1013 50 10000 5.7 280 18:48 06.01.2020
4804 Clouds 14 1013 50 10000 5.7 280 18:23 06.01.2020
4805 Clouds 14 1014 50 10000 5.1 280 17:59 06.01.2020
4806 Clouds 14 1014 50 10000 5.1 280 17:38 06.01.2020
4807 Clouds 14 1014 50 10000 5.1 280 17:18 06.01.2020
4808 Clouds 14 1014 50 10000 5.1 280 17:18 06.01.2020
4809 Clouds 14 1014 50 10000 6.2 270 16:44 06.01.2020
4810 Clouds 14 1014 50 10000 6.2 270 16:25 06.01.2020
4811 Rain 12 1014 58 10000 4.6 270 15:59 06.01.2020
4812 Rain 12 1014 58 10000 4.6 270 15:39 06.01.2020
4813 Rain 12 1014 58 10000 4.6 270 15:18 06.01.2020
4814 Rain 11 1014 62 10000 3.6 260 14:56 06.01.2020
4815 Rain 11 1014 62 10000 3.6 260 14:37 06.01.2020
4816 Rain 11 1014 62 10000 3.6 260 14:18 06.01.2020
4817 Rain 10 1014 61 10000 4.1 250 13:41 06.01.2020
4818 Rain 10 1014 61 10000 4.1 250 13:22 06.01.2020
4819 Clouds 10 1014 61 10000 4.1 250 12:59 06.01.2020
4820 Clouds 10 1014 61 10000 4.1 250 12:41 06.01.2020
4821 Clouds 10 1014 61 10000 4.1 250 12:20 06.01.2020
4822 Clouds 10 1014 61 10000 4.1 250 12:20 06.01.2020
4823 Clouds 10 1014 61 10000 3.6 250 11:56 06.01.2020
4824 Clouds 10 1014 61 10000 3.6 250 11:37 06.01.2020
4825 Clear 10 1014 61 10000 3.6 250 11:19 06.01.2020
4826 Clear 10 1014 57 10000 4.6 260 10:42 06.01.2020
4827 Clear 10 1014 57 10000 4.6 260 10:42 06.01.2020
4828 Clear 10 1014 57 10000 4.6 260 10:21 06.01.2020
4829 Clear 10 1013 57 10000 5.1 270 09:42 06.01.2020
4830 Clear 10 1013 57 10000 5.1 270 09:24 06.01.2020
4831 Clear 10 1013 57 10000 5.1 270 09:24 06.01.2020
4832 Clear 10 1013 66 10000 5.1 270 08:58 06.01.2020
4833 Clear 10 1013 66 10000 5.1 270 08:58 06.01.2020
4834 Clear 10 1013 66 10000 5.1 270 08:39 06.01.2020
4835 Clouds 10 1013 66 10000 5.1 270 08:21 06.01.2020
4836 Clouds 10 1014 61 10000 4.1 250 07:45 06.01.2020
4837 Clouds 10 1014 61 10000 4.1 250 07:21 06.01.2020
4838 Clouds 11 1014 53 10000 4.6 270 06:38 06.01.2020
4839 Clouds 11 1013 57 10000 4.1 260 05:49 06.01.2020
4840 Clouds 11 1013 57 10000 4.1 260 05:28 06.01.2020
4841 Clouds 10 1013 66 10000 3.1 250 04:24 06.01.2020
4842 Clouds 10 1013 71 10000 3.1 260 03:51 06.01.2020
4843 Rain 10 1012 71 10000 3.6 250 02:29 06.01.2020
4844 Clouds 11 1012 62 10000 4.1 260 01:54 06.01.2020
4845 Clouds 11 1012 62 10000 4.1 260 01:31 06.01.2020
4846 Clouds 11 1011 62 10000 4.1 260 00:46 06.01.2020
4847 Clouds 11 1011 62 10000 4.1 260 00:28 06.01.2020
4848 Clouds 12 1010 58 10000 5.1 270 23:58 05.01.2020
4849 Clouds 12 1010 58 10000 5.1 270 23:39 05.01.2020
4850 Rain 12 1010 58 10000 5.1 270 23:21 05.01.2020
4851 Rain 12 1010 66 10000 4.6 270 22:40 05.01.2020
4852 Rain 12 1010 66 10000 4.6 270 22:21 05.01.2020
4853 Rain 12 1009 66 10000 5.1 270 21:58 05.01.2020
4854 Rain 12 1009 66 10000 5.1 270 21:40 05.01.2020
4855 Rain 12 1009 66 10000 5.1 270 21:20 05.01.2020
4856 Rain 13 1009 62 10000 4.1 260 20:56 05.01.2020
4857 Rain 13 1009 62 10000 4.1 260 20:38 05.01.2020
4858 Rain 13 1009 62 10000 4.1 260 20:19 05.01.2020
4859 Rain 15 1009 54 10000 7.2 280 19:58 05.01.2020
4860 Rain 15 1009 54 10000 7.2 280 19:38 05.01.2020
4861 Rain 15 1009 54 10000 7.2 280 19:20 05.01.2020
4862 Rain 13 1009 71 10000 2.6 260 18:55 05.01.2020
4863 Rain 13 1009 71 10000 2.6 260 18:37 05.01.2020
4864 Rain 13 1009 71 10000 2.6 260 18:37 05.01.2020
4865 Rain 13 1009 71 10000 2.6 260 18:19 05.01.2020
4866 Rain 12 1009 71 10000 3.6 250 17:57 05.01.2020
4867 Rain 12 1009 71 10000 3.6 250 17:38 05.01.2020
4868 Rain 12 1009 71 10000 3.6 250 17:38 05.01.2020
4869 Rain 12 1009 71 10000 3.6 250 17:19 05.01.2020
4870 Rain 12 1009 66 10000 4.1 250 16:56 05.01.2020
4871 Rain 12 1009 66 10000 4.1 250 16:37 05.01.2020
4872 Rain 12 1009 66 10000 4.1 250 16:19 05.01.2020
4873 Rain 12 1009 62 10000 3.6 260 15:37 05.01.2020
4874 Rain 12 1009 62 10000 3.6 260 15:19 05.01.2020
4875 Rain 12 1010 58 10000 3.6 250 14:55 05.01.2020
4876 Rain 12 1010 58 10000 3.6 250 14:37 05.01.2020
4877 Clouds 12 1010 58 10000 3.6 250 14:18 05.01.2020
4878 Clouds 11 1010 62 10000 2.6 250 13:54 05.01.2020
4879 Clouds 11 1010 62 10000 2.6 250 13:36 05.01.2020
4880 Clouds 11 1010 62 10000 2.6 250 13:18 05.01.2020
4881 Clouds 11 1011 57 10000 3.6 260 12:55 05.01.2020
4882 Clouds 11 1011 57 10000 3.6 260 12:36 05.01.2020
4883 Clouds 11 1011 57 10000 3.6 260 12:36 05.01.2020
4884 Clouds 11 1011 57 10000 3.6 260 12:18 05.01.2020
4885 Clouds 11 1011 53 10000 2.6 250 11:42 05.01.2020
4886 Clouds 11 1011 53 10000 2.6 250 11:41 05.01.2020
4887 Clouds 11 1011 53 10000 2.6 250 11:41 05.01.2020
4888 Clouds 11 1011 53 10000 2.6 250 11:41 05.01.2020
4889 Clouds 11 1011 53 10000 2.6 250 11:41 05.01.2020
4890 Clouds 11 1011 53 10000 2.6 250 11:19 05.01.2020
4891 Clouds 11 1011 53 10000 2.6 250 11:19 05.01.2020
4892 Clouds 11 1012 57 10000 2.6 250 10:56 05.01.2020
4893 Clouds 11 1012 57 10000 2.6 250 10:38 05.01.2020
4894 Clouds 11 1012 57 10000 2.6 250 10:38 05.01.2020
4895 Clouds 11 1012 57 10000 2.6 250 10:38 05.01.2020
4896 Clouds 11 1012 57 10000 2.6 250 10:38 05.01.2020
4897 Clouds 11 1012 57 10000 2.6 250 10:37 05.01.2020
4898 Clouds 11 1012 57 10000 2.6 250 10:18 05.01.2020
4899 Clouds 11 1012 57 10000 3.6 240 09:41 05.01.2020
4900 Clouds 11 1012 57 10000 3.6 240 09:21 05.01.2020
4901 Clouds 11 1012 57 10000 3.6 240 09:21 05.01.2020
4902 Clouds 12 1013 50 10000 3.6 250 08:48 05.01.2020
4903 Clouds 12 1013 50 10000 3.6 250 08:29 05.01.2020
4904 Clouds 12 1013 50 10000 2.6 260 07:55 05.01.2020
4905 Clouds 12 1013 50 10000 2.6 260 07:36 05.01.2020
4906 Clouds 12 1014 50 10000 3.1 260 06:59 05.01.2020
4907 Clouds 12 1015 54 10000 2.1 240 05:58 05.01.2020
4908 Clouds 12 1015 54 10000 2.1 240 05:30 05.01.2020
4909 Clouds 12 1016 54 10000 2.1 280 04:43 05.01.2020
4910 Clouds 13 1016 47 10000 2.6 240 03:52 05.01.2020
4911 Clouds 14 1017 44 10000 3.1 260 02:46 05.01.2020
4912 Clouds 14 1017 44 10000 3.1 260 02:22 05.01.2020
4913 Clear 14 1017 44 10000 3.1 270 01:46 05.01.2020
4914 Clear 14 1017 44 10000 3.1 270 01:18 05.01.2020
4915 Clear 16 1016 38 10000 4.1 270 00:41 05.01.2020
4916 Clear 16 1016 38 10000 4.1 270 00:22 05.01.2020
4917 Clear 17 1017 36 10000 5.1 280 23:59 04.01.2020
4918 Clear 17 1017 36 10000 5.1 280 23:39 04.01.2020
4919 Clear 17 1017 36 10000 5.1 280 23:19 04.01.2020
4920 Clear 18 1017 34 10000 5.1 290 22:39 04.01.2020
4921 Clear 18 1017 34 10000 5.1 290 22:21 04.01.2020
4922 Clear 18 1018 34 10000 6.2 280 21:57 04.01.2020
4923 Clear 18 1018 34 10000 6.2 280 21:38 04.01.2020
4924 Clear 18 1018 34 10000 6.2 280 21:19 04.01.2020
4925 Clear 19 1018 37 10000 5.7 280 20:57 04.01.2020
4926 Clear 19 1018 37 10000 5.7 280 20:38 04.01.2020
4927 Clear 19 1018 37 10000 5.7 280 20:19 04.01.2020
4928 Clear 19 1018 37 10000 5.1 280 19:42 04.01.2020
4929 Clear 19 1018 37 10000 5.1 280 19:24 04.01.2020
4930 Clear 19 1019 34 10000 5.7 280 18:58 04.01.2020
4931 Clear 19 1019 34 10000 5.7 280 18:39 04.01.2020
4932 Clear 19 1019 34 10000 5.7 280 18:20 04.01.2020
4933 Clear 18 1019 34 10000 3.1 0 17:58 04.01.2020
4934 Clear 18 1019 34 10000 3.1 0 17:40 04.01.2020
4935 Clear 18 1019 34 10000 3.1 0 17:21 04.01.2020
4936 Clear 17 1020 36 10000 1.5 0 16:42 04.01.2020
4937 Clear 17 1020 36 10000 1.5 0 16:24 04.01.2020
4938 Clear 15 1021 41 10000 2.6 290 15:57 04.01.2020
4939 Clear 15 1021 41 10000 2.6 290 15:39 04.01.2020
4940 Clear 15 1021 41 10000 2.6 290 15:19 04.01.2020
4941 Clear 14 1022 44 10000 2.1 260 14:56 04.01.2020
4942 -273 0 0 0 0 0 14:38 04.01.2020
4943 Clear 14 1022 44 10000 2.1 260 14:19 04.01.2020
4944 Clear 14 1022 44 10000 2.1 260 14:19 04.01.2020
4945 Clear 14 1022 44 10000 2.1 260 14:19 04.01.2020
4946 Clear 12 1023 50 10000 2.6 310 13:55 04.01.2020
4947 Clear 12 1023 50 10000 2.6 310 13:55 04.01.2020
4948 Clear 12 1023 50 10000 2.6 310 13:36 04.01.2020
4949 Clear 12 1023 50 10000 2.6 310 13:18 04.01.2020
4950 Clear 10 1023 61 10000 0.5 0 12:41 04.01.2020
4951 Clear 10 1023 61 10000 0.5 0 12:19 04.01.2020
4952 Clear 8 1022 65 10000 2.1 290 11:58 04.01.2020
4953 Clear 8 1022 65 10000 2.1 290 11:38 04.01.2020
4954 Clear 8 1022 65 10000 2.1 290 11:19 04.01.2020
4955 Clear 8 1022 65 10000 1.5 290 10:42 04.01.2020
4956 Clear 8 1022 65 10000 1.5 290 10:42 04.01.2020
4957 Clear 8 1022 65 10000 1.5 290 10:23 04.01.2020
4958 Clear 8 1022 65 10000 1.5 290 10:23 04.01.2020
4959 Clear 7 1022 70 10000 1.5 250 09:58 04.01.2020
4960 Clear 7 1022 70 10000 1.5 250 09:39 04.01.2020
4961 Clear 7 1022 70 10000 1.5 250 09:21 04.01.2020
4962 Clear 8 1021 65 10000 1 270 08:41 04.01.2020
4963 Clouds 8 1021 65 10000 1 270 08:21 04.01.2020
4964 Clouds 9 1022 61 10000 1.5 260 07:42 04.01.2020
4965 Clouds 9 1022 61 10000 1.5 260 07:20 04.01.2020
4966 Clouds 11 1022 57 10000 2.1 290 06:33 04.01.2020
4967 Clear 12 1022 58 10000 2.6 310 05:20 04.01.2020
4968 Clear 13 1021 50 10000 2.1 290 04:34 04.01.2020
4969 Clear 15 1021 44 10000 2.1 290 03:52 04.01.2020
4970 Clear 15 1021 44 10000 2.1 290 03:18 04.01.2020
4971 Rain 17 1020 33 10000 2.6 260 02:21 04.01.2020
4972 Rain 17 1020 33 10000 2.6 260 02:21 04.01.2020
4973 Rain 19 1019 48 10000 3.1 250 01:55 04.01.2020
4974 Rain 19 1019 48 10000 3.1 250 01:31 04.01.2020
4975 Rain 20 1018 52 10000 4.1 270 00:43 04.01.2020
4976 Rain 20 1018 52 10000 4.1 270 00:23 04.01.2020
4977 Rain 21 1017 52 10000 5.7 270 23:44 03.01.2020
4978 Rain 21 1017 52 10000 5.7 270 23:25 03.01.2020
4979 Clouds 23 1016 49 10000 5.7 260 22:41 03.01.2020
4980 Clouds 23 1016 49 10000 5.7 260 22:20 03.01.2020
4981 Clouds 23 1015 43 10000 5.7 260 21:58 03.01.2020
4982 Clouds 23 1015 43 10000 5.7 260 21:38 03.01.2020
4983 Clouds 23 1015 43 10000 5.7 260 21:19 03.01.2020
4984 Clouds 23 1015 43 10000 5.7 260 21:19 03.01.2020
4985 Clouds 25 1015 36 10000 6.7 260 20:58 03.01.2020
4986 Clouds 25 1015 36 10000 6.7 260 20:40 03.01.2020
4987 Clouds 25 1015 36 10000 6.7 260 20:18 03.01.2020
4988 Clear 25 1015 36 10000 6.7 270 19:55 03.01.2020
4989 Clear 25 1015 36 10000 6.7 270 19:55 03.01.2020
4990 Clear 25 1015 36 10000 6.7 270 19:37 03.01.2020
4991 Clear 25 1015 36 10000 6.7 270 19:18 03.01.2020
4992 Clouds 25 1016 38 10000 4.6 270 18:43 03.01.2020
4993 Clouds 25 1016 38 10000 4.6 270 18:24 03.01.2020
4994 Clouds 24 1016 44 10000 3.1 0 17:55 03.01.2020
4995 Clouds 24 1016 44 10000 3.1 0 17:37 03.01.2020
4996 Clouds 24 1016 44 10000 3.1 0 17:37 03.01.2020
4997 Clouds 24 1016 44 10000 3.1 0 17:18 03.01.2020
4998 Clear 24 1016 44 10000 2.1 280 16:42 03.01.2020
4999 Clear 24 1016 44 10000 2.1 280 16:22 03.01.2020
5000 Clear 22 1016 53 10000 2.1 0 15:44 03.01.2020
5001 Clear 22 1016 53 10000 2.1 0 15:19 03.01.2020
5002 Clear 19 1017 59 10000 1.5 280 14:59 03.01.2020
5003 Clear 19 1017 59 10000 1.5 280 14:38 03.01.2020
5004 Clear 19 1017 59 10000 1.5 280 14:19 03.01.2020
5005 Clear 16 1017 67 10000 1 0 13:43 03.01.2020
5006 Clear 16 1017 67 10000 1 0 13:24 03.01.2020
5007 Clear 13 1018 82 10000 1 0 12:58 03.01.2020
5008 Clear 13 1018 82 10000 1 0 12:38 03.01.2020
5009 Clear 13 1018 82 10000 1 0 12:20 03.01.2020
5010 Clear 12 1018 87 10000 0.5 0 11:44 03.01.2020
5011 Clear 12 1018 87 10000 0.5 0 11:20 03.01.2020
5012 Clear 11 1017 93 10000 1 260 10:44 03.01.2020
5013 Clear 11 1017 93 10000 1 260 10:25 03.01.2020
5014 Clear 12 1017 87 10000 1 0 09:57 03.01.2020
5015 Clear 12 1017 87 10000 1 0 09:39 03.01.2020
5016 Clear 12 1017 87 10000 1 0 09:21 03.01.2020
5017 Clear 12 1017 87 10000 1 0 09:21 03.01.2020
5018 Clear 13 1017 82 10000 1.5 270 08:56 03.01.2020
5019 Clear 13 1017 82 10000 1.5 270 08:36 03.01.2020
5020 Clear 13 1017 82 10000 1.5 270 08:18 03.01.2020
5021 Clear 15 1018 72 10000 1 0 07:39 03.01.2020
5022 Clear 15 1018 72 10000 1 0 07:18 03.01.2020
5023 Clear 16 1018 67 10000 0.5 0 06:43 03.01.2020
5024 Clear 16 1018 67 10000 0.5 0 06:24 03.01.2020
5025 Clear 17 1018 59 10000 1.5 220 05:28 03.01.2020
5026 Clear 18 1018 59 10000 1 0 03:55 03.01.2020
5027 Clear 22 1016 37 10000 1.5 250 02:55 03.01.2020
5028 Clear 24 1016 31 10000 2.1 250 01:57 03.01.2020
5029 Clear 24 1016 31 10000 2.1 250 01:38 03.01.2020
5030 Clear 26 1015 29 9000 2.6 270 00:46 03.01.2020
5031 Clear 26 1015 29 9000 2.6 270 00:26 03.01.2020
5032 Clear 27 1015 26 9000 4.6 270 23:55 02.01.2020
5033 Clear 27 1015 26 9000 4.6 270 23:37 02.01.2020
5034 Clear 27 1015 26 9000 4.6 270 23:18 02.01.2020
5035 Clear 28 1015 26 10000 4.6 280 22:42 02.01.2020
5036 Clear 28 1015 26 10000 4.6 280 22:20 02.01.2020
5037 Clear 28 1015 24 10000 5.1 280 21:57 02.01.2020
5038 Clear 28 1015 24 10000 5.1 280 21:57 02.01.2020
5039 Clear 28 1015 24 10000 5.1 280 21:38 02.01.2020
5040 Clear 28 1015 24 10000 5.1 280 21:20 02.01.2020
5041 Clear 29 1015 23 10000 3.6 270 20:56 02.01.2020
5042 Clear 29 1015 23 10000 3.6 270 20:38 02.01.2020
5043 Clear 29 1015 23 10000 3.6 270 20:20 02.01.2020
5044 Clear 28 1015 23 10000 2.1 0 19:54 02.01.2020
5045 Clear 28 1015 23 10000 2.1 0 19:36 02.01.2020
5046 Clear 28 1015 23 10000 2.1 0 19:18 02.01.2020
5047 Clear 28 1015 23 10000 2.1 0 19:18 02.01.2020
5048 Clear 27 1015 26 10000 2.1 0 18:43 02.01.2020
5049 Clear 27 1015 26 10000 2.1 0 18:25 02.01.2020
5050 Clear 25 1016 29 10000 3.1 290 17:59 02.01.2020
5051 Clear 25 1016 29 10000 3.1 290 17:39 02.01.2020
5052 Clear 25 1016 29 10000 3.1 290 17:21 02.01.2020
5053 Clear 22 1017 35 10000 2.1 290 16:59 02.01.2020
5054 Clear 22 1017 35 10000 2.1 290 16:41 02.01.2020
5055 Clear 22 1017 35 10000 2.1 290 16:20 02.01.2020
5056 Clear 20 1017 45 10000 1 0 15:58 02.01.2020
5057 Clear 20 1017 45 10000 1 0 15:58 02.01.2020
5058 Clear 20 1017 45 10000 1 0 15:40 02.01.2020
5059 Clear 20 1017 45 10000 1 0 15:21 02.01.2020
5060 Clear 17 1018 51 10000 1.5 200 14:57 02.01.2020
5061 Clear 17 1018 51 10000 1.5 200 14:36 02.01.2020
5062 Clear 17 1018 51 10000 1.5 200 14:36 02.01.2020
5063 Clear 17 1018 51 10000 1.5 200 14:18 02.01.2020
5064 Clear 15 1018 58 10000 1.5 230 13:49 02.01.2020
5065 Clear 15 1018 58 10000 1.5 230 13:31 02.01.2020
5066 Clear 13 1017 66 10000 1 0 12:46 02.01.2020
5067 Clear 13 1017 66 10000 1 0 12:26 02.01.2020
5068 Clear 10 1017 81 10000 1 0 11:58 02.01.2020
5069 Clear 10 1017 81 10000 1 0 11:40 02.01.2020
5070 Clear 10 1017 81 10000 1 0 11:19 02.01.2020
5071 Clear 11 1016 76 10000 1.5 270 10:43 02.01.2020
5072 Clear 11 1016 76 10000 1.5 270 10:25 02.01.2020
5073 Clear 12 1016 76 10000 1.5 270 09:46 02.01.2020
5074 Clear 12 1016 76 10000 1.5 270 09:28 02.01.2020
5075 Clear 14 1016 67 10000 1.5 290 08:45 02.01.2020
5076 Clear 14 1016 67 10000 1.5 290 08:27 02.01.2020
5077 Clear 14 1015 71 10000 1.5 290 07:51 02.01.2020
5078 Clear 14 1015 71 10000 1.5 290 07:30 02.01.2020
5079 Clear 15 1015 67 10000 1 0 06:45 02.01.2020
5080 Clear 15 1015 67 10000 1 0 06:26 02.01.2020
5081 Rain 17 1015 63 10000 1 0 05:21 02.01.2020
5082 Rain 19 1014 55 10000 1.5 280 04:31 02.01.2020
5083 Rain 24 1012 33 10000 2.6 280 02:37 02.01.2020
5084 Rain 27 1011 30 10000 2.6 260 01:58 02.01.2020
5085 Rain 27 1011 30 10000 2.6 260 01:33 02.01.2020
5086 Clouds 29 1010 26 10000 2.6 0 00:57 02.01.2020
5087 Clouds 29 1010 26 10000 2.6 0 00:33 02.01.2020
5088 Clouds 31 1009 23 10000 3.6 280 23:49 01.01.2020
5089 Clouds 31 1009 23 10000 3.6 280 23:27 01.01.2020
5090 Clear 32 1010 21 10000 2.1 270 22:56 01.01.2020
5091 Clear 32 1010 21 10000 2.1 270 22:38 01.01.2020
5092 Clear 32 1010 21 10000 2.1 270 22:19 01.01.2020
5093 Clear 32 1010 21 10000 1.5 0 21:55 01.01.2020
5094 Clear 32 1010 21 10000 1.5 0 21:37 01.01.2020
5095 Clear 32 1010 21 10000 1.5 0 21:18 01.01.2020
5096 Clear 30 1011 27 10000 2.1 330 20:42 01.01.2020
5097 Clear 30 1011 27 10000 2.1 330 20:22 01.01.2020
5098 Clear 29 1012 26 10000 1.5 0 19:58 01.01.2020
5099 Clear 29 1012 26 10000 1.5 0 19:39 01.01.2020
5100 Clear 29 1012 26 10000 1.5 0 19:21 01.01.2020
5101 Clear 26 1013 34 10000 1.5 300 18:59 01.01.2020
5102 Clear 26 1013 34 10000 1.5 300 18:39 01.01.2020
5103 Clear 26 1013 34 10000 1.5 300 18:20 01.01.2020
5104 Clear 24 1014 41 10000 1 0 17:59 01.01.2020
5105 Clear 24 1014 41 10000 1 0 17:40 01.01.2020
5106 Clouds 24 1014 41 10000 1 0 17:20 01.01.2020
5107 Clouds 22 1015 40 10000 1 0 16:59 01.01.2020
5108 Clouds 22 1015 40 10000 1 0 16:38 01.01.2020
5109 Clouds 22 1015 40 10000 1 0 16:20 01.01.2020
5110 Clouds 19 1016 52 10000 1 0 15:57 01.01.2020
5111 Clouds 19 1016 52 10000 1 0 15:57 01.01.2020
5112 Clouds 19 1016 52 10000 1 0 15:38 01.01.2020
5113 Clouds 19 1016 52 10000 1 0 15:20 01.01.2020
5114 Clouds 17 1016 59 10000 0.5 0 14:56 01.01.2020
5115 Clouds 17 1016 59 10000 0.5 0 14:37 01.01.2020
5116 Clear 17 1016 59 10000 0.5 0 14:19 01.01.2020
5117 Clear 14 1017 67 10000 0.5 0 13:55 01.01.2020
5118 Clear 14 1017 67 10000 0.5 0 13:36 01.01.2020
5119 Clouds 14 1017 67 10000 0.5 0 13:18 01.01.2020
5120 Clouds 10 1018 87 10000 0.77 164 12:40 01.01.2020
5121 Clouds 10 1018 87 10000 0.77 164 12:19 01.01.2020
5122 Clouds 7 1017 93 10000 0.77 164 11:57 01.01.2020
5123 Clouds 7 1017 93 10000 0.77 164 11:38 01.01.2020
5124 Clouds 7 1017 93 10000 0.58 284 11:19 01.01.2020
5125 Clouds 8 1017 87 10000 0.58 284 10:55 01.01.2020
5126 Clouds 8 1017 87 10000 0.58 284 10:36 01.01.2020
5127 Clouds 8 1017 87 10000 0.58 284 10:18 01.01.2020
5128 Clouds 8 1017 93 10000 0.58 284 09:40 01.01.2020
5129 Clouds 8 1017 93 10000 0.58 284 09:20 01.01.2020
5130 Clouds 10 1017 87 10000 1 0 08:57 01.01.2020
5131 Clouds 10 1017 87 10000 1 0 08:57 01.01.2020
5132 Clouds 10 1017 87 10000 1 0 08:38 01.01.2020
5133 Clouds 10 1017 87 10000 1 0 08:19 01.01.2020
5134 Clear 11 1017 81 9000 1 0 07:57 01.01.2020
5135 Clear 11 1017 81 9000 1 0 07:38 01.01.2020
5136 Clear 12 1018 76 9000 0.5 270 06:50 01.01.2020
5137 Clear 12 1018 76 9000 0.5 270 06:32 01.01.2020
5138 Clear 14 1018 62 10000 1.5 260 05:46 01.01.2020
5139 Clear 15 1017 58 9000 1.8 285 03:48 01.01.2020
5140 Clear 15 1017 58 9000 1.8 285 03:28 01.01.2020
5141 Clear 17 1017 51 8000 1.8 285 02:59 01.01.2020
5142 Clear 17 1017 51 8000 1.8 285 02:41 01.01.2020
5143 Clear 17 1017 51 8000 1.78 251 02:21 01.01.2020
5144 Clear 22 1016 33 9000 1 250 01:40 01.01.2020
5145 Clear 22 1016 33 9000 1 250 01:21 01.01.2020
5146 Clear 25 1016 22 10000 2.1 280 00:44 01.01.2020
5147 Clear 25 1016 22 10000 2.1 280 00:26 01.01.2020
5148 Clear 26 1016 21 10000 2.6 290 23:43 31.12.2019
5149 Clear 26 1016 21 10000 2.6 290 23:24 31.12.2019
5150 Clear 26 1016 22 10000 2.6 0 22:59 31.12.2019
5151 Clear 26 1016 22 10000 2.6 0 22:39 31.12.2019
5152 Clear 26 1016 22 10000 2.6 0 22:20 31.12.2019
5153 Clear 27 1016 21 10000 2.1 0 21:59 31.12.2019
5154 Clear 27 1016 21 10000 2.1 0 21:59 31.12.2019
5155 Clear 27 1016 21 10000 2.1 0 21:40 31.12.2019
5156 Clear 27 1016 21 10000 2.1 0 21:40 31.12.2019
5157 Clear 27 1016 21 10000 2.1 0 21:22 31.12.2019
5158 Clear 26 1017 22 10000 2.1 260 20:57 31.12.2019
5159 -273 0 0 0 0 0 20:37 31.12.2019
5160 Clear 26 1017 22 10000 2.1 260 20:19 31.12.2019
5161 Clear 25 1017 27 10000 1.5 0 19:55 31.12.2019
5162 Clear 25 1017 27 10000 1.5 0 19:36 31.12.2019
5163 Clear 25 1017 27 10000 1.5 0 19:18 31.12.2019
5164 Clear 23 1018 33 10000 2.1 320 18:54 31.12.2019
5165 Clear 23 1018 33 10000 2.1 320 18:36 31.12.2019
5166 Clear 23 1018 33 10000 2.1 320 18:18 31.12.2019
5167 Clear 23 1018 33 10000 2.1 320 18:18 31.12.2019
5168 Clear 22 1018 33 10000 1.5 300 17:54 31.12.2019
5169 Clear 22 1018 33 10000 1.5 300 17:36 31.12.2019
5170 Clear 22 1018 33 10000 1.5 300 17:18 31.12.2019
5171 Clear 19 1019 48 10000 1.5 0 16:54 31.12.2019
5172 Clear 19 1019 48 10000 1.5 0 16:36 31.12.2019
5173 Clear 19 1019 48 10000 1.5 0 16:18 31.12.2019
5174 Clear 19 1019 48 10000 1.5 0 16:18 31.12.2019
5175 Clear 17 1020 55 10000 0.5 0 15:54 31.12.2019
5176 Clear 17 1020 55 10000 0.5 0 15:36 31.12.2019
5177 Clear 17 1020 55 10000 0.5 0 15:36 31.12.2019
5178 Clear 17 1020 55 10000 0.5 0 15:18 31.12.2019
5179 Clear 15 1021 62 10000 1 0 14:54 31.12.2019
5180 Clear 15 1021 62 10000 1 0 14:36 31.12.2019
5181 Clear 15 1021 62 10000 1 0 14:18 31.12.2019
5182 Clear 13 1021 66 10000 0.72 157 13:54 31.12.2019
5183 Clear 13 1021 66 10000 0.72 157 13:36 31.12.2019
5184 Clear 13 1021 66 10000 0.83 142 13:18 31.12.2019
5185 Clear 10 1022 81 10000 0.5 0 12:40 31.12.2019
5186 Clear 10 1022 81 10000 0.5 0 12:20 31.12.2019
5187 Clear 8 1022 87 10000 1 0 11:57 31.12.2019
5188 Clear 8 1022 87 10000 1 0 11:38 31.12.2019
5189 Clear 8 1022 87 10000 1 0 11:38 31.12.2019
5190 Clear 8 1022 87 10000 1 0 11:20 31.12.2019
5191 Clear 9 1021 81 10000 1 0 10:58 31.12.2019
5192 Clear 9 1021 81 10000 1 0 10:38 31.12.2019
5193 Clear 9 1021 81 10000 1 0 10:20 31.12.2019
5194 Clear 9 1021 81 10000 1.5 270 09:59 31.12.2019
5195 Clear 9 1021 81 10000 1.5 270 09:39 31.12.2019
5196 Clear 9 1021 81 10000 1.5 270 09:20 31.12.2019
5197 Clear 10 1021 81 10000 1 260 08:57 31.12.2019
5198 Clear 10 1021 81 10000 1 260 08:39 31.12.2019
5199 Clear 10 1021 81 10000 1 260 08:19 31.12.2019
5200 Clear 11 1021 76 10000 1 0 07:43 31.12.2019
5201 Clear 11 1021 76 10000 1 0 07:20 31.12.2019
5202 Clear 12 1021 71 10000 2.1 300 06:50 31.12.2019
5203 Clear 12 1021 71 10000 1 0 05:57 31.12.2019
5204 Clear 12 1021 71 10000 1 0 04:28 31.12.2019
5205 Clear 14 1020 62 10000 0.5 0 03:28 31.12.2019
5206 Clear 18 1020 42 10000 1.5 240 02:54 31.12.2019
5207 Clear 18 1020 42 10000 1.5 240 02:54 31.12.2019
5208 Clear 18 1020 42 10000 1.5 240 02:54 31.12.2019
5209 Clear 20 1019 42 10000 3.1 270 01:58 31.12.2019
5210 Clear 20 1019 42 10000 3.1 270 01:40 31.12.2019
5211 Clouds 20 1019 42 10000 3.1 270 01:22 31.12.2019
5212 Clouds 21 1018 35 10000 3.6 320 00:45 31.12.2019
5213 Clouds 21 1018 35 10000 3.6 320 00:22 31.12.2019
5214 Clouds 22 1017 33 10000 3.6 300 23:56 30.12.2019
5215 Clouds 22 1017 33 10000 3.6 300 23:38 30.12.2019
5216 Clear 22 1017 33 10000 3.6 300 23:19 30.12.2019
5217 Clear 23 1017 33 10000 3.1 290 22:57 30.12.2019
5218 Clear 23 1017 33 10000 3.1 290 22:37 30.12.2019
5219 Clear 23 1017 33 10000 3.1 290 22:37 30.12.2019
5220 Clear 23 1017 33 10000 3.1 290 22:18 30.12.2019
5221 Clear 23 1017 31 10000 3.6 280 21:56 30.12.2019
5222 Clear 23 1017 31 10000 3.6 280 21:38 30.12.2019
5223 Clear 23 1017 31 10000 3.6 280 21:18 30.12.2019
5224 Clear 23 1017 33 10000 2.6 0 20:56 30.12.2019
5225 Clear 23 1017 33 10000 2.6 0 20:37 30.12.2019
5226 Clear 23 1017 33 10000 2.6 0 20:19 30.12.2019
5227 Clear 23 1017 33 10000 2.1 0 19:55 30.12.2019
5228 Clear 23 1017 33 10000 2.1 0 19:37 30.12.2019
5229 Clear 23 1017 33 10000 2.1 0 19:18 30.12.2019
5230 Clear 22 1018 33 10000 2.1 0 18:42 30.12.2019
5231 Clear 22 1018 33 10000 2.1 0 18:21 30.12.2019
5232 Clear 21 1018 37 10000 1 0 17:59 30.12.2019
5233 Clear 21 1018 37 10000 1 0 17:59 30.12.2019
5234 Clear 21 1018 37 10000 1 0 17:41 30.12.2019
5235 Clear 21 1018 37 10000 1 0 17:20 30.12.2019
5236 Clear 19 1018 42 10000 2.1 0 17:00 30.12.2019
5237 Clear 19 1018 42 10000 2.1 0 16:40 30.12.2019
5238 Clear 19 1018 42 10000 2.1 0 16:20 30.12.2019
5239 Clear 17 1019 48 10000 2.1 290 15:57 30.12.2019
5240 Clear 17 1019 48 10000 2.1 290 15:38 30.12.2019
5241 Clear 17 1019 48 10000 2.1 290 15:19 30.12.2019
5242 Clear 16 1019 51 10000 1 0 14:55 30.12.2019
5243 Clear 16 1019 51 10000 1 0 14:37 30.12.2019
5244 Clouds 16 1019 51 10000 1 0 14:18 30.12.2019
5245 Clouds 15 1019 58 10000 1.5 220 13:42 30.12.2019
5246 Clouds 15 1019 58 10000 1.5 220 13:23 30.12.2019
5247 Clouds 15 1019 58 10000 1.5 220 13:23 30.12.2019
5248 Clouds 12 1019 66 10000 1.5 230 12:58 30.12.2019
5249 Clouds 12 1019 66 10000 1.5 230 12:39 30.12.2019
5250 Clouds 12 1019 66 10000 1.5 230 12:19 30.12.2019
5251 Clouds 10 1019 76 10000 1 0 11:56 30.12.2019
5252 Clouds 10 1019 76 10000 1 0 11:37 30.12.2019
5253 Clouds 10 1019 76 10000 1 0 11:18 30.12.2019
5254 Clouds 11 1018 76 10000 0.5 0 10:42 30.12.2019
5255 Clouds 11 1018 76 10000 0.5 0 10:20 30.12.2019
5256 Clouds 11 1017 71 10000 1 270 09:44 30.12.2019
5257 Clouds 11 1017 71 10000 1 270 09:21 30.12.2019
5258 Clouds 12 1017 66 10000 1 280 08:57 30.12.2019
5259 Clouds 12 1017 66 10000 1 280 08:38 30.12.2019
5260 Clouds 12 1017 66 10000 1 280 08:19 30.12.2019
5261 Clouds 13 1017 62 10000 1.5 270 07:46 30.12.2019
5262 Clouds 13 1017 62 10000 1.5 270 07:23 30.12.2019
5263 Clouds 12 1016 66 10000 1 0 06:32 30.12.2019
5264 Clouds 16 1016 48 10000 1.5 290 04:31 30.12.2019
5265 Clouds 18 1015 36 10000 2.6 250 03:47 30.12.2019
5266 Clouds 20 1015 34 10000 3.1 250 02:45 30.12.2019
5267 Clouds 20 1015 34 10000 3.1 250 02:25 30.12.2019
5268 Clouds 23 1013 31 10000 4.6 270 01:27 30.12.2019
5269 Clouds 23 1013 31 10000 4.6 270 00:56 30.12.2019
5270 Clouds 23 1013 31 10000 4.6 270 00:36 30.12.2019
5271 Clouds 24 1012 29 10000 2.6 250 23:42 29.12.2019
5272 Clouds 24 1012 29 10000 2.6 250 23:24 29.12.2019
5273 Clouds 27 1011 24 10000 3.1 260 22:58 29.12.2019
5274 Clouds 27 1011 24 10000 3.1 260 22:38 29.12.2019
5275 Clouds 27 1011 24 10000 3.1 260 22:20 29.12.2019
5276 Clouds 27 1011 26 10000 2.6 0 21:55 29.12.2019
5277 Clouds 27 1011 26 10000 2.6 0 21:36 29.12.2019
5278 Clouds 27 1011 26 10000 2.6 0 21:18 29.12.2019
5279 Clouds 27 1011 26 10000 1.5 0 20:55 29.12.2019
5280 Clouds 27 1011 26 10000 1.5 0 20:36 29.12.2019
5281 Clouds 27 1011 26 10000 1.5 0 20:18 29.12.2019
5282 Clouds 25 1012 31 10000 1.5 0 19:40 29.12.2019
5283 Clouds 25 1012 31 10000 1.5 0 19:22 29.12.2019
5284 Clouds 23 1012 35 10000 2.6 300 18:59 29.12.2019
5285 Clouds 23 1012 35 10000 2.6 300 18:40 29.12.2019
5286 Clouds 23 1012 35 10000 2.6 300 18:20 29.12.2019
5287 Clouds 21 1013 43 10000 1.5 300 17:58 29.12.2019
5288 Clouds 21 1013 43 10000 1.5 300 17:58 29.12.2019
5289 Clouds 21 1013 43 10000 1.5 300 17:39 29.12.2019
5290 Clouds 21 1013 43 10000 1.5 300 17:20 29.12.2019
5291 Clouds 18 1014 48 10000 1 0 16:57 29.12.2019
5292 Clouds 18 1014 48 10000 1 0 16:38 29.12.2019
5293 Clouds 18 1014 48 10000 1 0 16:20 29.12.2019
5294 Clouds 17 1015 51 10000 1 0 15:58 29.12.2019
5295 Clouds 17 1015 51 10000 1 0 15:58 29.12.2019
5296 Clouds 17 1015 51 10000 1 0 15:39 29.12.2019
5297 Clouds 17 1015 51 10000 1 0 15:20 29.12.2019
5298 Clouds 14 1016 58 10000 1.33 171 14:58 29.12.2019
5299 Clouds 14 1016 58 10000 1.33 171 14:39 29.12.2019
5300 Clouds 14 1016 58 10000 0.98 190 14:18 29.12.2019
5301 Clouds 11 1016 76 10000 0.5 0 13:57 29.12.2019
5302 Clouds 11 1016 76 10000 0.5 0 13:38 29.12.2019
5303 Clouds 11 1016 76 10000 0.5 0 13:19 29.12.2019
5304 Clouds 8 1017 93 10000 0.82 186 12:45 29.12.2019
5305 Clouds 8 1017 93 10000 0.82 186 12:27 29.12.2019
5306 Clouds 6 1017 93 10000 0.82 186 11:57 29.12.2019
5307 Clouds 6 1017 93 10000 0.82 186 11:38 29.12.2019
5308 Clouds 6 1017 93 10000 1.07 284 11:20 29.12.2019
5309 Clouds 6 1016 93 10000 1.07 284 10:43 29.12.2019
5310 Clouds 6 1016 93 10000 1.07 284 10:24 29.12.2019
5311 Clouds 7 1016 87 10000 1 280 09:58 29.12.2019
5312 Clouds 7 1016 87 10000 1 280 09:39 29.12.2019
5313 Clouds 7 1016 87 10000 1 280 09:21 29.12.2019
5314 Clouds 8 1016 87 10000 1 0 08:47 29.12.2019
5315 Clouds 8 1016 87 10000 1 0 08:27 29.12.2019
5316 Clear 8 1017 87 10000 1 270 07:56 29.12.2019
5317 Clear 8 1017 87 10000 1 270 07:28 29.12.2019
5318 Clear 9 1017 81 10000 0.5 0 06:56 29.12.2019
5319 Clear 9 1017 81 10000 0.5 0 06:26 29.12.2019
5320 Clear 11 1017 71 10000 1 290 05:52 29.12.2019
5321 Clear 11 1017 71 10000 1 270 04:36 29.12.2019
5322 Clear 12 1017 71 10000 1 0 03:54 29.12.2019
5323 Clear 12 1017 71 10000 1 0 03:21 29.12.2019
5324 Clear 14 1017 58 10000 1 0 02:20 29.12.2019
5325 Clear 18 1016 39 10000 2.6 300 01:32 29.12.2019
5326 Clear 20 1016 32 10000 3.6 310 00:58 29.12.2019
5327 Clear 20 1016 32 10000 3.6 310 00:40 29.12.2019
5328 Clear 20 1016 32 10000 3.6 310 00:21 29.12.2019
5329 Clear 21 1015 30 10000 3.1 0 23:42 28.12.2019
5330 Clear 21 1015 30 10000 3.1 0 23:18 28.12.2019
5331 Clear 21 1015 30 10000 2.6 320 22:39 28.12.2019
5332 Clear 21 1015 30 10000 2.6 320 22:39 28.12.2019
5333 Clear 21 1015 30 10000 2.6 320 22:20 28.12.2019
5334 Clear 22 1015 28 10000 2.6 0 21:58 28.12.2019
5335 Clear 22 1015 28 10000 2.6 0 21:58 28.12.2019
5336 Clear 22 1015 28 10000 2.6 0 21:39 28.12.2019
5337 Clear 22 1015 28 10000 2.6 0 21:21 28.12.2019
5338 Clear 22 1015 28 10000 2.6 0 21:21 28.12.2019
5339 Clear 21 1016 28 10000 4.1 280 20:57 28.12.2019
5340 Clear 21 1016 28 10000 4.1 280 20:37 28.12.2019
5341 Clear 21 1016 28 10000 4.1 280 20:37 28.12.2019
5342 Clouds 21 1016 28 10000 4.1 280 20:19 28.12.2019
5343 Clouds 21 1016 28 10000 3.6 280 19:55 28.12.2019
5344 Clouds 21 1016 28 10000 3.6 280 19:37 28.12.2019
5345 Clouds 21 1016 28 10000 3.6 280 19:18 28.12.2019
5346 Clouds 19 1017 32 10000 1.5 0 18:56 28.12.2019
5347 Clouds 19 1017 32 10000 1.5 0 18:38 28.12.2019
5348 Clouds 19 1017 32 10000 1.5 0 18:18 28.12.2019
5349 Clouds 18 1017 34 10000 2.6 0 17:42 28.12.2019
5350 Clouds 18 1017 34 10000 2.6 0 17:42 28.12.2019
5351 Clouds 18 1017 34 10000 2.6 0 17:21 28.12.2019
5352 Clouds 17 1017 39 10000 1.5 0 16:58 28.12.2019
5353 Clouds 17 1017 39 10000 1.5 0 16:40 28.12.2019
5354 Clouds 17 1017 39 10000 1.5 0 16:21 28.12.2019
5355 Clouds 16 1018 41 10000 1.5 0 15:43 28.12.2019
5356 Clouds 16 1018 41 10000 1.5 0 15:23 28.12.2019
5357 Clouds 15 1018 41 10000 1 0 14:55 28.12.2019
5358 Clouds 15 1018 41 10000 1 0 14:37 28.12.2019
5359 Clouds 15 1018 41 10000 1 0 14:18 28.12.2019
5360 Clouds 13 1018 50 10000 1.5 310 13:42 28.12.2019
5361 Clouds 13 1018 50 10000 1.5 310 13:21 28.12.2019
5362 Clouds 10 1017 71 10000 1 0 12:58 28.12.2019
5363 Clouds 10 1017 71 10000 1 0 12:40 28.12.2019
5364 Clouds 10 1017 71 10000 1 0 12:21 28.12.2019
5365 Clouds 8 1017 75 10000 0.5 0 11:40 28.12.2019
5366 Clouds 8 1017 75 10000 0.5 0 11:40 28.12.2019
5367 Clouds 8 1017 75 10000 0.5 0 11:21 28.12.2019
5368 Clouds 9 1016 66 10000 2.1 260 10:56 28.12.2019
5369 Clouds 9 1016 66 10000 2.1 260 10:37 28.12.2019
5370 Clouds 9 1016 66 10000 2.1 260 10:18 28.12.2019
5371 Clouds 11 1016 57 10000 2.6 250 09:45 28.12.2019
5372 Clouds 11 1016 57 10000 2.6 250 09:24 28.12.2019
5373 Clouds 12 1015 54 10000 3.1 260 08:58 28.12.2019
5374 Clouds 12 1015 54 10000 3.1 260 08:39 28.12.2019
5375 Clouds 12 1015 54 10000 3.1 260 08:20 28.12.2019
5376 Clouds 12 1015 58 10000 3.1 260 07:43 28.12.2019
5377 Clouds 12 1015 62 10000 2.1 250 06:59 28.12.2019
5378 Clouds 13 1015 58 10000 3.1 250 05:43 28.12.2019
5379 Clear 12 1014 66 10000 1 0 03:48 28.12.2019
5380 Clear 14 1013 54 10000 3.1 250 02:50 28.12.2019
5381 Clouds 14 1013 54 10000 3.1 250 02:20 28.12.2019
5382 Clouds 14 1013 54 10000 4.6 260 01:53 28.12.2019
5383 Clouds 14 1013 54 10000 4.6 260 01:22 28.12.2019
5384 Clouds 15 1011 47 10000 4.6 250 00:44 28.12.2019
5385 Clouds 15 1011 47 10000 4.6 250 00:26 28.12.2019
5386 Clouds 16 1011 48 10000 5.7 250 23:56 27.12.2019
5387 Clouds 16 1011 48 10000 5.7 250 23:36 27.12.2019
5388 Rain 16 1011 48 10000 5.7 250 23:18 27.12.2019
5389 Rain 16 1010 55 10000 7.2 260 22:55 27.12.2019
5390 Rain 16 1010 55 10000 7.2 260 22:37 27.12.2019
5391 Rain 16 1010 55 10000 7.2 260 22:19 27.12.2019
5392 Rain 16 1009 63 10000 5.1 250 21:41 27.12.2019
5393 Rain 16 1009 63 10000 5.1 250 21:23 27.12.2019
5394 Rain 14 1008 82 4000 4.6 250 20:44 27.12.2019
5395 Rain 14 1008 82 4000 4.6 250 20:26 27.12.2019
5396 Rain 16 1006 77 8000 3.1 250 19:57 27.12.2019
5397 Rain 16 1006 77 8000 3.1 250 19:57 27.12.2019
5398 Rain 16 1006 77 8000 3.1 250 19:38 27.12.2019
5399 Rain 16 1006 77 8000 3.1 250 19:19 27.12.2019
5400 Rain 16 1006 77 4000 2.1 250 18:42 27.12.2019
5401 Rain 16 1006 77 4000 2.1 250 18:24 27.12.2019
5402 Rain 16 1006 82 5000 2.1 250 18:00 27.12.2019
5403 Rain 16 1006 82 5000 2.1 250 17:41 27.12.2019
5404 Rain 16 1006 82 5000 2.1 250 17:20 27.12.2019
5405 Rain 16 1006 82 9000 1 0 16:59 27.12.2019
5406 Rain 16 1006 82 9000 1 0 16:59 27.12.2019
5407 Rain 16 1006 82 9000 1 0 16:59 27.12.2019
5408 Rain 16 1006 82 9000 1 0 16:39 27.12.2019
5409 Rain 16 1006 82 9000 1 0 16:21 27.12.2019
5410 Rain 14 1006 87 4000 1 0 15:46 27.12.2019
5411 Rain 14 1006 87 4000 1 0 15:24 27.12.2019
5412 Rain 13 1006 81 0 3.31 312 14:59 27.12.2019
5413 Rain 13 1006 81 0 3.31 312 14:40 27.12.2019
5414 Rain 10 1008 86 0 3.11 335 14:22 27.12.2019
5415 Rain 12 1007 93 5000 0.5 0 13:58 27.12.2019
5416 Rain 12 1007 93 5000 0.5 0 13:40 27.12.2019
5417 Rain 12 1007 93 5000 0.5 0 13:21 27.12.2019
5418 Rain 12 1007 93 10000 2.73 334 12:44 27.12.2019
5419 Rain 12 1007 93 10000 2.73 334 12:26 27.12.2019
5420 Rain 12 1007 93 10000 2.73 334 12:26 27.12.2019
5421 Rain 11 1007 93 10000 0.5 0 11:55 27.12.2019
5422 Rain 11 1007 93 10000 0.5 0 11:37 27.12.2019
5423 Rain 11 1007 93 10000 0.5 0 11:18 27.12.2019
5424 Rain 12 1007 87 10000 2.86 339 10:41 27.12.2019
5425 Rain 12 1007 87 10000 2.86 339 10:23 27.12.2019
5426 Rain 12 1007 81 10000 2.86 339 09:49 27.12.2019
5427 Rain 12 1007 81 10000 2.86 339 09:22 27.12.2019
5428 Rain 12 1007 81 10000 2.86 339 09:22 27.12.2019
5429 Rain 12 1008 81 10000 2.86 339 08:59 27.12.2019
5430 Rain 12 1008 81 10000 2.86 339 08:38 27.12.2019
5431 Rain 12 1008 81 10000 1.5 340 07:57 27.12.2019
5432 Rain 12 1008 81 10000 1.5 340 07:38 27.12.2019
5433 Rain 12 1009 81 10000 3 336 06:39 27.12.2019
5434 Rain 12 1009 81 10000 3 336 06:18 27.12.2019
5435 Rain 13 1010 71 10000 1 0 04:32 27.12.2019
5436 Clouds 14 1010 62 10000 2.6 240 02:27 27.12.2019
5437 Clouds 14 1010 58 10000 3.1 270 01:42 27.12.2019
5438 Clouds 14 1010 58 10000 3.1 270 01:20 27.12.2019
5439 Clouds 15 1009 54 10000 3.1 250 00:46 27.12.2019
5440 Clouds 15 1009 54 10000 3.1 250 00:25 27.12.2019
5441 Clouds 15 1010 54 10000 5.7 250 23:42 26.12.2019
5442 Clouds 15 1010 54 10000 5.7 250 23:24 26.12.2019
5443 Clouds 15 1010 54 10000 4.6 260 22:58 26.12.2019
5444 Clouds 15 1010 54 10000 4.6 260 22:37 26.12.2019
5445 Clouds 15 1010 54 10000 4.6 260 22:18 26.12.2019
5446 Rain 15 1010 54 10000 4.1 250 21:39 26.12.2019
5447 Rain 15 1010 54 10000 4.1 250 21:21 26.12.2019
5448 Clouds 15 1010 54 10000 3.6 270 20:47 26.12.2019
5449 Clouds 15 1010 54 10000 3.6 270 20:24 26.12.2019
5450 Clouds 16 1011 48 10000 4.6 250 19:59 26.12.2019
5451 Clouds 16 1011 48 10000 4.6 250 19:40 26.12.2019
5452 Clouds 16 1011 48 10000 4.6 250 19:22 26.12.2019
5453 Clouds 15 1011 47 10000 4.1 260 18:59 26.12.2019
5454 Clouds 15 1011 47 10000 4.1 260 18:40 26.12.2019
5455 Clouds 15 1011 47 10000 4.1 260 18:20 26.12.2019
5456 Clouds 15 1011 51 10000 2.6 0 17:58 26.12.2019
5457 Clouds 15 1011 51 10000 2.6 0 17:40 26.12.2019
5458 Clouds 15 1011 51 10000 2.6 0 17:19 26.12.2019
5459 Clouds 14 1011 50 10000 3.1 260 16:46 26.12.2019
5460 Clouds 14 1011 50 10000 3.1 260 16:26 26.12.2019
5461 Clouds 14 1012 54 10000 3.6 250 15:56 26.12.2019
5462 Clouds 14 1012 54 10000 3.6 250 15:56 26.12.2019
5463 Clouds 14 1012 54 10000 3.6 250 15:38 26.12.2019
5464 Clouds 14 1012 54 10000 3.6 250 15:18 26.12.2019
5465 Clouds 13 1012 58 10000 3.1 250 14:41 26.12.2019
5466 Clouds 13 1012 58 10000 3.1 250 14:22 26.12.2019
5467 Clouds 7 1012 75 0 2.16 307 13:45 26.12.2019
5468 Clouds 10 1012 76 10000 1 0 13:23 26.12.2019
5469 Clouds 10 1012 76 10000 1 0 12:58 26.12.2019
5470 Clouds 10 1012 76 10000 1 0 12:58 26.12.2019
5471 Clouds 10 1012 76 10000 1 0 12:39 26.12.2019
5472 Clouds 10 1012 76 10000 1 0 12:21 26.12.2019
5473 Clouds 9 1012 81 10000 1 0 11:57 26.12.2019
5474 Clouds 9 1012 81 10000 1 0 11:39 26.12.2019
5475 Clouds 9 1012 81 10000 1 0 11:20 26.12.2019
5476 Clouds 9 1013 81 10000 2.07 306 10:49 26.12.2019
5477 Clouds 9 1013 81 10000 2.07 306 10:19 26.12.2019
5478 Clouds 9 1013 81 10000 2.07 306 10:19 26.12.2019
5479 Clouds 9 1013 81 10000 2.07 306 10:19 26.12.2019
5480 Clouds 9 1013 76 10000 0.5 0 09:50 26.12.2019
5481 Clouds 9 1013 76 10000 0.5 0 09:32 26.12.2019
5482 Clouds 11 1013 66 10000 2.1 270 08:55 26.12.2019
5483 Clouds 11 1013 66 10000 2.1 270 08:36 26.12.2019
5484 Clouds 11 1013 66 10000 2.1 270 08:18 26.12.2019
5485 Clouds 11 1014 66 10000 0.5 0 07:30 26.12.2019
5486 Clouds 11 1014 66 10000 0.5 0 07:30 26.12.2019
5487 Clouds 11 1014 66 10000 1.5 0 06:54 26.12.2019
5488 Clouds 11 1014 66 10000 1.5 0 06:32 26.12.2019
5489 Clouds 10 1014 76 10000 1 0 05:46 26.12.2019
5490 Clouds 12 1015 62 10000 2.6 260 04:59 26.12.2019
5491 Clouds 12 1015 62 10000 2.6 260 04:30 26.12.2019
5492 Clouds 12 1015 62 10000 3.1 280 02:58 26.12.2019
5493 Clouds 12 1015 62 10000 3.1 280 02:34 26.12.2019
5494 Clouds 13 1015 58 10000 4.1 260 01:51 26.12.2019
5495 Clouds 13 1015 58 10000 4.1 260 01:33 26.12.2019
5496 Clouds 14 1015 50 10000 4.1 260 00:50 26.12.2019
5497 Clouds 14 1015 50 10000 4.1 260 00:27 26.12.2019
5498 Clouds 15 1015 47 10000 5.7 260 23:58 25.12.2019
5499 Clouds 15 1015 47 10000 5.7 260 23:39 25.12.2019
5500 Clouds 15 1015 47 10000 5.7 260 23:21 25.12.2019
5501 Clouds 14 1016 50 10000 4.6 270 22:59 25.12.2019
5502 Clouds 14 1016 50 10000 4.6 270 22:39 25.12.2019
5503 Clouds 14 1016 50 10000 4.6 270 22:20 25.12.2019
5504 Clouds 15 1015 44 10000 6.2 270 21:58 25.12.2019
5505 Clouds 15 1015 44 10000 6.2 270 21:39 25.12.2019
5506 Clouds 15 1015 44 10000 6.2 270 21:20 25.12.2019
5507 Clouds 15 1015 47 10000 4.6 260 20:54 25.12.2019
5508 Clouds 15 1015 47 10000 4.6 260 20:36 25.12.2019
5509 Clouds 15 1015 47 10000 4.6 260 20:18 25.12.2019
5510 Clouds 15 1015 47 10000 4.6 260 20:18 25.12.2019
5511 Clouds 16 1016 44 10000 4.6 270 19:43 25.12.2019
5512 Clouds 16 1016 44 10000 4.6 270 19:23 25.12.2019
5513 Clouds 16 1016 44 10000 3.6 280 18:58 25.12.2019
5514 Clouds 16 1016 44 10000 3.6 280 18:36 25.12.2019
5515 Clouds 16 1016 44 10000 3.6 280 18:18 25.12.2019
5516 Clouds 15 1016 44 10000 3.6 260 17:40 25.12.2019
5517 Clouds 15 1016 44 10000 3.6 260 17:19 25.12.2019
5518 Clouds 14 1017 47 10000 4.6 260 16:57 25.12.2019
5519 Clouds 14 1017 47 10000 4.6 260 16:37 25.12.2019
5520 Clouds 14 1017 47 10000 4.6 260 16:18 25.12.2019
5521 Clouds 13 1017 50 10000 3.6 260 15:56 25.12.2019
5522 Clouds 13 1017 50 10000 3.6 260 15:37 25.12.2019
5523 Clouds 13 1017 50 10000 3.6 260 15:18 25.12.2019
5524 Clouds 11 1018 62 10000 2.1 260 14:56 25.12.2019
5525 Clouds 11 1018 62 10000 2.1 260 14:37 25.12.2019
5526 Clouds 11 1018 62 10000 2.1 260 14:18 25.12.2019
5527 Clouds 11 1018 62 10000 2.1 260 14:18 25.12.2019
5528 Clouds 8 1018 75 10000 2.75 294 13:42 25.12.2019
5529 Clouds 8 1018 75 10000 2.78 298 13:21 25.12.2019
5530 Clouds 7 1018 75 10000 1.5 300 12:44 25.12.2019
5531 Clouds 7 1018 75 10000 1.5 300 12:22 25.12.2019
5532 Clouds 5 1018 86 10000 2.78 298 11:58 25.12.2019
5533 Clouds 5 1018 86 10000 2.78 298 11:40 25.12.2019
5534 Clouds 5 1018 86 10000 2.53 306 11:21 25.12.2019
5535 Clouds 7 1018 70 10000 1 0 10:39 25.12.2019
5536 Clouds 7 1018 70 10000 1 0 10:21 25.12.2019
5537 Clouds 7 1018 70 10000 2.6 230 09:58 25.12.2019
5538 Clouds 7 1018 70 10000 2.6 230 09:40 25.12.2019
5539 Clouds 7 1018 70 10000 2.6 230 09:40 25.12.2019
5540 Clouds 7 1018 70 10000 2.6 230 09:21 25.12.2019
5541 Clouds 7 1018 70 10000 3.1 230 08:42 25.12.2019
5542 Clouds 7 1018 70 10000 3.1 230 08:23 25.12.2019
5543 Clouds 7 1018 70 10000 3.1 230 08:23 25.12.2019
5544 Clouds 7 1018 75 10000 3.6 240 07:42 25.12.2019
5545 Clouds 7 1018 75 10000 3.6 240 07:22 25.12.2019
5546 Rain 8 1018 70 10000 3.6 250 06:24 25.12.2019
5547 Clouds 8 1018 81 10000 3.1 270 05:49 25.12.2019
5548 Rain 8 1018 81 10000 2.1 250 04:42 25.12.2019
5549 Rain 8 1018 81 10000 2.1 250 04:24 25.12.2019
5550 Rain 9 1018 76 10000 2.1 270 03:43 25.12.2019
5551 Rain 8 1018 81 10000 2.6 280 02:58 25.12.2019
5552 Rain 8 1018 81 10000 2.6 280 02:29 25.12.2019
5553 Rain 9 1017 70 10000 2.1 250 01:42 25.12.2019
5554 Rain 9 1017 70 10000 2.1 250 01:18 25.12.2019
5555 Clear 11 1016 57 10000 3.6 260 00:41 25.12.2019
5556 Clear 11 1016 57 10000 3.6 260 00:22 25.12.2019
5557 Clear 11 1015 62 10000 4.6 270 23:39 24.12.2019
5558 Clouds 11 1015 62 10000 4.6 270 23:20 24.12.2019
5559 Clouds 11 1014 57 10000 5.7 280 22:42 24.12.2019
5560 Clouds 11 1014 57 10000 5.7 280 22:23 24.12.2019
5561 Rain 12 1014 58 10000 6.2 280 21:57 24.12.2019
5562 Rain 12 1014 58 10000 6.2 280 21:37 24.12.2019
5563 Rain 12 1014 58 10000 6.2 280 21:19 24.12.2019
5564 Rain 12 1013 58 10000 6.7 280 20:41 24.12.2019
5565 Rain 12 1013 58 10000 6.7 280 20:20 24.12.2019
5566 Clouds 13 1012 54 10000 6.2 270 19:46 24.12.2019
5567 Clouds 13 1012 54 10000 6.2 270 19:22 24.12.2019
5568 Rain 10 1012 76 9000 4.6 270 18:58 24.12.2019
5569 Rain 10 1012 76 9000 4.6 270 18:40 24.12.2019
5570 Rain 10 1012 76 9000 4.6 270 18:18 24.12.2019
5571 Rain 11 1011 66 9000 4.1 280 17:42 24.12.2019
5572 Rain 11 1011 66 9000 4.1 280 17:21 24.12.2019
5573 Rain 10 1010 71 9000 4.1 260 16:58 24.12.2019
5574 Rain 10 1010 71 9000 4.1 260 16:58 24.12.2019
5575 Rain 10 1010 71 9000 4.1 260 16:39 24.12.2019
5576 Rain 10 1010 71 9000 4.1 260 16:39 24.12.2019
5577 Rain 10 1010 71 9000 4.1 260 16:20 24.12.2019
5578 Rain 9 1010 76 9000 2.1 0 15:56 24.12.2019
5579 Rain 9 1010 76 9000 2.1 0 15:36 24.12.2019
5580 Rain 9 1010 76 9000 2.1 0 15:18 24.12.2019
5581 Rain 9 1010 70 9000 4.1 260 14:57 24.12.2019
5582 Rain 9 1010 70 9000 4.1 260 14:57 24.12.2019
5583 Rain 9 1010 70 9000 4.1 260 14:38 24.12.2019
5584 Rain 9 1010 70 9000 4.1 260 14:20 24.12.2019
5585 Clouds 8 1009 81 10000 2.1 0 13:55 24.12.2019
5586 Clouds 8 1009 81 10000 2.1 0 13:37 24.12.2019
5587 Clouds 8 1009 81 10000 2.1 0 13:19 24.12.2019
5588 Clouds 8 1009 81 10000 2.1 0 13:19 24.12.2019
5589 Rain 7 1009 93 10000 1 0 12:55 24.12.2019
5590 Rain 7 1009 93 10000 1 0 12:36 24.12.2019
5591 Rain 7 1009 93 10000 1 0 12:18 24.12.2019
5592 Rain 6 1008 93 10000 1 0 11:55 24.12.2019
5593 Rain 6 1008 93 10000 1 0 11:36 24.12.2019
5594 Rain 6 1008 93 10000 1 0 11:18 24.12.2019
5595 Rain 6 1007 93 10000 2.26 298 10:55 24.12.2019
5596 Rain 6 1007 93 10000 2.26 298 10:55 24.12.2019
5597 Rain 6 1007 93 10000 2.26 298 10:36 24.12.2019
5598 Rain 6 1007 93 10000 2.26 298 10:18 24.12.2019
5599 Rain 6 1007 93 10000 1 0 09:54 24.12.2019
5600 Rain 6 1007 93 10000 1 0 09:36 24.12.2019
5601 Rain 6 1007 93 10000 1 0 09:18 24.12.2019
5602 Rain 6 1007 93 10000 1 0 08:43 24.12.2019
5603 Rain 6 1007 93 10000 1 0 08:20 24.12.2019
5604 Rain 6 1007 93 10000 1.5 300 07:45 24.12.2019
5605 Rain 6 1007 93 10000 1.5 300 07:24 24.12.2019
5606 Rain 6 1008 93 10000 1 0 06:44 24.12.2019
5607 Rain 6 1008 93 10000 1 0 06:22 24.12.2019
5608 Rain 6 1009 93 10000 0.5 0 05:57 24.12.2019
5609 Rain 6 1009 93 10000 0.5 0 05:20 24.12.2019
5610 Rain 6 1010 93 10000 1 0 04:33 24.12.2019
5611 Mist 6 1010 93 8000 1.8 306 03:50 24.12.2019
5612 Rain 7 1010 87 10000 1.8 306 02:59 24.12.2019
5613 Rain 7 1010 87 10000 2.72 282 02:18 24.12.2019
5614 Rain 8 1010 87 10000 1 0 01:42 24.12.2019
5615 Rain 8 1010 87 10000 1 0 01:42 24.12.2019
5616 Rain 8 1010 87 10000 1 0 01:19 24.12.2019
5617 Rain 8 1011 87 10000 0.5 0 00:40 24.12.2019
5618 Rain 8 1011 87 10000 0.5 0 00:20 24.12.2019
5619 Rain 8 1010 87 10000 2.1 0 23:43 23.12.2019
5620 Rain 8 1010 87 10000 2.1 0 23:24 23.12.2019
5621 Rain 8 1010 87 10000 2.1 0 23:24 23.12.2019
5622 Rain 8 1010 81 10000 3.1 250 22:57 23.12.2019
5623 Rain 8 1010 81 10000 3.1 250 22:38 23.12.2019
5624 Rain 8 1010 81 10000 3.1 250 22:38 23.12.2019
5625 Rain 8 1010 81 10000 3.1 250 22:20 23.12.2019
5626 Rain 8 1010 81 7000 3.6 240 21:57 23.12.2019
5627 Rain 8 1010 81 7000 3.6 240 21:57 23.12.2019
5628 Rain 8 1010 81 7000 3.6 240 21:37 23.12.2019
5629 Rain 8 1010 81 7000 3.6 240 21:19 23.12.2019
5630 Rain 9 1010 76 7000 4.1 250 20:59 23.12.2019
5631 Rain 9 1010 76 7000 4.1 250 20:40 23.12.2019
5632 Rain 9 1010 76 7000 4.1 250 20:19 23.12.2019
5633 Rain 10 1010 71 7000 4.1 240 19:58 23.12.2019
5634 Rain 10 1010 71 7000 4.1 240 19:40 23.12.2019
5635 Rain 10 1010 71 7000 4.1 240 19:21 23.12.2019
5636 Rain 12 1010 58 9000 4.6 240 18:58 23.12.2019
5637 Rain 12 1010 58 9000 4.6 240 18:58 23.12.2019
5638 Rain 12 1010 58 9000 4.6 240 18:39 23.12.2019
5639 Rain 12 1010 58 9000 4.6 240 18:20 23.12.2019
5640 Rain 13 1010 50 8000 5.1 260 17:58 23.12.2019
5641 Rain 13 1010 50 8000 5.1 260 17:39 23.12.2019
5642 Rain 13 1010 50 8000 5.1 260 17:19 23.12.2019
5643 Rain 15 1010 41 10000 4.6 260 16:57 23.12.2019
5644 Rain 15 1010 41 10000 4.6 260 16:39 23.12.2019
5645 Rain 15 1010 41 10000 4.6 260 16:18 23.12.2019
5646 Clouds 15 1010 41 10000 5.7 270 15:56 23.12.2019
5647 Clouds 15 1010 41 10000 5.7 270 15:36 23.12.2019
5648 Clouds 15 1010 41 10000 5.7 270 15:18 23.12.2019
5649 Clouds 15 1011 44 10000 4.6 250 14:55 23.12.2019
5650 Clouds 15 1011 44 10000 4.6 250 14:36 23.12.2019
5651 Clouds 15 1011 44 10000 4.6 250 14:18 23.12.2019
5652 Clouds 14 1010 44 10000 3.6 230 13:41 23.12.2019
5653 Clouds 14 1010 44 10000 3.6 230 13:23 23.12.2019
5654 Clouds 13 1010 50 10000 4.1 250 12:59 23.12.2019
5655 Clouds 13 1010 50 10000 4.1 250 12:40 23.12.2019
5656 Clouds 13 1010 50 10000 4.1 250 12:21 23.12.2019
5657 Clouds 12 1011 54 10000 4.1 250 11:55 23.12.2019
5658 Clouds 12 1011 54 10000 4.1 250 11:37 23.12.2019
5659 Rain 12 1011 54 10000 4.1 250 11:18 23.12.2019
5660 Rain 12 1011 50 10000 4.1 260 10:54 23.12.2019
5661 Rain 12 1011 50 10000 4.1 260 10:36 23.12.2019
5662 Rain 12 1011 50 10000 4.1 260 10:18 23.12.2019
5663 Rain 12 1011 50 10000 4.6 250 09:40 23.12.2019
5664 Rain 12 1011 50 10000 4.6 250 09:22 23.12.2019
5665 Rain 13 1010 50 10000 4.6 250 08:59 23.12.2019
5666 Rain 13 1010 50 10000 4.6 250 08:40 23.12.2019
5667 Rain 13 1010 50 10000 4.6 250 08:22 23.12.2019
5668 Rain 13 1010 66 10000 5.7 240 07:48 23.12.2019
5669 Rain 13 1010 66 10000 5.7 240 07:21 23.12.2019
5670 Rain 14 1009 93 10000 2.1 0 06:57 23.12.2019
5671 Rain 14 1009 93 10000 2.1 0 06:27 23.12.2019
5672 Rain 13 1008 100 8000 0.5 0 05:56 23.12.2019
5673 Rain 13 1008 100 8000 0.5 0 05:29 23.12.2019
5674 Rain 13 1008 100 10000 0.5 0 04:34 23.12.2019
5675 Rain 14 1009 93 10000 1.5 70 03:26 23.12.2019
5676 Rain 14 1008 87 8000 1 0 02:42 23.12.2019
5677 Rain 14 1008 87 8000 1 0 02:19 23.12.2019
5678 Rain 15 1009 82 10000 1.5 0 01:42 23.12.2019
5679 Rain 15 1009 82 10000 1.5 0 01:23 23.12.2019
5680 Rain 16 1009 72 10000 4.1 260 00:43 23.12.2019
5681 Rain 16 1009 72 10000 4.1 260 00:23 23.12.2019
5682 Rain 18 1009 59 10000 5.7 250 23:40 22.12.2019
5683 Rain 18 1009 59 10000 5.7 250 23:21 22.12.2019
5684 Clouds 19 1009 52 10000 6.7 250 22:58 22.12.2019
5685 Clouds 19 1009 52 10000 6.7 250 22:58 22.12.2019
5686 Clouds 19 1009 52 10000 6.7 250 22:58 22.12.2019
5687 Clouds 19 1009 52 10000 6.7 250 22:40 22.12.2019
5688 Clouds 19 1009 52 10000 6.7 250 22:20 22.12.2019
5689 Clouds 19 1011 52 10000 6.7 240 21:57 22.12.2019
5690 Clouds 19 1011 52 10000 6.7 240 21:39 22.12.2019
5691 Clouds 19 1011 52 10000 6.7 240 21:21 22.12.2019
5692 Rain 19 1011 55 8000 6.2 250 20:58 22.12.2019
5693 Rain 19 1011 55 8000 6.2 250 20:38 22.12.2019
5694 Rain 19 1011 55 8000 6.2 250 20:18 22.12.2019
5695 Clouds 20 1011 49 10000 5.1 250 19:56 22.12.2019
5696 Clouds 20 1011 49 10000 5.1 250 19:37 22.12.2019
5697 Clouds 20 1011 49 10000 5.1 250 19:19 22.12.2019
5698 Clouds 20 1012 49 10000 5.7 250 18:40 22.12.2019
5699 Clouds 20 1012 49 10000 5.7 250 18:40 22.12.2019
5700 Clouds 20 1012 49 10000 5.7 250 18:22 22.12.2019
5701 Clouds 19 1012 48 10000 5.1 230 17:55 22.12.2019
5702 Clouds 19 1012 48 10000 5.1 230 17:37 22.12.2019
5703 Clouds 19 1012 48 10000 5.1 230 17:18 22.12.2019
5704 Clouds 21 1013 46 10000 4.6 240 16:56 22.12.2019
5705 Clouds 21 1013 46 10000 4.6 240 16:56 22.12.2019
5706 Clouds 21 1013 46 10000 4.6 240 16:37 22.12.2019
5707 Clouds 21 1013 46 10000 4.6 240 16:19 22.12.2019
5708 Clouds 19 1013 48 10000 1.5 0 15:56 22.12.2019
5709 Clouds 19 1013 48 10000 1.5 0 15:36 22.12.2019
5710 Clouds 19 1013 48 10000 1.5 0 15:36 22.12.2019
5711 Clouds 19 1013 48 10000 1.5 0 15:18 22.12.2019
5712 Clouds 17 1014 55 10000 1 0 14:54 22.12.2019
5713 Clouds 17 1014 55 10000 1 0 14:54 22.12.2019
5714 Clouds 17 1014 55 10000 1 0 14:36 22.12.2019
5715 Clouds 17 1014 55 10000 1 0 14:18 22.12.2019
5716 Clouds 17 1014 55 10000 1 0 14:18 22.12.2019
5717 Clouds 14 1016 62 10000 1.38 273 13:54 22.12.2019
5718 Clouds 14 1016 62 10000 1.38 273 13:36 22.12.2019
5719 Clouds 14 1016 62 10000 1.38 273 13:18 22.12.2019
5720 Clouds 11 1016 81 10000 1 0 12:54 22.12.2019
5721 Clouds 11 1016 81 10000 1 0 12:36 22.12.2019
5722 Clouds 11 1016 81 10000 1 0 12:18 22.12.2019
5723 Clouds 11 1016 76 10000 1 0 11:39 22.12.2019
5724 Clouds 11 1016 76 10000 1 0 11:20 22.12.2019
5725 Clouds 11 1016 76 10000 0.5 0 10:58 22.12.2019
5726 Clouds 11 1016 76 10000 0.5 0 10:40 22.12.2019
5727 Clouds 11 1016 76 10000 0.5 0 10:20 22.12.2019
5728 Clouds 11 1017 76 10000 0.5 0 09:58 22.12.2019
5729 Clouds 11 1017 76 10000 0.5 0 09:40 22.12.2019
5730 Clouds 11 1017 76 10000 0.5 0 09:21 22.12.2019
5731 Clouds 10 1017 81 10000 1.96 311 08:45 22.12.2019
5732 Clouds 10 1017 81 10000 1.93 316 08:23 22.12.2019
5733 Clouds 11 1017 71 10000 2.08 311 07:52 22.12.2019
5734 Clouds 11 1017 71 10000 2.08 311 07:22 22.12.2019
5735 Clouds 12 1018 66 10000 0.5 0 06:57 22.12.2019
5736 Clouds 12 1018 66 10000 0.5 0 06:30 22.12.2019
5737 Clouds 14 1018 54 10000 2.6 280 05:43 22.12.2019
5738 Clouds 14 1018 54 10000 2.6 280 05:21 22.12.2019
5739 Clouds 15 1018 47 10000 2.1 220 04:27 22.12.2019
5740 Clouds 16 1018 48 10000 3.1 250 03:24 22.12.2019
5741 Clouds 16 1017 44 10000 3.6 250 02:34 22.12.2019
5742 Clouds 17 1017 39 10000 4.6 270 01:33 22.12.2019
5743 Clouds 19 1016 34 10000 5.7 270 00:58 22.12.2019
5744 Clouds 19 1016 34 10000 5.7 270 00:39 22.12.2019
5745 Clouds 19 1016 34 10000 5.7 270 00:20 22.12.2019
5746 Clouds 19 1016 34 10000 5.7 270 23:42 21.12.2019
5747 Clouds 19 1016 34 10000 5.7 270 23:24 21.12.2019
5748 Clouds 20 1016 34 10000 6.2 280 22:57 21.12.2019
5749 Clouds 20 1016 34 10000 6.2 280 22:39 21.12.2019
5750 Clouds 20 1016 34 10000 6.2 280 22:18 21.12.2019
5751 Clouds 21 1015 32 10000 6.2 270 21:56 21.12.2019
5752 Clouds 21 1015 32 10000 6.2 270 21:36 21.12.2019
5753 Clouds 21 1015 32 10000 6.2 270 21:18 21.12.2019
5754 Clouds 21 1015 32 10000 6.2 280 20:57 21.12.2019
5755 Clouds 21 1015 32 10000 6.2 280 20:37 21.12.2019
5756 Clouds 21 1015 32 10000 6.2 280 20:19 21.12.2019
5757 Clouds 21 1015 30 10000 5.7 280 19:55 21.12.2019
5758 Clouds 21 1015 30 10000 5.7 280 19:36 21.12.2019
5759 Clouds 21 1015 30 10000 5.7 280 19:18 21.12.2019
5760 Clouds 20 1016 32 10000 4.6 270 18:41 21.12.2019
5761 Clouds 20 1016 32 10000 4.6 270 18:23 21.12.2019
5762 Clouds 20 1016 32 10000 4.6 270 18:23 21.12.2019
5763 Clouds 19 1016 37 10000 2.1 0 17:56 21.12.2019
5764 Clouds 19 1016 37 10000 2.1 0 17:38 21.12.2019
5765 Clouds 19 1016 37 10000 2.1 0 17:19 21.12.2019
5766 Clouds 17 1017 42 10000 1 0 16:55 21.12.2019
5767 Clouds 17 1017 42 10000 1 0 16:36 21.12.2019
5768 Clouds 17 1017 42 10000 1 0 16:18 21.12.2019
5769 Clouds 15 1018 47 10000 2.1 290 15:55 21.12.2019
5770 Clouds 15 1018 47 10000 2.1 290 15:36 21.12.2019
5771 Clouds 15 1018 47 10000 2.1 290 15:18 21.12.2019
5772 Clouds 13 1019 58 10000 1.5 290 14:40 21.12.2019
5773 Clouds 13 1019 58 10000 1.5 290 14:22 21.12.2019
5774 Clouds 13 1019 58 10000 1.5 290 14:22 21.12.2019
5775 Clouds 10 1019 71 10000 0.5 0 13:57 21.12.2019
5776 Clouds 10 1019 71 10000 0.5 0 13:39 21.12.2019
5777 Clouds 10 1019 71 10000 0.5 0 13:19 21.12.2019
5778 Clouds 8 1020 81 10000 1 0 12:56 21.12.2019
5779 Clouds 8 1020 81 10000 1 0 12:37 21.12.2019
5780 Clouds 8 1020 81 10000 1 0 12:19 21.12.2019
5781 Clouds 6 1020 87 10000 1 0 11:45 21.12.2019
5782 Clouds 6 1020 87 10000 1 0 11:26 21.12.2019
5783 Clouds 6 1019 87 10000 0.5 0 10:57 21.12.2019
5784 Clouds 6 1019 87 10000 0.5 0 10:39 21.12.2019
5785 Clouds 6 1019 87 10000 0.5 0 10:21 21.12.2019
5786 Clouds 6 1019 87 10000 1 300 09:56 21.12.2019
5787 Clouds 6 1019 87 10000 1 300 09:56 21.12.2019
5788 Clouds 6 1019 87 10000 1 300 09:38 21.12.2019
5789 Clouds 6 1019 87 10000 1 300 09:19 21.12.2019
5790 Clouds 6 1019 87 10000 2.19 301 08:46 21.12.2019
5791 Clouds 6 1019 87 10000 2.19 301 08:26 21.12.2019
5792 Clouds 8 1020 75 10000 1.5 260 07:47 21.12.2019
5793 Clouds 8 1020 75 10000 1.5 260 07:23 21.12.2019
5794 Clouds 8 1020 75 10000 1.5 260 07:23 21.12.2019
5795 Clouds 9 1021 70 10000 0.5 0 06:46 21.12.2019
5796 Clouds 9 1021 70 10000 0.5 0 06:28 21.12.2019
5797 Clouds 11 1021 57 10000 2.1 270 05:55 21.12.2019
5798 Clouds 12 1021 54 10000 2.6 240 04:58 21.12.2019
5799 Clouds 12 1021 54 10000 2.6 240 04:19 21.12.2019
5800 Clouds 13 1020 47 10000 2.6 240 03:56 21.12.2019
5801 Clouds 14 1020 44 10000 1 0 02:19 21.12.2019
5802 Clouds 15 1020 38 10000 2.6 270 01:41 21.12.2019
5803 Clouds 15 1020 38 10000 2.6 270 01:22 21.12.2019
5804 Clouds 16 1020 69 10000 4.6 270 00:37 21.12.2019
5805 Clouds 16 1020 69 10000 4.6 270 00:18 21.12.2019
5806 Clouds 17 1020 36 10000 4.1 280 23:38 20.12.2019
5807 Clouds 17 1020 36 10000 4.1 280 23:19 20.12.2019
5808 Clouds 17 1020 36 10000 5.1 280 22:43 20.12.2019
5809 Clouds 17 1020 36 10000 5.1 280 22:22 20.12.2019
5810 Clouds 18 1020 34 10000 4.6 280 21:59 20.12.2019
5811 Clouds 18 1020 34 10000 4.6 280 21:40 20.12.2019
5812 Clouds 18 1020 34 10000 4.6 280 21:20 20.12.2019
5813 Clouds 18 1020 34 10000 4.6 280 21:20 20.12.2019
5814 Clouds 18 1020 36 10000 3.6 270 20:55 20.12.2019
5815 Clouds 18 1020 36 10000 3.6 270 20:36 20.12.2019
5816 Clear 18 1020 36 10000 3.6 270 20:18 20.12.2019
5817 Clear 18 1021 34 10000 4.6 280 19:41 20.12.2019
5818 Clear 18 1021 34 10000 4.6 280 19:20 20.12.2019
5819 Clear 16 1021 38 10000 2.6 0 18:56 20.12.2019
5820 Clear 16 1021 38 10000 2.6 0 18:56 20.12.2019
5821 Clear 16 1021 38 10000 2.6 0 18:56 20.12.2019
5822 Clear 16 1021 38 10000 2.6 0 18:38 20.12.2019
5823 Clear 16 1021 38 10000 2.6 0 18:20 20.12.2019
5824 Clear 17 1021 39 10000 2.1 0 17:42 20.12.2019
5825 Clear 17 1021 39 10000 2.1 0 17:21 20.12.2019
5826 Clear 15 1022 41 10000 2.1 0 16:59 20.12.2019
5827 Clear 15 1022 41 10000 2.1 0 16:40 20.12.2019
5828 Clear 15 1022 41 10000 2.1 0 16:20 20.12.2019
5829 Clear 15 1022 41 10000 2.1 0 16:20 20.12.2019
5830 Clouds 15 1022 44 10000 1.5 0 15:57 20.12.2019
5831 Clouds 15 1022 44 10000 1.5 0 15:38 20.12.2019
5832 Clouds 15 1022 44 10000 1.5 0 15:19 20.12.2019
5833 Clouds 12 1023 62 10000 1.5 0 14:55 20.12.2019
5834 Clouds 12 1023 62 10000 1.5 0 14:37 20.12.2019
5835 Clouds 12 1023 62 10000 1.5 0 14:18 20.12.2019
5836 Clouds 8 1023 75 10000 1 0 13:41 20.12.2019
5837 Clouds 8 1023 75 10000 1 0 13:21 20.12.2019
5838 Clouds 7 1023 81 10000 1 0 12:58 20.12.2019
5839 Clouds 7 1023 81 10000 1 0 12:38 20.12.2019
5840 Clouds 7 1023 81 10000 1 0 12:19 20.12.2019
5841 Clouds 4 1023 93 10000 0.5 0 11:59 20.12.2019
5842 Clouds 4 1023 93 10000 0.5 0 11:59 20.12.2019
5843 Clouds 4 1023 93 10000 0.5 0 11:39 20.12.2019
5844 Clouds 4 1023 93 10000 0.5 0 11:19 20.12.2019
5845 Clouds 5 1022 86 10000 1 0 10:58 20.12.2019
5846 Clouds 5 1022 86 10000 1 0 10:40 20.12.2019
5847 Clouds 5 1022 86 10000 1 0 10:20 20.12.2019
5848 Clouds 6 1022 87 10000 1.5 270 09:54 20.12.2019
5849 Clouds 6 1022 87 10000 1.5 270 09:36 20.12.2019
5850 Clouds 6 1022 87 10000 1.5 270 09:18 20.12.2019
5851 Clouds 7 1021 81 10000 1.5 280 08:42 20.12.2019
5852 Clear 7 1021 81 10000 1.5 280 08:22 20.12.2019
5853 Clear 8 1021 75 10000 1 0 07:58 20.12.2019
5854 Clear 8 1021 75 10000 1 0 07:39 20.12.2019
5855 Clear 8 1021 75 10000 1 0 07:18 20.12.2019
5856 Clear 8 1021 81 10000 1 0 06:48 20.12.2019
5857 Clear 8 1021 81 10000 1 0 06:48 20.12.2019
5858 Clear 8 1021 81 10000 1 0 06:30 20.12.2019
5859 Clear 9 1021 70 10000 2.12 299 05:49 20.12.2019
5860 Clear 9 1021 70 10000 2.77 301 05:21 20.12.2019
5861 Clear 10 1020 66 10000 1 0 03:50 20.12.2019
5862 Clear 10 1020 66 10000 1 0 03:28 20.12.2019
5863 Clear 11 1019 62 10000 2.1 280 02:31 20.12.2019
5864 Clouds 12 1018 58 10000 2.6 280 01:36 20.12.2019
5865 Clouds 13 1018 54 10000 3.6 260 00:58 20.12.2019
5866 Clouds 13 1018 54 10000 3.6 260 00:36 20.12.2019
5867 Clouds 13 1017 54 10000 2.6 290 23:58 19.12.2019
5868 Clouds 13 1017 54 10000 2.6 290 23:40 19.12.2019
5869 Rain 13 1017 54 10000 2.6 290 23:21 19.12.2019
5870 Rain 13 1017 54 10000 2.6 290 23:21 19.12.2019
5871 Rain 13 1017 54 10000 3.6 0 22:40 19.12.2019
5872 Rain 13 1017 54 10000 3.6 0 22:22 19.12.2019
5873 Clouds 15 1016 41 10000 4.1 270 21:59 19.12.2019
5874 Clouds 15 1016 41 10000 4.1 270 21:59 19.12.2019
5875 Clouds 15 1016 41 10000 4.1 270 21:41 19.12.2019
5876 Clouds 15 1016 41 10000 4.1 270 21:19 19.12.2019
5877 Clouds 15 1016 47 10000 3.1 250 20:57 19.12.2019
5878 Clouds 15 1016 47 10000 3.1 250 20:38 19.12.2019
5879 Clouds 15 1016 47 10000 3.1 250 20:20 19.12.2019
5880 Clouds 14 1017 50 10000 3.6 270 19:58 19.12.2019
5881 Clouds 14 1017 50 10000 3.6 270 19:40 19.12.2019
5882 Clouds 14 1017 50 10000 3.6 270 19:19 19.12.2019
5883 Clouds 14 1017 50 10000 3.6 270 19:19 19.12.2019
5884 Rain 12 1016 62 9000 4.1 270 18:57 19.12.2019
5885 Rain 12 1016 62 9000 4.1 270 18:57 19.12.2019
5886 Rain 12 1016 62 9000 4.1 270 18:39 19.12.2019
5887 Rain 12 1016 62 9000 4.1 270 18:19 19.12.2019
5888 Clouds 13 1016 54 10000 1.5 0 17:55 19.12.2019
5889 Clouds 13 1016 54 10000 1.5 0 17:37 19.12.2019
5890 Clouds 13 1016 54 10000 1.5 0 17:18 19.12.2019
5891 Rain 13 1015 54 10000 1 0 16:55 19.12.2019
5892 Rain 13 1015 54 10000 1 0 16:55 19.12.2019
5893 Rain 13 1015 54 10000 1 0 16:37 19.12.2019
5894 Rain 13 1015 54 10000 1 0 16:19 19.12.2019
5895 Clouds 12 1015 62 10000 2.1 260 15:55 19.12.2019
5896 Clouds 12 1015 62 10000 2.1 260 15:37 19.12.2019
5897 Clouds 12 1015 62 10000 2.1 260 15:18 19.12.2019
5898 Rain 12 1015 58 10000 2.1 220 14:42 19.12.2019
5899 Rain 12 1015 58 10000 2.1 220 14:20 19.12.2019
5900 Rain 11 1014 57 10000 3.1 270 13:58 19.12.2019
5901 Rain 11 1014 57 10000 3.1 270 13:58 19.12.2019
5902 Rain 11 1014 57 10000 3.1 270 13:38 19.12.2019
5903 Rain 11 1014 57 10000 3.1 270 13:19 19.12.2019
5904 Clouds 10 1014 61 10000 2.1 260 12:57 19.12.2019
5905 Clouds 10 1014 61 10000 2.1 260 12:39 19.12.2019
5906 Clouds 10 1014 61 10000 2.1 260 12:39 19.12.2019
5907 Clouds 10 1014 61 10000 2.1 260 12:19 19.12.2019
5908 Clouds 10 1013 53 10000 3.6 260 11:58 19.12.2019
5909 Clouds 10 1013 53 10000 3.6 260 11:40 19.12.2019
5910 Clouds 10 1013 53 10000 3.6 260 11:18 19.12.2019
5911 Clouds 10 1013 53 10000 3.6 260 11:18 19.12.2019
5912 Clouds 9 1013 57 10000 2.1 260 10:56 19.12.2019
5913 Clouds 9 1013 57 10000 2.1 260 10:37 19.12.2019
5914 Clouds 9 1013 57 10000 2.1 260 10:19 19.12.2019
5915 Clouds 10 1012 53 10000 2.1 250 09:40 19.12.2019
5916 Clouds 10 1012 53 10000 2.1 250 09:21 19.12.2019
5917 Clouds 11 1012 50 10000 3.1 240 08:58 19.12.2019
5918 Clouds 11 1012 50 10000 3.1 240 08:40 19.12.2019
5919 Clouds 11 1012 50 10000 3.1 240 08:19 19.12.2019
5920 Clouds 9 1012 61 10000 1.5 220 07:57 19.12.2019
5921 Clouds 9 1012 61 10000 1.5 220 07:38 19.12.2019
5922 Clouds 9 1012 61 10000 1.5 220 07:19 19.12.2019
5923 Clouds 9 1012 66 10000 2.6 230 06:49 19.12.2019
5924 Clouds 9 1012 66 10000 2.6 230 06:29 19.12.2019
5925 Clouds 9 1012 66 10000 2.6 290 05:55 19.12.2019
5926 Clouds 9 1012 66 10000 2.6 290 05:33 19.12.2019
5927 Clear 10 1012 61 10000 2.6 290 04:48 19.12.2019
5928 Clear 12 1011 89 10000 2.6 270 02:54 19.12.2019
5929 Clear 12 1010 46 10000 3.6 260 01:51 19.12.2019
5930 Clear 12 1010 46 10000 3.6 260 01:22 19.12.2019
5931 Clear 14 1009 35 10000 3.6 260 00:40 19.12.2019
5932 Clear 14 1009 35 10000 3.6 260 00:21 19.12.2019
5933 Clear 15 1008 30 10000 5.1 260 23:55 18.12.2019
5934 Clear 15 1008 30 10000 5.1 260 23:36 18.12.2019
5935 Clear 15 1008 30 10000 5.1 260 23:18 18.12.2019
5936 Clear 15 1008 40 10000 4.6 260 22:55 18.12.2019
5937 Clear 15 1008 40 10000 4.6 260 22:36 18.12.2019
5938 Clear 15 1008 40 10000 4.6 260 22:18 18.12.2019
5939 Clouds 16 1007 36 10000 5.1 260 21:41 18.12.2019
5940 Clouds 16 1007 36 10000 5.1 260 21:21 18.12.2019
5941 Clouds 16 1007 41 10000 4.1 250 20:58 18.12.2019
5942 Clouds 16 1007 41 10000 4.1 250 20:39 18.12.2019
5943 Clouds 16 1007 41 10000 4.1 250 20:20 18.12.2019
5944 Clouds 16 1007 41 10000 4.1 250 20:20 18.12.2019
5945 Clouds 16 1006 41 10000 5.7 270 19:57 18.12.2019
5946 Clouds 16 1006 41 10000 5.7 270 19:39 18.12.2019
5947 Clouds 16 1006 41 10000 5.7 270 19:19 18.12.2019
5948 Clouds 16 1006 44 10000 5.1 260 18:56 18.12.2019
5949 Clouds 16 1006 44 10000 5.1 260 18:38 18.12.2019
5950 Clouds 16 1006 44 10000 5.1 260 18:20 18.12.2019
5951 Clouds 16 1006 48 10000 5.1 260 17:55 18.12.2019
5952 Clouds 16 1006 48 10000 5.1 260 17:55 18.12.2019
5953 Clouds 16 1006 48 10000 5.1 260 17:37 18.12.2019
5954 Clouds 16 1006 48 10000 5.1 260 17:19 18.12.2019
5955 Rain 16 1006 41 10000 6.2 260 16:42 18.12.2019
5956 Rain 16 1006 41 10000 6.2 260 16:24 18.12.2019
5957 Clouds 15 1006 47 10000 6.7 270 15:57 18.12.2019
5958 Clouds 15 1006 47 10000 6.7 270 15:39 18.12.2019
5959 Clouds 15 1006 47 10000 6.7 270 15:21 18.12.2019
5960 Clouds 14 1005 62 10000 5.7 250 14:56 18.12.2019
5961 Clouds 14 1005 62 10000 5.7 250 14:56 18.12.2019
5962 Clouds 14 1005 62 10000 5.7 250 14:38 18.12.2019
5963 Clouds 14 1005 62 10000 5.7 250 14:19 18.12.2019
5964 Rain 12 1004 93 9000 3.1 250 13:55 18.12.2019
5965 Rain 12 1004 93 9000 3.1 250 13:36 18.12.2019
5966 Rain 12 1004 93 9000 3.1 250 13:18 18.12.2019
5967 Rain 12 1004 93 9000 3.1 250 13:18 18.12.2019
5968 Rain 11 1003 100 8000 2.1 280 12:40 18.12.2019
5969 Rain 11 1003 100 8000 2.1 280 12:21 18.12.2019
5970 Rain 11 1003 93 8000 1 0 11:57 18.12.2019
5971 Rain 11 1003 93 8000 1 0 11:39 18.12.2019
5972 Rain 11 1003 93 8000 1 0 11:20 18.12.2019
5973 Rain 11 1003 93 9000 1 0 10:58 18.12.2019
5974 Rain 11 1003 93 9000 1 0 10:39 18.12.2019
5975 Rain 11 1003 93 9000 1 0 10:20 18.12.2019
5976 Rain 11 1003 87 9000 2.6 240 09:58 18.12.2019
5977 Rain 11 1003 87 9000 2.6 240 09:20 18.12.2019
5978 Rain 13 1003 82 8000 5.7 240 08:43 18.12.2019
5979 Rain 13 1003 82 8000 5.7 240 08:24 18.12.2019
5980 Rain 14 1004 82 9000 4.1 250 07:57 18.12.2019
5981 Rain 14 1004 82 9000 4.1 250 07:39 18.12.2019
5982 Rain 14 1004 82 9000 4.1 250 07:20 18.12.2019
5983 Rain 17 1003 63 10000 5.1 250 06:52 18.12.2019
5984 Rain 17 1003 63 10000 5.1 250 06:24 18.12.2019
5985 Clouds 17 1003 59 10000 4.6 250 05:35 18.12.2019
5986 Clouds 17 1003 59 10000 4.6 250 05:35 18.12.2019
5987 Rain 14 1006 82 10000 3.1 290 03:49 18.12.2019
5988 Rain 14 1006 82 10000 2.1 310 02:46 18.12.2019
5989 Rain 14 1006 82 10000 2.1 310 02:27 18.12.2019
5990 Rain 14 1007 82 10000 2.6 0 01:43 18.12.2019
5991 Rain 14 1007 82 10000 2.6 0 01:25 18.12.2019
5992 Rain 15 1007 77 10000 3.6 280 00:42 18.12.2019
5993 Rain 15 1007 77 10000 3.6 280 00:24 18.12.2019
5994 Rain 17 1007 63 10000 4.1 260 23:58 17.12.2019
5995 Rain 17 1007 63 10000 4.1 260 23:58 17.12.2019
5996 Rain 17 1007 63 10000 4.1 260 23:39 17.12.2019
5997 Clouds 17 1007 63 10000 4.1 260 23:21 17.12.2019
5998 Clouds 18 1008 55 10000 6.7 260 22:57 17.12.2019
5999 Clouds 18 1008 55 10000 6.7 260 22:38 17.12.2019
6000 Clouds 18 1008 55 10000 6.7 260 22:19 17.12.2019
6001 Rain 18 1008 55 10000 6.2 260 21:57 17.12.2019
6002 Rain 18 1008 55 10000 6.2 260 21:38 17.12.2019
6003 Rain 18 1008 55 10000 6.2 260 21:38 17.12.2019
6004 Rain 18 1008 55 10000 6.2 260 21:20 17.12.2019
6005 Rain 18 1009 52 10000 6.2 260 20:58 17.12.2019
6006 Rain 18 1009 52 10000 6.2 260 20:39 17.12.2019
6007 Rain 18 1009 52 10000 6.2 260 20:18 17.12.2019
6008 Rain 17 1009 51 10000 4.6 250 19:56 17.12.2019
6009 Rain 17 1009 51 10000 4.6 250 19:38 17.12.2019
6010 Rain 17 1009 51 10000 4.6 250 19:18 17.12.2019
6011 Rain 17 1010 51 10000 5.7 270 18:54 17.12.2019
6012 Rain 17 1010 51 10000 5.7 270 18:36 17.12.2019
6013 Rain 17 1010 51 10000 5.7 270 18:18 17.12.2019
6014 Clouds 15 1011 58 10000 3.6 320 17:42 17.12.2019
6015 Clouds 15 1011 58 10000 3.6 320 17:21 17.12.2019
6016 Clouds 14 1011 58 10000 2.1 290 16:57 17.12.2019
6017 Clouds 14 1011 58 10000 2.1 290 16:38 17.12.2019
6018 Clouds 14 1011 58 10000 2.1 290 16:19 17.12.2019
6019 Clouds 13 1012 62 10000 2.6 290 15:58 17.12.2019
6020 Clouds 13 1012 62 10000 2.6 290 15:37 17.12.2019
6021 Clouds 13 1012 62 10000 2.6 290 15:37 17.12.2019
6022 Clouds 13 1012 62 10000 2.6 290 15:19 17.12.2019
6023 Clouds 12 1013 66 10000 1 0 14:55 17.12.2019
6024 Clouds 12 1013 66 10000 1 0 14:55 17.12.2019
6025 Clouds 12 1013 66 10000 1 0 14:37 17.12.2019
6026 Clouds 12 1013 66 10000 1 0 14:18 17.12.2019
6027 Clouds 11 1014 66 10000 1 0 13:55 17.12.2019
6028 Clouds 11 1014 66 10000 1 0 13:37 17.12.2019
6029 Clouds 11 1014 66 10000 1 0 13:18 17.12.2019
6030 Clouds 9 1015 76 10000 1 0 12:41 17.12.2019
6031 Clouds 9 1015 76 10000 1 0 12:19 17.12.2019
6032 Clouds 7 1015 81 10000 1 0 11:59 17.12.2019
6033 Clouds 7 1015 81 10000 1 0 11:38 17.12.2019
6034 Clouds 7 1015 81 10000 1 0 11:19 17.12.2019
6035 Clouds 7 1015 81 10000 1.5 260 10:59 17.12.2019
6036 Clouds 7 1015 81 10000 1.5 260 10:41 17.12.2019
6037 Clouds 7 1015 81 10000 1.5 260 10:41 17.12.2019
6038 Clouds 7 1015 81 10000 1.5 260 10:22 17.12.2019
6039 Clouds 7 1015 81 10000 1 0 09:59 17.12.2019
6040 Clouds 7 1015 81 10000 1 0 09:41 17.12.2019
6041 Clouds 7 1015 81 10000 1 0 09:20 17.12.2019
6042 Clouds 7 1016 81 10000 1 0 08:56 17.12.2019
6043 Clouds 7 1016 81 10000 1 0 08:38 17.12.2019
6044 Clouds 7 1016 81 10000 1 0 08:19 17.12.2019
6045 Clouds 8 1016 75 10000 1 0 07:47 17.12.2019
6046 Clouds 8 1016 75 10000 1 0 07:27 17.12.2019
6047 Clouds 8 1017 75 10000 2.13 302 06:59 17.12.2019
6048 Clouds 8 1017 75 10000 2.13 302 06:35 17.12.2019
6049 Clear 8 1018 75 9000 2.13 302 05:53 17.12.2019
6050 Clear 8 1018 75 9000 2.13 302 05:35 17.12.2019
6051 Clear 10 1018 66 10000 0.5 0 04:30 17.12.2019
6052 Clear 13 1018 50 10000 2.1 280 02:34 17.12.2019
6053 Clear 14 1018 47 10000 2.6 250 01:55 17.12.2019
6054 Clear 16 1017 41 10000 5.1 270 00:58 17.12.2019
6055 Clear 16 1017 41 10000 5.1 270 00:37 17.12.2019
6056 Clear 16 1017 41 10000 5.1 270 00:19 17.12.2019
6057 Clear 16 1017 41 10000 4.6 270 23:41 16.12.2019
6058 Clear 16 1017 41 10000 4.6 270 23:19 16.12.2019
6059 Clear 16 1018 41 10000 5.7 280 22:56 16.12.2019
6060 Clear 16 1018 41 10000 5.7 280 22:37 16.12.2019
6061 Clear 16 1018 41 10000 5.7 280 22:19 16.12.2019
6062 Clouds 16 1018 44 10000 5.1 280 21:55 16.12.2019
6063 Clouds 16 1018 44 10000 5.1 280 21:37 16.12.2019
6064 Clouds 16 1018 44 10000 5.1 280 21:19 16.12.2019
6065 Clouds 16 1018 44 10000 3.6 260 20:57 16.12.2019
6066 Clouds 16 1018 44 10000 3.6 260 20:37 16.12.2019
6067 Clouds 16 1018 44 10000 3.6 260 20:19 16.12.2019
6068 Clouds 16 1019 44 10000 3.6 260 19:55 16.12.2019
6069 Clouds 16 1019 44 10000 3.6 260 19:36 16.12.2019
6070 Clouds 16 1019 44 10000 3.6 260 19:18 16.12.2019
6071 Clouds 16 1018 41 10000 4.6 270 18:55 16.12.2019
6072 Clouds 16 1018 41 10000 4.6 270 18:37 16.12.2019
6073 Clouds 16 1018 41 10000 4.6 270 18:18 16.12.2019
6074 Clouds 15 1019 44 10000 3.1 240 17:56 16.12.2019
6075 Clouds 15 1019 44 10000 3.1 240 17:37 16.12.2019
6076 Clouds 15 1019 44 10000 3.1 240 17:19 16.12.2019
6077 Clouds 15 1019 47 10000 4.6 280 16:54 16.12.2019
6078 Clouds 15 1019 47 10000 4.6 280 16:36 16.12.2019
6079 Clouds 15 1019 47 10000 4.6 280 16:18 16.12.2019
6080 Clouds 13 1020 62 10000 3.6 280 15:55 16.12.2019
6081 Clouds 13 1020 62 10000 3.6 280 15:37 16.12.2019
6082 Clouds 13 1020 62 10000 3.6 280 15:37 16.12.2019
6083 Clouds 13 1020 62 10000 3.6 280 15:18 16.12.2019
6084 Clouds 13 1020 66 10000 2.6 270 14:54 16.12.2019
6085 Clouds 13 1020 66 10000 2.6 270 14:36 16.12.2019
6086 Clouds 13 1020 66 10000 2.6 270 14:18 16.12.2019
6087 Clouds 10 1021 81 10000 1.5 230 13:38 16.12.2019
6088 Clouds 10 1021 81 10000 1.5 230 13:20 16.12.2019
6089 Rain 9 1021 87 10000 1 0 12:58 16.12.2019
6090 Rain 9 1021 87 10000 1 0 12:40 16.12.2019
6091 Rain 9 1021 87 10000 1 0 12:20 16.12.2019
6092 Rain 9 1021 81 10000 1 0 11:59 16.12.2019
6093 Rain 9 1021 81 10000 1 0 11:41 16.12.2019
6094 Rain 9 1021 81 10000 1 0 11:21 16.12.2019
6095 Clouds 9 1020 81 10000 1 0 10:58 16.12.2019
6096 Clouds 9 1020 81 10000 1 0 10:40 16.12.2019
6097 Clouds 9 1020 81 10000 1 0 10:20 16.12.2019
6098 Clouds 9 1020 76 10000 1 0 09:46 16.12.2019
6099 Clouds 9 1020 76 10000 1 0 09:28 16.12.2019
6100 Clouds 10 1020 66 10000 1.5 250 08:58 16.12.2019
6101 Clouds 10 1020 66 10000 1.5 250 08:38 16.12.2019
6102 Clouds 10 1020 66 10000 1.5 250 08:18 16.12.2019
6103 Clouds 10 1021 66 10000 2.1 280 07:47 16.12.2019
6104 Clouds 10 1021 66 10000 2.1 280 07:28 16.12.2019
6105 Clouds 10 1021 66 10000 3.6 240 06:45 16.12.2019
6106 Clouds 10 1021 66 10000 3.6 240 06:26 16.12.2019
6107 Clouds 11 1021 62 10000 3.6 240 05:52 16.12.2019
6108 Clouds 11 1021 62 10000 3.6 240 05:33 16.12.2019
6109 Clouds 11 1022 62 10000 3.1 260 04:22 16.12.2019
6110 Clouds 12 1021 62 10000 3.6 260 02:31 16.12.2019
6111 Clouds 12 1020 66 10000 4.6 280 01:45 16.12.2019
6112 Clouds 12 1020 66 10000 4.6 280 01:45 16.12.2019
6113 Clouds 13 1020 58 10000 4.1 270 00:43 16.12.2019
6114 Clouds 13 1020 58 10000 4.1 270 00:25 16.12.2019
6115 Clouds 15 1019 51 10000 4.6 260 23:59 15.12.2019
6116 Clouds 15 1019 51 10000 4.6 260 23:39 15.12.2019
6117 Clouds 15 1019 51 10000 4.6 260 23:20 15.12.2019
6118 Clouds 15 1020 51 10000 5.1 270 22:56 15.12.2019
6119 Clouds 15 1020 51 10000 5.1 270 22:37 15.12.2019
6120 Clouds 15 1020 51 10000 5.1 270 22:18 15.12.2019
6121 Clouds 15 1020 51 10000 5.1 270 22:18 15.12.2019
6122 Clouds 15 1020 51 10000 3.6 260 21:55 15.12.2019
6123 Clouds 15 1020 51 10000 3.6 260 21:37 15.12.2019
6124 Clouds 15 1020 51 10000 3.6 260 21:19 15.12.2019
6125 Clouds 16 1020 48 10000 6.2 280 20:55 15.12.2019
6126 Clouds 16 1020 48 10000 6.2 280 20:37 15.12.2019
6127 Clouds 16 1020 48 10000 6.2 280 20:18 15.12.2019
6128 Clouds 16 1020 51 10000 4.1 270 19:56 15.12.2019
6129 Clouds 16 1020 51 10000 4.1 270 19:38 15.12.2019
6130 Clouds 16 1020 51 10000 4.1 270 19:18 15.12.2019
6131 Clouds 16 1020 51 10000 4.1 270 19:18 15.12.2019
6132 Clouds 16 1020 51 10000 4.1 270 18:55 15.12.2019
6133 Clouds 16 1020 51 10000 4.1 270 18:36 15.12.2019
6134 Clouds 16 1020 51 10000 4.1 270 18:18 15.12.2019
6135 Clouds 14 1020 48 10000 5.1 260 17:55 15.12.2019
6136 Clouds 14 1020 48 10000 5.1 260 17:36 15.12.2019
6137 Rain 14 1020 48 10000 5.1 260 17:18 15.12.2019
6138 Clouds 13 1005 71 10000 7.2 270 16:42 15.12.2019
6139 Clouds 13 1005 71 10000 7.2 270 16:23 15.12.2019
6140 Clouds 13 1005 71 10000 7.2 270 15:57 15.12.2019
6141 Rain 14 1020 58 10000 3.6 250 15:39 15.12.2019
6142 Rain 14 1020 58 10000 3.6 250 15:19 15.12.2019
6143 Rain 12 1020 71 10000 1.5 290 14:56 15.12.2019
6144 Rain 12 1020 71 10000 1.5 290 14:37 15.12.2019
6145 Rain 12 1020 71 10000 1.5 290 14:19 15.12.2019
6146 Rain 12 1020 76 10000 2.1 0 13:58 15.12.2019
6147 Rain 12 1020 76 10000 2.1 0 13:38 15.12.2019
6148 Rain 12 1020 76 10000 2.1 0 13:19 15.12.2019
6149 Rain 11 1020 76 10000 2.6 280 12:57 15.12.2019
6150 Rain 11 1020 76 10000 2.6 280 12:39 15.12.2019
6151 Rain 11 1020 76 10000 2.6 280 12:21 15.12.2019
6152 Rain 11 1019 71 10000 2.1 260 11:58 15.12.2019
6153 Rain 11 1019 71 10000 2.1 260 11:37 15.12.2019
6154 Rain 11 1019 71 10000 2.1 260 11:19 15.12.2019
6155 Rain 11 1018 71 10000 2.6 260 10:55 15.12.2019
6156 Rain 11 1018 71 10000 2.6 260 10:37 15.12.2019
6157 Rain 11 1018 71 10000 2.6 260 10:19 15.12.2019
6158 Rain 10 1018 81 10000 2.1 250 09:41 15.12.2019
6159 Rain 10 1018 81 10000 2.1 250 09:20 15.12.2019
6160 Rain 10 1018 81 10000 2.6 280 08:59 15.12.2019
6161 Rain 10 1018 81 10000 2.6 280 08:39 15.12.2019
6162 Rain 10 1018 81 10000 2.6 280 08:21 15.12.2019
6163 Clouds 11 1018 71 10000 2.1 250 07:56 15.12.2019
6164 Clouds 11 1018 71 10000 2.1 250 07:34 15.12.2019
6165 Rain 11 1019 71 10000 3.1 260 06:51 15.12.2019
6166 Rain 11 1019 71 10000 3.1 260 06:20 15.12.2019
6167 Clouds 11 1019 71 10000 2.1 0 05:26 15.12.2019
6168 Clouds 12 1019 62 10000 1.5 0 04:47 15.12.2019
6169 Clouds 12 1019 62 10000 3.6 250 03:29 15.12.2019
6170 Clouds 12 1019 62 10000 2.6 250 02:34 15.12.2019
6171 Clouds 13 1018 58 10000 2.6 260 01:47 15.12.2019
6172 Clouds 13 1018 58 10000 2.6 260 01:28 15.12.2019
6173 Clouds 14 1017 50 10000 4.1 260 00:57 15.12.2019
6174 Clouds 14 1017 50 10000 4.1 260 00:38 15.12.2019
6175 Clouds 14 1017 50 10000 4.1 260 00:20 15.12.2019
6176 Clouds 14 1017 50 10000 5.7 270 23:40 14.12.2019
6177 Clouds 14 1017 50 10000 5.7 270 23:19 14.12.2019
6178 Clouds 15 1017 47 10000 6.2 270 22:57 14.12.2019
6179 Clouds 15 1017 47 10000 6.2 270 22:57 14.12.2019
6180 Clouds 15 1017 47 10000 6.2 270 22:39 14.12.2019
6181 Clouds 15 1017 47 10000 6.2 270 22:20 14.12.2019
6182 Clouds 15 1017 47 10000 6.2 270 21:55 14.12.2019
6183 Clouds 15 1017 47 10000 6.2 270 21:55 14.12.2019
6184 Clouds 15 1017 47 10000 6.2 270 21:37 14.12.2019
6185 Clouds 15 1017 47 10000 6.2 270 21:18 14.12.2019
6186 Clouds 15 1017 47 10000 5.1 280 20:54 14.12.2019
6187 Clouds 15 1017 47 10000 5.1 280 20:36 14.12.2019
6188 Clouds 15 1017 47 10000 5.1 280 20:18 14.12.2019
6189 Clear 15 1017 47 10000 5.1 280 20:18 14.12.2019
6190 Clear 16 1017 44 10000 6.2 270 19:40 14.12.2019
6191 Clear 16 1017 44 10000 6.2 270 19:21 14.12.2019
6192 Clear 16 1017 44 10000 6.2 270 19:21 14.12.2019
6193 Clear 15 1017 44 10000 5.1 280 18:57 14.12.2019
6194 Clear 15 1017 44 10000 5.1 280 18:39 14.12.2019
6195 Clear 15 1017 44 10000 5.1 280 18:21 14.12.2019
6196 Clear 15 1017 41 10000 4.6 280 17:58 14.12.2019
6197 Clear 15 1017 41 10000 4.6 280 17:40 14.12.2019
6198 Clouds 15 1017 41 10000 4.6 280 17:21 14.12.2019
6199 Clouds 15 1017 41 10000 4.6 280 16:41 14.12.2019
6200 Clouds 15 1017 41 10000 4.6 280 16:19 14.12.2019
6201 Clouds 15 1017 41 10000 5.1 280 15:55 14.12.2019
6202 Clouds 15 1017 41 10000 5.1 280 15:37 14.12.2019
6203 Clouds 15 1017 41 10000 5.1 280 15:19 14.12.2019
6204 Clouds 14 1017 47 10000 3.6 260 14:54 14.12.2019
6205 Clouds 14 1017 47 10000 3.6 260 14:36 14.12.2019
6206 Clouds 14 1017 47 10000 3.6 260 14:18 14.12.2019
6207 Clouds 13 1017 50 10000 3.1 230 13:42 14.12.2019
6208 Clouds 13 1017 50 10000 3.1 230 13:19 14.12.2019
6209 Clouds 13 1017 50 10000 3.1 230 13:19 14.12.2019
6210 Clouds 10 1017 66 10000 2.1 0 12:57 14.12.2019
6211 Clouds 10 1017 66 10000 2.1 0 12:38 14.12.2019
6212 Clouds 10 1017 66 10000 2.1 0 12:20 14.12.2019
6213 Clouds 10 1017 66 10000 2.1 0 12:20 14.12.2019
6214 Clouds 9 1017 70 10000 2.1 230 11:56 14.12.2019
6215 Clouds 9 1017 70 10000 2.1 230 11:38 14.12.2019
6216 Clouds 9 1017 70 10000 2.1 230 11:19 14.12.2019
6217 Clouds 7 1016 81 10000 1.5 270 10:56 14.12.2019
6218 Clouds 7 1016 81 10000 1.5 270 10:38 14.12.2019
6219 Clouds 7 1016 81 10000 1.5 270 10:19 14.12.2019
6220 Clouds 7 1016 81 10000 0.5 0 09:43 14.12.2019
6221 Clouds 7 1016 81 10000 0.5 0 09:23 14.12.2019
6222 Clouds 6 1016 87 10000 1.9 295 08:57 14.12.2019
6223 Clouds 6 1016 87 10000 1.9 295 08:38 14.12.2019
6224 Clear 6 1016 87 10000 2.34 291 08:19 14.12.2019
6225 Clear 8 1016 75 10000 0.5 0 07:40 14.12.2019
6226 Clear 8 1016 75 10000 0.5 0 07:20 14.12.2019
6227 Clear 8 1016 75 10000 2.1 290 06:45 14.12.2019
6228 Clear 8 1016 75 10000 2.1 290 06:22 14.12.2019
6229 Clear 9 1015 70 10000 2.1 260 05:35 14.12.2019
6230 Clear 9 1015 70 10000 2.1 290 03:34 14.12.2019
6231 Clear 11 1014 57 10000 2.1 260 02:23 14.12.2019
6232 Rain 12 1013 54 10000 2.6 250 01:44 14.12.2019
6233 Clouds 14 1012 50 10000 3.6 260 00:59 14.12.2019
6234 Clouds 14 1012 50 10000 3.6 260 00:40 14.12.2019
6235 Clouds 14 1012 50 10000 3.6 260 00:19 14.12.2019
6236 Clouds 15 1011 51 10000 4.6 270 23:41 13.12.2019
6237 Clouds 15 1011 51 10000 4.6 270 23:41 13.12.2019
6238 Rain 15 1011 51 10000 4.6 270 23:19 13.12.2019
6239 Rain 15 1011 58 10000 5.1 280 22:56 13.12.2019
6240 Rain 15 1011 58 10000 5.1 280 22:37 13.12.2019
6241 Rain 15 1011 58 10000 5.1 280 22:18 13.12.2019
6242 Rain 13 1011 76 10000 3.6 270 21:42 13.12.2019
6243 Rain 13 1011 76 10000 3.6 270 21:21 13.12.2019
6244 Rain 13 1010 76 7000 3.6 260 20:57 13.12.2019
6245 Rain 13 1010 76 7000 3.6 260 20:39 13.12.2019
6246 Rain 13 1010 76 7000 3.6 260 20:19 13.12.2019
6247 Rain 14 1010 62 7000 5.1 270 19:56 13.12.2019
6248 Rain 14 1010 62 7000 5.1 270 19:56 13.12.2019
6249 Rain 14 1010 62 7000 5.1 270 19:37 13.12.2019
6250 Rain 14 1010 62 7000 5.1 270 19:18 13.12.2019
6251 Rain 13 1010 71 9000 4.6 270 18:42 13.12.2019
6252 Rain 13 1010 71 9000 4.6 270 18:20 13.12.2019
6253 Rain 13 1010 71 9000 4.6 270 18:20 13.12.2019
6254 Rain 14 1010 58 8000 5.7 270 17:59 13.12.2019
6255 Rain 14 1010 58 8000 5.7 270 17:39 13.12.2019
6256 Rain 14 1010 58 8000 5.7 270 17:18 13.12.2019
6257 Rain 14 1010 58 8000 5.7 270 17:18 13.12.2019
6258 Clouds 13 1010 58 10000 5.7 270 16:55 13.12.2019
6259 Clouds 13 1010 58 10000 5.7 270 16:37 13.12.2019
6260 Clouds 13 1010 58 10000 5.7 270 16:18 13.12.2019
6261 Clouds 12 1010 62 10000 3.6 260 15:41 13.12.2019
6262 Clouds 12 1010 62 10000 3.6 260 15:21 13.12.2019
6263 Clouds 12 1011 62 10000 3.6 260 14:56 13.12.2019
6264 Clouds 12 1011 62 10000 3.6 260 14:36 13.12.2019
6265 Clouds 12 1011 62 10000 3.6 260 14:18 13.12.2019
6266 Rain 10 1011 76 10000 2.1 290 13:43 13.12.2019
6267 Rain 10 1011 76 10000 2.1 290 13:23 13.12.2019
6268 Rain 9 1011 87 10000 2.6 290 12:45 13.12.2019
6269 Rain 9 1011 87 10000 2.6 290 12:24 13.12.2019
6270 Rain 8 1011 93 10000 1 0 11:59 13.12.2019
6271 Rain 8 1011 93 10000 1 0 11:41 13.12.2019
6272 Rain 8 1011 93 10000 1 0 11:23 13.12.2019
6273 Rain 8 1012 93 10000 1 0 10:56 13.12.2019
6274 Rain 8 1012 93 10000 1 0 10:38 13.12.2019
6275 Rain 8 1012 93 10000 1 0 10:19 13.12.2019
6276 Rain 8 1012 93 10000 1.59 301 09:41 13.12.2019
6277 Rain 8 1012 93 10000 1.59 301 09:20 13.12.2019
6278 Rain 8 1012 93 10000 1.59 301 08:44 13.12.2019
6279 Rain 8 1012 93 10000 2 307 08:25 13.12.2019
6280 Rain 8 1013 93 10000 1 0 07:48 13.12.2019
6281 Rain 8 1013 93 10000 1 0 07:24 13.12.2019
6282 Rain 9 1014 87 10000 1.97 299 06:55 13.12.2019
6283 Rain 9 1014 87 10000 1.97 299 06:29 13.12.2019
6284 Clouds 9 1015 81 10000 1 0 05:51 13.12.2019
6285 Clouds 9 1015 81 10000 1 0 05:30 13.12.2019
6286 Clouds 10 1016 76 10000 0.5 0 04:46 13.12.2019
6287 Clouds 11 1016 66 10000 1 0 03:48 13.12.2019
6288 Clouds 11 1016 66 10000 1.77 277 02:34 13.12.2019
6289 Clouds 12 1016 58 10000 1.5 310 01:48 13.12.2019
6290 Clouds 12 1017 58 10000 2.1 240 00:57 13.12.2019
6291 Clouds 12 1017 58 10000 2.1 240 00:37 13.12.2019
6292 Clouds 13 1017 54 10000 2.6 250 23:59 12.12.2019
6293 Clouds 13 1017 54 10000 2.6 250 23:40 12.12.2019
6294 Clouds 13 1017 54 10000 2.6 250 23:22 12.12.2019
6295 Clouds 13 1018 50 10000 4.1 270 22:56 12.12.2019
6296 Clouds 13 1018 50 10000 4.1 270 22:56 12.12.2019
6297 Clouds 13 1018 50 10000 4.1 270 22:37 12.12.2019
6298 Clouds 13 1018 50 10000 4.1 270 22:19 12.12.2019
6299 Clouds 13 1018 50 10000 4.1 270 21:55 12.12.2019
6300 Clouds 13 1018 50 10000 4.1 270 21:36 12.12.2019
6301 Clouds 13 1018 50 10000 4.1 270 21:36 12.12.2019
6302 Clouds 13 1018 50 10000 4.1 270 21:18 12.12.2019
6303 Clouds 13 1018 50 10000 4.1 270 20:55 12.12.2019
6304 Clouds 13 1018 50 10000 4.1 270 20:37 12.12.2019
6305 Clouds 13 1018 50 10000 4.1 270 20:19 12.12.2019
6306 Clouds 14 1019 44 10000 4.6 270 19:42 12.12.2019
6307 -273 0 0 0 0 0 19:23 12.12.2019
6308 Clouds 14 1019 47 10000 3.1 260 18:58 12.12.2019
6309 Clouds 14 1019 47 10000 3.1 260 18:40 12.12.2019
6310 Clouds 14 1019 47 10000 3.1 260 18:20 12.12.2019
6311 Clouds 13 1017 45 0 4.33 271 17:57 12.12.2019
6312 Clouds 13 1017 45 0 4.33 271 17:39 12.12.2019
6313 Clear 13 1021 43 10000 3.1 270 17:20 12.12.2019
6314 Clear 13 1021 43 10000 3.1 270 16:57 12.12.2019
6315 Clear 13 1021 43 10000 3.1 270 16:39 12.12.2019
6316 Clear 13 1021 43 10000 3.1 270 16:20 12.12.2019
6317 Clear 12 1021 46 10000 3.6 270 15:56 12.12.2019
6318 Clear 12 1021 46 10000 3.6 270 15:38 12.12.2019
6319 Clear 12 1021 46 10000 3.6 270 15:18 12.12.2019
6320 Clouds 12 1021 46 10000 3.1 260 14:38 12.12.2019
6321 Clouds 12 1021 46 10000 3.1 260 14:20 12.12.2019
6322 Clouds 10 1022 57 10000 1.5 0 13:58 12.12.2019
6323 Clouds 10 1022 57 10000 1.5 0 13:39 12.12.2019
6324 Clouds 10 1022 57 10000 1.5 0 13:21 12.12.2019
6325 Clouds 10 1022 57 10000 1.5 0 13:21 12.12.2019
6326 Clouds 7 1022 70 10000 1.5 200 12:58 12.12.2019
6327 Clouds 7 1022 70 10000 1.5 200 12:40 12.12.2019
6328 Clouds 7 1022 70 10000 1.5 200 12:21 12.12.2019
6329 Clouds 6 1022 75 10000 1.5 250 11:56 12.12.2019
6330 Clouds 6 1022 75 10000 1.5 250 11:38 12.12.2019
6331 Clouds 6 1022 75 10000 1.5 250 11:19 12.12.2019
6332 Clouds 6 1022 70 10000 2.1 0 10:55 12.12.2019
6333 Clouds 6 1022 70 10000 2.1 0 10:55 12.12.2019
6334 Clouds 6 1022 70 10000 2.1 0 10:37 12.12.2019
6335 Clouds 6 1022 70 10000 2.1 0 10:19 12.12.2019
6336 Clouds 6 1022 70 10000 2.1 280 09:42 12.12.2019
6337 Clouds 6 1022 70 10000 2.1 280 09:24 12.12.2019
6338 Clouds 7 1022 65 10000 1 0 08:56 12.12.2019
6339 Clouds 7 1022 65 10000 1 0 08:38 12.12.2019
6340 Clear 7 1022 65 10000 1 0 08:20 12.12.2019
6341 Clear 8 1021 61 10000 3.1 240 07:43 12.12.2019
6342 Clear 8 1021 61 10000 3.1 240 07:24 12.12.2019
6343 Clear 8 1021 61 10000 3.6 240 06:50 12.12.2019
6344 Clear 8 1021 61 10000 3.6 240 06:32 12.12.2019
6345 Clear 8 1021 61 10000 4.1 250 05:39 12.12.2019
6346 Clear 8 1020 61 10000 2.6 250 04:52 12.12.2019
6347 Clear 8 1020 61 10000 3.6 270 03:24 12.12.2019
6348 Clear 8 1018 65 10000 3.6 260 02:38 12.12.2019
6349 Clouds 8 1018 65 10000 3.6 260 02:19 12.12.2019
6350 Clouds 9 1017 57 10000 3.6 260 01:37 12.12.2019
6351 Clouds 9 1017 57 10000 3.6 260 01:19 12.12.2019
6352 Clouds 10 1017 53 10000 4.6 260 00:46 12.12.2019
6353 Clouds 10 1017 53 10000 4.6 260 00:19 12.12.2019
6354 Clouds 10 1015 72 10000 7.7 270 23:44 11.12.2019
6355 Clouds 10 1015 61 10000 7.7 270 23:21 11.12.2019
6356 Clouds 10 1014 57 10000 8.2 270 22:57 11.12.2019
6357 Clouds 10 1014 57 10000 8.2 270 22:38 11.12.2019
6358 Clouds 10 1014 57 10000 8.2 270 22:19 11.12.2019
6359 Rain 10 1014 66 9000 5.1 260 21:57 11.12.2019
6360 Rain 10 1014 66 9000 5.1 260 21:37 11.12.2019
6361 Rain 10 1014 66 9000 5.1 260 21:19 11.12.2019
6362 Clouds 12 1013 50 10000 6.2 270 20:56 11.12.2019
6363 Clouds 12 1013 50 10000 6.2 270 20:56 11.12.2019
6364 Clouds 12 1013 50 10000 6.2 270 20:37 11.12.2019
6365 Clouds 12 1013 50 10000 6.2 270 20:19 11.12.2019
6366 Clouds 12 1012 46 10000 7.7 270 19:57 11.12.2019
6367 Clouds 12 1012 46 10000 7.7 270 19:38 11.12.2019
6368 Clouds 12 1012 46 10000 7.7 270 19:18 11.12.2019
6369 Clouds 14 1012 47 10000 6.2 270 18:40 11.12.2019
6370 Clouds 14 1012 47 10000 6.2 270 18:21 11.12.2019
6371 Clouds 13 1011 54 10000 6.7 270 17:57 11.12.2019
6372 Clouds 13 1011 54 10000 6.7 270 17:38 11.12.2019
6373 Clouds 13 1011 54 10000 6.7 270 17:18 11.12.2019
6374 Clouds 12 1011 62 10000 4.6 240 16:57 11.12.2019
6375 Clouds 12 1011 62 10000 4.6 240 16:38 11.12.2019
6376 Clouds 12 1011 62 10000 4.6 240 16:19 11.12.2019
6377 Rain 11 1011 71 9000 5.1 260 15:57 11.12.2019
6378 Rain 11 1011 71 9000 5.1 260 15:38 11.12.2019
6379 Rain 11 1011 71 9000 5.1 260 15:20 11.12.2019
6380 Rain 10 1010 71 8000 5.1 240 14:55 11.12.2019
6381 Rain 10 1010 71 8000 5.1 240 14:37 11.12.2019
6382 Rain 10 1010 71 8000 5.1 240 14:19 11.12.2019
6383 Rain 12 1009 54 9000 5.1 250 13:44 11.12.2019
6384 Rain 12 1009 54 9000 5.1 250 13:24 11.12.2019
6385 Clouds 11 1009 62 10000 3.6 250 12:59 11.12.2019
6386 Clouds 11 1009 62 10000 3.6 250 12:59 11.12.2019
6387 Clouds 11 1009 62 10000 3.6 250 12:40 11.12.2019
6388 Clouds 11 1009 62 10000 3.6 250 12:22 11.12.2019
6389 Clouds 11 1009 66 10000 4.1 250 11:58 11.12.2019
6390 Clouds 11 1009 66 10000 4.1 250 11:39 11.12.2019
6391 Clouds 11 1009 66 10000 4.1 250 11:39 11.12.2019
6392 Clouds 11 1009 66 10000 4.1 250 11:19 11.12.2019
6393 Clouds 10 1008 93 10000 2.6 270 10:59 11.12.2019
6394 Clouds 10 1008 93 10000 2.6 270 10:40 11.12.2019
6395 Clouds 10 1008 93 10000 2.6 270 10:21 11.12.2019
6396 Clouds 10 1008 93 10000 2.6 270 10:21 11.12.2019
6397 Rain 10 1008 93 10000 1 0 09:56 11.12.2019
6398 Rain 10 1008 93 10000 1 0 09:38 11.12.2019
6399 Rain 10 1008 93 10000 1 0 09:19 11.12.2019
6400 Rain 10 1008 93 10000 0.5 0 08:55 11.12.2019
6401 Rain 10 1008 93 10000 0.5 0 08:36 11.12.2019
6402 Rain 10 1008 93 10000 0.5 0 08:18 11.12.2019
6403 Rain 11 1008 81 10000 1 0 07:42 11.12.2019
6404 Rain 11 1008 81 10000 1 0 07:22 11.12.2019
6405 Rain 12 1009 76 10000 3.1 260 06:46 11.12.2019
6406 Rain 12 1009 76 10000 3.1 260 06:24 11.12.2019
6407 Rain 12 1010 76 10000 3.1 0 05:53 11.12.2019
6408 Rain 12 1010 76 10000 3.1 0 05:28 11.12.2019
6409 Rain 15 1009 58 10000 4.1 260 04:48 11.12.2019
6410 Clouds 15 1009 54 10000 5.1 250 03:19 11.12.2019
6411 Clouds 16 1010 51 10000 4.1 240 02:31 11.12.2019
6412 Clouds 16 1011 51 10000 4.6 250 01:21 11.12.2019
6413 Clouds 16 1011 51 10000 4.6 250 00:37 11.12.2019
6414 Clouds 16 1011 51 10000 4.6 250 00:18 11.12.2019
6415 Clouds 17 1012 55 10000 4.1 260 23:43 10.12.2019
6416 Clouds 17 1012 55 10000 4.1 260 23:22 10.12.2019
6417 Clouds 17 1012 55 10000 4.6 260 22:42 10.12.2019
6418 Clouds 17 1012 55 10000 4.6 260 22:24 10.12.2019
6419 Rain 17 1012 55 10000 4.6 250 21:58 10.12.2019
6420 Rain 17 1012 55 10000 4.6 250 21:39 10.12.2019
6421 Rain 17 1012 55 10000 4.6 250 21:21 10.12.2019
6422 Rain 18 1012 52 10000 5.7 260 20:58 10.12.2019
6423 Rain 18 1012 52 10000 5.7 260 20:38 10.12.2019
6424 Rain 18 1012 52 10000 5.7 260 20:19 10.12.2019
6425 Rain 18 1012 52 10000 5.7 260 20:19 10.12.2019
6426 Rain 18 1012 52 10000 5.7 260 20:19 10.12.2019
6427 Rain 18 1012 52 10000 5.7 260 20:19 10.12.2019
6428 Clouds 19 1013 52 10000 3.6 260 19:56 10.12.2019
6429 Clouds 19 1013 52 10000 3.6 260 19:37 10.12.2019
6430 Clouds 19 1013 52 10000 3.6 260 19:19 10.12.2019
6431 Clouds 17 1013 55 10000 3.6 270 18:42 10.12.2019
6432 Clouds 17 1013 55 10000 3.6 270 18:21 10.12.2019
6433 Clouds 17 1014 55 10000 4.1 270 17:59 10.12.2019
6434 Clouds 17 1014 55 10000 4.1 270 17:41 10.12.2019
6435 Clouds 17 1014 55 10000 4.1 270 17:22 10.12.2019
6436 Clouds 16 1014 55 10000 3.1 250 16:55 10.12.2019
6437 Clouds 16 1014 55 10000 3.1 250 16:36 10.12.2019
6438 Clouds 16 1014 55 10000 3.1 250 16:18 10.12.2019
6439 Clouds 16 1015 59 10000 2.1 0 15:38 10.12.2019
6440 Clouds 16 1015 59 10000 2.1 0 15:38 10.12.2019
6441 Clouds 16 1015 59 10000 2.1 0 15:18 10.12.2019
6442 Clouds 14 1015 62 10000 1 0 14:56 10.12.2019
6443 Clouds 14 1015 62 10000 1 0 14:38 10.12.2019
6444 Clouds 14 1015 62 10000 1 0 14:19 10.12.2019
6445 Clouds 14 1015 58 10000 2.1 0 13:57 10.12.2019
6446 Clouds 14 1015 58 10000 2.1 0 13:38 10.12.2019
6447 Clouds 14 1015 58 10000 2.1 0 13:19 10.12.2019
6448 Clouds 14 1015 58 10000 2.1 240 12:47 10.12.2019
6449 Clouds 14 1015 58 10000 2.1 240 12:27 10.12.2019
6450 Clouds 14 1015 58 10000 4.1 250 11:55 10.12.2019
6451 Clouds 14 1015 58 10000 4.1 250 11:36 10.12.2019
6452 Clouds 14 1015 58 10000 4.1 250 11:18 10.12.2019
6453 Clouds 14 1014 58 10000 3.6 250 10:42 10.12.2019
6454 Clouds 14 1014 58 10000 3.6 250 10:23 10.12.2019
6455 Clouds 14 1014 58 10000 4.1 250 09:57 10.12.2019
6456 Clouds 14 1014 58 10000 4.1 250 09:38 10.12.2019
6457 Clouds 14 1014 58 10000 4.1 250 09:38 10.12.2019
6458 Clouds 14 1014 58 10000 4.1 250 09:20 10.12.2019
6459 Clouds 14 1014 58 10000 3.6 260 08:57 10.12.2019
6460 Clouds 14 1014 58 10000 3.6 260 08:38 10.12.2019
6461 Clouds 14 1014 58 10000 3.6 260 08:19 10.12.2019
6462 Clouds 14 1014 58 10000 3.6 260 08:19 10.12.2019
6463 Clouds 14 1014 58 10000 4.1 250 07:44 10.12.2019
6464 Clouds 14 1014 58 10000 4.1 250 07:26 10.12.2019
6465 Clouds 15 1015 51 10000 3.1 260 06:49 10.12.2019
6466 Clouds 15 1015 51 10000 3.1 260 06:24 10.12.2019
6467 Clouds 15 1015 51 10000 4.1 260 05:55 10.12.2019
6468 Clouds 15 1015 47 10000 3.6 260 04:58 10.12.2019
6469 Clouds 15 1015 51 10000 4.1 270 03:40 10.12.2019
6470 Clouds 15 1015 51 10000 4.6 260 02:47 10.12.2019
6471 Clouds 16 1014 48 10000 4.1 270 01:50 10.12.2019
6472 Clouds 16 1014 48 10000 4.1 270 01:25 10.12.2019
6473 Clouds 16 1014 48 10000 5.1 280 00:43 10.12.2019
6474 Clouds 16 1014 48 10000 5.1 280 00:24 10.12.2019
6475 Clouds 18 1013 45 10000 4.6 280 23:43 09.12.2019
6476 Clouds 18 1013 45 10000 4.6 280 23:24 09.12.2019
6477 Clouds 18 1013 45 10000 6.2 270 22:58 09.12.2019
6478 Clouds 18 1013 45 10000 6.2 270 22:58 09.12.2019
6479 Clouds 18 1013 45 10000 6.2 270 22:40 09.12.2019
6480 Clouds 18 1013 45 10000 6.2 270 22:20 09.12.2019
6481 Clouds 19 1013 42 10000 6.2 270 21:57 09.12.2019
6482 Clouds 19 1013 42 10000 6.2 270 21:39 09.12.2019
6483 Clouds 19 1013 42 10000 6.2 270 21:39 09.12.2019
6484 Clouds 19 1013 42 10000 6.2 270 21:19 09.12.2019
6485 Clouds 19 1013 42 10000 6.7 270 20:57 09.12.2019
6486 Clouds 19 1013 42 10000 6.7 270 20:57 09.12.2019
6487 Clouds 19 1013 42 10000 6.7 270 20:39 09.12.2019
6488 Clouds 19 1013 42 10000 6.7 270 20:20 09.12.2019
6489 Clouds 19 1013 42 10000 6.2 270 19:56 09.12.2019
6490 Clouds 19 1013 42 10000 6.2 270 19:38 09.12.2019
6491 Clouds 19 1013 42 10000 6.2 270 19:19 09.12.2019
6492 Clouds 19 1013 42 10000 6.2 270 18:56 09.12.2019
6493 Clouds 19 1013 42 10000 6.2 270 18:38 09.12.2019
6494 Clouds 19 1013 42 10000 6.2 270 18:19 09.12.2019
6495 Clouds 18 1013 45 10000 5.1 290 17:57 09.12.2019
6496 Clouds 18 1013 45 10000 5.1 290 17:39 09.12.2019
6497 Clouds 18 1013 45 10000 5.1 290 17:20 09.12.2019
6498 Clouds 18 1013 48 10000 6.2 290 16:56 09.12.2019
6499 Clouds 18 1013 48 10000 6.2 290 16:37 09.12.2019
6500 Clouds 18 1013 48 10000 6.2 290 16:19 09.12.2019
6501 Clouds 17 1014 48 10000 4.6 270 15:55 09.12.2019
6502 Clouds 17 1014 48 10000 4.6 270 15:54 09.12.2019
6503 Clouds 17 1014 48 10000 4.6 270 15:36 09.12.2019
6504 Clouds 17 1014 48 10000 4.6 270 15:18 09.12.2019
6505 Clouds 16 1014 55 10000 2.1 0 14:41 09.12.2019
6506 Clouds 16 1014 55 10000 2.1 0 14:18 09.12.2019
6507 Clouds 14 1014 58 10000 2.6 0 13:56 09.12.2019
6508 Clouds 14 1014 58 10000 2.6 0 13:38 09.12.2019
6509 Clouds 14 1014 58 10000 2.6 0 13:19 09.12.2019
6510 Clouds 12 1015 66 10000 1.5 250 12:55 09.12.2019
6511 Clouds 12 1015 66 10000 1.5 250 12:37 09.12.2019
6512 Clouds 12 1015 66 10000 1.5 250 12:18 09.12.2019
6513 Clouds 10 1015 76 10000 2.1 300 11:41 09.12.2019
6514 Clouds 10 1015 76 10000 2.1 300 11:22 09.12.2019
6515 Clouds 10 1015 76 10000 2.1 300 11:22 09.12.2019
6516 Clouds 10 1014 76 10000 1 0 10:59 09.12.2019
6517 Clouds 10 1014 76 10000 1 0 10:39 09.12.2019
6518 Clouds 10 1014 76 10000 1 0 10:19 09.12.2019
6519 Clouds 10 1014 76 10000 1 0 09:55 09.12.2019
6520 Clouds 10 1014 76 10000 1 0 09:36 09.12.2019
6521 Clouds 10 1014 76 10000 1 0 09:18 09.12.2019
6522 Clouds 11 1015 66 10000 1.5 270 08:40 09.12.2019
6523 Clouds 11 1015 66 10000 1.5 270 08:22 09.12.2019
6524 Clouds 12 1015 66 10000 2.1 290 07:52 09.12.2019
6525 Clouds 12 1015 66 10000 2.1 290 07:34 09.12.2019
6526 Clouds 12 1016 62 10000 2.1 270 06:58 09.12.2019
6527 Clouds 12 1016 62 10000 2.1 270 06:31 09.12.2019
6528 Clouds 12 1016 62 10000 0.5 0 05:48 09.12.2019
6529 Clouds 12 1016 62 10000 0.5 0 05:48 09.12.2019
6530 Clouds 12 1016 62 10000 0.5 0 05:23 09.12.2019
6531 Clouds 15 1016 44 10000 1.5 0 04:28 09.12.2019
6532 Clouds 17 1016 39 10000 2.6 270 02:35 09.12.2019
6533 Clear 18 1015 39 10000 3.1 270 01:47 09.12.2019
6534 Clear 20 1015 37 10000 5.7 270 00:58 09.12.2019
6535 Clear 20 1015 37 10000 5.7 270 00:33 09.12.2019
6536 Clear 21 1014 35 10000 5.7 270 23:55 08.12.2019
6537 Clear 21 1014 35 10000 5.7 270 23:37 08.12.2019
6538 Clear 21 1014 35 10000 5.7 270 23:19 08.12.2019
6539 Clear 22 1014 33 10000 5.7 270 22:56 08.12.2019
6540 Clear 22 1014 33 10000 5.7 270 22:38 08.12.2019
6541 Clear 22 1014 33 10000 5.7 270 22:18 08.12.2019
6542 Clear 22 1014 35 10000 5.7 280 21:56 08.12.2019
6543 Clear 22 1014 35 10000 5.7 280 21:37 08.12.2019
6544 Clear 22 1014 35 10000 5.7 280 21:19 08.12.2019
6545 Clear 23 1014 35 10000 5.1 270 20:55 08.12.2019
6546 Clear 23 1014 35 10000 5.1 270 20:37 08.12.2019
6547 Clear 23 1014 35 10000 5.1 270 20:18 08.12.2019
6548 Clear 22 1014 37 10000 4.1 280 19:55 08.12.2019
6549 Clear 22 1014 37 10000 4.1 280 19:36 08.12.2019
6550 Clear 22 1014 37 10000 4.1 280 19:18 08.12.2019
6551 Clear 21 1015 37 10000 3.1 0 18:54 08.12.2019
6552 Clear 21 1015 37 10000 3.1 0 18:36 08.12.2019
6553 Clear 21 1015 37 10000 3.1 0 18:18 08.12.2019
6554 Clear 21 1016 37 10000 2.6 0 17:54 08.12.2019
6555 Clear 21 1016 37 10000 2.6 0 17:36 08.12.2019
6556 Clear 21 1016 37 10000 2.6 0 17:18 08.12.2019
6557 Clear 20 1016 49 10000 2.1 280 16:42 08.12.2019
6558 Clear 20 1016 49 10000 2.1 280 16:23 08.12.2019
6559 Clear 17 1017 55 10000 1.5 0 15:58 08.12.2019
6560 Clear 17 1017 55 10000 1.5 0 15:37 08.12.2019
6561 Clear 17 1017 55 10000 1.5 0 15:18 08.12.2019
6562 Clear 16 1017 59 10000 1 0 14:46 08.12.2019
6563 Clear 16 1017 59 10000 1 0 14:25 08.12.2019
6564 Clouds 13 1018 71 10000 1.5 230 13:59 08.12.2019
6565 Clouds 13 1018 71 10000 1.5 230 13:40 08.12.2019
6566 Clouds 13 1018 71 10000 1.5 230 13:22 08.12.2019
6567 Clouds 11 1019 81 10000 1.5 230 12:58 08.12.2019
6568 Clouds 11 1019 81 10000 1.5 230 12:58 08.12.2019
6569 Clouds 11 1019 81 10000 1.5 230 12:38 08.12.2019
6570 Clouds 11 1019 81 10000 1.5 230 12:19 08.12.2019
6571 Clouds 9 1018 87 10000 1.5 270 11:57 08.12.2019
6572 Clouds 9 1018 87 10000 1.5 270 11:37 08.12.2019
6573 Clouds 9 1018 87 10000 1.5 270 11:19 08.12.2019
6574 Clouds 10 1018 81 10000 1.5 300 10:40 08.12.2019
6575 Clouds 10 1018 81 10000 1.5 300 10:22 08.12.2019
6576 Clouds 10 1018 81 10000 0.5 290 09:58 08.12.2019
6577 Clouds 10 1018 81 10000 0.5 290 09:40 08.12.2019
6578 Clouds 10 1018 81 10000 0.5 290 09:21 08.12.2019
6579 Clouds 11 1018 76 10000 1 0 08:59 08.12.2019
6580 Clouds 11 1018 76 10000 1 0 08:41 08.12.2019
6581 Clouds 11 1018 76 10000 1 0 08:22 08.12.2019
6582 Clouds 11 1018 81 10000 1.5 270 07:49 08.12.2019
6583 Clouds 11 1018 81 10000 1.5 270 07:21 08.12.2019
6584 Clouds 12 1018 76 10000 0.5 0 06:53 08.12.2019
6585 Clouds 12 1018 76 10000 0.5 0 06:23 08.12.2019
6586 Clouds 14 1018 62 10000 1 0 05:58 08.12.2019
6587 Clouds 14 1018 62 10000 1 0 05:20 08.12.2019
6588 Clouds 17 1018 51 10000 2.1 290 03:55 08.12.2019
6589 Clouds 17 1018 51 10000 2.1 290 03:37 08.12.2019
6590 Clouds 17 1017 51 10000 2.1 310 02:40 08.12.2019
6591 Clouds 19 1016 45 10000 3.1 260 01:57 08.12.2019
6592 Clouds 19 1016 45 10000 3.1 260 01:33 08.12.2019
6593 Clouds 20 1016 40 10000 3.6 270 00:43 08.12.2019
6594 Clouds 20 1016 40 10000 3.6 270 00:21 08.12.2019
6595 Clouds 22 1015 33 10000 3.1 290 23:55 07.12.2019
6596 Clouds 22 1015 33 10000 3.1 290 23:36 07.12.2019
6597 Clear 22 1015 33 10000 3.1 290 23:18 07.12.2019
6598 Clear 22 1015 33 10000 3.6 0 22:54 07.12.2019
6599 Clear 22 1015 33 10000 3.6 0 22:54 07.12.2019
6600 Clear 22 1015 33 10000 3.6 0 22:36 07.12.2019
6601 Clear 22 1015 33 10000 3.6 0 22:18 07.12.2019
6602 Clear 23 1015 31 10000 2.1 0 21:54 07.12.2019
6603 Clear 23 1015 31 10000 2.1 0 21:36 07.12.2019
6604 Clear 23 1015 31 10000 2.1 0 21:18 07.12.2019
6605 Clear 23 1016 31 10000 2.6 0 20:37 07.12.2019
6606 Clear 23 1016 31 10000 2.6 0 20:19 07.12.2019
6607 Clear 22 1016 30 10000 2.6 0 19:56 07.12.2019
6608 Clear 22 1016 30 10000 2.6 0 19:38 07.12.2019
6609 Clear 22 1016 30 10000 2.6 0 19:20 07.12.2019
6610 Clear 21 1017 32 10000 2.1 0 18:44 07.12.2019
6611 Clear 21 1017 32 10000 2.1 0 18:21 07.12.2019
6612 Clear 20 1017 45 10000 2.6 280 17:59 07.12.2019
6613 Clear 20 1017 45 10000 2.6 280 17:41 07.12.2019
6614 Clear 20 1017 45 10000 2.6 280 17:23 07.12.2019
6615 Clear 18 1018 52 10000 2.1 0 16:58 07.12.2019
6616 Clear 18 1018 52 10000 2.1 0 16:39 07.12.2019
6617 Clear 18 1018 52 10000 2.1 0 16:20 07.12.2019
6618 Clear 15 1018 62 10000 2.6 300 15:57 07.12.2019
6619 Clear 15 1018 62 10000 2.6 300 15:57 07.12.2019
6620 Clear 15 1018 62 10000 2.6 300 15:38 07.12.2019
6621 Clear 15 1018 62 10000 2.6 300 15:20 07.12.2019
6622 Clear 13 1019 71 10000 1.5 0 14:42 07.12.2019
6623 Clouds 13 1019 71 10000 1.5 0 14:19 07.12.2019
6624 Clouds 11 1019 76 10000 2.1 290 13:56 07.12.2019
6625 Clouds 11 1019 76 10000 2.1 290 13:56 07.12.2019
6626 Clouds 11 1019 76 10000 2.1 290 13:37 07.12.2019
6627 Clouds 11 1019 76 10000 2.1 290 13:19 07.12.2019
6628 Clouds 10 1020 81 10000 2.1 280 12:41 07.12.2019
6629 Clouds 10 1020 81 10000 2.1 280 12:23 07.12.2019
6630 Clouds 8 1019 87 10000 1.5 290 11:58 07.12.2019
6631 Clouds 8 1019 87 10000 1.5 290 11:40 07.12.2019
6632 Clouds 8 1019 87 10000 1.5 290 11:22 07.12.2019
6633 Clouds 8 1019 87 10000 1 0 10:39 07.12.2019
6634 Clouds 8 1019 87 10000 1 0 10:39 07.12.2019
6635 Clouds 8 1019 87 10000 1 0 10:20 07.12.2019
6636 Clouds 9 1019 87 10000 1.5 300 09:58 07.12.2019
6637 Clouds 9 1019 87 10000 1.5 300 09:38 07.12.2019
6638 Clouds 9 1019 87 10000 1.5 300 09:19 07.12.2019
6639 Clouds 9 1019 87 10000 1 0 08:43 07.12.2019
6640 Clouds 9 1019 87 10000 1 0 08:21 07.12.2019
6641 Clouds 10 1019 81 10000 1.5 290 07:47 07.12.2019
6642 Clouds 10 1019 81 10000 1.5 290 07:27 07.12.2019
6643 Clouds 11 1019 76 10000 2.1 270 06:51 07.12.2019
6644 Clouds 11 1019 76 10000 2.1 270 06:25 07.12.2019
6645 Clouds 12 1019 71 10000 2.1 280 05:38 07.12.2019
6646 Clouds 13 1019 66 10000 1.5 270 04:19 07.12.2019
6647 Clouds 14 1019 62 10000 2.1 290 03:47 07.12.2019
6648 Clear 16 1019 55 10000 1.5 300 02:22 07.12.2019
6649 Clear 18 1018 48 10000 2.6 310 01:35 07.12.2019
6650 Clear 20 1017 40 10000 2.6 290 00:57 07.12.2019
6651 Clear 20 1017 40 10000 2.6 290 00:21 07.12.2019
6652 Clear 22 1017 33 10000 3.6 280 23:56 06.12.2019
6653 Clear 22 1017 33 10000 3.6 280 23:38 06.12.2019
6654 Clear 22 1017 33 10000 3.6 280 23:18 06.12.2019
6655 Clear 19 1015 46 0 3.87 251 22:39 06.12.2019
6656 Clear 19 1015 46 0 3.87 251 22:20 06.12.2019
6657 Clear 19 1015 46 0 3.87 251 21:58 06.12.2019
6658 Clear 19 1015 46 0 3.87 251 21:39 06.12.2019
6659 Clear 23 1017 28 10000 2.1 0 21:20 06.12.2019
6660 Clear 23 1017 28 10000 2.1 0 20:43 06.12.2019
6661 Clear 23 1017 28 10000 2.1 0 20:25 06.12.2019
6662 Clouds 21 1018 32 10000 2.1 0 19:59 06.12.2019
6663 Clouds 21 1018 32 10000 2.1 0 19:40 06.12.2019
6664 Clouds 21 1018 32 10000 2.1 0 19:22 06.12.2019
6665 Clouds 21 1018 32 10000 2.1 0 19:22 06.12.2019
6666 Clouds 21 1018 32 10000 2.1 0 19:22 06.12.2019
6667 Clouds 21 1018 32 10000 1.5 0 18:57 06.12.2019
6668 Clouds 21 1018 32 10000 1.5 0 18:39 06.12.2019
6669 Clouds 21 1018 32 10000 1.5 0 18:19 06.12.2019
6670 Clouds 21 1018 32 10000 1.5 0 18:19 06.12.2019
6671 Clouds 20 1019 37 10000 1.5 0 17:56 06.12.2019
6672 Clouds 20 1019 37 10000 1.5 0 17:37 06.12.2019
6673 Clouds 20 1019 37 10000 1.5 0 17:19 06.12.2019
6674 Clouds 18 1019 45 10000 3.1 290 16:43 06.12.2019
6675 Clouds 18 1019 45 10000 3.1 290 16:24 06.12.2019
6676 Clouds 15 1020 54 10000 3.1 300 15:59 06.12.2019
6677 Clouds 15 1020 54 10000 3.1 300 15:40 06.12.2019
6678 Clouds 15 1020 54 10000 3.1 300 15:18 06.12.2019
6679 Clouds 13 1021 62 10000 2.6 300 14:56 06.12.2019
6680 Clouds 13 1021 62 10000 2.6 300 14:37 06.12.2019
6681 Clouds 13 1021 62 10000 2.6 300 14:18 06.12.2019
6682 Clouds 11 1021 71 10000 2.6 280 13:42 06.12.2019
6683 Clear 11 1021 71 10000 2.6 280 13:24 06.12.2019
6684 Clear 9 1022 81 10000 1.5 270 12:42 06.12.2019
6685 Clear 9 1022 81 10000 1.5 270 12:22 06.12.2019
6686 Clear 7 1022 87 10000 1.5 260 11:57 06.12.2019
6687 Clear 7 1022 87 10000 1.5 260 11:39 06.12.2019
6688 Clear 7 1022 87 10000 1.5 260 11:19 06.12.2019
6689 Clear 7 1021 87 10000 2.1 300 10:43 06.12.2019
6690 Clear 7 1021 87 10000 2.1 300 10:21 06.12.2019
6691 Clear 8 1021 81 10000 1.5 290 09:58 06.12.2019
6692 Clear 8 1021 81 10000 1.5 290 09:37 06.12.2019
6693 Clear 8 1021 81 10000 1.5 290 09:19 06.12.2019
6694 Clear 9 1021 76 10000 1.5 260 08:45 06.12.2019
6695 Clear 9 1021 76 10000 1.5 260 08:26 06.12.2019
6696 Clouds 9 1021 81 10000 1.5 290 07:44 06.12.2019
6697 Clouds 9 1021 81 10000 1.5 290 07:24 06.12.2019
6698 Clouds 10 1021 71 10000 1.5 270 06:58 06.12.2019
6699 Clouds 10 1021 71 10000 1.5 270 06:26 06.12.2019
6700 Clouds 10 1022 76 10000 1 0 05:52 06.12.2019
6701 Clouds 12 1022 66 10000 2.1 300 04:52 06.12.2019
6702 Clouds 15 1021 51 10000 2.1 280 02:19 06.12.2019
6703 Clouds 16 1020 48 10000 3.1 310 01:22 06.12.2019
6704 Clouds 17 1020 42 10000 3.6 300 00:39 06.12.2019
6705 Clouds 17 1020 42 10000 3.6 300 00:20 06.12.2019
6706 Clouds 18 1019 39 10000 4.1 290 23:38 05.12.2019
6707 Clouds 18 1019 39 10000 4.1 290 23:18 05.12.2019
6708 Clouds 19 1018 37 10000 3.6 0 22:55 05.12.2019
6709 Clouds 19 1018 37 10000 3.6 0 22:37 05.12.2019
6710 Clouds 19 1018 37 10000 3.6 0 22:18 05.12.2019
6711 Clouds 20 1018 34 10000 3.6 270 21:42 05.12.2019
6712 Clouds 20 1018 34 10000 3.6 270 21:24 05.12.2019
6713 Clouds 16 1016 57 0 4.33 274 20:59 05.12.2019
6714 Clouds 16 1016 57 0 4.33 274 20:40 05.12.2019
6715 Clouds 16 1016 57 0 4.33 274 20:40 05.12.2019
6716 Clouds 21 1018 32 10000 3.1 0 20:20 05.12.2019
6717 Clouds 21 1018 32 10000 3.1 0 19:44 05.12.2019
6718 Clouds 21 1018 32 10000 3.1 0 19:26 05.12.2019
6719 Clouds 20 1018 34 10000 2.6 0 18:59 05.12.2019
6720 Clouds 20 1018 34 10000 2.6 0 18:39 05.12.2019
6721 Clouds 20 1018 34 10000 2.6 0 18:21 05.12.2019
6722 Clouds 19 1018 34 10000 2.1 0 17:59 05.12.2019
6723 Clouds 19 1018 34 10000 2.1